<?xml version='1.0' encoding='UTF-8'?><gpx version="1.1" creator="JPX - https://github.com/jenetics/jpx" xmlns="http://www.topografix.com/GPX/1/1"><trk><trkseg><trkpt lat="44.47950288622232" lon="7.872892584650667"><ele>364.0</ele><time>2026-04-16T16:21:59.998Z</time></trkpt><trkpt lat="44.47943098419549" lon="7.872864796147915"><ele>364.0</ele><time>2026-04-16T16:22:02.738Z</time></trkpt><trkpt lat="44.479381051538965" lon="7.872780739144236"><ele>364.0</ele><time>2026-04-16T16:22:04.998Z</time></trkpt><trkpt lat="44.47929819886737" lon="7.8728147416303145"><ele>364.0</ele><time>2026-04-16T16:22:16.998Z</time></trkpt><trkpt lat="44.47923197486069" lon="7.872827133484171"><ele>364.0</ele><time>2026-04-16T16:22:22.999Z</time></trkpt><trkpt lat="44.47911551913012" lon="7.8728367270260495"><ele>364.0</ele><time>2026-04-16T16:22:23.999Z</time></trkpt><trkpt lat="44.47906186770029" lon="7.872764605009815"><ele>364.0</ele><time>2026-04-16T16:22:25.999Z</time></trkpt><trkpt lat="44.479022926055606" lon="7.872607840046417"><ele>364.0</ele><time>2026-04-16T16:22:27.999Z</time></trkpt><trkpt lat="44.478989885358146" lon="7.872496348411077"><ele>364.0</ele><time>2026-04-16T16:22:28.999Z</time></trkpt><trkpt lat="44.47895923243507" lon="7.872358474439694"><ele>364.0</ele><time>2026-04-16T16:22:29.999Z</time></trkpt><trkpt lat="44.47892547515417" lon="7.872251147875176"><ele>364.0</ele><time>2026-04-16T16:22:30.999Z</time></trkpt><trkpt lat="44.478894006152885" lon="7.872138094439069"><ele>364.0</ele><time>2026-04-16T16:22:32Z</time></trkpt><trkpt lat="44.478851780884085" lon="7.872007532371326"><ele>364.0</ele><time>2026-04-16T16:22:33Z</time></trkpt><trkpt lat="44.47881275058464" lon="7.8718885053008565"><ele>364.0</ele><time>2026-04-16T16:22:34Z</time></trkpt><trkpt lat="44.47877860358032" lon="7.871731798080833"><ele>364.0</ele><time>2026-04-16T16:22:35Z</time></trkpt><trkpt lat="44.478734168734384" lon="7.871590481240999"><ele>364.0</ele><time>2026-04-16T16:22:36Z</time></trkpt><trkpt lat="44.47869333201359" lon="7.871463294104145"><ele>364.0</ele><time>2026-04-16T16:22:37Z</time></trkpt><trkpt lat="44.478660627277044" lon="7.871347911832287"><ele>364.0</ele><time>2026-04-16T16:22:38Z</time></trkpt><trkpt lat="44.47861908386489" lon="7.8712440203665475"><ele>364.0</ele><time>2026-04-16T16:22:39Z</time></trkpt><trkpt lat="44.4785917904707" lon="7.871159330346779"><ele>364.0</ele><time>2026-04-16T16:22:40Z</time></trkpt><trkpt lat="44.47858322392705" lon="7.8710660108921715"><ele>364.0</ele><time>2026-04-16T16:22:41Z</time></trkpt><trkpt lat="44.47857461250755" lon="7.870893044469181"><ele>364.0</ele><time>2026-04-16T16:22:43Z</time></trkpt><trkpt lat="44.478550233408484" lon="7.8707850190616195"><ele>363.79999999999995</ele><time>2026-04-16T16:22:44Z</time></trkpt><trkpt lat="44.478502614103775" lon="7.870702301620546"><ele>363.59999999999997</ele><time>2026-04-16T16:22:45Z</time></trkpt><trkpt lat="44.47845448142273" lon="7.870612628035676"><ele>363.4</ele><time>2026-04-16T16:22:46Z</time></trkpt><trkpt lat="44.478399944142474" lon="7.870471970378493"><ele>363.2</ele><time>2026-04-16T16:22:47Z</time></trkpt><trkpt lat="44.47836340480907" lon="7.870317918758912"><ele>363.0</ele><time>2026-04-16T16:22:48Z</time></trkpt><trkpt lat="44.47834461807552" lon="7.8701813199234545"><ele>362.79999999999995</ele><time>2026-04-16T16:22:49Z</time></trkpt><trkpt lat="44.47831930048476" lon="7.870038719193103"><ele>362.6</ele><time>2026-04-16T16:22:50Z</time></trkpt><trkpt lat="44.47831155926356" lon="7.869914247037872"><ele>362.4</ele><time>2026-04-16T16:22:51Z</time></trkpt><trkpt lat="44.47827269321947" lon="7.869811158898936"><ele>362.20000000000005</ele><time>2026-04-16T16:22:52Z</time></trkpt><trkpt lat="44.47824489501939" lon="7.869675430869619"><ele>362.0</ele><time>2026-04-16T16:22:53Z</time></trkpt><trkpt lat="44.478222618857515" lon="7.8695650097284435"><ele>362.0</ele><time>2026-04-16T16:22:54Z</time></trkpt><trkpt lat="44.47816674252085" lon="7.8694713983866205"><ele>362.0</ele><time>2026-04-16T16:22:55Z</time></trkpt><trkpt lat="44.47817034239125" lon="7.869342326042225"><ele>362.0</ele><time>2026-04-16T16:22:56Z</time></trkpt><trkpt lat="44.478148387759866" lon="7.869230562176309"><ele>362.0</ele><time>2026-04-16T16:22:57Z</time></trkpt><trkpt lat="44.47812175225693" lon="7.869101497620673"><ele>362.0</ele><time>2026-04-16T16:22:58Z</time></trkpt><trkpt lat="44.47809242538743" lon="7.868968720536194"><ele>362.0</ele><time>2026-04-16T16:22:59Z</time></trkpt><trkpt lat="44.478034344003774" lon="7.8688637250577536"><ele>362.0</ele><time>2026-04-16T16:22:59.999Z</time></trkpt><trkpt lat="44.478006485188295" lon="7.8687238822443195"><ele>362.0</ele><time>2026-04-16T16:23:00.999Z</time></trkpt><trkpt lat="44.47798072784602" lon="7.868594599730374"><ele>362.0</ele><time>2026-04-16T16:23:01.999Z</time></trkpt><trkpt lat="44.47795098219387" lon="7.868460027527295"><ele>362.0</ele><time>2026-04-16T16:23:02.999Z</time></trkpt><trkpt lat="44.47792047702019" lon="7.868322019153012"><ele>362.0</ele><time>2026-04-16T16:23:03.999Z</time></trkpt><trkpt lat="44.477891514319595" lon="7.868197282624715"><ele>362.0</ele><time>2026-04-16T16:23:04.999Z</time></trkpt><trkpt lat="44.47785560057901" lon="7.868040564201067"><ele>362.0</ele><time>2026-04-16T16:23:05.999Z</time></trkpt><trkpt lat="44.47782418692131" lon="7.867886693212291"><ele>362.0</ele><time>2026-04-16T16:23:06.999Z</time></trkpt><trkpt lat="44.47779674154267" lon="7.867747264543881"><ele>362.0</ele><time>2026-04-16T16:23:07.999Z</time></trkpt><trkpt lat="44.477789102179635" lon="7.867606658416014"><ele>362.40000000000003</ele><time>2026-04-16T16:23:08.999Z</time></trkpt><trkpt lat="44.477756399606136" lon="7.86747900328144"><ele>362.8</ele><time>2026-04-16T16:23:09.999Z</time></trkpt><trkpt lat="44.477720613507685" lon="7.867347925320789"><ele>363.2</ele><time>2026-04-16T16:23:10.999Z</time></trkpt><trkpt lat="44.477687881901105" lon="7.867232129943923"><ele>363.6</ele><time>2026-04-16T16:23:11.999Z</time></trkpt><trkpt lat="44.47765685250244" lon="7.8671019327710825"><ele>364.0</ele><time>2026-04-16T16:23:12.999Z</time></trkpt><trkpt lat="44.477623838501714" lon="7.866971078891814"><ele>364.0</ele><time>2026-04-16T16:23:13.999Z</time></trkpt><trkpt lat="44.47758943022333" lon="7.8668347588650045"><ele>364.0</ele><time>2026-04-16T16:23:14.999Z</time></trkpt><trkpt lat="44.477560127724985" lon="7.866711440558295"><ele>364.0</ele><time>2026-04-16T16:23:15.999Z</time></trkpt><trkpt lat="44.477532890989" lon="7.86657802172079"><ele>364.0</ele><time>2026-04-16T16:23:16.999Z</time></trkpt><trkpt lat="44.47750602686085" lon="7.866452592895155"><ele>364.0</ele><time>2026-04-16T16:23:17.999Z</time></trkpt><trkpt lat="44.47747804222838" lon="7.866311294309402"><ele>364.0</ele><time>2026-04-16T16:23:18.999Z</time></trkpt><trkpt lat="44.47745032410269" lon="7.866184785497652"><ele>364.0</ele><time>2026-04-16T16:23:19.999Z</time></trkpt><trkpt lat="44.477429691946824" lon="7.866064734956485"><ele>364.0</ele><time>2026-04-16T16:23:20.999Z</time></trkpt><trkpt lat="44.477410553271476" lon="7.865959911728357"><ele>364.0</ele><time>2026-04-16T16:23:21.999Z</time></trkpt><trkpt lat="44.47739530836183" lon="7.865857817108464"><ele>364.0</ele><time>2026-04-16T16:23:22.999Z</time></trkpt><trkpt lat="44.477368068746756" lon="7.865766527207672"><ele>364.0</ele><time>2026-04-16T16:23:23.999Z</time></trkpt><trkpt lat="44.47738225156669" lon="7.865594274044707"><ele>364.0</ele><time>2026-04-16T16:23:25.999Z</time></trkpt><trkpt lat="44.477415400744334" lon="7.8654992359148785"><ele>364.0</ele><time>2026-04-16T16:23:27.999Z</time></trkpt><trkpt lat="44.477460260558004" lon="7.865414481409081"><ele>364.0</ele><time>2026-04-16T16:23:35.999Z</time></trkpt><trkpt lat="44.4773324869773" lon="7.865253948836263"><ele>364.0</ele><time>2026-04-16T16:23:36.999Z</time></trkpt><trkpt lat="44.47727979502944" lon="7.8651899069566005"><ele>364.0</ele><time>2026-04-16T16:23:37.999Z</time></trkpt><trkpt lat="44.477210977169364" lon="7.865101019788968"><ele>364.0</ele><time>2026-04-16T16:23:38.999Z</time></trkpt><trkpt lat="44.47714723623463" lon="7.865002259374787"><ele>364.0</ele><time>2026-04-16T16:23:39.999Z</time></trkpt><trkpt lat="44.477063485973275" lon="7.864888760249183"><ele>364.0</ele><time>2026-04-16T16:23:40.999Z</time></trkpt><trkpt lat="44.47697938685159" lon="7.864768543412658"><ele>364.0</ele><time>2026-04-16T16:23:41.999Z</time></trkpt><trkpt lat="44.47689305930504" lon="7.864636538868151"><ele>363.75</ele><time>2026-04-16T16:23:42.999Z</time></trkpt><trkpt lat="44.47679984380782" lon="7.864498508148466"><ele>363.5</ele><time>2026-04-16T16:23:43.999Z</time></trkpt><trkpt lat="44.47671158001245" lon="7.864356034025997"><ele>363.25</ele><time>2026-04-16T16:23:44.999Z</time></trkpt><trkpt lat="44.476612317416574" lon="7.864201429408221"><ele>363.0</ele><time>2026-04-16T16:23:45.999Z</time></trkpt><trkpt lat="44.47650268226717" lon="7.864046912632995"><ele>363.6666666666667</ele><time>2026-04-16T16:23:46.999Z</time></trkpt><trkpt lat="44.476408853986634" lon="7.863884352231647"><ele>364.33333333333337</ele><time>2026-04-16T16:23:47.999Z</time></trkpt><trkpt lat="44.47629924454188" lon="7.863719314683446"><ele>365.0</ele><time>2026-04-16T16:23:48.999Z</time></trkpt><trkpt lat="44.47619112088375" lon="7.863548768185914"><ele>365.0</ele><time>2026-04-16T16:23:49.999Z</time></trkpt><trkpt lat="44.47607119658038" lon="7.863375109436126"><ele>365.0</ele><time>2026-04-16T16:23:50.999Z</time></trkpt><trkpt lat="44.47596161855576" lon="7.86322134856281"><ele>365.0</ele><time>2026-04-16T16:23:51.999Z</time></trkpt><trkpt lat="44.47585656659714" lon="7.863065279218971"><ele>365.0</ele><time>2026-04-16T16:23:52.999Z</time></trkpt><trkpt lat="44.4757558198453" lon="7.86291485509137"><ele>365.0</ele><time>2026-04-16T16:23:53.999Z</time></trkpt><trkpt lat="44.47565272297783" lon="7.862757111536912"><ele>365.0</ele><time>2026-04-16T16:23:54.999Z</time></trkpt><trkpt lat="44.47553520986782" lon="7.862599107501864"><ele>364.75</ele><time>2026-04-16T16:23:55.999Z</time></trkpt><trkpt lat="44.475430283847274" lon="7.862447444768302"><ele>364.5</ele><time>2026-04-16T16:23:56.999Z</time></trkpt><trkpt lat="44.475339689886276" lon="7.8622999629875565"><ele>364.25</ele><time>2026-04-16T16:23:57.999Z</time></trkpt><trkpt lat="44.47523883941442" lon="7.862156764623564"><ele>364.0</ele><time>2026-04-16T16:23:58.999Z</time></trkpt><trkpt lat="44.475133908462205" lon="7.862004267656043"><ele>364.0</ele><time>2026-04-16T16:23:59.999Z</time></trkpt><trkpt lat="44.47502975255745" lon="7.861849169226905"><ele>364.0</ele><time>2026-04-16T16:24:00.999Z</time></trkpt><trkpt lat="44.47492873352976" lon="7.861696183598334"><ele>364.0</ele><time>2026-04-16T16:24:01.999Z</time></trkpt><trkpt lat="44.47482542917445" lon="7.861534144345896"><ele>364.0</ele><time>2026-04-16T16:24:02.999Z</time></trkpt><trkpt lat="44.47472298066407" lon="7.861382409949251"><ele>364.0</ele><time>2026-04-16T16:24:03.999Z</time></trkpt><trkpt lat="44.4746306127555" lon="7.861214818137029"><ele>364.0</ele><time>2026-04-16T16:24:04.999Z</time></trkpt><trkpt lat="44.47456219718457" lon="7.861027457922732"><ele>364.0</ele><time>2026-04-16T16:24:05.999Z</time></trkpt><trkpt lat="44.47448066733757" lon="7.860850859244892"><ele>364.0</ele><time>2026-04-16T16:24:06.998Z</time></trkpt><trkpt lat="44.47442169382694" lon="7.860637804422081"><ele>364.0</ele><time>2026-04-16T16:24:07.998Z</time></trkpt><trkpt lat="44.474359288519786" lon="7.860437926484525"><ele>364.0</ele><time>2026-04-16T16:24:08.998Z</time></trkpt><trkpt lat="44.47430041698827" lon="7.860241819199069"><ele>364.0</ele><time>2026-04-16T16:24:09.998Z</time></trkpt><trkpt lat="44.474242590554134" lon="7.860032654614901"><ele>364.0</ele><time>2026-04-16T16:24:10.998Z</time></trkpt><trkpt lat="44.47420102415737" lon="7.859821912561867"><ele>364.3333333333333</ele><time>2026-04-16T16:24:11.998Z</time></trkpt><trkpt lat="44.474162898043296" lon="7.859613538764628"><ele>364.6666666666667</ele><time>2026-04-16T16:24:12.998Z</time></trkpt><trkpt lat="44.474137172261734" lon="7.859400530356036"><ele>365.0</ele><time>2026-04-16T16:24:13.998Z</time></trkpt><trkpt lat="44.47411356011851" lon="7.859184829304604"><ele>365.6666666666667</ele><time>2026-04-16T16:24:14.998Z</time></trkpt><trkpt lat="44.474095489379806" lon="7.858968975746401"><ele>366.3333333333333</ele><time>2026-04-16T16:24:15.998Z</time></trkpt><trkpt lat="44.47408128674593" lon="7.858747442732202"><ele>367.0</ele><time>2026-04-16T16:24:16.998Z</time></trkpt><trkpt lat="44.474078051599584" lon="7.858523173028396"><ele>366.3333333333333</ele><time>2026-04-16T16:24:17.998Z</time></trkpt><trkpt lat="44.474058922026714" lon="7.858297900161167"><ele>365.6666666666667</ele><time>2026-04-16T16:24:18.998Z</time></trkpt><trkpt lat="44.47404333442249" lon="7.858089594493111"><ele>365.0</ele><time>2026-04-16T16:24:19.998Z</time></trkpt><trkpt lat="44.47403628147435" lon="7.857871490603617"><ele>365.0</ele><time>2026-04-16T16:24:20.998Z</time></trkpt><trkpt lat="44.47403051069665" lon="7.857655298967257"><ele>365.0</ele><time>2026-04-16T16:24:21.998Z</time></trkpt><trkpt lat="44.474021159583714" lon="7.857438069628871"><ele>365.0</ele><time>2026-04-16T16:24:22.998Z</time></trkpt><trkpt lat="44.474001730211356" lon="7.857220654426219"><ele>365.33333333333337</ele><time>2026-04-16T16:24:23.998Z</time></trkpt><trkpt lat="44.47400020822194" lon="7.857004780158446"><ele>365.6666666666667</ele><time>2026-04-16T16:24:24.998Z</time></trkpt><trkpt lat="44.47399570929583" lon="7.856799868045256"><ele>366.0</ele><time>2026-04-16T16:24:25.998Z</time></trkpt><trkpt lat="44.473989518175124" lon="7.856586544719263"><ele>366.3333333333333</ele><time>2026-04-16T16:24:26.998Z</time></trkpt><trkpt lat="44.47397569181424" lon="7.856372335867403"><ele>366.66666666666663</ele><time>2026-04-16T16:24:27.998Z</time></trkpt><trkpt lat="44.47396860079241" lon="7.856171101059281"><ele>367.0</ele><time>2026-04-16T16:24:29Z</time></trkpt><trkpt lat="44.473958804808376" lon="7.8559501523050015"><ele>367.3333333333333</ele><time>2026-04-16T16:24:30Z</time></trkpt><trkpt lat="44.47394563035802" lon="7.855737367957177"><ele>367.6666666666667</ele><time>2026-04-16T16:24:31Z</time></trkpt><trkpt lat="44.47393603578898" lon="7.855518444116444"><ele>368.0</ele><time>2026-04-16T16:24:32Z</time></trkpt><trkpt lat="44.47392907398084" lon="7.855310004975237"><ele>368.33333333333337</ele><time>2026-04-16T16:24:33Z</time></trkpt><trkpt lat="44.4739187223637" lon="7.855106834227481"><ele>368.6666666666667</ele><time>2026-04-16T16:24:34Z</time></trkpt><trkpt lat="44.4739066072925" lon="7.854883867753819"><ele>369.0</ele><time>2026-04-16T16:24:35Z</time></trkpt><trkpt lat="44.47389863774454" lon="7.854669242891113"><ele>369.0</ele><time>2026-04-16T16:24:36Z</time></trkpt><trkpt lat="44.47388747198998" lon="7.854443999514066"><ele>369.0</ele><time>2026-04-16T16:24:37Z</time></trkpt><trkpt lat="44.47388431987598" lon="7.854229484758308"><ele>369.0</ele><time>2026-04-16T16:24:38Z</time></trkpt><trkpt lat="44.47387344158248" lon="7.8540149208427525"><ele>368.6666666666667</ele><time>2026-04-16T16:24:39Z</time></trkpt><trkpt lat="44.473857107232384" lon="7.853800326989512"><ele>368.33333333333337</ele><time>2026-04-16T16:24:40Z</time></trkpt><trkpt lat="44.47384036563192" lon="7.85358539029966"><ele>368.0</ele><time>2026-04-16T16:24:41Z</time></trkpt><trkpt lat="44.473803958762545" lon="7.853359547408381"><ele>368.0</ele><time>2026-04-16T16:24:42Z</time></trkpt><trkpt lat="44.47377551217642" lon="7.853145866686181"><ele>368.0</ele><time>2026-04-16T16:24:43Z</time></trkpt><trkpt lat="44.47375113480304" lon="7.852923757404913"><ele>368.0</ele><time>2026-04-16T16:24:44Z</time></trkpt><trkpt lat="44.473715711645646" lon="7.852703867768851"><ele>368.0</ele><time>2026-04-16T16:24:45Z</time></trkpt><trkpt lat="44.47368754674708" lon="7.8524860138685435"><ele>368.0</ele><time>2026-04-16T16:24:46Z</time></trkpt><trkpt lat="44.47365756052262" lon="7.852281080281674"><ele>368.0</ele><time>2026-04-16T16:24:47Z</time></trkpt><trkpt lat="44.47362932246383" lon="7.852075112883687"><ele>368.0</ele><time>2026-04-16T16:24:48Z</time></trkpt><trkpt lat="44.47359087179577" lon="7.8518704431866135"><ele>368.0</ele><time>2026-04-16T16:24:49Z</time></trkpt><trkpt lat="44.47355476730394" lon="7.851662933587583"><ele>368.0</ele><time>2026-04-16T16:24:50Z</time></trkpt><trkpt lat="44.47352211027173" lon="7.851469247148987"><ele>368.0</ele><time>2026-04-16T16:24:51Z</time></trkpt><trkpt lat="44.47350078404503" lon="7.851295980921811"><ele>368.5</ele><time>2026-04-16T16:24:52Z</time></trkpt><trkpt lat="44.47346557150943" lon="7.851099531946087"><ele>369.0</ele><time>2026-04-16T16:24:53Z</time></trkpt><trkpt lat="44.47342661942377" lon="7.850916534321501"><ele>369.5</ele><time>2026-04-16T16:24:54Z</time></trkpt><trkpt lat="44.4733884527561" lon="7.850730702839255"><ele>370.0</ele><time>2026-04-16T16:24:55Z</time></trkpt><trkpt lat="44.47337160461964" lon="7.850559720874231"><ele>370.0</ele><time>2026-04-16T16:24:56Z</time></trkpt><trkpt lat="44.47334482275369" lon="7.850388750945715"><ele>370.0</ele><time>2026-04-16T16:24:57Z</time></trkpt><trkpt lat="44.473314237651664" lon="7.850232110390025"><ele>370.0</ele><time>2026-04-16T16:24:58Z</time></trkpt><trkpt lat="44.47326951649146" lon="7.850050076503038"><ele>370.0</ele><time>2026-04-16T16:24:59Z</time></trkpt><trkpt lat="44.4732375250084" lon="7.849874385837281"><ele>370.0</ele><time>2026-04-16T16:25:00Z</time></trkpt><trkpt lat="44.47319759263211" lon="7.8497232335797245"><ele>370.0</ele><time>2026-04-16T16:25:01Z</time></trkpt><trkpt lat="44.47317265310177" lon="7.849577581688407"><ele>370.0</ele><time>2026-04-16T16:25:02Z</time></trkpt><trkpt lat="44.47314297707596" lon="7.849434412153095"><ele>370.0</ele><time>2026-04-16T16:25:03Z</time></trkpt><trkpt lat="44.4731054269973" lon="7.84928415491873"><ele>370.0</ele><time>2026-04-16T16:25:04Z</time></trkpt><trkpt lat="44.47306925283795" lon="7.849132891633282"><ele>370.2</ele><time>2026-04-16T16:25:05Z</time></trkpt><trkpt lat="44.47303107497217" lon="7.8489986564489636"><ele>370.4</ele><time>2026-04-16T16:25:06Z</time></trkpt><trkpt lat="44.47300292165008" lon="7.848868105631936"><ele>370.6</ele><time>2026-04-16T16:25:07Z</time></trkpt><trkpt lat="44.47296500043998" lon="7.848730924851567"><ele>370.8</ele><time>2026-04-16T16:25:08Z</time></trkpt><trkpt lat="44.472929274496884" lon="7.84859914260593"><ele>371.0</ele><time>2026-04-16T16:25:09Z</time></trkpt><trkpt lat="44.47289693093618" lon="7.848462191226342"><ele>370.5</ele><time>2026-04-16T16:25:09.999Z</time></trkpt><trkpt lat="44.47286155548781" lon="7.8483148019684394"><ele>370.0</ele><time>2026-04-16T16:25:10.999Z</time></trkpt><trkpt lat="44.472819266159405" lon="7.848155011583179"><ele>369.5</ele><time>2026-04-16T16:25:11.999Z</time></trkpt><trkpt lat="44.47276758526804" lon="7.8479882172342785"><ele>369.0</ele><time>2026-04-16T16:25:12.999Z</time></trkpt><trkpt lat="44.472724910934126" lon="7.847824898394992"><ele>369.0</ele><time>2026-04-16T16:25:13.999Z</time></trkpt><trkpt lat="44.47268783364806" lon="7.847653310026222"><ele>369.0</ele><time>2026-04-16T16:25:14.999Z</time></trkpt><trkpt lat="44.47265034915704" lon="7.847476760041135"><ele>369.0</ele><time>2026-04-16T16:25:15.999Z</time></trkpt><trkpt lat="44.4726084410883" lon="7.847284456262549"><ele>369.0</ele><time>2026-04-16T16:25:16.999Z</time></trkpt><trkpt lat="44.472557944458536" lon="7.8470946651562254"><ele>368.3333333333333</ele><time>2026-04-16T16:25:17.999Z</time></trkpt><trkpt lat="44.47249111102302" lon="7.846906283829928"><ele>367.66666666666663</ele><time>2026-04-16T16:25:18.999Z</time></trkpt><trkpt lat="44.47242301436284" lon="7.846721203258805"><ele>367.0</ele><time>2026-04-16T16:25:19.999Z</time></trkpt><trkpt lat="44.472340083838475" lon="7.8465410941911085"><ele>366.3333333333333</ele><time>2026-04-16T16:25:20.999Z</time></trkpt><trkpt lat="44.47225055071404" lon="7.846371935244465"><ele>365.6666666666667</ele><time>2026-04-16T16:25:21.999Z</time></trkpt><trkpt lat="44.472170220009644" lon="7.846192440352819"><ele>365.0</ele><time>2026-04-16T16:25:22.999Z</time></trkpt><trkpt lat="44.47209018999809" lon="7.846013521929463"><ele>365.6666666666667</ele><time>2026-04-16T16:25:23.999Z</time></trkpt><trkpt lat="44.47199992685093" lon="7.8458226953242916"><ele>366.3333333333333</ele><time>2026-04-16T16:25:24.999Z</time></trkpt><trkpt lat="44.471933182869456" lon="7.845626192709815"><ele>367.0</ele><time>2026-04-16T16:25:25.999Z</time></trkpt><trkpt lat="44.47184608777895" lon="7.845462135140793"><ele>367.0</ele><time>2026-04-16T16:25:26.999Z</time></trkpt><trkpt lat="44.471763319550696" lon="7.845290143975595"><ele>367.0</ele><time>2026-04-16T16:25:27.999Z</time></trkpt><trkpt lat="44.471686178233135" lon="7.8450967758241665"><ele>367.0</ele><time>2026-04-16T16:25:28.999Z</time></trkpt><trkpt lat="44.47160728904466" lon="7.84491534749118"><ele>367.25</ele><time>2026-04-16T16:25:29.999Z</time></trkpt><trkpt lat="44.471534591848354" lon="7.844747765600332"><ele>367.5</ele><time>2026-04-16T16:25:30.999Z</time></trkpt><trkpt lat="44.47147187122569" lon="7.844567645012415"><ele>367.75</ele><time>2026-04-16T16:25:31.999Z</time></trkpt><trkpt lat="44.471415868592" lon="7.844368092566707"><ele>368.0</ele><time>2026-04-16T16:25:32.999Z</time></trkpt><trkpt lat="44.47137702808032" lon="7.844172057539242"><ele>368.33333333333337</ele><time>2026-04-16T16:25:33.999Z</time></trkpt><trkpt lat="44.47134413761081" lon="7.843965009809572"><ele>368.6666666666667</ele><time>2026-04-16T16:25:34.999Z</time></trkpt><trkpt lat="44.47131818033063" lon="7.843753369055757"><ele>369.0</ele><time>2026-04-16T16:25:35.999Z</time></trkpt><trkpt lat="44.47130038988352" lon="7.843549053128756"><ele>369.0</ele><time>2026-04-16T16:25:36.999Z</time></trkpt><trkpt lat="44.4712754332185" lon="7.8433374654966945"><ele>369.0</ele><time>2026-04-16T16:25:37.999Z</time></trkpt><trkpt lat="44.47125287659533" lon="7.843121688638847"><ele>369.0</ele><time>2026-04-16T16:25:38.999Z</time></trkpt><trkpt lat="44.47122860791892" lon="7.842922897127707"><ele>369.0</ele><time>2026-04-16T16:25:39.999Z</time></trkpt><trkpt lat="44.47120320228894" lon="7.842716517121448"><ele>369.0</ele><time>2026-04-16T16:25:40.999Z</time></trkpt><trkpt lat="44.47117368223373" lon="7.842516228376207"><ele>369.0</ele><time>2026-04-16T16:25:41.999Z</time></trkpt><trkpt lat="44.471149454534974" lon="7.842310256594599"><ele>369.0</ele><time>2026-04-16T16:25:42.999Z</time></trkpt><trkpt lat="44.471122004641" lon="7.842106245526512"><ele>369.0</ele><time>2026-04-16T16:25:43.999Z</time></trkpt><trkpt lat="44.471094567525" lon="7.841898750244369"><ele>369.0</ele><time>2026-04-16T16:25:44.999Z</time></trkpt><trkpt lat="44.471066825247156" lon="7.841698217191042"><ele>369.0</ele><time>2026-04-16T16:25:45.999Z</time></trkpt><trkpt lat="44.471033438522106" lon="7.841501364626138"><ele>369.0</ele><time>2026-04-16T16:25:46.999Z</time></trkpt><trkpt lat="44.47099497948907" lon="7.841295899457275"><ele>369.0</ele><time>2026-04-16T16:25:47.999Z</time></trkpt><trkpt lat="44.47095646951528" lon="7.841090732100087"><ele>369.0</ele><time>2026-04-16T16:25:48.999Z</time></trkpt><trkpt lat="44.47090900941167" lon="7.840884065156622"><ele>369.0</ele><time>2026-04-16T16:25:49.999Z</time></trkpt><trkpt lat="44.470858816023934" lon="7.840686305407028"><ele>369.25</ele><time>2026-04-16T16:25:50.999Z</time></trkpt><trkpt lat="44.47080745710331" lon="7.840491145390211"><ele>369.5</ele><time>2026-04-16T16:25:51.999Z</time></trkpt><trkpt lat="44.47074754359126" lon="7.840297576023407"><ele>369.75</ele><time>2026-04-16T16:25:52.999Z</time></trkpt><trkpt lat="44.47069194460812" lon="7.840108282226017"><ele>370.0</ele><time>2026-04-16T16:25:53.999Z</time></trkpt><trkpt lat="44.470633207135855" lon="7.839917294042225"><ele>370.3333333333333</ele><time>2026-04-16T16:25:54.999Z</time></trkpt><trkpt lat="44.470561018804524" lon="7.839727639146993"><ele>370.6666666666667</ele><time>2026-04-16T16:25:55.999Z</time></trkpt><trkpt lat="44.47048134817753" lon="7.839539826022019"><ele>371.0</ele><time>2026-04-16T16:25:56.999Z</time></trkpt><trkpt lat="44.47039896004644" lon="7.839344973400663"><ele>371.0</ele><time>2026-04-16T16:25:57.999Z</time></trkpt><trkpt lat="44.470318848508704" lon="7.839144720948195"><ele>371.0</ele><time>2026-04-16T16:25:58.999Z</time></trkpt><trkpt lat="44.47023147784141" lon="7.8389487229361805"><ele>371.0</ele><time>2026-04-16T16:25:59.999Z</time></trkpt><trkpt lat="44.470130252849046" lon="7.8387543652486835"><ele>371.0</ele><time>2026-04-16T16:26:00.999Z</time></trkpt><trkpt lat="44.47003321055582" lon="7.838575873063622"><ele>371.0</ele><time>2026-04-16T16:26:01.999Z</time></trkpt><trkpt lat="44.46993697364397" lon="7.838399019323957"><ele>371.0</ele><time>2026-04-16T16:26:02.999Z</time></trkpt><trkpt lat="44.469834849275486" lon="7.838225503337439"><ele>371.0</ele><time>2026-04-16T16:26:03.999Z</time></trkpt><trkpt lat="44.469730764419694" lon="7.838048672376361"><ele>371.0</ele><time>2026-04-16T16:26:04.999Z</time></trkpt><trkpt lat="44.469625278029824" lon="7.837873740729597"><ele>371.0</ele><time>2026-04-16T16:26:05.999Z</time></trkpt><trkpt lat="44.46951808366003" lon="7.837698016449334"><ele>371.0</ele><time>2026-04-16T16:26:06.999Z</time></trkpt><trkpt lat="44.469412763948476" lon="7.837524832599069"><ele>371.0</ele><time>2026-04-16T16:26:07.999Z</time></trkpt><trkpt lat="44.469306520563975" lon="7.837353201512895"><ele>371.0</ele><time>2026-04-16T16:26:08.999Z</time></trkpt><trkpt lat="44.469198225747455" lon="7.837183399681527"><ele>371.0</ele><time>2026-04-16T16:26:09.999Z</time></trkpt><trkpt lat="44.46909014548346" lon="7.837011800215787"><ele>371.0</ele><time>2026-04-16T16:26:10.999Z</time></trkpt><trkpt lat="44.4689858294566" lon="7.836852193295804"><ele>371.0</ele><time>2026-04-16T16:26:11.999Z</time></trkpt><trkpt lat="44.46888081744996" lon="7.836685505446369"><ele>371.6666666666667</ele><time>2026-04-16T16:26:12.999Z</time></trkpt><trkpt lat="44.46877573910005" lon="7.836517615231371"><ele>372.3333333333333</ele><time>2026-04-16T16:26:13.999Z</time></trkpt><trkpt lat="44.468667655078555" lon="7.836356903788368"><ele>373.0</ele><time>2026-04-16T16:26:14.999Z</time></trkpt><trkpt lat="44.468562011627455" lon="7.836185939205048"><ele>373.0</ele><time>2026-04-16T16:26:15.999Z</time></trkpt><trkpt lat="44.46845284095882" lon="7.836013484695334"><ele>373.0</ele><time>2026-04-16T16:26:16.999Z</time></trkpt><trkpt lat="44.46834438125775" lon="7.835846542184446"><ele>373.0</ele><time>2026-04-16T16:26:17.998Z</time></trkpt><trkpt lat="44.46823539511649" lon="7.835673925715018"><ele>372.66666666666663</ele><time>2026-04-16T16:26:18.998Z</time></trkpt><trkpt lat="44.46813790580737" lon="7.835520966226323"><ele>372.3333333333333</ele><time>2026-04-16T16:26:19.998Z</time></trkpt><trkpt lat="44.46803817660874" lon="7.835351202312115"><ele>372.0</ele><time>2026-04-16T16:26:20.998Z</time></trkpt><trkpt lat="44.467937310583864" lon="7.8351824884429115"><ele>372.3333333333333</ele><time>2026-04-16T16:26:21.998Z</time></trkpt><trkpt lat="44.46783661513012" lon="7.835007586337989"><ele>372.66666666666663</ele><time>2026-04-16T16:26:22.998Z</time></trkpt><trkpt lat="44.46773928651364" lon="7.834844164722976"><ele>373.0</ele><time>2026-04-16T16:26:23.998Z</time></trkpt><trkpt lat="44.46764274631683" lon="7.834658158964378"><ele>373.0</ele><time>2026-04-16T16:26:24.998Z</time></trkpt><trkpt lat="44.467541340776606" lon="7.834490481388895"><ele>373.0</ele><time>2026-04-16T16:26:25.998Z</time></trkpt><trkpt lat="44.46744195196733" lon="7.834327740792421"><ele>373.0</ele><time>2026-04-16T16:26:26.998Z</time></trkpt><trkpt lat="44.46734182974139" lon="7.834136977164899"><ele>373.0</ele><time>2026-04-16T16:26:27.998Z</time></trkpt><trkpt lat="44.467233291038866" lon="7.83397956570916"><ele>373.0</ele><time>2026-04-16T16:26:28.998Z</time></trkpt><trkpt lat="44.46713545433291" lon="7.833827126806826"><ele>373.0</ele><time>2026-04-16T16:26:29.998Z</time></trkpt><trkpt lat="44.46703338550972" lon="7.833665745510856"><ele>373.0</ele><time>2026-04-16T16:26:30.998Z</time></trkpt><trkpt lat="44.46693662933604" lon="7.8335226262293896"><ele>373.0</ele><time>2026-04-16T16:26:31.998Z</time></trkpt><trkpt lat="44.4668346486727" lon="7.8333615931838185"><ele>373.0</ele><time>2026-04-16T16:26:32.998Z</time></trkpt><trkpt lat="44.46673545593329" lon="7.8331983891815415"><ele>373.0</ele><time>2026-04-16T16:26:33.998Z</time></trkpt><trkpt lat="44.466629549315" lon="7.833039936385906"><ele>373.0</ele><time>2026-04-16T16:26:35Z</time></trkpt><trkpt lat="44.46652803083904" lon="7.832881252883072"><ele>373.0</ele><time>2026-04-16T16:26:36Z</time></trkpt><trkpt lat="44.466428578208934" lon="7.832715124263074"><ele>373.0</ele><time>2026-04-16T16:26:37Z</time></trkpt><trkpt lat="44.4663251918007" lon="7.832545086424976"><ele>373.66666666666663</ele><time>2026-04-16T16:26:38Z</time></trkpt><trkpt lat="44.466220974662924" lon="7.832381244616454"><ele>374.3333333333333</ele><time>2026-04-16T16:26:39Z</time></trkpt><trkpt lat="44.466117242683985" lon="7.832217209271914"><ele>375.0</ele><time>2026-04-16T16:26:40Z</time></trkpt><trkpt lat="44.46601353005727" lon="7.832053251649184"><ele>375.0</ele><time>2026-04-16T16:26:41Z</time></trkpt><trkpt lat="44.46590329851953" lon="7.831882895727125"><ele>375.0</ele><time>2026-04-16T16:26:42Z</time></trkpt><trkpt lat="44.46579143237935" lon="7.831711839172324"><ele>375.0</ele><time>2026-04-16T16:26:43Z</time></trkpt><trkpt lat="44.46568194819285" lon="7.831542975897132"><ele>375.3333333333333</ele><time>2026-04-16T16:26:44Z</time></trkpt><trkpt lat="44.465580149558306" lon="7.831394250587867"><ele>375.66666666666663</ele><time>2026-04-16T16:26:45Z</time></trkpt><trkpt lat="44.46547460124674" lon="7.8312292674269"><ele>376.0</ele><time>2026-04-16T16:26:46Z</time></trkpt><trkpt lat="44.46537026573075" lon="7.831065931337039"><ele>375.3333333333333</ele><time>2026-04-16T16:26:47Z</time></trkpt><trkpt lat="44.465262965827" lon="7.830892020855197"><ele>374.6666666666667</ele><time>2026-04-16T16:26:48Z</time></trkpt><trkpt lat="44.46515247151772" lon="7.830720645682169"><ele>374.0</ele><time>2026-04-16T16:26:49Z</time></trkpt><trkpt lat="44.46503758456772" lon="7.83053211581586"><ele>374.0</ele><time>2026-04-16T16:26:50Z</time></trkpt><trkpt lat="44.46492167383381" lon="7.83034228637112"><ele>374.0</ele><time>2026-04-16T16:26:51Z</time></trkpt><trkpt lat="44.46480660737626" lon="7.83015640501816"><ele>374.0</ele><time>2026-04-16T16:26:52Z</time></trkpt><trkpt lat="44.464689284654" lon="7.829971408957678"><ele>374.6666666666667</ele><time>2026-04-16T16:26:53Z</time></trkpt><trkpt lat="44.46457232446806" lon="7.829780953412829"><ele>375.3333333333333</ele><time>2026-04-16T16:26:54Z</time></trkpt><trkpt lat="44.46445352722722" lon="7.829595366180078"><ele>376.0</ele><time>2026-04-16T16:26:55Z</time></trkpt><trkpt lat="44.46433345179624" lon="7.829402378310593"><ele>376.0</ele><time>2026-04-16T16:26:56Z</time></trkpt><trkpt lat="44.464206783529995" lon="7.8292002665179865"><ele>376.0</ele><time>2026-04-16T16:26:57Z</time></trkpt><trkpt lat="44.464081862983484" lon="7.829007221257684"><ele>376.0</ele><time>2026-04-16T16:26:58Z</time></trkpt><trkpt lat="44.46395768364209" lon="7.8288160161183304"><ele>376.0</ele><time>2026-04-16T16:26:59Z</time></trkpt><trkpt lat="44.46383554792294" lon="7.828612916886108"><ele>376.0</ele><time>2026-04-16T16:27:00Z</time></trkpt><trkpt lat="44.463709026460776" lon="7.828413596927367"><ele>376.0</ele><time>2026-04-16T16:27:01Z</time></trkpt><trkpt lat="44.463579961964285" lon="7.828211583671499"><ele>376.0</ele><time>2026-04-16T16:27:02Z</time></trkpt><trkpt lat="44.463451308825924" lon="7.828013991887177"><ele>376.0</ele><time>2026-04-16T16:27:03Z</time></trkpt><trkpt lat="44.46332304292925" lon="7.827804280652255"><ele>376.0</ele><time>2026-04-16T16:27:04Z</time></trkpt><trkpt lat="44.46319585928576" lon="7.827600222548892"><ele>376.0</ele><time>2026-04-16T16:27:05Z</time></trkpt><trkpt lat="44.463069468703495" lon="7.827401022641581"><ele>376.0</ele><time>2026-04-16T16:27:06Z</time></trkpt><trkpt lat="44.462943209181084" lon="7.827199320609626"><ele>376.0</ele><time>2026-04-16T16:27:07Z</time></trkpt><trkpt lat="44.462816587535166" lon="7.826998439163494"><ele>375.0</ele><time>2026-04-16T16:27:08Z</time></trkpt><trkpt lat="44.46268759054469" lon="7.826786683338414"><ele>374.0</ele><time>2026-04-16T16:27:09Z</time></trkpt><trkpt lat="44.46255543209959" lon="7.826567752183245"><ele>373.0</ele><time>2026-04-16T16:27:10Z</time></trkpt><trkpt lat="44.46242759413348" lon="7.826345246627883"><ele>373.0</ele><time>2026-04-16T16:27:11Z</time></trkpt><trkpt lat="44.462304781884434" lon="7.82610832684471"><ele>373.0</ele><time>2026-04-16T16:27:12Z</time></trkpt><trkpt lat="44.46219212327193" lon="7.8258876769093"><ele>373.0</ele><time>2026-04-16T16:27:13Z</time></trkpt><trkpt lat="44.462089736611226" lon="7.825677424926657"><ele>373.66666666666663</ele><time>2026-04-16T16:27:14Z</time></trkpt><trkpt lat="44.4619880966782" lon="7.825464454152285"><ele>374.3333333333333</ele><time>2026-04-16T16:27:15Z</time></trkpt><trkpt lat="44.4619001383918" lon="7.825261804892946"><ele>375.0</ele><time>2026-04-16T16:27:16Z</time></trkpt><trkpt lat="44.46181696170624" lon="7.825063186322069"><ele>375.5</ele><time>2026-04-16T16:27:17Z</time></trkpt><trkpt lat="44.4617447312228" lon="7.824888519926033"><ele>376.0</ele><time>2026-04-16T16:27:18Z</time></trkpt><trkpt lat="44.46167332589632" lon="7.824716029751013"><ele>376.5</ele><time>2026-04-16T16:27:19Z</time></trkpt><trkpt lat="44.461605761213335" lon="7.8245506239030185"><ele>377.0</ele><time>2026-04-16T16:27:20Z</time></trkpt><trkpt lat="44.461547839082094" lon="7.824396651300925"><ele>377.20000000000005</ele><time>2026-04-16T16:27:20.999Z</time></trkpt><trkpt lat="44.46149357894209" lon="7.824249719588684"><ele>377.4</ele><time>2026-04-16T16:27:21.999Z</time></trkpt><trkpt lat="44.461447856880525" lon="7.8241187192566075"><ele>377.6</ele><time>2026-04-16T16:27:22.999Z</time></trkpt><trkpt lat="44.46141294328159" lon="7.824007591294952"><ele>377.79999999999995</ele><time>2026-04-16T16:27:23.999Z</time></trkpt><trkpt lat="44.46138935753828" lon="7.823896392792322"><ele>378.0</ele><time>2026-04-16T16:27:24.999Z</time></trkpt><trkpt lat="44.46136889835288" lon="7.8237809426412825"><ele>378.0</ele><time>2026-04-16T16:27:25.999Z</time></trkpt><trkpt lat="44.46133002537575" lon="7.823664265934709"><ele>378.0</ele><time>2026-04-16T16:27:26.999Z</time></trkpt><trkpt lat="44.46127444044764" lon="7.823552278399229"><ele>378.0</ele><time>2026-04-16T16:27:27.999Z</time></trkpt><trkpt lat="44.461207808123035" lon="7.82343669217739"><ele>378.0</ele><time>2026-04-16T16:27:28.999Z</time></trkpt><trkpt lat="44.46113082977289" lon="7.823325859783538"><ele>378.0</ele><time>2026-04-16T16:27:29.999Z</time></trkpt><trkpt lat="44.461077625162645" lon="7.8231629448311635"><ele>378.0</ele><time>2026-04-16T16:27:30.999Z</time></trkpt><trkpt lat="44.46101182392829" lon="7.823013952174079"><ele>378.0</ele><time>2026-04-16T16:27:31.999Z</time></trkpt><trkpt lat="44.460940326107085" lon="7.822848594927286"><ele>378.0</ele><time>2026-04-16T16:27:32.999Z</time></trkpt><trkpt lat="44.460866008248644" lon="7.822676742372007"><ele>378.0</ele><time>2026-04-16T16:27:33.999Z</time></trkpt><trkpt lat="44.46078292748407" lon="7.822502487266276"><ele>378.0</ele><time>2026-04-16T16:27:34.999Z</time></trkpt><trkpt lat="44.46070035849592" lon="7.822324534724247"><ele>378.0</ele><time>2026-04-16T16:27:35.999Z</time></trkpt><trkpt lat="44.460618690420844" lon="7.822127644320814"><ele>378.0</ele><time>2026-04-16T16:27:36.999Z</time></trkpt><trkpt lat="44.460534238881365" lon="7.821923496264749"><ele>377.6666666666667</ele><time>2026-04-16T16:27:37.999Z</time></trkpt><trkpt lat="44.460451443681656" lon="7.821716987196903"><ele>377.33333333333337</ele><time>2026-04-16T16:27:38.999Z</time></trkpt><trkpt lat="44.46036798305674" lon="7.82151432187091"><ele>377.0</ele><time>2026-04-16T16:27:39.999Z</time></trkpt><trkpt lat="44.460278696805446" lon="7.8213028161336124"><ele>377.6666666666667</ele><time>2026-04-16T16:27:40.999Z</time></trkpt><trkpt lat="44.46018340080766" lon="7.821084152264711"><ele>378.3333333333333</ele><time>2026-04-16T16:27:41.999Z</time></trkpt><trkpt lat="44.46009096150366" lon="7.820867236870706"><ele>379.0</ele><time>2026-04-16T16:27:42.999Z</time></trkpt><trkpt lat="44.45999724376434" lon="7.820645122025585"><ele>379.0</ele><time>2026-04-16T16:27:43.999Z</time></trkpt><trkpt lat="44.45990301600873" lon="7.820414948727852"><ele>379.0</ele><time>2026-04-16T16:27:44.999Z</time></trkpt><trkpt lat="44.4598127622482" lon="7.820193305266052"><ele>379.0</ele><time>2026-04-16T16:27:45.999Z</time></trkpt><trkpt lat="44.45972582403014" lon="7.8199880871895475"><ele>379.0</ele><time>2026-04-16T16:27:46.999Z</time></trkpt><trkpt lat="44.45963636874778" lon="7.819780632937917"><ele>379.0</ele><time>2026-04-16T16:27:47.999Z</time></trkpt><trkpt lat="44.45954998780975" lon="7.81957661485201"><ele>379.0</ele><time>2026-04-16T16:27:48.999Z</time></trkpt><trkpt lat="44.459465149678714" lon="7.819374319300273"><ele>380.0</ele><time>2026-04-16T16:27:49.999Z</time></trkpt><trkpt lat="44.4593825674051" lon="7.81916991540121"><ele>381.0</ele><time>2026-04-16T16:27:50.999Z</time></trkpt><trkpt lat="44.4592990692817" lon="7.818962101937675"><ele>382.0</ele><time>2026-04-16T16:27:51.999Z</time></trkpt><trkpt lat="44.45921351548758" lon="7.818748391883455"><ele>382.0</ele><time>2026-04-16T16:27:52.999Z</time></trkpt><trkpt lat="44.45913661312475" lon="7.818549759308185"><ele>382.0</ele><time>2026-04-16T16:27:53.999Z</time></trkpt><trkpt lat="44.45905050769494" lon="7.818340907564069"><ele>382.0</ele><time>2026-04-16T16:27:54.999Z</time></trkpt><trkpt lat="44.45896828265739" lon="7.8181352233941155"><ele>381.66666666666663</ele><time>2026-04-16T16:27:55.999Z</time></trkpt><trkpt lat="44.45888001575235" lon="7.8179242962989655"><ele>381.3333333333333</ele><time>2026-04-16T16:27:56.999Z</time></trkpt><trkpt lat="44.458791638735725" lon="7.817714338747423"><ele>381.0</ele><time>2026-04-16T16:27:57.999Z</time></trkpt><trkpt lat="44.45871591168808" lon="7.81750865763986"><ele>380.6666666666667</ele><time>2026-04-16T16:27:58.999Z</time></trkpt><trkpt lat="44.45862899498365" lon="7.817300870730056"><ele>380.33333333333337</ele><time>2026-04-16T16:27:59.999Z</time></trkpt><trkpt lat="44.458541924598016" lon="7.8170870183616925"><ele>380.0</ele><time>2026-04-16T16:28:00.999Z</time></trkpt><trkpt lat="44.45845421548004" lon="7.816868577680444"><ele>380.0</ele><time>2026-04-16T16:28:01.999Z</time></trkpt><trkpt lat="44.45836938996883" lon="7.816652342684053"><ele>380.0</ele><time>2026-04-16T16:28:02.999Z</time></trkpt><trkpt lat="44.45828015948246" lon="7.816443543284759"><ele>380.0</ele><time>2026-04-16T16:28:03.999Z</time></trkpt><trkpt lat="44.45819479889774" lon="7.816237214355639"><ele>380.0</ele><time>2026-04-16T16:28:04.999Z</time></trkpt><trkpt lat="44.458105008503104" lon="7.81602731896906"><ele>380.0</ele><time>2026-04-16T16:28:05.999Z</time></trkpt><trkpt lat="44.458013796669725" lon="7.815816164725706"><ele>380.0</ele><time>2026-04-16T16:28:06.999Z</time></trkpt><trkpt lat="44.45792295229339" lon="7.81560135929655"><ele>380.0</ele><time>2026-04-16T16:28:07.999Z</time></trkpt><trkpt lat="44.45783848697557" lon="7.815381913055946"><ele>380.0</ele><time>2026-04-16T16:28:08.999Z</time></trkpt><trkpt lat="44.45775374479269" lon="7.8151616802684405"><ele>380.0</ele><time>2026-04-16T16:28:09.999Z</time></trkpt><trkpt lat="44.45766821841545" lon="7.814952580269157"><ele>380.0</ele><time>2026-04-16T16:28:10.999Z</time></trkpt><trkpt lat="44.457582071592185" lon="7.814745507047366"><ele>380.0</ele><time>2026-04-16T16:28:11.999Z</time></trkpt><trkpt lat="44.45749320356214" lon="7.814529930249015"><ele>380.0</ele><time>2026-04-16T16:28:12.999Z</time></trkpt><trkpt lat="44.4574076458197" lon="7.814319460960949"><ele>380.33333333333337</ele><time>2026-04-16T16:28:13.999Z</time></trkpt><trkpt lat="44.457325729201415" lon="7.8141101705038825"><ele>380.6666666666667</ele><time>2026-04-16T16:28:14.999Z</time></trkpt><trkpt lat="44.4572357679694" lon="7.813901954418409"><ele>381.0</ele><time>2026-04-16T16:28:15.999Z</time></trkpt><trkpt lat="44.457143731513334" lon="7.813684718150101"><ele>381.0</ele><time>2026-04-16T16:28:16.999Z</time></trkpt><trkpt lat="44.457051121839136" lon="7.8134704281829395"><ele>381.0</ele><time>2026-04-16T16:28:17.999Z</time></trkpt><trkpt lat="44.45696422523894" lon="7.81326379331716"><ele>381.0</ele><time>2026-04-16T16:28:18.999Z</time></trkpt><trkpt lat="44.456876327044434" lon="7.813037727066772"><ele>381.0</ele><time>2026-04-16T16:28:19.999Z</time></trkpt><trkpt lat="44.4567812527094" lon="7.812832711972428"><ele>381.0</ele><time>2026-04-16T16:28:20.999Z</time></trkpt><trkpt lat="44.456693888729745" lon="7.81262391209146"><ele>381.0</ele><time>2026-04-16T16:28:21.999Z</time></trkpt><trkpt lat="44.456606989396796" lon="7.812412930544938"><ele>381.0</ele><time>2026-04-16T16:28:22.999Z</time></trkpt><trkpt lat="44.456512401425115" lon="7.81220004795307"><ele>381.0</ele><time>2026-04-16T16:28:23.999Z</time></trkpt><trkpt lat="44.45642878819758" lon="7.811981215557035"><ele>381.0</ele><time>2026-04-16T16:28:24.999Z</time></trkpt><trkpt lat="44.45634138539669" lon="7.811772860174661"><ele>381.6666666666667</ele><time>2026-04-16T16:28:25.999Z</time></trkpt><trkpt lat="44.45625949235037" lon="7.81158321569735"><ele>382.33333333333337</ele><time>2026-04-16T16:28:26.999Z</time></trkpt><trkpt lat="44.45618059811546" lon="7.8113855730375"><ele>383.0</ele><time>2026-04-16T16:28:27.999Z</time></trkpt><trkpt lat="44.45609910057233" lon="7.811191366081875"><ele>383.0</ele><time>2026-04-16T16:28:28.998Z</time></trkpt><trkpt lat="44.456016376035016" lon="7.810994383630765"><ele>383.0</ele><time>2026-04-16T16:28:29.998Z</time></trkpt><trkpt lat="44.45593669419411" lon="7.810808979694685"><ele>383.0</ele><time>2026-04-16T16:28:30.998Z</time></trkpt><trkpt lat="44.45585400199402" lon="7.810611879613237"><ele>383.0</ele><time>2026-04-16T16:28:31.998Z</time></trkpt><trkpt lat="44.45577139596993" lon="7.810407574185818"><ele>383.0</ele><time>2026-04-16T16:28:32.998Z</time></trkpt><trkpt lat="44.455685661069865" lon="7.81021204490554"><ele>383.0</ele><time>2026-04-16T16:28:33.998Z</time></trkpt><trkpt lat="44.45560263247051" lon="7.81000717530972"><ele>383.0</ele><time>2026-04-16T16:28:34.998Z</time></trkpt><trkpt lat="44.45552126907095" lon="7.8098026828121645"><ele>383.0</ele><time>2026-04-16T16:28:35.998Z</time></trkpt><trkpt lat="44.45544096926109" lon="7.809584153987873"><ele>383.0</ele><time>2026-04-16T16:28:36.998Z</time></trkpt><trkpt lat="44.455353014690694" lon="7.809366983348286"><ele>383.6666666666667</ele><time>2026-04-16T16:28:37.998Z</time></trkpt><trkpt lat="44.45526498104175" lon="7.809165618850272"><ele>384.33333333333337</ele><time>2026-04-16T16:28:38.998Z</time></trkpt><trkpt lat="44.455176646329235" lon="7.808945583304507"><ele>385.0</ele><time>2026-04-16T16:28:39.998Z</time></trkpt><trkpt lat="44.45508979308242" lon="7.808726638885698"><ele>385.0</ele><time>2026-04-16T16:28:41Z</time></trkpt><trkpt lat="44.45500070846534" lon="7.808504174995645"><ele>385.0</ele><time>2026-04-16T16:28:42Z</time></trkpt><trkpt lat="44.45491329821623" lon="7.808285386687498"><ele>385.0</ele><time>2026-04-16T16:28:43Z</time></trkpt><trkpt lat="44.45481884300205" lon="7.80807581923934"><ele>385.0</ele><time>2026-04-16T16:28:44Z</time></trkpt><trkpt lat="44.45472577152323" lon="7.807861350402858"><ele>385.0</ele><time>2026-04-16T16:28:45Z</time></trkpt><trkpt lat="44.454632671549" lon="7.807645773427421"><ele>385.0</ele><time>2026-04-16T16:28:46Z</time></trkpt><trkpt lat="44.45454422916917" lon="7.80743428266448"><ele>385.0</ele><time>2026-04-16T16:28:47Z</time></trkpt><trkpt lat="44.454448433029725" lon="7.807207657621388"><ele>385.0</ele><time>2026-04-16T16:28:48Z</time></trkpt><trkpt lat="44.45435510728466" lon="7.806980351255231"><ele>385.0</ele><time>2026-04-16T16:28:49Z</time></trkpt><trkpt lat="44.45426419068387" lon="7.806753137904998"><ele>385.33333333333337</ele><time>2026-04-16T16:28:50Z</time></trkpt><trkpt lat="44.45417155252806" lon="7.806530319759065"><ele>385.66666666666663</ele><time>2026-04-16T16:28:51Z</time></trkpt><trkpt lat="44.45407803798607" lon="7.806303471229047"><ele>386.0</ele><time>2026-04-16T16:28:52Z</time></trkpt><trkpt lat="44.453983474063605" lon="7.806078838119368"><ele>385.66666666666663</ele><time>2026-04-16T16:28:53Z</time></trkpt><trkpt lat="44.45389027035622" lon="7.80584791392795"><ele>385.33333333333337</ele><time>2026-04-16T16:28:54Z</time></trkpt><trkpt lat="44.453797089518105" lon="7.8056154318905095"><ele>385.0</ele><time>2026-04-16T16:28:55Z</time></trkpt><trkpt lat="44.45370579933116" lon="7.805386988764635"><ele>385.33333333333337</ele><time>2026-04-16T16:28:56Z</time></trkpt><trkpt lat="44.45361374197372" lon="7.805157000096371"><ele>385.66666666666663</ele><time>2026-04-16T16:28:57Z</time></trkpt><trkpt lat="44.45352137135106" lon="7.8049309196631045"><ele>386.0</ele><time>2026-04-16T16:28:58Z</time></trkpt><trkpt lat="44.453427102297674" lon="7.804702135047124"><ele>386.0</ele><time>2026-04-16T16:28:59Z</time></trkpt><trkpt lat="44.45333270116781" lon="7.8044743824798966"><ele>386.0</ele><time>2026-04-16T16:29:00Z</time></trkpt><trkpt lat="44.45323957724763" lon="7.804250657237901"><ele>386.0</ele><time>2026-04-16T16:29:01Z</time></trkpt><trkpt lat="44.453151095213975" lon="7.804027859904778"><ele>386.0</ele><time>2026-04-16T16:29:02Z</time></trkpt><trkpt lat="44.45305719558396" lon="7.803804813510586"><ele>386.0</ele><time>2026-04-16T16:29:03Z</time></trkpt><trkpt lat="44.452964723452645" lon="7.803578845220758"><ele>386.0</ele><time>2026-04-16T16:29:04Z</time></trkpt><trkpt lat="44.452873350677244" lon="7.803354267788215"><ele>386.0</ele><time>2026-04-16T16:29:05Z</time></trkpt><trkpt lat="44.45278130676749" lon="7.803131145722842"><ele>386.0</ele><time>2026-04-16T16:29:06Z</time></trkpt><trkpt lat="44.45269209451852" lon="7.8029045459249415"><ele>386.0</ele><time>2026-04-16T16:29:07Z</time></trkpt><trkpt lat="44.45259943727645" lon="7.802684020976075"><ele>386.0</ele><time>2026-04-16T16:29:08Z</time></trkpt><trkpt lat="44.45250093765006" lon="7.802466188036278"><ele>386.0</ele><time>2026-04-16T16:29:09Z</time></trkpt><trkpt lat="44.45240689158015" lon="7.802247846502519"><ele>386.0</ele><time>2026-04-16T16:29:10Z</time></trkpt><trkpt lat="44.45231030350156" lon="7.80202401653135"><ele>386.3333333333333</ele><time>2026-04-16T16:29:11Z</time></trkpt><trkpt lat="44.452217949324336" lon="7.801800088288835"><ele>386.66666666666663</ele><time>2026-04-16T16:29:12Z</time></trkpt><trkpt lat="44.45212114382232" lon="7.801567763491269"><ele>387.0</ele><time>2026-04-16T16:29:13Z</time></trkpt><trkpt lat="44.45202245930851" lon="7.801326275904505"><ele>387.33333333333337</ele><time>2026-04-16T16:29:14Z</time></trkpt><trkpt lat="44.45192133990621" lon="7.801086643191255"><ele>387.6666666666667</ele><time>2026-04-16T16:29:15Z</time></trkpt><trkpt lat="44.45181795471693" lon="7.800834663156919"><ele>388.0</ele><time>2026-04-16T16:29:16Z</time></trkpt><trkpt lat="44.45171626894844" lon="7.80058937082938"><ele>388.0</ele><time>2026-04-16T16:29:17Z</time></trkpt><trkpt lat="44.451609358544005" lon="7.800340787764622"><ele>388.0</ele><time>2026-04-16T16:29:18Z</time></trkpt><trkpt lat="44.45150321388247" lon="7.800083502685402"><ele>388.0</ele><time>2026-04-16T16:29:19Z</time></trkpt><trkpt lat="44.451403327199266" lon="7.799837075090866"><ele>388.33333333333337</ele><time>2026-04-16T16:29:20Z</time></trkpt><trkpt lat="44.45129947476189" lon="7.799598920448554"><ele>388.66666666666663</ele><time>2026-04-16T16:29:21Z</time></trkpt><trkpt lat="44.4511977445086" lon="7.799363236372488"><ele>389.0</ele><time>2026-04-16T16:29:22Z</time></trkpt><trkpt lat="44.45109561398869" lon="7.79912365429993"><ele>389.0</ele><time>2026-04-16T16:29:23Z</time></trkpt><trkpt lat="44.45098822070408" lon="7.79889708167838"><ele>389.0</ele><time>2026-04-16T16:29:24Z</time></trkpt><trkpt lat="44.450872951335036" lon="7.798667284402368"><ele>389.0</ele><time>2026-04-16T16:29:25Z</time></trkpt><trkpt lat="44.45075260798911" lon="7.798441881314512"><ele>389.0</ele><time>2026-04-16T16:29:26Z</time></trkpt><trkpt lat="44.45063214488678" lon="7.798214492655353"><ele>389.0</ele><time>2026-04-16T16:29:27Z</time></trkpt><trkpt lat="44.450504357179234" lon="7.797998251732899"><ele>389.0</ele><time>2026-04-16T16:29:28Z</time></trkpt><trkpt lat="44.45037796053837" lon="7.7977797630159404"><ele>389.0</ele><time>2026-04-16T16:29:28.999Z</time></trkpt><trkpt lat="44.45024059255074" lon="7.797550334402211"><ele>389.0</ele><time>2026-04-16T16:29:29.999Z</time></trkpt><trkpt lat="44.450099835738214" lon="7.797340057058043"><ele>389.0</ele><time>2026-04-16T16:29:30.999Z</time></trkpt><trkpt lat="44.449950920162436" lon="7.797130184253515"><ele>389.0</ele><time>2026-04-16T16:29:31.999Z</time></trkpt><trkpt lat="44.44980080362806" lon="7.796924444420872"><ele>389.0</ele><time>2026-04-16T16:29:32.999Z</time></trkpt><trkpt lat="44.44964621706033" lon="7.796726498216"><ele>389.0</ele><time>2026-04-16T16:29:33.999Z</time></trkpt><trkpt lat="44.44948886494223" lon="7.7965311199386065"><ele>388.3333333333333</ele><time>2026-04-16T16:29:34.999Z</time></trkpt><trkpt lat="44.44932307465283" lon="7.79633357495536"><ele>387.66666666666663</ele><time>2026-04-16T16:29:35.999Z</time></trkpt><trkpt lat="44.44915586461396" lon="7.7961489042845065"><ele>387.0</ele><time>2026-04-16T16:29:36.999Z</time></trkpt><trkpt lat="44.44899094304551" lon="7.795954385132164"><ele>387.0</ele><time>2026-04-16T16:29:37.999Z</time></trkpt><trkpt lat="44.448825984894995" lon="7.795768802619658"><ele>387.0</ele><time>2026-04-16T16:29:38.999Z</time></trkpt><trkpt lat="44.44866060245613" lon="7.795574207919852"><ele>387.0</ele><time>2026-04-16T16:29:39.999Z</time></trkpt><trkpt lat="44.44850354824135" lon="7.795391784192953"><ele>386.66666666666663</ele><time>2026-04-16T16:29:40.999Z</time></trkpt><trkpt lat="44.448337677482556" lon="7.7952016759946945"><ele>386.3333333333333</ele><time>2026-04-16T16:29:41.999Z</time></trkpt><trkpt lat="44.448175837635056" lon="7.7950132253570334"><ele>386.0</ele><time>2026-04-16T16:29:42.999Z</time></trkpt><trkpt lat="44.448010507765375" lon="7.794824886786605"><ele>386.0</ele><time>2026-04-16T16:29:43.999Z</time></trkpt><trkpt lat="44.447854011346536" lon="7.79463317473868"><ele>386.0</ele><time>2026-04-16T16:29:44.999Z</time></trkpt><trkpt lat="44.447687430649886" lon="7.794435427109321"><ele>386.0</ele><time>2026-04-16T16:29:45.999Z</time></trkpt><trkpt lat="44.44752337566626" lon="7.794250815110748"><ele>386.0</ele><time>2026-04-16T16:29:46.999Z</time></trkpt><trkpt lat="44.447359076943826" lon="7.794063216849427"><ele>386.0</ele><time>2026-04-16T16:29:47.999Z</time></trkpt><trkpt lat="44.44719277933664" lon="7.793870786165102"><ele>386.0</ele><time>2026-04-16T16:29:48.999Z</time></trkpt><trkpt lat="44.447032050183054" lon="7.793687937026041"><ele>386.0</ele><time>2026-04-16T16:29:49.999Z</time></trkpt><trkpt lat="44.44686947633184" lon="7.793496330398841"><ele>386.0</ele><time>2026-04-16T16:29:50.999Z</time></trkpt><trkpt lat="44.4467062904394" lon="7.793297218433397"><ele>386.0</ele><time>2026-04-16T16:29:51.999Z</time></trkpt><trkpt lat="44.44654931654113" lon="7.793099080558098"><ele>386.0</ele><time>2026-04-16T16:29:52.999Z</time></trkpt><trkpt lat="44.4463878655584" lon="7.792914324648377"><ele>386.0</ele><time>2026-04-16T16:29:53.999Z</time></trkpt><trkpt lat="44.446224042761344" lon="7.79271853786833"><ele>386.0</ele><time>2026-04-16T16:29:54.999Z</time></trkpt><trkpt lat="44.44606985789576" lon="7.792514847623101"><ele>385.66666666666663</ele><time>2026-04-16T16:29:55.999Z</time></trkpt><trkpt lat="44.44593314778662" lon="7.792306194040299"><ele>385.33333333333337</ele><time>2026-04-16T16:29:56.999Z</time></trkpt><trkpt lat="44.44579522348014" lon="7.7920987555558225"><ele>385.0</ele><time>2026-04-16T16:29:57.999Z</time></trkpt><trkpt lat="44.445661785626726" lon="7.7918783723899505"><ele>385.6666666666667</ele><time>2026-04-16T16:29:58.999Z</time></trkpt><trkpt lat="44.44553583557649" lon="7.79165685007988"><ele>386.33333333333337</ele><time>2026-04-16T16:29:59.999Z</time></trkpt><trkpt lat="44.44541595022914" lon="7.791435245132872"><ele>387.0</ele><time>2026-04-16T16:30:00.999Z</time></trkpt><trkpt lat="44.445300127005424" lon="7.791204825877721"><ele>387.66666666666663</ele><time>2026-04-16T16:30:01.999Z</time></trkpt><trkpt lat="44.44519206146103" lon="7.790971395883321"><ele>388.3333333333333</ele><time>2026-04-16T16:30:02.999Z</time></trkpt><trkpt lat="44.445087707507625" lon="7.790734032867254"><ele>389.0</ele><time>2026-04-16T16:30:03.999Z</time></trkpt><trkpt lat="44.44499401592749" lon="7.790486510412376"><ele>389.0</ele><time>2026-04-16T16:30:04.999Z</time></trkpt><trkpt lat="44.44490412027368" lon="7.7902432754206155"><ele>389.0</ele><time>2026-04-16T16:30:05.999Z</time></trkpt><trkpt lat="44.4448263120176" lon="7.790011022190372"><ele>389.0</ele><time>2026-04-16T16:30:06.999Z</time></trkpt><trkpt lat="44.44475435513899" lon="7.7897778004284435"><ele>389.0</ele><time>2026-04-16T16:30:07.999Z</time></trkpt><trkpt lat="44.44468672694015" lon="7.789558853346325"><ele>389.0</ele><time>2026-04-16T16:30:08.999Z</time></trkpt><trkpt lat="44.4446178595944" lon="7.789346443910452"><ele>389.0</ele><time>2026-04-16T16:30:09.999Z</time></trkpt><trkpt lat="44.44455527396272" lon="7.789148577562786"><ele>389.0</ele><time>2026-04-16T16:30:10.999Z</time></trkpt><trkpt lat="44.44448880533911" lon="7.788955139966344"><ele>389.0</ele><time>2026-04-16T16:30:11.999Z</time></trkpt><trkpt lat="44.444429039351576" lon="7.788776970228196"><ele>389.0</ele><time>2026-04-16T16:30:12.999Z</time></trkpt><trkpt lat="44.444382269008756" lon="7.788611437691506"><ele>389.0</ele><time>2026-04-16T16:30:13.999Z</time></trkpt><trkpt lat="44.44434088297946" lon="7.788456216369387"><ele>389.2</ele><time>2026-04-16T16:30:14.999Z</time></trkpt><trkpt lat="44.44430362587357" lon="7.788314136565406"><ele>389.4</ele><time>2026-04-16T16:30:15.999Z</time></trkpt><trkpt lat="44.44427974259813" lon="7.788186248825239"><ele>389.6</ele><time>2026-04-16T16:30:16.999Z</time></trkpt><trkpt lat="44.444263952054165" lon="7.7880628636855205"><ele>389.8</ele><time>2026-04-16T16:30:17.999Z</time></trkpt><trkpt lat="44.444255980227226" lon="7.787935213377343"><ele>390.0</ele><time>2026-04-16T16:30:18.999Z</time></trkpt><trkpt lat="44.444251683473304" lon="7.787816155265874"><ele>390.0</ele><time>2026-04-16T16:30:19.999Z</time></trkpt><trkpt lat="44.44424318373718" lon="7.7877093416490135"><ele>390.0</ele><time>2026-04-16T16:30:20.999Z</time></trkpt><trkpt lat="44.44421614707618" lon="7.787629283849234"><ele>390.0</ele><time>2026-04-16T16:30:21.999Z</time></trkpt><trkpt lat="44.44416057621045" lon="7.787555106892026"><ele>390.0</ele><time>2026-04-16T16:30:22.999Z</time></trkpt><trkpt lat="44.44408726550679" lon="7.787470463546723"><ele>390.0</ele><time>2026-04-16T16:30:23.999Z</time></trkpt><trkpt lat="44.44401917057413" lon="7.787364753026136"><ele>390.0</ele><time>2026-04-16T16:30:24.999Z</time></trkpt><trkpt lat="44.443963526235926" lon="7.787239014495369"><ele>390.25</ele><time>2026-04-16T16:30:25.999Z</time></trkpt><trkpt lat="44.4439073170101" lon="7.787104593916887"><ele>390.5</ele><time>2026-04-16T16:30:26.999Z</time></trkpt><trkpt lat="44.44385777660051" lon="7.786957735893487"><ele>390.75</ele><time>2026-04-16T16:30:27.999Z</time></trkpt><trkpt lat="44.443805990959184" lon="7.786797543982847"><ele>391.0</ele><time>2026-04-16T16:30:28.999Z</time></trkpt><trkpt lat="44.44375167963553" lon="7.7866253559021255"><ele>391.6666666666667</ele><time>2026-04-16T16:30:29.999Z</time></trkpt><trkpt lat="44.44368804933498" lon="7.7864408727498"><ele>392.33333333333337</ele><time>2026-04-16T16:30:30.999Z</time></trkpt><trkpt lat="44.44362434642442" lon="7.78624097820548"><ele>393.0</ele><time>2026-04-16T16:30:31.999Z</time></trkpt><trkpt lat="44.44356758507973" lon="7.7860485069199115"><ele>392.33333333333337</ele><time>2026-04-16T16:30:32.999Z</time></trkpt><trkpt lat="44.44351036637473" lon="7.7858578327228924"><ele>391.6666666666667</ele><time>2026-04-16T16:30:33.999Z</time></trkpt><trkpt lat="44.443439225041104" lon="7.7856573795194555"><ele>391.0</ele><time>2026-04-16T16:30:34.999Z</time></trkpt><trkpt lat="44.44337080586737" lon="7.785445184810514"><ele>391.0</ele><time>2026-04-16T16:30:35.998Z</time></trkpt><trkpt lat="44.443305511163246" lon="7.785223501920065"><ele>391.0</ele><time>2026-04-16T16:30:36.998Z</time></trkpt><trkpt lat="44.443237439929796" lon="7.785008358835552"><ele>391.0</ele><time>2026-04-16T16:30:37.998Z</time></trkpt><trkpt lat="44.44317032737071" lon="7.784780054219961"><ele>391.0</ele><time>2026-04-16T16:30:38.998Z</time></trkpt><trkpt lat="44.443101463542156" lon="7.784547997809046"><ele>391.0</ele><time>2026-04-16T16:30:39.998Z</time></trkpt><trkpt lat="44.44303070640221" lon="7.784308548560341"><ele>391.0</ele><time>2026-04-16T16:30:40.998Z</time></trkpt><trkpt lat="44.44296436927442" lon="7.784067029864288"><ele>390.6666666666667</ele><time>2026-04-16T16:30:41.998Z</time></trkpt><trkpt lat="44.4428947675296" lon="7.783819314646537"><ele>390.33333333333337</ele><time>2026-04-16T16:30:42.998Z</time></trkpt><trkpt lat="44.44282379565804" lon="7.783571697015301"><ele>390.0</ele><time>2026-04-16T16:30:43.998Z</time></trkpt><trkpt lat="44.44275344838552" lon="7.783327372655917"><ele>391.0</ele><time>2026-04-16T16:30:44.998Z</time></trkpt><trkpt lat="44.4426842292313" lon="7.783072804522463"><ele>392.0</ele><time>2026-04-16T16:30:45.998Z</time></trkpt><trkpt lat="44.442616521437074" lon="7.782825546215757"><ele>393.0</ele><time>2026-04-16T16:30:47Z</time></trkpt><trkpt lat="44.44254160334752" lon="7.782563732812524"><ele>393.33333333333337</ele><time>2026-04-16T16:30:48Z</time></trkpt><trkpt lat="44.44246579474404" lon="7.78230781226574"><ele>393.6666666666667</ele><time>2026-04-16T16:30:49Z</time></trkpt><trkpt lat="44.442393199168926" lon="7.782051090503331"><ele>394.0</ele><time>2026-04-16T16:30:50Z</time></trkpt><trkpt lat="44.44231787790034" lon="7.781788413093871"><ele>394.6666666666667</ele><time>2026-04-16T16:30:51Z</time></trkpt><trkpt lat="44.44223824867148" lon="7.781521091769262"><ele>395.33333333333337</ele><time>2026-04-16T16:30:52Z</time></trkpt><trkpt lat="44.44215863995574" lon="7.781255418400899"><ele>396.0</ele><time>2026-04-16T16:30:53Z</time></trkpt><trkpt lat="44.442081629339995" lon="7.780988603587954"><ele>396.33333333333337</ele><time>2026-04-16T16:30:54Z</time></trkpt><trkpt lat="44.442006280225215" lon="7.780721361762378"><ele>396.6666666666667</ele><time>2026-04-16T16:30:55Z</time></trkpt><trkpt lat="44.44193242689368" lon="7.780455378158324"><ele>397.0</ele><time>2026-04-16T16:30:56Z</time></trkpt><trkpt lat="44.441865656366794" lon="7.780210141839476"><ele>397.0</ele><time>2026-04-16T16:30:57Z</time></trkpt><trkpt lat="44.44179905710206" lon="7.779968354624165"><ele>397.0</ele><time>2026-04-16T16:30:58Z</time></trkpt><trkpt lat="44.441732834893216" lon="7.779731123928505"><ele>397.0</ele><time>2026-04-16T16:30:59Z</time></trkpt><trkpt lat="44.44166979944221" lon="7.779509062217751"><ele>397.33333333333337</ele><time>2026-04-16T16:31:00Z</time></trkpt><trkpt lat="44.44159855246147" lon="7.77928681258448"><ele>397.66666666666663</ele><time>2026-04-16T16:31:01Z</time></trkpt><trkpt lat="44.44152044022665" lon="7.779072928399362"><ele>398.0</ele><time>2026-04-16T16:31:02Z</time></trkpt><trkpt lat="44.44144023077455" lon="7.778853581143228"><ele>398.0</ele><time>2026-04-16T16:31:03Z</time></trkpt><trkpt lat="44.44136091853476" lon="7.778659736799941"><ele>398.0</ele><time>2026-04-16T16:31:04Z</time></trkpt><trkpt lat="44.4412814254322" lon="7.778468591435012"><ele>398.0</ele><time>2026-04-16T16:31:05Z</time></trkpt><trkpt lat="44.441202476686236" lon="7.7782866599086065"><ele>397.66666666666663</ele><time>2026-04-16T16:31:06Z</time></trkpt><trkpt lat="44.44112609571538" lon="7.7781048436670766"><ele>397.33333333333337</ele><time>2026-04-16T16:31:07Z</time></trkpt><trkpt lat="44.4410523196824" lon="7.777907424714994"><ele>397.0</ele><time>2026-04-16T16:31:08Z</time></trkpt><trkpt lat="44.4409811150674" lon="7.777721004703785"><ele>397.25</ele><time>2026-04-16T16:31:09Z</time></trkpt><trkpt lat="44.44090763675488" lon="7.777536924687172"><ele>397.5</ele><time>2026-04-16T16:31:10Z</time></trkpt><trkpt lat="44.4408373221419" lon="7.777360347104633"><ele>397.75</ele><time>2026-04-16T16:31:11Z</time></trkpt><trkpt lat="44.44076689405281" lon="7.777183235132556"><ele>398.0</ele><time>2026-04-16T16:31:12Z</time></trkpt><trkpt lat="44.44070388652214" lon="7.7770017095126525"><ele>398.0</ele><time>2026-04-16T16:31:13Z</time></trkpt><trkpt lat="44.44064550202133" lon="7.776821231254014"><ele>398.0</ele><time>2026-04-16T16:31:14Z</time></trkpt><trkpt lat="44.44058898499668" lon="7.776634689581664"><ele>398.0</ele><time>2026-04-16T16:31:15Z</time></trkpt><trkpt lat="44.44052711895895" lon="7.776437226135795"><ele>398.0</ele><time>2026-04-16T16:31:16Z</time></trkpt><trkpt lat="44.44046475976345" lon="7.7762354077907085"><ele>398.0</ele><time>2026-04-16T16:31:17Z</time></trkpt><trkpt lat="44.44040216037074" lon="7.776039237638685"><ele>398.0</ele><time>2026-04-16T16:31:18Z</time></trkpt><trkpt lat="44.44033593986082" lon="7.775834267946334"><ele>398.0</ele><time>2026-04-16T16:31:19Z</time></trkpt><trkpt lat="44.44026735055843" lon="7.775622984189499"><ele>398.3333333333333</ele><time>2026-04-16T16:31:20Z</time></trkpt><trkpt lat="44.4402001348909" lon="7.775421563029852"><ele>398.66666666666663</ele><time>2026-04-16T16:31:21Z</time></trkpt><trkpt lat="44.44012823922385" lon="7.775204501310731"><ele>399.0</ele><time>2026-04-16T16:31:22Z</time></trkpt><trkpt lat="44.440058691741946" lon="7.774989753456941"><ele>399.0</ele><time>2026-04-16T16:31:23Z</time></trkpt><trkpt lat="44.43998790165536" lon="7.774762901131945"><ele>399.0</ele><time>2026-04-16T16:31:24Z</time></trkpt><trkpt lat="44.43991778540973" lon="7.774545923296241"><ele>399.0</ele><time>2026-04-16T16:31:25Z</time></trkpt><trkpt lat="44.4398489140015" lon="7.774317958352132"><ele>399.33333333333337</ele><time>2026-04-16T16:31:26Z</time></trkpt><trkpt lat="44.43977644613228" lon="7.774089198797055"><ele>399.6666666666667</ele><time>2026-04-16T16:31:27Z</time></trkpt><trkpt lat="44.43970397795734" lon="7.773859301319692"><ele>400.0</ele><time>2026-04-16T16:31:28Z</time></trkpt><trkpt lat="44.43963023083199" lon="7.773627550500484"><ele>400.0</ele><time>2026-04-16T16:31:29Z</time></trkpt><trkpt lat="44.439554060775016" lon="7.77339965890629"><ele>400.0</ele><time>2026-04-16T16:31:30Z</time></trkpt><trkpt lat="44.439480025944015" lon="7.773169208626605"><ele>400.0</ele><time>2026-04-16T16:31:31Z</time></trkpt><trkpt lat="44.43940486610486" lon="7.772942678749158"><ele>400.0</ele><time>2026-04-16T16:31:32Z</time></trkpt><trkpt lat="44.43932874011086" lon="7.77270920721562"><ele>400.0</ele><time>2026-04-16T16:31:33Z</time></trkpt><trkpt lat="44.43925637256364" lon="7.772476727759313"><ele>400.0</ele><time>2026-04-16T16:31:34Z</time></trkpt><trkpt lat="44.43918493251064" lon="7.772250758504503"><ele>400.0</ele><time>2026-04-16T16:31:35Z</time></trkpt><trkpt lat="44.43911387041761" lon="7.772010859441046"><ele>400.0</ele><time>2026-04-16T16:31:35.999Z</time></trkpt><trkpt lat="44.439040977768556" lon="7.771775166054229"><ele>400.0</ele><time>2026-04-16T16:31:36.999Z</time></trkpt><trkpt lat="44.43896690146479" lon="7.77154178215968"><ele>400.33333333333337</ele><time>2026-04-16T16:31:37.999Z</time></trkpt><trkpt lat="44.43889473965806" lon="7.77131274642253"><ele>400.66666666666663</ele><time>2026-04-16T16:31:38.999Z</time></trkpt><trkpt lat="44.438822536799314" lon="7.771086170638265"><ele>401.0</ele><time>2026-04-16T16:31:39.999Z</time></trkpt><trkpt lat="44.4387495219391" lon="7.770860482999676"><ele>401.0</ele><time>2026-04-16T16:31:40.999Z</time></trkpt><trkpt lat="44.438678469170085" lon="7.770637328376904"><ele>401.0</ele><time>2026-04-16T16:31:41.999Z</time></trkpt><trkpt lat="44.438614822369146" lon="7.770416448220496"><ele>401.0</ele><time>2026-04-16T16:31:42.999Z</time></trkpt><trkpt lat="44.4385428658018" lon="7.7701941472700895"><ele>401.3333333333333</ele><time>2026-04-16T16:31:43.999Z</time></trkpt><trkpt lat="44.438473384931584" lon="7.769980858892272"><ele>401.66666666666663</ele><time>2026-04-16T16:31:44.999Z</time></trkpt><trkpt lat="44.438402459309884" lon="7.769752633934774"><ele>402.0</ele><time>2026-04-16T16:31:45.999Z</time></trkpt><trkpt lat="44.43833468141257" lon="7.769531854635567"><ele>402.33333333333337</ele><time>2026-04-16T16:31:46.999Z</time></trkpt><trkpt lat="44.438260976977446" lon="7.769301532089582"><ele>402.6666666666667</ele><time>2026-04-16T16:31:47.999Z</time></trkpt><trkpt lat="44.43819018397396" lon="7.769076174755934"><ele>403.0</ele><time>2026-04-16T16:31:48.999Z</time></trkpt><trkpt lat="44.438117686240034" lon="7.768854045036927"><ele>403.0</ele><time>2026-04-16T16:31:49.999Z</time></trkpt><trkpt lat="44.43804367729313" lon="7.76862203275575"><ele>403.0</ele><time>2026-04-16T16:31:50.999Z</time></trkpt><trkpt lat="44.43796518196926" lon="7.768392348266713"><ele>403.0</ele><time>2026-04-16T16:31:51.999Z</time></trkpt><trkpt lat="44.43788903268534" lon="7.7681573484867235"><ele>403.0</ele><time>2026-04-16T16:31:52.999Z</time></trkpt><trkpt lat="44.437816234757165" lon="7.767920321601807"><ele>403.0</ele><time>2026-04-16T16:31:53.999Z</time></trkpt><trkpt lat="44.437741369577864" lon="7.767686192401504"><ele>403.0</ele><time>2026-04-16T16:31:54.999Z</time></trkpt><trkpt lat="44.43766441568261" lon="7.767443808374777"><ele>403.0</ele><time>2026-04-16T16:31:55.999Z</time></trkpt><trkpt lat="44.437585806402545" lon="7.767191730484919"><ele>403.0</ele><time>2026-04-16T16:31:56.999Z</time></trkpt><trkpt lat="44.43750538905843" lon="7.766942828692283"><ele>403.0</ele><time>2026-04-16T16:31:57.999Z</time></trkpt><trkpt lat="44.43742543365154" lon="7.766697259437966"><ele>403.0</ele><time>2026-04-16T16:31:58.999Z</time></trkpt><trkpt lat="44.43734562742102" lon="7.76644003594847"><ele>403.0</ele><time>2026-04-16T16:31:59.999Z</time></trkpt><trkpt lat="44.43726224032031" lon="7.766170421411741"><ele>403.0</ele><time>2026-04-16T16:32:00.999Z</time></trkpt><trkpt lat="44.43717966153053" lon="7.765890145890676"><ele>403.33333333333337</ele><time>2026-04-16T16:32:01.999Z</time></trkpt><trkpt lat="44.43709062980315" lon="7.765619780731634"><ele>403.66666666666663</ele><time>2026-04-16T16:32:02.999Z</time></trkpt><trkpt lat="44.437000169640456" lon="7.765343237895227"><ele>404.0</ele><time>2026-04-16T16:32:03.999Z</time></trkpt><trkpt lat="44.43690621243923" lon="7.765053681062641"><ele>404.0</ele><time>2026-04-16T16:32:04.999Z</time></trkpt><trkpt lat="44.436819402596804" lon="7.76477134833353"><ele>404.0</ele><time>2026-04-16T16:32:05.999Z</time></trkpt><trkpt lat="44.436730147100555" lon="7.764493183875134"><ele>404.0</ele><time>2026-04-16T16:32:06.999Z</time></trkpt><trkpt lat="44.43664549421654" lon="7.764215004602155"><ele>404.0</ele><time>2026-04-16T16:32:07.999Z</time></trkpt><trkpt lat="44.436557962701436" lon="7.763935694843535"><ele>404.0</ele><time>2026-04-16T16:32:08.999Z</time></trkpt><trkpt lat="44.43646586859348" lon="7.7636613119368105"><ele>404.0</ele><time>2026-04-16T16:32:09.999Z</time></trkpt><trkpt lat="44.4363778298329" lon="7.763387075753816"><ele>404.0</ele><time>2026-04-16T16:32:10.999Z</time></trkpt><trkpt lat="44.43628669609855" lon="7.763108124647991"><ele>404.0</ele><time>2026-04-16T16:32:11.999Z</time></trkpt><trkpt lat="44.43619818423797" lon="7.762832986810261"><ele>404.0</ele><time>2026-04-16T16:32:12.999Z</time></trkpt><trkpt lat="44.436108231907966" lon="7.762555999641607"><ele>404.0</ele><time>2026-04-16T16:32:13.999Z</time></trkpt><trkpt lat="44.436020175705636" lon="7.762285709451991"><ele>404.0</ele><time>2026-04-16T16:32:14.999Z</time></trkpt><trkpt lat="44.4359349264597" lon="7.762013318820208"><ele>404.0</ele><time>2026-04-16T16:32:15.999Z</time></trkpt><trkpt lat="44.43585487737197" lon="7.761742547053135"><ele>404.3333333333333</ele><time>2026-04-16T16:32:16.999Z</time></trkpt><trkpt lat="44.43577213690363" lon="7.761495350337147"><ele>404.66666666666663</ele><time>2026-04-16T16:32:17.999Z</time></trkpt><trkpt lat="44.43569089989561" lon="7.761245954066774"><ele>405.0</ele><time>2026-04-16T16:32:18.999Z</time></trkpt><trkpt lat="44.4356179901585" lon="7.760999746853808"><ele>405.33333333333337</ele><time>2026-04-16T16:32:19.999Z</time></trkpt><trkpt lat="44.43554010069949" lon="7.7607474376346595"><ele>405.6666666666667</ele><time>2026-04-16T16:32:20.999Z</time></trkpt><trkpt lat="44.43546249115458" lon="7.760484573460345"><ele>406.0</ele><time>2026-04-16T16:32:21.999Z</time></trkpt><trkpt lat="44.43537494738915" lon="7.760223205200852"><ele>406.0</ele><time>2026-04-16T16:32:22.999Z</time></trkpt><trkpt lat="44.43528460592575" lon="7.759951013487763"><ele>406.0</ele><time>2026-04-16T16:32:23.999Z</time></trkpt><trkpt lat="44.4351988147801" lon="7.759666447699155"><ele>406.0</ele><time>2026-04-16T16:32:24.999Z</time></trkpt><trkpt lat="44.43511145871104" lon="7.759387593404112"><ele>406.0</ele><time>2026-04-16T16:32:25.999Z</time></trkpt><trkpt lat="44.43501572104542" lon="7.759098165576133"><ele>406.0</ele><time>2026-04-16T16:32:26.999Z</time></trkpt><trkpt lat="44.434921536827694" lon="7.758799944546266"><ele>407.0</ele><time>2026-04-16T16:32:27.999Z</time></trkpt><trkpt lat="44.43481684641075" lon="7.758506820438755"><ele>408.0</ele><time>2026-04-16T16:32:28.999Z</time></trkpt><trkpt lat="44.43472479429114" lon="7.75819924305292"><ele>407.5</ele><time>2026-04-16T16:32:29.999Z</time></trkpt><trkpt lat="44.43462579413426" lon="7.757885143303707"><ele>407.0</ele><time>2026-04-16T16:32:30.999Z</time></trkpt><trkpt lat="44.43452843593451" lon="7.7575761860718915"><ele>406.5</ele><time>2026-04-16T16:32:31.999Z</time></trkpt><trkpt lat="44.43443187698593" lon="7.757269765181811"><ele>406.0</ele><time>2026-04-16T16:32:32.999Z</time></trkpt><trkpt lat="44.43432389902882" lon="7.756967724187683"><ele>406.5</ele><time>2026-04-16T16:32:33.999Z</time></trkpt><trkpt lat="44.43422675865831" lon="7.756664738792741"><ele>407.0</ele><time>2026-04-16T16:32:34.999Z</time></trkpt><trkpt lat="44.43412967480314" lon="7.756356030926416"><ele>407.0</ele><time>2026-04-16T16:32:35.999Z</time></trkpt><trkpt lat="44.434033373422096" lon="7.756046906660977"><ele>407.0</ele><time>2026-04-16T16:32:36.999Z</time></trkpt><trkpt lat="44.43393945794069" lon="7.755731305650324"><ele>407.0</ele><time>2026-04-16T16:32:37.999Z</time></trkpt><trkpt lat="44.43383835055182" lon="7.75542454075039"><ele>407.0</ele><time>2026-04-16T16:32:38.999Z</time></trkpt><trkpt lat="44.43374171668045" lon="7.75511837381438"><ele>407.0</ele><time>2026-04-16T16:32:39.999Z</time></trkpt><trkpt lat="44.43364386051158" lon="7.754806383804114"><ele>407.0</ele><time>2026-04-16T16:32:40.999Z</time></trkpt><trkpt lat="44.43355264927841" lon="7.754516874250091"><ele>408.0</ele><time>2026-04-16T16:32:41.999Z</time></trkpt><trkpt lat="44.43346133213712" lon="7.7542362412148"><ele>409.0</ele><time>2026-04-16T16:32:42.998Z</time></trkpt><trkpt lat="44.43337617334901" lon="7.753957432307107"><ele>410.0</ele><time>2026-04-16T16:32:43.998Z</time></trkpt><trkpt lat="44.43329081519851" lon="7.753688616825919"><ele>410.0</ele><time>2026-04-16T16:32:44.998Z</time></trkpt><trkpt lat="44.433212170824945" lon="7.753424585237444"><ele>410.0</ele><time>2026-04-16T16:32:45.998Z</time></trkpt><trkpt lat="44.43312661477626" lon="7.753161237566117"><ele>410.0</ele><time>2026-04-16T16:32:46.998Z</time></trkpt><trkpt lat="44.433043612130625" lon="7.752896614377146"><ele>409.66666666666663</ele><time>2026-04-16T16:32:47.998Z</time></trkpt><trkpt lat="44.43296057155693" lon="7.752644863095355"><ele>409.33333333333337</ele><time>2026-04-16T16:32:48.998Z</time></trkpt><trkpt lat="44.432881292100625" lon="7.752401676451732"><ele>409.0</ele><time>2026-04-16T16:32:49.998Z</time></trkpt><trkpt lat="44.43280596202754" lon="7.75216695381854"><ele>409.0</ele><time>2026-04-16T16:32:50.998Z</time></trkpt><trkpt lat="44.432736019206814" lon="7.75193954422677"><ele>409.0</ele><time>2026-04-16T16:32:51.998Z</time></trkpt><trkpt lat="44.43266347015219" lon="7.751698901260205"><ele>409.0</ele><time>2026-04-16T16:32:53Z</time></trkpt><trkpt lat="44.43259142330558" lon="7.751464917355214"><ele>409.0</ele><time>2026-04-16T16:32:54Z</time></trkpt><trkpt lat="44.43252114175876" lon="7.751236678256565"><ele>409.0</ele><time>2026-04-16T16:32:55Z</time></trkpt><trkpt lat="44.4324507830187" lon="7.75100914072917"><ele>409.0</ele><time>2026-04-16T16:32:56Z</time></trkpt><trkpt lat="44.43238272044937" lon="7.750785188716676"><ele>409.33333333333337</ele><time>2026-04-16T16:32:57Z</time></trkpt><trkpt lat="44.43231183209854" lon="7.750575325631519"><ele>409.66666666666663</ele><time>2026-04-16T16:32:58Z</time></trkpt><trkpt lat="44.43224842068238" lon="7.750375497649874"><ele>410.0</ele><time>2026-04-16T16:32:59Z</time></trkpt><trkpt lat="44.43218640862056" lon="7.750174684255501"><ele>410.25</ele><time>2026-04-16T16:33:00Z</time></trkpt><trkpt lat="44.432125416777595" lon="7.749983573835585"><ele>410.5</ele><time>2026-04-16T16:33:01Z</time></trkpt><trkpt lat="44.43207311437732" lon="7.749804567477945"><ele>410.75</ele><time>2026-04-16T16:33:02Z</time></trkpt><trkpt lat="44.43201664838381" lon="7.749628348490536"><ele>411.0</ele><time>2026-04-16T16:33:03Z</time></trkpt><trkpt lat="44.4319664531268" lon="7.749471331960434"><ele>410.75</ele><time>2026-04-16T16:33:04Z</time></trkpt><trkpt lat="44.43191417841514" lon="7.749313190500176"><ele>410.5</ele><time>2026-04-16T16:33:05Z</time></trkpt><trkpt lat="44.43186427230937" lon="7.749159092525979"><ele>410.25</ele><time>2026-04-16T16:33:06Z</time></trkpt><trkpt lat="44.43181865859907" lon="7.749012830971115"><ele>410.0</ele><time>2026-04-16T16:33:07Z</time></trkpt><trkpt lat="44.43178060743376" lon="7.748880810207102"><ele>410.0</ele><time>2026-04-16T16:33:08Z</time></trkpt><trkpt lat="44.43174056386857" lon="7.748751144449395"><ele>410.0</ele><time>2026-04-16T16:33:09Z</time></trkpt><trkpt lat="44.4316978453241" lon="7.748613138478621"><ele>410.0</ele><time>2026-04-16T16:33:10Z</time></trkpt><trkpt lat="44.43165397309602" lon="7.748473209364656"><ele>410.0</ele><time>2026-04-16T16:33:11Z</time></trkpt><trkpt lat="44.43160967751602" lon="7.748344645413331"><ele>410.0</ele><time>2026-04-16T16:33:12Z</time></trkpt><trkpt lat="44.43156916225243" lon="7.748220070127333"><ele>410.4</ele><time>2026-04-16T16:33:13Z</time></trkpt><trkpt lat="44.43152744020484" lon="7.7480864553363205"><ele>410.8</ele><time>2026-04-16T16:33:14Z</time></trkpt><trkpt lat="44.43148279715058" lon="7.747954480220689"><ele>411.20000000000005</ele><time>2026-04-16T16:33:15Z</time></trkpt><trkpt lat="44.43144316710681" lon="7.747830831732645"><ele>411.6</ele><time>2026-04-16T16:33:16Z</time></trkpt><trkpt lat="44.431398475538145" lon="7.74770669406642"><ele>412.0</ele><time>2026-04-16T16:33:17Z</time></trkpt><trkpt lat="44.431350127393706" lon="7.747566079394398"><ele>411.8</ele><time>2026-04-16T16:33:18Z</time></trkpt><trkpt lat="44.43130712117871" lon="7.747438621048885"><ele>411.6</ele><time>2026-04-16T16:33:19Z</time></trkpt><trkpt lat="44.43127905060429" lon="7.747292760767753"><ele>411.40000000000003</ele><time>2026-04-16T16:33:20Z</time></trkpt><trkpt lat="44.43123674968772" lon="7.747164962395644"><ele>411.20000000000005</ele><time>2026-04-16T16:33:21Z</time></trkpt><trkpt lat="44.43119184146505" lon="7.747028234130548"><ele>411.0</ele><time>2026-04-16T16:33:22Z</time></trkpt><trkpt lat="44.431145390020404" lon="7.7468917185492225"><ele>411.0</ele><time>2026-04-16T16:33:23Z</time></trkpt><trkpt lat="44.431100631923194" lon="7.746750682609786"><ele>411.0</ele><time>2026-04-16T16:33:24Z</time></trkpt><trkpt lat="44.431053401868" lon="7.746607672565367"><ele>411.0</ele><time>2026-04-16T16:33:25Z</time></trkpt><trkpt lat="44.4310110136778" lon="7.746464362312368"><ele>411.0</ele><time>2026-04-16T16:33:26Z</time></trkpt><trkpt lat="44.430965196081154" lon="7.7463308245404034"><ele>411.0</ele><time>2026-04-16T16:33:27Z</time></trkpt><trkpt lat="44.43092208993904" lon="7.7461997925166965"><ele>411.0</ele><time>2026-04-16T16:33:28Z</time></trkpt><trkpt lat="44.430882311284726" lon="7.7460628951136234"><ele>411.0</ele><time>2026-04-16T16:33:29Z</time></trkpt><trkpt lat="44.430839623134744" lon="7.745942243691501"><ele>411.0</ele><time>2026-04-16T16:33:30Z</time></trkpt><trkpt lat="44.43080351823622" lon="7.745820602548395"><ele>411.0</ele><time>2026-04-16T16:33:31Z</time></trkpt><trkpt lat="44.43076529971287" lon="7.745695366354969"><ele>411.0</ele><time>2026-04-16T16:33:32Z</time></trkpt><trkpt lat="44.43073135505151" lon="7.745581346712127"><ele>411.5</ele><time>2026-04-16T16:33:33Z</time></trkpt><trkpt lat="44.430702860390824" lon="7.745477362996504"><ele>412.0</ele><time>2026-04-16T16:33:34Z</time></trkpt><trkpt lat="44.4306803867664" lon="7.745388912316481"><ele>412.5</ele><time>2026-04-16T16:33:35Z</time></trkpt><trkpt lat="44.43062809062749" lon="7.745273902337729"><ele>413.0</ele><time>2026-04-16T16:33:37Z</time></trkpt><trkpt lat="44.43050927366974" lon="7.7452648343572"><ele>413.5</ele><time>2026-04-16T16:33:39Z</time></trkpt><trkpt lat="44.430438801784106" lon="7.7453288320848435"><ele>414.0</ele><time>2026-04-16T16:33:40Z</time></trkpt><trkpt lat="44.430358581773085" lon="7.745392522059742"><ele>414.0</ele><time>2026-04-16T16:33:40.999Z</time></trkpt><trkpt lat="44.43025869134856" lon="7.7454612864988635"><ele>414.0</ele><time>2026-04-16T16:33:41.999Z</time></trkpt><trkpt lat="44.430151177571716" lon="7.745525610220047"><ele>414.0</ele><time>2026-04-16T16:33:42.999Z</time></trkpt><trkpt lat="44.43003429849062" lon="7.745591121474746"><ele>414.0</ele><time>2026-04-16T16:33:43.999Z</time></trkpt><trkpt lat="44.4299306206759" lon="7.745671116840073"><ele>414.0</ele><time>2026-04-16T16:33:44.999Z</time></trkpt><trkpt lat="44.42984852739932" lon="7.745755763277609"><ele>414.0</ele><time>2026-04-16T16:33:45.999Z</time></trkpt><trkpt lat="44.42976063047401" lon="7.745824694129179"><ele>414.0</ele><time>2026-04-16T16:33:46.999Z</time></trkpt><trkpt lat="44.42966690189706" lon="7.745890500452519"><ele>414.0</ele><time>2026-04-16T16:33:47.999Z</time></trkpt><trkpt lat="44.429570925999805" lon="7.745943835471101"><ele>414.0</ele><time>2026-04-16T16:33:48.999Z</time></trkpt><trkpt lat="44.42948158556758" lon="7.746009616552414"><ele>413.3333333333333</ele><time>2026-04-16T16:33:49.999Z</time></trkpt><trkpt lat="44.42939981690086" lon="7.74607481581754"><ele>412.66666666666663</ele><time>2026-04-16T16:33:50.999Z</time></trkpt><trkpt lat="44.42932546772295" lon="7.746135791626798"><ele>412.0</ele><time>2026-04-16T16:33:51.999Z</time></trkpt><trkpt lat="44.42923921912874" lon="7.746189864338085"><ele>411.3333333333333</ele><time>2026-04-16T16:33:52.999Z</time></trkpt><trkpt lat="44.42916570551023" lon="7.7462582980911865"><ele>410.66666666666663</ele><time>2026-04-16T16:33:53.999Z</time></trkpt><trkpt lat="44.42910605883427" lon="7.746335135297708"><ele>410.0</ele><time>2026-04-16T16:33:54.999Z</time></trkpt><trkpt lat="44.42903965624623" lon="7.746407458891613"><ele>409.99999999999994</ele><time>2026-04-16T16:33:55.999Z</time></trkpt><trkpt lat="44.428970152988846" lon="7.746470062602469"><ele>410.0</ele><time>2026-04-16T16:33:56.999Z</time></trkpt><trkpt lat="44.4289040401709" lon="7.746539019431666"><ele>410.0</ele><time>2026-04-16T16:33:57.999Z</time></trkpt><trkpt lat="44.428837067714326" lon="7.7465958402019375"><ele>410.0</ele><time>2026-04-16T16:33:58.999Z</time></trkpt><trkpt lat="44.42877497538736" lon="7.746654711507483"><ele>409.99999999999994</ele><time>2026-04-16T16:33:59.999Z</time></trkpt><trkpt lat="44.428717017569866" lon="7.74670886155371"><ele>410.0</ele><time>2026-04-16T16:34:00.999Z</time></trkpt><trkpt lat="44.42866545549608" lon="7.746780426217636"><ele>409.3333333333333</ele><time>2026-04-16T16:34:01.999Z</time></trkpt><trkpt lat="44.428618329880514" lon="7.746864094458762"><ele>408.66666666666663</ele><time>2026-04-16T16:34:02.999Z</time></trkpt><trkpt lat="44.42858035916068" lon="7.7469640379676905"><ele>408.0</ele><time>2026-04-16T16:34:03.999Z</time></trkpt><trkpt lat="44.4285472731902" lon="7.747065575883801"><ele>407.33333333333337</ele><time>2026-04-16T16:34:04.999Z</time></trkpt><trkpt lat="44.42851911845734" lon="7.747164059928512"><ele>406.6666666666667</ele><time>2026-04-16T16:34:05.999Z</time></trkpt><trkpt lat="44.42850036026567" lon="7.747257663757821"><ele>406.0</ele><time>2026-04-16T16:34:06.999Z</time></trkpt><trkpt lat="44.42847720744072" lon="7.747396459537764"><ele>405.25</ele><time>2026-04-16T16:34:08.999Z</time></trkpt><trkpt lat="44.4284978945413" lon="7.747494063551324"><ele>404.5</ele><time>2026-04-16T16:34:10.999Z</time></trkpt><trkpt lat="44.428393453108825" lon="7.747649758502084"><ele>403.75</ele><time>2026-04-16T16:34:12.999Z</time></trkpt><trkpt lat="44.42831435769049" lon="7.747808420552427"><ele>403.0</ele><time>2026-04-16T16:34:14.999Z</time></trkpt><trkpt lat="44.4282608553039" lon="7.74791865677065"><ele>403.0</ele><time>2026-04-16T16:34:15.999Z</time></trkpt><trkpt lat="44.42821628405799" lon="7.748059039092795"><ele>403.0</ele><time>2026-04-16T16:34:16.999Z</time></trkpt><trkpt lat="44.42816965300104" lon="7.748216044231852"><ele>403.0</ele><time>2026-04-16T16:34:17.999Z</time></trkpt><trkpt lat="44.42812663388309" lon="7.748382182867548"><ele>403.0</ele><time>2026-04-16T16:34:18.999Z</time></trkpt><trkpt lat="44.42808359093573" lon="7.748545281485777"><ele>402.4</ele><time>2026-04-16T16:34:19.999Z</time></trkpt><trkpt lat="44.42802703526547" lon="7.7487001375749465"><ele>401.79999999999995</ele><time>2026-04-16T16:34:20.999Z</time></trkpt><trkpt lat="44.42799381735546" lon="7.748847965786908"><ele>401.2</ele><time>2026-04-16T16:34:21.999Z</time></trkpt><trkpt lat="44.42796290257939" lon="7.748991284505269"><ele>400.6</ele><time>2026-04-16T16:34:22.999Z</time></trkpt><trkpt lat="44.427928863209054" lon="7.749131732367075"><ele>400.0</ele><time>2026-04-16T16:34:23.999Z</time></trkpt><trkpt lat="44.42789847624971" lon="7.749270094667845"><ele>397.8</ele><time>2026-04-16T16:34:24.999Z</time></trkpt><trkpt lat="44.427870093655926" lon="7.749402013745753"><ele>395.6</ele><time>2026-04-16T16:34:25.999Z</time></trkpt><trkpt lat="44.42784343751853" lon="7.749534978947174"><ele>393.4</ele><time>2026-04-16T16:34:26.999Z</time></trkpt><trkpt lat="44.42781686922253" lon="7.7496776800717155"><ele>391.2</ele><time>2026-04-16T16:34:27.999Z</time></trkpt><trkpt lat="44.427791252882095" lon="7.749811452211266"><ele>389.0</ele><time>2026-04-16T16:34:28.999Z</time></trkpt><trkpt lat="44.42776950937679" lon="7.749935915621787"><ele>388.99999999999994</ele><time>2026-04-16T16:34:29.999Z</time></trkpt><trkpt lat="44.42774601566082" lon="7.75004904065251"><ele>389.0</ele><time>2026-04-16T16:34:30.999Z</time></trkpt><trkpt lat="44.427718150553645" lon="7.75016270487897"><ele>389.0</ele><time>2026-04-16T16:34:31.999Z</time></trkpt><trkpt lat="44.427682272979645" lon="7.750263008227414"><ele>389.0</ele><time>2026-04-16T16:34:32.999Z</time></trkpt><trkpt lat="44.427635093322614" lon="7.750350231515651"><ele>388.99999999999994</ele><time>2026-04-16T16:34:33.999Z</time></trkpt><trkpt lat="44.427581380791274" lon="7.750431376524964"><ele>389.0</ele><time>2026-04-16T16:34:34.999Z</time></trkpt><trkpt lat="44.42751820433261" lon="7.750498760617951"><ele>389.0</ele><time>2026-04-16T16:34:35.999Z</time></trkpt><trkpt lat="44.42744052057074" lon="7.750553561629885"><ele>389.0</ele><time>2026-04-16T16:34:36.999Z</time></trkpt><trkpt lat="44.42734893305139" lon="7.750609613239559"><ele>389.0</ele><time>2026-04-16T16:34:37.999Z</time></trkpt><trkpt lat="44.42725043772892" lon="7.750662556822667"><ele>389.0</ele><time>2026-04-16T16:34:38.999Z</time></trkpt><trkpt lat="44.427150605628164" lon="7.750714877304772"><ele>389.0</ele><time>2026-04-16T16:34:39.999Z</time></trkpt><trkpt lat="44.427053682026624" lon="7.7507629103051014"><ele>387.8333333333333</ele><time>2026-04-16T16:34:40.999Z</time></trkpt><trkpt lat="44.426969454230075" lon="7.750805263860388"><ele>386.66666666666663</ele><time>2026-04-16T16:34:41.999Z</time></trkpt><trkpt lat="44.426883719629664" lon="7.750849657128096"><ele>385.5</ele><time>2026-04-16T16:34:42.999Z</time></trkpt><trkpt lat="44.426799168502065" lon="7.750897426618989"><ele>384.3333333333333</ele><time>2026-04-16T16:34:43.999Z</time></trkpt><trkpt lat="44.426717281846265" lon="7.750944198444313"><ele>383.16666666666663</ele><time>2026-04-16T16:34:44.999Z</time></trkpt><trkpt lat="44.42663905667068" lon="7.750986028589876"><ele>382.0</ele><time>2026-04-16T16:34:45.999Z</time></trkpt><trkpt lat="44.42656840499377" lon="7.751024839145225"><ele>381.3333333333333</ele><time>2026-04-16T16:34:46.998Z</time></trkpt><trkpt lat="44.42649446842675" lon="7.751073934679333"><ele>380.66666666666663</ele><time>2026-04-16T16:34:47.998Z</time></trkpt><trkpt lat="44.426428558691754" lon="7.751130183495798"><ele>380.0</ele><time>2026-04-16T16:34:48.998Z</time></trkpt><trkpt lat="44.42636787447919" lon="7.751199372689222"><ele>379.3333333333333</ele><time>2026-04-16T16:34:49.998Z</time></trkpt><trkpt lat="44.42631064451487" lon="7.751279340093016"><ele>378.6666666666667</ele><time>2026-04-16T16:34:50.998Z</time></trkpt><trkpt lat="44.42624409640391" lon="7.751354769802169"><ele>378.0</ele><time>2026-04-16T16:34:51.998Z</time></trkpt><trkpt lat="44.426194269044274" lon="7.751460361791471"><ele>376.79999999999995</ele><time>2026-04-16T16:34:52.998Z</time></trkpt><trkpt lat="44.42615759599141" lon="7.751579140246938"><ele>375.6</ele><time>2026-04-16T16:34:53.998Z</time></trkpt><trkpt lat="44.42613553486403" lon="7.751720180211627"><ele>374.4</ele><time>2026-04-16T16:34:54.998Z</time></trkpt><trkpt lat="44.426118506672246" lon="7.751880639294371"><ele>373.20000000000005</ele><time>2026-04-16T16:34:55.998Z</time></trkpt><trkpt lat="44.426112966625396" lon="7.752055122349304"><ele>372.0</ele><time>2026-04-16T16:34:56.998Z</time></trkpt><trkpt lat="44.42611272864391" lon="7.752244617444259"><ele>371.0</ele><time>2026-04-16T16:34:57.998Z</time></trkpt><trkpt lat="44.42609039577113" lon="7.752429465869145"><ele>370.0</ele><time>2026-04-16T16:34:59Z</time></trkpt><trkpt lat="44.42606882361575" lon="7.752603551800651"><ele>369.0</ele><time>2026-04-16T16:35:00Z</time></trkpt><trkpt lat="44.42604754407106" lon="7.752773021319661"><ele>368.0</ele><time>2026-04-16T16:35:01Z</time></trkpt><trkpt lat="44.42602539047191" lon="7.752950697336494"><ele>367.0</ele><time>2026-04-16T16:35:02Z</time></trkpt><trkpt lat="44.425997256245964" lon="7.7531249959190855"><ele>366.0</ele><time>2026-04-16T16:35:03Z</time></trkpt><trkpt lat="44.425968199232635" lon="7.753267826325203"><ele>365.0</ele><time>2026-04-16T16:35:04Z</time></trkpt><trkpt lat="44.42594620259198" lon="7.753404048925618"><ele>364.0</ele><time>2026-04-16T16:35:05Z</time></trkpt><trkpt lat="44.42592103154164" lon="7.7535383597622625"><ele>363.0</ele><time>2026-04-16T16:35:06Z</time></trkpt><trkpt lat="44.42588663994018" lon="7.753649278982299"><ele>362.79999999999995</ele><time>2026-04-16T16:35:07Z</time></trkpt><trkpt lat="44.42583022712778" lon="7.753746037774761"><ele>362.6</ele><time>2026-04-16T16:35:08Z</time></trkpt><trkpt lat="44.42576349653939" lon="7.753825489882598"><ele>362.4</ele><time>2026-04-16T16:35:09Z</time></trkpt><trkpt lat="44.42566591708757" lon="7.753898254748659"><ele>362.20000000000005</ele><time>2026-04-16T16:35:10Z</time></trkpt><trkpt lat="44.425570307770286" lon="7.753950475736733"><ele>362.0</ele><time>2026-04-16T16:35:11Z</time></trkpt><trkpt lat="44.42547163240887" lon="7.7539867960992"><ele>362.0</ele><time>2026-04-16T16:35:12Z</time></trkpt><trkpt lat="44.42537332620017" lon="7.7540284931631005"><ele>362.0</ele><time>2026-04-16T16:35:13Z</time></trkpt><trkpt lat="44.42528753864226" lon="7.754072357449891"><ele>362.0</ele><time>2026-04-16T16:35:14Z</time></trkpt><trkpt lat="44.425207515865424" lon="7.754125774565973"><ele>362.0</ele><time>2026-04-16T16:35:15Z</time></trkpt><trkpt lat="44.42512644504134" lon="7.754201196912369"><ele>362.0</ele><time>2026-04-16T16:35:16Z</time></trkpt><trkpt lat="44.425057842573835" lon="7.754306202297446"><ele>361.5</ele><time>2026-04-16T16:35:17Z</time></trkpt><trkpt lat="44.42499127477727" lon="7.754425351350544"><ele>361.0</ele><time>2026-04-16T16:35:18Z</time></trkpt><trkpt lat="44.42492265433188" lon="7.754566076502798"><ele>360.5</ele><time>2026-04-16T16:35:19Z</time></trkpt><trkpt lat="44.4248498095212" lon="7.7547127058592595"><ele>360.0</ele><time>2026-04-16T16:35:20Z</time></trkpt><trkpt lat="44.424763607325964" lon="7.754849982987317"><ele>360.0</ele><time>2026-04-16T16:35:21Z</time></trkpt><trkpt lat="44.42467903159644" lon="7.755015101989721"><ele>360.0</ele><time>2026-04-16T16:35:22Z</time></trkpt><trkpt lat="44.42459283617922" lon="7.755187903880904"><ele>360.0</ele><time>2026-04-16T16:35:23Z</time></trkpt><trkpt lat="44.42451498970564" lon="7.7553425965012766"><ele>360.0</ele><time>2026-04-16T16:35:24Z</time></trkpt><trkpt lat="44.42444355581434" lon="7.755476958857701"><ele>359.8</ele><time>2026-04-16T16:35:25Z</time></trkpt><trkpt lat="44.42438383681863" lon="7.755583405144353"><ele>359.6</ele><time>2026-04-16T16:35:26Z</time></trkpt><trkpt lat="44.42432248816305" lon="7.755673063016509"><ele>359.4</ele><time>2026-04-16T16:35:27Z</time></trkpt><trkpt lat="44.42425219279768" lon="7.755745258587575"><ele>359.2</ele><time>2026-04-16T16:35:28Z</time></trkpt><trkpt lat="44.42416692630116" lon="7.755797001281869"><ele>359.0</ele><time>2026-04-16T16:35:29Z</time></trkpt><trkpt lat="44.42407927370365" lon="7.755822939227615"><ele>359.0</ele><time>2026-04-16T16:35:30Z</time></trkpt><trkpt lat="44.42398540472573" lon="7.75583161435866"><ele>359.0</ele><time>2026-04-16T16:35:31Z</time></trkpt><trkpt lat="44.42388360867105" lon="7.75581245337939"><ele>359.0</ele><time>2026-04-16T16:35:32Z</time></trkpt><trkpt lat="44.423769251058566" lon="7.75577277721045"><ele>359.0</ele><time>2026-04-16T16:35:33Z</time></trkpt><trkpt lat="44.42364963518095" lon="7.755730608268796"><ele>359.0</ele><time>2026-04-16T16:35:34Z</time></trkpt><trkpt lat="44.42354300542489" lon="7.7557043859414625"><ele>360.0</ele><time>2026-04-16T16:35:35Z</time></trkpt><trkpt lat="44.423441572015356" lon="7.7556838496167115"><ele>361.0</ele><time>2026-04-16T16:35:36Z</time></trkpt><trkpt lat="44.42336273921056" lon="7.755649752042691"><ele>362.0</ele><time>2026-04-16T16:35:37Z</time></trkpt><trkpt lat="44.42327707054125" lon="7.755638981678115"><ele>363.0</ele><time>2026-04-16T16:35:38Z</time></trkpt><trkpt lat="44.423187239492506" lon="7.755656238810741"><ele>364.0</ele><time>2026-04-16T16:35:39Z</time></trkpt><trkpt lat="44.42310084806274" lon="7.75569969528389"><ele>364.0</ele><time>2026-04-16T16:35:40Z</time></trkpt><trkpt lat="44.42301224725122" lon="7.7557648932365435"><ele>364.0</ele><time>2026-04-16T16:35:41Z</time></trkpt><trkpt lat="44.42294370270932" lon="7.755880118405146"><ele>364.0</ele><time>2026-04-16T16:35:42Z</time></trkpt><trkpt lat="44.422861108185685" lon="7.755968143051276"><ele>364.0</ele><time>2026-04-16T16:35:43Z</time></trkpt><trkpt lat="44.42278422471405" lon="7.756022467471184"><ele>364.0</ele><time>2026-04-16T16:35:44Z</time></trkpt><trkpt lat="44.42271307975807" lon="7.756046661241743"><ele>367.2</ele><time>2026-04-16T16:35:45Z</time></trkpt><trkpt lat="44.42262999006194" lon="7.7560419844298005"><ele>370.4</ele><time>2026-04-16T16:35:45.999Z</time></trkpt><trkpt lat="44.42254327775685" lon="7.756010348529503"><ele>373.6</ele><time>2026-04-16T16:35:46.999Z</time></trkpt><trkpt lat="44.42246002271475" lon="7.755950657288047"><ele>376.8</ele><time>2026-04-16T16:35:47.999Z</time></trkpt><trkpt lat="44.42238448105519" lon="7.75586775605851"><ele>380.0</ele><time>2026-04-16T16:35:48.999Z</time></trkpt><trkpt lat="44.422304712247495" lon="7.755781625148332"><ele>380.0</ele><time>2026-04-16T16:35:49.999Z</time></trkpt><trkpt lat="44.42222236464733" lon="7.755700700379386"><ele>380.0</ele><time>2026-04-16T16:35:50.999Z</time></trkpt><trkpt lat="44.42213798192126" lon="7.755603819959149"><ele>380.0</ele><time>2026-04-16T16:35:51.999Z</time></trkpt><trkpt lat="44.42205640830944" lon="7.755496656088178"><ele>380.0</ele><time>2026-04-16T16:35:52.999Z</time></trkpt><trkpt lat="44.42198164453301" lon="7.75539901263646"><ele>380.0</ele><time>2026-04-16T16:35:53.999Z</time></trkpt><trkpt lat="44.42191554405981" lon="7.755324298232145"><ele>381.1666666666667</ele><time>2026-04-16T16:35:54.999Z</time></trkpt><trkpt lat="44.421855798506165" lon="7.755264340260013"><ele>382.33333333333337</ele><time>2026-04-16T16:35:55.999Z</time></trkpt><trkpt lat="44.42175960269352" lon="7.75518803277653"><ele>383.5</ele><time>2026-04-16T16:35:57.999Z</time></trkpt><trkpt lat="44.42169527780716" lon="7.755158633848933"><ele>384.6666666666667</ele><time>2026-04-16T16:35:58.999Z</time></trkpt><trkpt lat="44.42162597622316" lon="7.755155389412684"><ele>385.8333333333333</ele><time>2026-04-16T16:35:59.999Z</time></trkpt><trkpt lat="44.42151270894916" lon="7.755238699448826"><ele>387.0</ele><time>2026-04-16T16:36:01.999Z</time></trkpt><trkpt lat="44.421467778822326" lon="7.755419623733715"><ele>388.8</ele><time>2026-04-16T16:36:03.999Z</time></trkpt><trkpt lat="44.4214892903466" lon="7.755526081040938"><ele>390.6</ele><time>2026-04-16T16:36:04.999Z</time></trkpt><trkpt lat="44.421534790096615" lon="7.755618146744438"><ele>392.40000000000003</ele><time>2026-04-16T16:36:05.999Z</time></trkpt><trkpt lat="44.421615843310114" lon="7.755689357933017"><ele>394.20000000000005</ele><time>2026-04-16T16:36:06.999Z</time></trkpt><trkpt lat="44.42171151544937" lon="7.755751534376545"><ele>396.0</ele><time>2026-04-16T16:36:07.999Z</time></trkpt><trkpt lat="44.42179604720355" lon="7.755834303808217"><ele>396.0</ele><time>2026-04-16T16:36:08.999Z</time></trkpt><trkpt lat="44.421886641180336" lon="7.75593297640814"><ele>396.0</ele><time>2026-04-16T16:36:09.999Z</time></trkpt><trkpt lat="44.4219708737364" lon="7.75607204486628"><ele>396.0</ele><time>2026-04-16T16:36:10.999Z</time></trkpt><trkpt lat="44.42204093529253" lon="7.756186200352802"><ele>396.0</ele><time>2026-04-16T16:36:11.999Z</time></trkpt><trkpt lat="44.42212567563936" lon="7.756292801099609"><ele>396.3333333333333</ele><time>2026-04-16T16:36:12.999Z</time></trkpt><trkpt lat="44.42219497382387" lon="7.756393207325403"><ele>396.66666666666663</ele><time>2026-04-16T16:36:13.999Z</time></trkpt><trkpt lat="44.4222655388094" lon="7.756483658214074"><ele>397.0</ele><time>2026-04-16T16:36:14.999Z</time></trkpt><trkpt lat="44.422326583221924" lon="7.756554294983264"><ele>397.3333333333333</ele><time>2026-04-16T16:36:15.999Z</time></trkpt><trkpt lat="44.42238184386161" lon="7.756616544434774"><ele>397.66666666666663</ele><time>2026-04-16T16:36:16.999Z</time></trkpt><trkpt lat="44.42243197445055" lon="7.756725721509185"><ele>398.0</ele><time>2026-04-16T16:36:18.999Z</time></trkpt><trkpt lat="44.42241548258795" lon="7.756843709971777"><ele>398.0</ele><time>2026-04-16T16:36:20.999Z</time></trkpt><trkpt lat="44.42230263750809" lon="7.756876775085189"><ele>398.0</ele><time>2026-04-16T16:36:22.999Z</time></trkpt><trkpt lat="44.42223711486338" lon="7.756844235194864"><ele>398.0</ele><time>2026-04-16T16:36:23.999Z</time></trkpt><trkpt lat="44.42215799333564" lon="7.756781883460167"><ele>398.0</ele><time>2026-04-16T16:36:24.999Z</time></trkpt><trkpt lat="44.42206568902889" lon="7.756712745155482"><ele>398.0</ele><time>2026-04-16T16:36:25.999Z</time></trkpt><trkpt lat="44.42197440721618" lon="7.756638747190275"><ele>400.5</ele><time>2026-04-16T16:36:26.999Z</time></trkpt><trkpt lat="44.421876834775944" lon="7.756553606072696"><ele>403.0</ele><time>2026-04-16T16:36:27.999Z</time></trkpt><trkpt lat="44.42177965673946" lon="7.7564628802770414"><ele>405.5</ele><time>2026-04-16T16:36:28.999Z</time></trkpt><trkpt lat="44.42168451460466" lon="7.756368500970437"><ele>408.0</ele><time>2026-04-16T16:36:29.999Z</time></trkpt><trkpt lat="44.42158692533155" lon="7.756263361041534"><ele>408.0</ele><time>2026-04-16T16:36:30.999Z</time></trkpt><trkpt lat="44.42150633790003" lon="7.756166876468948"><ele>408.0</ele><time>2026-04-16T16:36:31.999Z</time></trkpt><trkpt lat="44.421441780958936" lon="7.756087909284308"><ele>408.0</ele><time>2026-04-16T16:36:32.999Z</time></trkpt><trkpt lat="44.42138524875636" lon="7.756024105372048"><ele>408.0</ele><time>2026-04-16T16:36:33.999Z</time></trkpt><trkpt lat="44.42128760863758" lon="7.755953973788065"><ele>408.0</ele><time>2026-04-16T16:36:35.999Z</time></trkpt><trkpt lat="44.421175240861054" lon="7.756017764088765"><ele>408.1666666666667</ele><time>2026-04-16T16:36:37.999Z</time></trkpt><trkpt lat="44.4211271298687" lon="7.756094530022526"><ele>408.33333333333337</ele><time>2026-04-16T16:36:38.999Z</time></trkpt><trkpt lat="44.421096510278296" lon="7.756200541811221"><ele>408.5</ele><time>2026-04-16T16:36:39.999Z</time></trkpt><trkpt lat="44.42107829652899" lon="7.756327319477289"><ele>408.6666666666667</ele><time>2026-04-16T16:36:40.999Z</time></trkpt><trkpt lat="44.42104783125726" lon="7.756452188515669"><ele>408.83333333333337</ele><time>2026-04-16T16:36:41.999Z</time></trkpt><trkpt lat="44.42101396063576" lon="7.756582026139251"><ele>409.0</ele><time>2026-04-16T16:36:42.999Z</time></trkpt><trkpt lat="44.42097826287143" lon="7.756718527198646"><ele>409.00000000000006</ele><time>2026-04-16T16:36:43.999Z</time></trkpt><trkpt lat="44.420955472244934" lon="7.756847052342574"><ele>409.0</ele><time>2026-04-16T16:36:44.999Z</time></trkpt><trkpt lat="44.42093223508207" lon="7.756943342793049"><ele>409.0</ele><time>2026-04-16T16:36:45.999Z</time></trkpt><trkpt lat="44.420906950858914" lon="7.757047281235092"><ele>409.0</ele><time>2026-04-16T16:36:46.999Z</time></trkpt><trkpt lat="44.420872507277494" lon="7.757153006804155"><ele>409.00000000000006</ele><time>2026-04-16T16:36:47.999Z</time></trkpt><trkpt lat="44.42082981445899" lon="7.7572694227538355"><ele>409.0</ele><time>2026-04-16T16:36:48.999Z</time></trkpt><trkpt lat="44.42077179271967" lon="7.757390163061803"><ele>409.2</ele><time>2026-04-16T16:36:49.999Z</time></trkpt><trkpt lat="44.42070393979319" lon="7.757514902190876"><ele>409.4</ele><time>2026-04-16T16:36:50.999Z</time></trkpt><trkpt lat="44.420643963921776" lon="7.757630902808195"><ele>409.6</ele><time>2026-04-16T16:36:51.999Z</time></trkpt><trkpt lat="44.42058897471093" lon="7.757731581106529"><ele>409.8</ele><time>2026-04-16T16:36:52.998Z</time></trkpt><trkpt lat="44.420541968493154" lon="7.757822385222041"><ele>410.0</ele><time>2026-04-16T16:36:53.998Z</time></trkpt><trkpt lat="44.42049531636155" lon="7.757906388255652"><ele>410.0</ele><time>2026-04-16T16:36:54.998Z</time></trkpt><trkpt lat="44.42045263736134" lon="7.757973696842303"><ele>410.0</ele><time>2026-04-16T16:36:55.998Z</time></trkpt><trkpt lat="44.420362207745015" lon="7.758073531695788"><ele>410.0</ele><time>2026-04-16T16:36:57.998Z</time></trkpt><trkpt lat="44.42022688733022" lon="7.758084155222652"><ele>410.0</ele><time>2026-04-16T16:36:59.998Z</time></trkpt><trkpt lat="44.42015165978447" lon="7.758047356736116"><ele>410.0</ele><time>2026-04-16T16:37:00.998Z</time></trkpt><trkpt lat="44.42007323729578" lon="7.757993658418357"><ele>410.0</ele><time>2026-04-16T16:37:01.998Z</time></trkpt><trkpt lat="44.41998196204278" lon="7.757940651444269"><ele>410.0</ele><time>2026-04-16T16:37:02.998Z</time></trkpt><trkpt lat="44.41987970830376" lon="7.757869683571234"><ele>410.0</ele><time>2026-04-16T16:37:03.998Z</time></trkpt><trkpt lat="44.4197685075445" lon="7.757798714915386"><ele>410.0</ele><time>2026-04-16T16:37:05Z</time></trkpt><trkpt lat="44.419659282958804" lon="7.757724649664992"><ele>410.25</ele><time>2026-04-16T16:37:06Z</time></trkpt><trkpt lat="44.419540797847084" lon="7.757637547055175"><ele>410.5</ele><time>2026-04-16T16:37:07Z</time></trkpt><trkpt lat="44.419402884702265" lon="7.757553849596456"><ele>410.75</ele><time>2026-04-16T16:37:08Z</time></trkpt><trkpt lat="44.419267312106264" lon="7.757459480899683"><ele>411.0</ele><time>2026-04-16T16:37:09Z</time></trkpt><trkpt lat="44.419128447375336" lon="7.757367190363209"><ele>411.0</ele><time>2026-04-16T16:37:10Z</time></trkpt><trkpt lat="44.41897601220193" lon="7.757271107714936"><ele>411.0</ele><time>2026-04-16T16:37:11Z</time></trkpt><trkpt lat="44.41882613619485" lon="7.757180153556199"><ele>411.0</ele><time>2026-04-16T16:37:12Z</time></trkpt><trkpt lat="44.418669720875364" lon="7.757075121611984"><ele>411.0</ele><time>2026-04-16T16:37:13Z</time></trkpt><trkpt lat="44.418509327345994" lon="7.756972340706521"><ele>411.0</ele><time>2026-04-16T16:37:14Z</time></trkpt><trkpt lat="44.418339599513146" lon="7.7568690619557605"><ele>411.0</ele><time>2026-04-16T16:37:15Z</time></trkpt><trkpt lat="44.418167216908365" lon="7.7567529012697385"><ele>411.0</ele><time>2026-04-16T16:37:16Z</time></trkpt><trkpt lat="44.41799263061446" lon="7.756647418862147"><ele>411.0</ele><time>2026-04-16T16:37:17Z</time></trkpt><trkpt lat="44.4178201438015" lon="7.756531260028844"><ele>411.0</ele><time>2026-04-16T16:37:18Z</time></trkpt><trkpt lat="44.41764158431821" lon="7.756416563110151"><ele>411.0</ele><time>2026-04-16T16:37:19Z</time></trkpt><trkpt lat="44.41746152096106" lon="7.756302533708578"><ele>411.0</ele><time>2026-04-16T16:37:20Z</time></trkpt><trkpt lat="44.41727549858094" lon="7.756181843954271"><ele>411.0</ele><time>2026-04-16T16:37:21Z</time></trkpt><trkpt lat="44.417089935960064" lon="7.756061012396102"><ele>411.66666666666663</ele><time>2026-04-16T16:37:22Z</time></trkpt><trkpt lat="44.41690075781423" lon="7.755938016956155"><ele>412.3333333333333</ele><time>2026-04-16T16:37:23Z</time></trkpt><trkpt lat="44.416701195716335" lon="7.755813977573966"><ele>413.0</ele><time>2026-04-16T16:37:24Z</time></trkpt><trkpt lat="44.41650401780418" lon="7.755690509941208"><ele>413.0</ele><time>2026-04-16T16:37:25Z</time></trkpt><trkpt lat="44.416309319054086" lon="7.755563986351951"><ele>413.0</ele><time>2026-04-16T16:37:26Z</time></trkpt><trkpt lat="44.41610956940292" lon="7.7554297318091265"><ele>413.0</ele><time>2026-04-16T16:37:27Z</time></trkpt><trkpt lat="44.41591281428764" lon="7.7552995017955855"><ele>413.66666666666663</ele><time>2026-04-16T16:37:28Z</time></trkpt><trkpt lat="44.41571310477157" lon="7.755166033236466"><ele>414.33333333333337</ele><time>2026-04-16T16:37:29Z</time></trkpt><trkpt lat="44.41550878269128" lon="7.755029068949874"><ele>415.0</ele><time>2026-04-16T16:37:30Z</time></trkpt><trkpt lat="44.415306393617804" lon="7.7548851629875335"><ele>415.0</ele><time>2026-04-16T16:37:31Z</time></trkpt><trkpt lat="44.4151063277044" lon="7.75474929944574"><ele>415.0</ele><time>2026-04-16T16:37:32Z</time></trkpt><trkpt lat="44.41491159090145" lon="7.754621840849681"><ele>415.0</ele><time>2026-04-16T16:37:33Z</time></trkpt><trkpt lat="44.414710566632046" lon="7.7544925370728555"><ele>415.0</ele><time>2026-04-16T16:37:34Z</time></trkpt><trkpt lat="44.414514015325736" lon="7.754360570117144"><ele>415.0</ele><time>2026-04-16T16:37:35Z</time></trkpt><trkpt lat="44.41431914190299" lon="7.754224516713419"><ele>415.0</ele><time>2026-04-16T16:37:36Z</time></trkpt><trkpt lat="44.414127377483986" lon="7.7540782196238895"><ele>415.0</ele><time>2026-04-16T16:37:37Z</time></trkpt><trkpt lat="44.41393544336993" lon="7.753931053464462"><ele>415.0</ele><time>2026-04-16T16:37:38Z</time></trkpt><trkpt lat="44.413744430923465" lon="7.753783796778505"><ele>415.0</ele><time>2026-04-16T16:37:39Z</time></trkpt><trkpt lat="44.413553992312714" lon="7.753630275953899"><ele>415.6666666666667</ele><time>2026-04-16T16:37:40Z</time></trkpt><trkpt lat="44.41336150025174" lon="7.75347354235798"><ele>416.33333333333337</ele><time>2026-04-16T16:37:41Z</time></trkpt><trkpt lat="44.413169962592775" lon="7.753320785749249"><ele>417.0</ele><time>2026-04-16T16:37:42Z</time></trkpt><trkpt lat="44.412978192738834" lon="7.753153935097348"><ele>417.0</ele><time>2026-04-16T16:37:43Z</time></trkpt><trkpt lat="44.41278840982963" lon="7.75299310196283"><ele>417.0</ele><time>2026-04-16T16:37:44Z</time></trkpt><trkpt lat="44.412606937687926" lon="7.752842922145838"><ele>417.0</ele><time>2026-04-16T16:37:45Z</time></trkpt><trkpt lat="44.412424036806776" lon="7.7526965352090444"><ele>416.66666666666663</ele><time>2026-04-16T16:37:46Z</time></trkpt><trkpt lat="44.412240417892654" lon="7.752558871053547"><ele>416.3333333333333</ele><time>2026-04-16T16:37:47Z</time></trkpt><trkpt lat="44.41205096369816" lon="7.752424065727539"><ele>416.0</ele><time>2026-04-16T16:37:48Z</time></trkpt><trkpt lat="44.41187037885344" lon="7.752306668217788"><ele>416.0</ele><time>2026-04-16T16:37:49Z</time></trkpt><trkpt lat="44.411704682175966" lon="7.752198975420656"><ele>416.0</ele><time>2026-04-16T16:37:50Z</time></trkpt><trkpt lat="44.411532878308826" lon="7.752085018667372"><ele>416.0</ele><time>2026-04-16T16:37:51Z</time></trkpt><trkpt lat="44.41135824286525" lon="7.751978827358864"><ele>416.66666666666663</ele><time>2026-04-16T16:37:51.999Z</time></trkpt><trkpt lat="44.41118744273713" lon="7.751861392862525"><ele>417.33333333333337</ele><time>2026-04-16T16:37:52.999Z</time></trkpt><trkpt lat="44.411016031344886" lon="7.75173425929997"><ele>418.0</ele><time>2026-04-16T16:37:53.999Z</time></trkpt><trkpt lat="44.410842105813394" lon="7.751606118988391"><ele>418.0</ele><time>2026-04-16T16:37:54.999Z</time></trkpt><trkpt lat="44.41067022602199" lon="7.751469108209827"><ele>418.0</ele><time>2026-04-16T16:37:55.999Z</time></trkpt><trkpt lat="44.410496755463875" lon="7.7513298779574855"><ele>418.0</ele><time>2026-04-16T16:37:56.999Z</time></trkpt><trkpt lat="44.41033330002177" lon="7.7511936914264625"><ele>418.33333333333337</ele><time>2026-04-16T16:37:57.999Z</time></trkpt><trkpt lat="44.410175017159986" lon="7.751060870051896"><ele>418.66666666666663</ele><time>2026-04-16T16:37:58.999Z</time></trkpt><trkpt lat="44.41001276931167" lon="7.750929047151618"><ele>419.0</ele><time>2026-04-16T16:37:59.999Z</time></trkpt><trkpt lat="44.40985152690346" lon="7.750795966801615"><ele>419.0</ele><time>2026-04-16T16:38:00.999Z</time></trkpt><trkpt lat="44.40969213133865" lon="7.750665758570109"><ele>419.0</ele><time>2026-04-16T16:38:01.999Z</time></trkpt><trkpt lat="44.40953120453939" lon="7.750528411914279"><ele>419.0</ele><time>2026-04-16T16:38:02.999Z</time></trkpt><trkpt lat="44.409366363420595" lon="7.750387617028138"><ele>418.66666666666663</ele><time>2026-04-16T16:38:03.999Z</time></trkpt><trkpt lat="44.40919832982135" lon="7.750246635072963"><ele>418.33333333333337</ele><time>2026-04-16T16:38:04.999Z</time></trkpt><trkpt lat="44.409032453988004" lon="7.75011183950626"><ele>418.0</ele><time>2026-04-16T16:38:05.999Z</time></trkpt><trkpt lat="44.408867790021176" lon="7.749980607782188"><ele>418.33333333333337</ele><time>2026-04-16T16:38:06.999Z</time></trkpt><trkpt lat="44.408698340511044" lon="7.749845495290134"><ele>418.66666666666663</ele><time>2026-04-16T16:38:07.999Z</time></trkpt><trkpt lat="44.408533363063796" lon="7.749709477166826"><ele>419.0</ele><time>2026-04-16T16:38:08.999Z</time></trkpt><trkpt lat="44.40836429098735" lon="7.749572195212448"><ele>419.0</ele><time>2026-04-16T16:38:09.999Z</time></trkpt><trkpt lat="44.408198380797906" lon="7.7494367487254445"><ele>419.0</ele><time>2026-04-16T16:38:10.999Z</time></trkpt><trkpt lat="44.40803180054082" lon="7.749301541863261"><ele>419.0</ele><time>2026-04-16T16:38:11.999Z</time></trkpt><trkpt lat="44.40786526112685" lon="7.749172646409148"><ele>419.66666666666663</ele><time>2026-04-16T16:38:12.999Z</time></trkpt><trkpt lat="44.40768976062698" lon="7.749042936994219"><ele>420.33333333333337</ele><time>2026-04-16T16:38:13.999Z</time></trkpt><trkpt lat="44.407507425256185" lon="7.748927657266131"><ele>421.0</ele><time>2026-04-16T16:38:14.999Z</time></trkpt><trkpt lat="44.40732060231206" lon="7.748823054026357"><ele>421.0</ele><time>2026-04-16T16:38:15.999Z</time></trkpt><trkpt lat="44.407131163424935" lon="7.748713240589905"><ele>421.0</ele><time>2026-04-16T16:38:16.999Z</time></trkpt><trkpt lat="44.4069348424122" lon="7.7486019961392705"><ele>421.0</ele><time>2026-04-16T16:38:17.999Z</time></trkpt><trkpt lat="44.40673896177698" lon="7.748481770436318"><ele>421.33333333333337</ele><time>2026-04-16T16:38:18.999Z</time></trkpt><trkpt lat="44.40653914983285" lon="7.748368111145654"><ele>421.66666666666663</ele><time>2026-04-16T16:38:19.999Z</time></trkpt><trkpt lat="44.40633724136779" lon="7.748251123244446"><ele>422.0</ele><time>2026-04-16T16:38:20.999Z</time></trkpt><trkpt lat="44.406137805840814" lon="7.748134864527779"><ele>422.0</ele><time>2026-04-16T16:38:21.999Z</time></trkpt><trkpt lat="44.4059398788892" lon="7.748019107797113"><ele>422.0</ele><time>2026-04-16T16:38:22.999Z</time></trkpt><trkpt lat="44.40574165388321" lon="7.747905265153674"><ele>422.0</ele><time>2026-04-16T16:38:23.999Z</time></trkpt><trkpt lat="44.40554648167733" lon="7.74779521915332"><ele>422.0</ele><time>2026-04-16T16:38:24.999Z</time></trkpt><trkpt lat="44.405352624785465" lon="7.747681369140187"><ele>422.0</ele><time>2026-04-16T16:38:25.999Z</time></trkpt><trkpt lat="44.40516095862111" lon="7.747568673645726"><ele>422.0</ele><time>2026-04-16T16:38:26.999Z</time></trkpt><trkpt lat="44.40496634774231" lon="7.747456106525949"><ele>422.0</ele><time>2026-04-16T16:38:27.999Z</time></trkpt><trkpt lat="44.40477402603854" lon="7.747343063113472"><ele>422.0</ele><time>2026-04-16T16:38:28.999Z</time></trkpt><trkpt lat="44.404575516211445" lon="7.747230510025519"><ele>422.0</ele><time>2026-04-16T16:38:29.999Z</time></trkpt><trkpt lat="44.40438396259242" lon="7.747115212673472"><ele>421.66666666666663</ele><time>2026-04-16T16:38:30.999Z</time></trkpt><trkpt lat="44.40418262808099" lon="7.747001198138166"><ele>421.33333333333337</ele><time>2026-04-16T16:38:31.999Z</time></trkpt><trkpt lat="44.40397904789762" lon="7.746887054308197"><ele>421.0</ele><time>2026-04-16T16:38:32.999Z</time></trkpt><trkpt lat="44.40377935507857" lon="7.746772238309214"><ele>421.6666666666667</ele><time>2026-04-16T16:38:33.999Z</time></trkpt><trkpt lat="44.40359737078588" lon="7.746665588056527"><ele>422.33333333333337</ele><time>2026-04-16T16:38:34.999Z</time></trkpt><trkpt lat="44.40342346929864" lon="7.746553219307684"><ele>423.0</ele><time>2026-04-16T16:38:35.999Z</time></trkpt><trkpt lat="44.40325691648686" lon="7.746439226984682"><ele>423.0</ele><time>2026-04-16T16:38:36.999Z</time></trkpt><trkpt lat="44.40309009314995" lon="7.7463073187460205"><ele>423.0</ele><time>2026-04-16T16:38:37.999Z</time></trkpt><trkpt lat="44.40292414468987" lon="7.746161918138973"><ele>423.0</ele><time>2026-04-16T16:38:38.999Z</time></trkpt><trkpt lat="44.40275736295144" lon="7.74600350972502"><ele>423.33333333333337</ele><time>2026-04-16T16:38:39.999Z</time></trkpt><trkpt lat="44.402590857285126" lon="7.745825773342889"><ele>423.6666666666667</ele><time>2026-04-16T16:38:40.999Z</time></trkpt><trkpt lat="44.40242962854438" lon="7.745644277301232"><ele>424.0</ele><time>2026-04-16T16:38:41.999Z</time></trkpt><trkpt lat="44.402262768040714" lon="7.745454416112537"><ele>424.0</ele><time>2026-04-16T16:38:42.999Z</time></trkpt><trkpt lat="44.40210023854925" lon="7.745261260306237"><ele>424.0</ele><time>2026-04-16T16:38:43.999Z</time></trkpt><trkpt lat="44.401934756394375" lon="7.745069992799167"><ele>424.0</ele><time>2026-04-16T16:38:44.999Z</time></trkpt><trkpt lat="44.40177465210822" lon="7.7448875399403025"><ele>424.33333333333337</ele><time>2026-04-16T16:38:45.999Z</time></trkpt><trkpt lat="44.40162267214936" lon="7.744707409653181"><ele>424.66666666666663</ele><time>2026-04-16T16:38:46.999Z</time></trkpt><trkpt lat="44.40147599643451" lon="7.744539888235944"><ele>425.0</ele><time>2026-04-16T16:38:47.999Z</time></trkpt><trkpt lat="44.40134844710648" lon="7.744387722075156"><ele>425.66666666666663</ele><time>2026-04-16T16:38:48.999Z</time></trkpt><trkpt lat="44.40122151284506" lon="7.744239117542151"><ele>426.33333333333337</ele><time>2026-04-16T16:38:49.999Z</time></trkpt><trkpt lat="44.40110771376415" lon="7.744107188976178"><ele>427.0</ele><time>2026-04-16T16:38:50.999Z</time></trkpt><trkpt lat="44.4009943357785" lon="7.7439652658767635"><ele>427.0</ele><time>2026-04-16T16:38:51.999Z</time></trkpt><trkpt lat="44.40089110547034" lon="7.743845217760255"><ele>427.00000000000006</ele><time>2026-04-16T16:38:52.999Z</time></trkpt><trkpt lat="44.40079562613458" lon="7.743743058068638"><ele>427.00000000000006</ele><time>2026-04-16T16:38:53.999Z</time></trkpt><trkpt lat="44.40072231340384" lon="7.743653753717506"><ele>427.0</ele><time>2026-04-16T16:38:54.999Z</time></trkpt><trkpt lat="44.400654987931716" lon="7.743570261948309"><ele>427.0</ele><time>2026-04-16T16:38:55.999Z</time></trkpt><trkpt lat="44.40059264029192" lon="7.743487695961806"><ele>427.00000000000006</ele><time>2026-04-16T16:38:56.999Z</time></trkpt><trkpt lat="44.40053769146021" lon="7.743414091601449"><ele>427.0</ele><time>2026-04-16T16:38:57.999Z</time></trkpt><trkpt lat="44.40048814403837" lon="7.743346985295321"><ele>427.0</ele><time>2026-04-16T16:38:58.998Z</time></trkpt><trkpt lat="44.40042369911579" lon="7.743270858345606"><ele>427.0</ele><time>2026-04-16T16:38:59.998Z</time></trkpt><trkpt lat="44.40034680330415" lon="7.7432110060585515"><ele>427.00000000000006</ele><time>2026-04-16T16:39:00.998Z</time></trkpt><trkpt lat="44.400259994199224" lon="7.743141435830388"><ele>427.0</ele><time>2026-04-16T16:39:01.998Z</time></trkpt><trkpt lat="44.40016564761243" lon="7.743054688720168"><ele>427.0</ele><time>2026-04-16T16:39:02.998Z</time></trkpt><trkpt lat="44.4000702338857" lon="7.742963420010647"><ele>427.0</ele><time>2026-04-16T16:39:03.998Z</time></trkpt><trkpt lat="44.39997013219886" lon="7.742864183576278"><ele>427.0</ele><time>2026-04-16T16:39:04.998Z</time></trkpt><trkpt lat="44.399851959339514" lon="7.742751735717268"><ele>427.0</ele><time>2026-04-16T16:39:05.998Z</time></trkpt><trkpt lat="44.39972590965075" lon="7.74263884437909"><ele>426.6666666666667</ele><time>2026-04-16T16:39:06.998Z</time></trkpt><trkpt lat="44.39958564855956" lon="7.742505431851792"><ele>426.33333333333337</ele><time>2026-04-16T16:39:07.998Z</time></trkpt><trkpt lat="44.399444556331105" lon="7.7423775399964505"><ele>426.0</ele><time>2026-04-16T16:39:08.998Z</time></trkpt><trkpt lat="44.39930539464397" lon="7.742243669184194"><ele>426.0</ele><time>2026-04-16T16:39:09.998Z</time></trkpt><trkpt lat="44.3991545924222" lon="7.742099587367086"><ele>426.0</ele><time>2026-04-16T16:39:11Z</time></trkpt><trkpt lat="44.39899810716141" lon="7.741950489092472"><ele>426.0</ele><time>2026-04-16T16:39:12Z</time></trkpt><trkpt lat="44.39884616596685" lon="7.7418099868921715"><ele>426.66666666666663</ele><time>2026-04-16T16:39:13Z</time></trkpt><trkpt lat="44.3986898821343" lon="7.7416491559063365"><ele>427.3333333333333</ele><time>2026-04-16T16:39:14Z</time></trkpt><trkpt lat="44.39853883973375" lon="7.74150076958242"><ele>428.0</ele><time>2026-04-16T16:39:15Z</time></trkpt><trkpt lat="44.39839802949441" lon="7.741362146683551"><ele>428.0</ele><time>2026-04-16T16:39:16Z</time></trkpt><trkpt lat="44.39825996102058" lon="7.741231678022937"><ele>428.0</ele><time>2026-04-16T16:39:17Z</time></trkpt><trkpt lat="44.39812637914682" lon="7.741099371897784"><ele>428.0</ele><time>2026-04-16T16:39:18Z</time></trkpt><trkpt lat="44.39800775033971" lon="7.7409867050151915"><ele>428.0</ele><time>2026-04-16T16:39:19Z</time></trkpt><trkpt lat="44.397889468745014" lon="7.740858296877072"><ele>428.0</ele><time>2026-04-16T16:39:20Z</time></trkpt><trkpt lat="44.39777694406302" lon="7.740713192135976"><ele>428.0</ele><time>2026-04-16T16:39:21Z</time></trkpt><trkpt lat="44.39766295239692" lon="7.740552622698741"><ele>428.0</ele><time>2026-04-16T16:39:22Z</time></trkpt><trkpt lat="44.39756943180615" lon="7.740361358547759"><ele>428.0</ele><time>2026-04-16T16:39:23Z</time></trkpt><trkpt lat="44.39746257970983" lon="7.740168449966918"><ele>428.0</ele><time>2026-04-16T16:39:24Z</time></trkpt><trkpt lat="44.397347698683674" lon="7.739986592457113"><ele>428.0</ele><time>2026-04-16T16:39:25Z</time></trkpt><trkpt lat="44.397250786675585" lon="7.739767009286588"><ele>428.0</ele><time>2026-04-16T16:39:26Z</time></trkpt><trkpt lat="44.39714178626164" lon="7.739559697889603"><ele>428.0</ele><time>2026-04-16T16:39:27Z</time></trkpt><trkpt lat="44.39702676957742" lon="7.739341233082554"><ele>428.66666666666663</ele><time>2026-04-16T16:39:28Z</time></trkpt><trkpt lat="44.39690375606882" lon="7.739138536513325"><ele>429.33333333333337</ele><time>2026-04-16T16:39:29Z</time></trkpt><trkpt lat="44.3967918369748" lon="7.738924545928375"><ele>430.0</ele><time>2026-04-16T16:39:30Z</time></trkpt><trkpt lat="44.396678266574554" lon="7.738710932997052"><ele>430.33333333333337</ele><time>2026-04-16T16:39:31Z</time></trkpt><trkpt lat="44.39656105325378" lon="7.73849392353949"><ele>430.66666666666663</ele><time>2026-04-16T16:39:32Z</time></trkpt><trkpt lat="44.3964469092252" lon="7.73827913994665"><ele>431.0</ele><time>2026-04-16T16:39:33Z</time></trkpt><trkpt lat="44.396336663831306" lon="7.738080191799006"><ele>431.0</ele><time>2026-04-16T16:39:34Z</time></trkpt><trkpt lat="44.3962252259782" lon="7.737862747677262"><ele>431.0</ele><time>2026-04-16T16:39:35Z</time></trkpt><trkpt lat="44.396116603564465" lon="7.7376420753993145"><ele>431.0</ele><time>2026-04-16T16:39:36Z</time></trkpt><trkpt lat="44.39600415007296" lon="7.737433088681398"><ele>431.0</ele><time>2026-04-16T16:39:37Z</time></trkpt><trkpt lat="44.39589371275288" lon="7.737225791660256"><ele>431.0</ele><time>2026-04-16T16:39:38Z</time></trkpt><trkpt lat="44.39578154546228" lon="7.7370178488075005"><ele>431.0</ele><time>2026-04-16T16:39:39Z</time></trkpt><trkpt lat="44.395675957460206" lon="7.736814708268349"><ele>431.0</ele><time>2026-04-16T16:39:40Z</time></trkpt><trkpt lat="44.39556585107696" lon="7.736606873281248"><ele>431.0</ele><time>2026-04-16T16:39:41Z</time></trkpt><trkpt lat="44.39547041103067" lon="7.736414905290449"><ele>431.0</ele><time>2026-04-16T16:39:42Z</time></trkpt><trkpt lat="44.395368850578755" lon="7.736230229356381"><ele>432.0</ele><time>2026-04-16T16:39:43Z</time></trkpt><trkpt lat="44.39527009143009" lon="7.73604177754537"><ele>433.0</ele><time>2026-04-16T16:39:44Z</time></trkpt><trkpt lat="44.39517151190732" lon="7.735854681952134"><ele>434.0</ele><time>2026-04-16T16:39:45Z</time></trkpt><trkpt lat="44.39506597627335" lon="7.7356594850024125"><ele>434.0</ele><time>2026-04-16T16:39:46Z</time></trkpt><trkpt lat="44.39496315716333" lon="7.735466116489983"><ele>434.0</ele><time>2026-04-16T16:39:47Z</time></trkpt><trkpt lat="44.39485417487846" lon="7.735269613830193"><ele>434.0</ele><time>2026-04-16T16:39:48Z</time></trkpt><trkpt lat="44.39474306882527" lon="7.735067089060984"><ele>434.0</ele><time>2026-04-16T16:39:49Z</time></trkpt><trkpt lat="44.394641141744735" lon="7.7348662997328095"><ele>434.0</ele><time>2026-04-16T16:39:50Z</time></trkpt><trkpt lat="44.394537918086804" lon="7.734676781302929"><ele>434.0</ele><time>2026-04-16T16:39:51Z</time></trkpt><trkpt lat="44.39444649834434" lon="7.7344795300488745"><ele>434.0</ele><time>2026-04-16T16:39:52Z</time></trkpt><trkpt lat="44.39435807408468" lon="7.734306238183044"><ele>434.0</ele><time>2026-04-16T16:39:53Z</time></trkpt><trkpt lat="44.394273886940425" lon="7.734144918233294"><ele>434.0</ele><time>2026-04-16T16:39:54Z</time></trkpt><trkpt lat="44.394192434564296" lon="7.733994876762413"><ele>434.0</ele><time>2026-04-16T16:39:55Z</time></trkpt><trkpt lat="44.39411308037823" lon="7.733841167928084"><ele>434.0</ele><time>2026-04-16T16:39:56Z</time></trkpt><trkpt lat="44.39403223452524" lon="7.733674418471561"><ele>434.0</ele><time>2026-04-16T16:39:57Z</time></trkpt><trkpt lat="44.393945835803535" lon="7.733518092294308"><ele>434.0</ele><time>2026-04-16T16:39:58Z</time></trkpt><trkpt lat="44.39385467448767" lon="7.733359948790713"><ele>434.0</ele><time>2026-04-16T16:39:58.999Z</time></trkpt><trkpt lat="44.39376058452861" lon="7.733201201354122"><ele>434.25</ele><time>2026-04-16T16:39:59.999Z</time></trkpt><trkpt lat="44.393670045620176" lon="7.733031298187725"><ele>434.5</ele><time>2026-04-16T16:40:00.999Z</time></trkpt><trkpt lat="44.39358857101587" lon="7.732872904117438"><ele>434.75</ele><time>2026-04-16T16:40:01.999Z</time></trkpt><trkpt lat="44.393508474424294" lon="7.732690693211898"><ele>435.0</ele><time>2026-04-16T16:40:02.999Z</time></trkpt><trkpt lat="44.393420519292135" lon="7.732512582223239"><ele>435.33333333333337</ele><time>2026-04-16T16:40:03.999Z</time></trkpt><trkpt lat="44.39334349652845" lon="7.73231219971633"><ele>435.6666666666667</ele><time>2026-04-16T16:40:04.999Z</time></trkpt><trkpt lat="44.39326108275891" lon="7.732109314658021"><ele>436.0</ele><time>2026-04-16T16:40:05.999Z</time></trkpt><trkpt lat="44.393183971896676" lon="7.731903874794212"><ele>436.0</ele><time>2026-04-16T16:40:06.999Z</time></trkpt><trkpt lat="44.3930995228929" lon="7.731682468571926"><ele>436.0</ele><time>2026-04-16T16:40:07.999Z</time></trkpt><trkpt lat="44.39301609888436" lon="7.731459818921237"><ele>436.0</ele><time>2026-04-16T16:40:08.999Z</time></trkpt><trkpt lat="44.392926954910884" lon="7.731239764883434"><ele>435.6666666666667</ele><time>2026-04-16T16:40:09.999Z</time></trkpt><trkpt lat="44.39283837354611" lon="7.731016454694697"><ele>435.33333333333337</ele><time>2026-04-16T16:40:10.999Z</time></trkpt><trkpt lat="44.392751787333026" lon="7.730781840435121"><ele>435.0</ele><time>2026-04-16T16:40:11.999Z</time></trkpt><trkpt lat="44.39266732210423" lon="7.730567501807502"><ele>435.0</ele><time>2026-04-16T16:40:12.999Z</time></trkpt><trkpt lat="44.39258641852764" lon="7.730351719690338"><ele>435.0</ele><time>2026-04-16T16:40:13.999Z</time></trkpt><trkpt lat="44.39250896006465" lon="7.730133144800525"><ele>435.0</ele><time>2026-04-16T16:40:14.999Z</time></trkpt><trkpt lat="44.39242358520525" lon="7.729920561525213"><ele>435.0</ele><time>2026-04-16T16:40:15.999Z</time></trkpt><trkpt lat="44.392341309105035" lon="7.729709610788658"><ele>435.0</ele><time>2026-04-16T16:40:16.999Z</time></trkpt><trkpt lat="44.392260806839815" lon="7.729498515362373"><ele>435.0</ele><time>2026-04-16T16:40:17.999Z</time></trkpt><trkpt lat="44.39217674424052" lon="7.729286328386573"><ele>436.33333333333337</ele><time>2026-04-16T16:40:18.999Z</time></trkpt><trkpt lat="44.39209552750655" lon="7.729072571833083"><ele>437.6666666666667</ele><time>2026-04-16T16:40:19.999Z</time></trkpt><trkpt lat="44.3920132080009" lon="7.728859916344422"><ele>439.0</ele><time>2026-04-16T16:40:20.999Z</time></trkpt><trkpt lat="44.39193277181207" lon="7.728634328914534"><ele>439.0</ele><time>2026-04-16T16:40:21.999Z</time></trkpt><trkpt lat="44.39185029092861" lon="7.72840745629495"><ele>439.0</ele><time>2026-04-16T16:40:22.999Z</time></trkpt><trkpt lat="44.39176588646695" lon="7.72818169107216"><ele>439.0</ele><time>2026-04-16T16:40:23.999Z</time></trkpt><trkpt lat="44.39167502650966" lon="7.727952927624564"><ele>439.6666666666667</ele><time>2026-04-16T16:40:24.999Z</time></trkpt><trkpt lat="44.391586741595965" lon="7.727722750686618"><ele>440.33333333333337</ele><time>2026-04-16T16:40:25.999Z</time></trkpt><trkpt lat="44.39149500428888" lon="7.7275063426511235"><ele>441.0</ele><time>2026-04-16T16:40:26.999Z</time></trkpt><trkpt lat="44.391407557425055" lon="7.727284090382474"><ele>440.66666666666663</ele><time>2026-04-16T16:40:27.999Z</time></trkpt><trkpt lat="44.3913208313806" lon="7.727060714958833"><ele>440.3333333333333</ele><time>2026-04-16T16:40:28.999Z</time></trkpt><trkpt lat="44.391229973302096" lon="7.726839893891121"><ele>440.0</ele><time>2026-04-16T16:40:29.999Z</time></trkpt><trkpt lat="44.39114342604588" lon="7.7266163970802975"><ele>440.0</ele><time>2026-04-16T16:40:30.999Z</time></trkpt><trkpt lat="44.39105870481308" lon="7.726399574125544"><ele>440.0</ele><time>2026-04-16T16:40:31.999Z</time></trkpt><trkpt lat="44.390982632368065" lon="7.726196108028288"><ele>440.0</ele><time>2026-04-16T16:40:32.999Z</time></trkpt><trkpt lat="44.39090323219821" lon="7.7259811508276375"><ele>440.3333333333333</ele><time>2026-04-16T16:40:33.999Z</time></trkpt><trkpt lat="44.39081641529363" lon="7.72576994445805"><ele>440.66666666666663</ele><time>2026-04-16T16:40:34.999Z</time></trkpt><trkpt lat="44.390733637885376" lon="7.7255667646616795"><ele>441.0</ele><time>2026-04-16T16:40:35.999Z</time></trkpt><trkpt lat="44.39066248616926" lon="7.725345545765289"><ele>440.33333333333337</ele><time>2026-04-16T16:40:36.999Z</time></trkpt><trkpt lat="44.39056798260904" lon="7.725134729189524"><ele>439.6666666666667</ele><time>2026-04-16T16:40:37.999Z</time></trkpt><trkpt lat="44.39048405814851" lon="7.724914413878086"><ele>439.0</ele><time>2026-04-16T16:40:38.999Z</time></trkpt><trkpt lat="44.390402213911685" lon="7.724703333916968"><ele>440.33333333333337</ele><time>2026-04-16T16:40:39.999Z</time></trkpt><trkpt lat="44.390325236081566" lon="7.724481054532897"><ele>441.66666666666663</ele><time>2026-04-16T16:40:40.999Z</time></trkpt><trkpt lat="44.39024660495629" lon="7.7242716500206825"><ele>443.0</ele><time>2026-04-16T16:40:41.999Z</time></trkpt><trkpt lat="44.39016635064847" lon="7.724066862268258"><ele>443.0</ele><time>2026-04-16T16:40:42.999Z</time></trkpt><trkpt lat="44.39009139588881" lon="7.7238668035156905"><ele>443.0</ele><time>2026-04-16T16:40:43.999Z</time></trkpt><trkpt lat="44.39000921700437" lon="7.723660325864419"><ele>443.0</ele><time>2026-04-16T16:40:44.999Z</time></trkpt><trkpt lat="44.38992725003135" lon="7.723459952501582"><ele>443.3333333333333</ele><time>2026-04-16T16:40:45.999Z</time></trkpt><trkpt lat="44.38985745368208" lon="7.7232643302338335"><ele>443.66666666666663</ele><time>2026-04-16T16:40:46.999Z</time></trkpt><trkpt lat="44.389778759005424" lon="7.723068887951987"><ele>444.0</ele><time>2026-04-16T16:40:47.999Z</time></trkpt><trkpt lat="44.38970786236094" lon="7.72289239142794"><ele>444.5</ele><time>2026-04-16T16:40:48.999Z</time></trkpt><trkpt lat="44.38963694496493" lon="7.722713047792721"><ele>445.0</ele><time>2026-04-16T16:40:49.999Z</time></trkpt><trkpt lat="44.389563838674434" lon="7.722528606732003"><ele>445.5</ele><time>2026-04-16T16:40:50.999Z</time></trkpt><trkpt lat="44.38948636003413" lon="7.7223475792575424"><ele>446.0</ele><time>2026-04-16T16:40:51.999Z</time></trkpt><trkpt lat="44.38939830804214" lon="7.7221698746703655"><ele>446.0</ele><time>2026-04-16T16:40:52.999Z</time></trkpt><trkpt lat="44.389301000429214" lon="7.7219864834969005"><ele>446.0</ele><time>2026-04-16T16:40:53.999Z</time></trkpt><trkpt lat="44.389192109318834" lon="7.721831849929869"><ele>446.0</ele><time>2026-04-16T16:40:54.999Z</time></trkpt><trkpt lat="44.389072550771004" lon="7.721675957119371"><ele>446.0</ele><time>2026-04-16T16:40:55.999Z</time></trkpt><trkpt lat="44.38894815457748" lon="7.721515157274021"><ele>446.0</ele><time>2026-04-16T16:40:56.999Z</time></trkpt><trkpt lat="44.388826371824706" lon="7.721361971111401"><ele>446.0</ele><time>2026-04-16T16:40:57.999Z</time></trkpt><trkpt lat="44.38870382016653" lon="7.721215605848835"><ele>446.0</ele><time>2026-04-16T16:40:58.999Z</time></trkpt><trkpt lat="44.38858467123469" lon="7.721071933372281"><ele>446.0</ele><time>2026-04-16T16:40:59.999Z</time></trkpt><trkpt lat="44.388473878464005" lon="7.720922779788094"><ele>446.0</ele><time>2026-04-16T16:41:00.999Z</time></trkpt><trkpt lat="44.388367533683315" lon="7.720775122527256"><ele>446.25</ele><time>2026-04-16T16:41:01.999Z</time></trkpt><trkpt lat="44.3882612352984" lon="7.720634807421437"><ele>446.5</ele><time>2026-04-16T16:41:02.999Z</time></trkpt><trkpt lat="44.388160766798094" lon="7.720507943821465"><ele>446.75</ele><time>2026-04-16T16:41:03.999Z</time></trkpt><trkpt lat="44.388061681803435" lon="7.720384986438256"><ele>447.0</ele><time>2026-04-16T16:41:04.998Z</time></trkpt><trkpt lat="44.387958955036254" lon="7.720258977158661"><ele>447.5</ele><time>2026-04-16T16:41:05.998Z</time></trkpt><trkpt lat="44.387861974880096" lon="7.720138839778777"><ele>448.0</ele><time>2026-04-16T16:41:06.998Z</time></trkpt><trkpt lat="44.38776367141927" lon="7.720008475455937"><ele>448.5</ele><time>2026-04-16T16:41:07.998Z</time></trkpt><trkpt lat="44.38766922683489" lon="7.71989270791587"><ele>449.0</ele><time>2026-04-16T16:41:08.998Z</time></trkpt><trkpt lat="44.38758319161127" lon="7.719788128219196"><ele>449.0</ele><time>2026-04-16T16:41:09.998Z</time></trkpt><trkpt lat="44.387502544078" lon="7.719678566327689"><ele>449.0</ele><time>2026-04-16T16:41:10.998Z</time></trkpt><trkpt lat="44.387426191452796" lon="7.719580569056504"><ele>449.0</ele><time>2026-04-16T16:41:11.998Z</time></trkpt><trkpt lat="44.38735069546815" lon="7.7194932835693235"><ele>449.0</ele><time>2026-04-16T16:41:12.998Z</time></trkpt><trkpt lat="44.38725978105998" lon="7.719408172818896"><ele>449.0</ele><time>2026-04-16T16:41:13.998Z</time></trkpt><trkpt lat="44.38715836341122" lon="7.719338131181794"><ele>449.4</ele><time>2026-04-16T16:41:14.998Z</time></trkpt><trkpt lat="44.38705960349663" lon="7.7193002376261655"><ele>449.79999999999995</ele><time>2026-04-16T16:41:15.998Z</time></trkpt><trkpt lat="44.38694740587435" lon="7.719284270231799"><ele>450.20000000000005</ele><time>2026-04-16T16:41:17Z</time></trkpt><trkpt lat="44.38682925832897" lon="7.719288621465558"><ele>450.6</ele><time>2026-04-16T16:41:18Z</time></trkpt><trkpt lat="44.38672740153452" lon="7.719303067468401"><ele>451.0</ele><time>2026-04-16T16:41:19Z</time></trkpt><trkpt lat="44.38663492165325" lon="7.719316237417325"><ele>451.00000000000006</ele><time>2026-04-16T16:41:20Z</time></trkpt><trkpt lat="44.38655140804727" lon="7.719339394440507"><ele>451.0</ele><time>2026-04-16T16:41:21Z</time></trkpt><trkpt lat="44.38646814846708" lon="7.719368316414594"><ele>451.0</ele><time>2026-04-16T16:41:22Z</time></trkpt><trkpt lat="44.386397508405196" lon="7.719397966343051"><ele>451.0</ele><time>2026-04-16T16:41:23Z</time></trkpt><trkpt lat="44.38627332429143" lon="7.719456560640346"><ele>451.00000000000006</ele><time>2026-04-16T16:41:25Z</time></trkpt><trkpt lat="44.386202390681085" lon="7.719484340473519"><ele>451.0</ele><time>2026-04-16T16:41:26Z</time></trkpt><trkpt lat="44.386128904575536" lon="7.719504310805729"><ele>451.8</ele><time>2026-04-16T16:41:27Z</time></trkpt><trkpt lat="44.38606031728269" lon="7.719501767940448"><ele>452.6</ele><time>2026-04-16T16:41:28Z</time></trkpt><trkpt lat="44.38596163417463" lon="7.719519030801479"><ele>453.4</ele><time>2026-04-16T16:41:30Z</time></trkpt><trkpt lat="44.38589527714558" lon="7.719538620091851"><ele>454.2</ele><time>2026-04-16T16:41:33Z</time></trkpt><trkpt lat="44.38579588397418" lon="7.719325942221478"><ele>455.0</ele><time>2026-04-16T16:42:04Z</time></trkpt><trkpt lat="44.38573870739797" lon="7.719251287087461"><ele>455.0</ele><time>2026-04-16T16:42:05Z</time></trkpt><trkpt lat="44.38568061550147" lon="7.719155971722974"><ele>455.0</ele><time>2026-04-16T16:42:06Z</time></trkpt><trkpt lat="44.38562224874483" lon="7.71903818549876"><ele>455.0</ele><time>2026-04-16T16:42:06.999Z</time></trkpt><trkpt lat="44.385558271596715" lon="7.71891097883711"><ele>455.0</ele><time>2026-04-16T16:42:07.999Z</time></trkpt><trkpt lat="44.38551009479672" lon="7.718812058438044"><ele>455.0</ele><time>2026-04-16T16:42:08.999Z</time></trkpt><trkpt lat="44.38547038859314" lon="7.7187319131311325"><ele>455.49999999999994</ele><time>2026-04-16T16:42:09.999Z</time></trkpt><trkpt lat="44.385426916473705" lon="7.71864120044389"><ele>456.0</ele><time>2026-04-16T16:42:10.999Z</time></trkpt><trkpt lat="44.38539037515276" lon="7.718568719380621"><ele>456.5</ele><time>2026-04-16T16:42:12.999Z</time></trkpt><trkpt lat="44.38531809136787" lon="7.7185158116834005"><ele>457.0</ele><time>2026-04-16T16:42:22.999Z</time></trkpt><trkpt lat="44.38521299203965" lon="7.718502006082641"><ele>457.49999999999994</ele><time>2026-04-16T16:42:24.999Z</time></trkpt><trkpt lat="44.385131183891446" lon="7.718595202847515"><ele>458.0</ele><time>2026-04-16T16:42:26.999Z</time></trkpt><trkpt lat="44.3850957375974" lon="7.71867615267486"><ele>458.99999999999994</ele><time>2026-04-16T16:42:27.999Z</time></trkpt><trkpt lat="44.3850550760056" lon="7.71876743867519"><ele>460.0</ele><time>2026-04-16T16:42:28.999Z</time></trkpt><trkpt lat="44.38501536278399" lon="7.7188370506937325"><ele>461.0</ele><time>2026-04-16T16:42:29.999Z</time></trkpt><trkpt lat="44.38496289883162" lon="7.718900610012726"><ele>462.0</ele><time>2026-04-16T16:42:30.999Z</time></trkpt><trkpt lat="44.38490223883205" lon="7.718929373197917"><ele>462.99999999999994</ele><time>2026-04-16T16:42:31.999Z</time></trkpt><trkpt lat="44.384787849333755" lon="7.718951164786135"><ele>464.0</ele><time>2026-04-16T16:42:33.999Z</time></trkpt><trkpt lat="44.38471705117837" lon="7.718932051721709"><ele>466.0</ele><time>2026-04-16T16:42:34.999Z</time></trkpt><trkpt lat="44.38462257927171" lon="7.718923616093729"><ele>468.0</ele><time>2026-04-16T16:42:35.999Z</time></trkpt><trkpt lat="44.384519056579016" lon="7.718919550630522"><ele>470.0</ele><time>2026-04-16T16:42:36.999Z</time></trkpt><trkpt lat="44.384414669751266" lon="7.71891770574148"><ele>472.0</ele><time>2026-04-16T16:42:37.999Z</time></trkpt><trkpt lat="44.384297028396304" lon="7.718909309912406"><ele>474.0</ele><time>2026-04-16T16:42:38.999Z</time></trkpt><trkpt lat="44.384167259910924" lon="7.718902619677452"><ele>474.0</ele><time>2026-04-16T16:42:39.999Z</time></trkpt><trkpt lat="44.38403682120594" lon="7.718876292137539"><ele>474.0</ele><time>2026-04-16T16:42:40.999Z</time></trkpt><trkpt lat="44.38390349190551" lon="7.718869085289556"><ele>474.0</ele><time>2026-04-16T16:42:41.999Z</time></trkpt><trkpt lat="44.38376355922318" lon="7.718861038959623"><ele>474.0</ele><time>2026-04-16T16:42:42.999Z</time></trkpt><trkpt lat="44.3836189946221" lon="7.718848688683392"><ele>476.33333333333337</ele><time>2026-04-16T16:42:43.999Z</time></trkpt><trkpt lat="44.383466427629635" lon="7.71884801102799"><ele>478.6666666666667</ele><time>2026-04-16T16:42:44.999Z</time></trkpt><trkpt lat="44.38331267724635" lon="7.71883161697944"><ele>481.0</ele><time>2026-04-16T16:42:45.999Z</time></trkpt><trkpt lat="44.38316404485173" lon="7.718837204267051"><ele>481.6666666666667</ele><time>2026-04-16T16:42:46.999Z</time></trkpt><trkpt lat="44.38300502943336" lon="7.71882574038687"><ele>482.33333333333337</ele><time>2026-04-16T16:42:47.999Z</time></trkpt><trkpt lat="44.38284430997105" lon="7.718815675111042"><ele>483.0</ele><time>2026-04-16T16:42:48.999Z</time></trkpt><trkpt lat="44.38268118500513" lon="7.71880687935762"><ele>483.0</ele><time>2026-04-16T16:42:49.999Z</time></trkpt><trkpt lat="44.38252491533991" lon="7.718793412990204"><ele>483.0</ele><time>2026-04-16T16:42:50.999Z</time></trkpt><trkpt lat="44.382361503097606" lon="7.718777613967114"><ele>483.0</ele><time>2026-04-16T16:42:51.999Z</time></trkpt><trkpt lat="44.38221374722979" lon="7.718778011321382"><ele>483.5</ele><time>2026-04-16T16:42:52.999Z</time></trkpt><trkpt lat="44.382069981636974" lon="7.718761152193125"><ele>484.0</ele><time>2026-04-16T16:42:53.999Z</time></trkpt><trkpt lat="44.38193025477006" lon="7.718744052386019"><ele>484.5</ele><time>2026-04-16T16:42:54.999Z</time></trkpt><trkpt lat="44.381798627376455" lon="7.71872636417859"><ele>485.0</ele><time>2026-04-16T16:42:55.999Z</time></trkpt><trkpt lat="44.38167719439917" lon="7.718709944879048"><ele>485.0</ele><time>2026-04-16T16:42:56.999Z</time></trkpt><trkpt lat="44.381562586102035" lon="7.7186868538719065"><ele>485.0</ele><time>2026-04-16T16:42:57.999Z</time></trkpt><trkpt lat="44.38147410766778" lon="7.7186619019658105"><ele>485.0</ele><time>2026-04-16T16:42:58.999Z</time></trkpt><trkpt lat="44.38136611178709" lon="7.718627735355228"><ele>485.0</ele><time>2026-04-16T16:42:59.999Z</time></trkpt><trkpt lat="44.381257848367476" lon="7.718585815681945"><ele>485.0</ele><time>2026-04-16T16:43:00.999Z</time></trkpt><trkpt lat="44.381157684450805" lon="7.718541859001676"><ele>484.8</ele><time>2026-04-16T16:43:01.999Z</time></trkpt><trkpt lat="44.38106351545117" lon="7.7184929501919415"><ele>484.6</ele><time>2026-04-16T16:43:02.999Z</time></trkpt><trkpt lat="44.38095427684826" lon="7.718454016754651"><ele>484.4</ele><time>2026-04-16T16:43:03.999Z</time></trkpt><trkpt lat="44.38086418691129" lon="7.7183819751224"><ele>484.2</ele><time>2026-04-16T16:43:04.999Z</time></trkpt><trkpt lat="44.38076386614214" lon="7.718299762495839"><ele>484.0</ele><time>2026-04-16T16:43:05.999Z</time></trkpt><trkpt lat="44.38065601590669" lon="7.718214242421102"><ele>484.0</ele><time>2026-04-16T16:43:06.999Z</time></trkpt><trkpt lat="44.38055585112779" lon="7.718124144565753"><ele>484.0</ele><time>2026-04-16T16:43:07.999Z</time></trkpt><trkpt lat="44.38046445840811" lon="7.7180086877989815"><ele>484.0</ele><time>2026-04-16T16:43:08.999Z</time></trkpt><trkpt lat="44.380366919943754" lon="7.717911946170245"><ele>484.0</ele><time>2026-04-16T16:43:09.999Z</time></trkpt><trkpt lat="44.38027627009927" lon="7.717826476101116"><ele>484.4</ele><time>2026-04-16T16:43:10.998Z</time></trkpt><trkpt lat="44.380182608364535" lon="7.717740479292832"><ele>484.79999999999995</ele><time>2026-04-16T16:43:11.998Z</time></trkpt><trkpt lat="44.3800906637806" lon="7.717656608356354"><ele>485.20000000000005</ele><time>2026-04-16T16:43:12.998Z</time></trkpt><trkpt lat="44.380001501399136" lon="7.717564746958651"><ele>485.6</ele><time>2026-04-16T16:43:13.998Z</time></trkpt><trkpt lat="44.37990769050721" lon="7.717474003491126"><ele>486.0</ele><time>2026-04-16T16:43:14.998Z</time></trkpt><trkpt lat="44.37981487302668" lon="7.717382959502078"><ele>486.25</ele><time>2026-04-16T16:43:15.998Z</time></trkpt><trkpt lat="44.37971676952432" lon="7.71728365067516"><ele>486.5</ele><time>2026-04-16T16:43:16.998Z</time></trkpt><trkpt lat="44.37961840655422" lon="7.717191901669334"><ele>486.75</ele><time>2026-04-16T16:43:17.998Z</time></trkpt><trkpt lat="44.37951953671681" lon="7.71709353154411"><ele>487.0</ele><time>2026-04-16T16:43:18.998Z</time></trkpt><trkpt lat="44.379428196481214" lon="7.716999474519882"><ele>487.75</ele><time>2026-04-16T16:43:19.998Z</time></trkpt><trkpt lat="44.3793280577442" lon="7.716901861512602"><ele>488.5</ele><time>2026-04-16T16:43:20.998Z</time></trkpt><trkpt lat="44.37922700237916" lon="7.716798332718209"><ele>489.25</ele><time>2026-04-16T16:43:21.998Z</time></trkpt><trkpt lat="44.37912772585635" lon="7.716705573644728"><ele>490.0</ele><time>2026-04-16T16:43:23Z</time></trkpt><trkpt lat="44.379030105786214" lon="7.716606716727615"><ele>490.0</ele><time>2026-04-16T16:43:24Z</time></trkpt><trkpt lat="44.37893382062144" lon="7.7165050506277515"><ele>490.0</ele><time>2026-04-16T16:43:25Z</time></trkpt><trkpt lat="44.37883087235778" lon="7.716401346427677"><ele>490.0</ele><time>2026-04-16T16:43:26Z</time></trkpt><trkpt lat="44.37872229691356" lon="7.716311232459833"><ele>490.0</ele><time>2026-04-16T16:43:27Z</time></trkpt><trkpt lat="44.37861392229005" lon="7.716221978048347"><ele>490.0</ele><time>2026-04-16T16:43:28Z</time></trkpt><trkpt lat="44.37850938089785" lon="7.716143229373584"><ele>490.0</ele><time>2026-04-16T16:43:29Z</time></trkpt><trkpt lat="44.37839934238661" lon="7.716066904774426"><ele>490.0</ele><time>2026-04-16T16:43:30Z</time></trkpt><trkpt lat="44.37829452843665" lon="7.715992763632121"><ele>490.0</ele><time>2026-04-16T16:43:31Z</time></trkpt><trkpt lat="44.378189705740986" lon="7.715913013378145"><ele>490.0</ele><time>2026-04-16T16:43:32Z</time></trkpt><trkpt lat="44.37808351659987" lon="7.715831009999229"><ele>490.0</ele><time>2026-04-16T16:43:33Z</time></trkpt><trkpt lat="44.37797291385871" lon="7.715754480005402"><ele>490.0</ele><time>2026-04-16T16:43:34Z</time></trkpt><trkpt lat="44.377865252010565" lon="7.715678650474264"><ele>490.0</ele><time>2026-04-16T16:43:35Z</time></trkpt><trkpt lat="44.377755264899534" lon="7.715597900453057"><ele>490.25</ele><time>2026-04-16T16:43:36Z</time></trkpt><trkpt lat="44.37764496433649" lon="7.715515741942887"><ele>490.5</ele><time>2026-04-16T16:43:37Z</time></trkpt><trkpt lat="44.377537962618405" lon="7.7154334588315"><ele>490.75</ele><time>2026-04-16T16:43:38Z</time></trkpt><trkpt lat="44.37743701309989" lon="7.715362588100184"><ele>491.0</ele><time>2026-04-16T16:43:39Z</time></trkpt><trkpt lat="44.37733527310307" lon="7.71528990717047"><ele>491.0</ele><time>2026-04-16T16:43:40Z</time></trkpt><trkpt lat="44.37723336061763" lon="7.715214937191743"><ele>491.0</ele><time>2026-04-16T16:43:41Z</time></trkpt><trkpt lat="44.3771331605639" lon="7.7151421286100845"><ele>491.0</ele><time>2026-04-16T16:43:42Z</time></trkpt><trkpt lat="44.37702501126033" lon="7.715063732143076"><ele>491.0</ele><time>2026-04-16T16:43:43Z</time></trkpt><trkpt lat="44.37692617336159" lon="7.714986704185785"><ele>491.6</ele><time>2026-04-16T16:43:44Z</time></trkpt><trkpt lat="44.376831587533914" lon="7.714919557851908"><ele>492.20000000000005</ele><time>2026-04-16T16:43:45Z</time></trkpt><trkpt lat="44.37674026361944" lon="7.714850228453014"><ele>492.79999999999995</ele><time>2026-04-16T16:43:46Z</time></trkpt><trkpt lat="44.376654055241104" lon="7.714786436372015"><ele>493.4</ele><time>2026-04-16T16:43:47Z</time></trkpt><trkpt lat="44.37656963886849" lon="7.7147227092753"><ele>494.0</ele><time>2026-04-16T16:43:48Z</time></trkpt><trkpt lat="44.376492956421956" lon="7.714669948061297"><ele>493.99999999999994</ele><time>2026-04-16T16:43:49Z</time></trkpt><trkpt lat="44.37641087911606" lon="7.7146155119107185"><ele>494.0</ele><time>2026-04-16T16:43:50Z</time></trkpt><trkpt lat="44.376324593101174" lon="7.714559475392602"><ele>494.0</ele><time>2026-04-16T16:43:51Z</time></trkpt><trkpt lat="44.376246904837146" lon="7.714496610251831"><ele>494.0</ele><time>2026-04-16T16:43:52Z</time></trkpt><trkpt lat="44.37617349601412" lon="7.714440632789935"><ele>493.99999999999994</ele><time>2026-04-16T16:43:53Z</time></trkpt><trkpt lat="44.37610103048392" lon="7.714391971577257"><ele>494.0</ele><time>2026-04-16T16:43:54Z</time></trkpt><trkpt lat="44.37601910683862" lon="7.714332217380619"><ele>494.2</ele><time>2026-04-16T16:43:55Z</time></trkpt><trkpt lat="44.37593749599832" lon="7.714275141326208"><ele>494.4</ele><time>2026-04-16T16:43:56Z</time></trkpt><trkpt lat="44.37585578775559" lon="7.7142168865242935"><ele>494.6</ele><time>2026-04-16T16:43:57Z</time></trkpt><trkpt lat="44.37576206364827" lon="7.714145366828567"><ele>494.8</ele><time>2026-04-16T16:43:58Z</time></trkpt><trkpt lat="44.37565168684969" lon="7.714182316862151"><ele>495.0</ele><time>2026-04-16T16:43:59Z</time></trkpt><trkpt lat="44.375569070223534" lon="7.714005961084994"><ele>495.4</ele><time>2026-04-16T16:44:00Z</time></trkpt><trkpt lat="44.37547238869946" lon="7.713930398360574"><ele>495.8</ele><time>2026-04-16T16:44:01Z</time></trkpt><trkpt lat="44.37536849640705" lon="7.7138489599740465"><ele>496.20000000000005</ele><time>2026-04-16T16:44:02Z</time></trkpt><trkpt lat="44.375277191499116" lon="7.713785877314381"><ele>496.6</ele><time>2026-04-16T16:44:03Z</time></trkpt><trkpt lat="44.37518130600958" lon="7.713709488099887"><ele>497.0</ele><time>2026-04-16T16:44:04Z</time></trkpt><trkpt lat="44.37509146732407" lon="7.71363608747677"><ele>497.0</ele><time>2026-04-16T16:44:05Z</time></trkpt><trkpt lat="44.37499643288095" lon="7.713571235261242"><ele>497.00000000000006</ele><time>2026-04-16T16:44:06Z</time></trkpt><trkpt lat="44.3749004386305" lon="7.713505715148378"><ele>497.00000000000006</ele><time>2026-04-16T16:44:07Z</time></trkpt><trkpt lat="44.37481051337933" lon="7.713437073865113"><ele>497.0</ele><time>2026-04-16T16:44:08Z</time></trkpt><trkpt lat="44.374731952802776" lon="7.713367982431727"><ele>497.0</ele><time>2026-04-16T16:44:09Z</time></trkpt><trkpt lat="44.37465398355253" lon="7.713307952329389"><ele>497.20000000000005</ele><time>2026-04-16T16:44:10Z</time></trkpt><trkpt lat="44.37456811160782" lon="7.713234342124339"><ele>497.40000000000003</ele><time>2026-04-16T16:44:10.999Z</time></trkpt><trkpt lat="44.374483278151175" lon="7.713164475581728"><ele>497.59999999999997</ele><time>2026-04-16T16:44:11.999Z</time></trkpt><trkpt lat="44.374392188744785" lon="7.713098307914177"><ele>497.79999999999995</ele><time>2026-04-16T16:44:12.999Z</time></trkpt><trkpt lat="44.37430973009842" lon="7.7130416066289"><ele>498.0</ele><time>2026-04-16T16:44:13.999Z</time></trkpt><trkpt lat="44.37422000709275" lon="7.712974510659066"><ele>498.0</ele><time>2026-04-16T16:44:14.999Z</time></trkpt><trkpt lat="44.37412829944894" lon="7.712905061960744"><ele>497.99999999999994</ele><time>2026-04-16T16:44:15.999Z</time></trkpt><trkpt lat="44.37404359994743" lon="7.712833584142178"><ele>497.99999999999994</ele><time>2026-04-16T16:44:16.999Z</time></trkpt><trkpt lat="44.37395945161156" lon="7.7127521602207185"><ele>498.0</ele><time>2026-04-16T16:44:17.999Z</time></trkpt><trkpt lat="44.37388557757766" lon="7.712675251632383"><ele>498.0</ele><time>2026-04-16T16:44:18.999Z</time></trkpt><trkpt lat="44.37381924907177" lon="7.712603028110074"><ele>498.3333333333333</ele><time>2026-04-16T16:44:19.999Z</time></trkpt><trkpt lat="44.37375337891429" lon="7.712539505070204"><ele>498.66666666666663</ele><time>2026-04-16T16:44:20.999Z</time></trkpt><trkpt lat="44.373692365826955" lon="7.712474311235752"><ele>499.0</ele><time>2026-04-16T16:44:21.999Z</time></trkpt><trkpt lat="44.37362938115976" lon="7.712406992912651"><ele>499.3333333333333</ele><time>2026-04-16T16:44:22.999Z</time></trkpt><trkpt lat="44.37355994759768" lon="7.712342450332527"><ele>499.66666666666663</ele><time>2026-04-16T16:44:23.999Z</time></trkpt><trkpt lat="44.37349543109754" lon="7.712272951142902"><ele>500.0</ele><time>2026-04-16T16:44:24.999Z</time></trkpt><trkpt lat="44.37343596391154" lon="7.712203672752125"><ele>499.99999999999994</ele><time>2026-04-16T16:44:25.999Z</time></trkpt><trkpt lat="44.37338032447699" lon="7.712133250617839"><ele>500.0</ele><time>2026-04-16T16:44:26.999Z</time></trkpt><trkpt lat="44.37331697898611" lon="7.712061868812083"><ele>500.0</ele><time>2026-04-16T16:44:27.999Z</time></trkpt><trkpt lat="44.37324137724426" lon="7.7119834955510065"><ele>500.0</ele><time>2026-04-16T16:44:28.999Z</time></trkpt><trkpt lat="44.3731671916385" lon="7.711894010631692"><ele>499.99999999999994</ele><time>2026-04-16T16:44:29.999Z</time></trkpt><trkpt lat="44.37310218905456" lon="7.711823363453926"><ele>500.0</ele><time>2026-04-16T16:44:30.999Z</time></trkpt><trkpt lat="44.3730338456823" lon="7.711745626671176"><ele>499.8</ele><time>2026-04-16T16:44:31.999Z</time></trkpt><trkpt lat="44.37297044036323" lon="7.71166798914671"><ele>499.6</ele><time>2026-04-16T16:44:32.999Z</time></trkpt><trkpt lat="44.3728983956807" lon="7.711588369245118"><ele>499.4</ele><time>2026-04-16T16:44:33.999Z</time></trkpt><trkpt lat="44.37281533831832" lon="7.711504482303175"><ele>499.2</ele><time>2026-04-16T16:44:34.999Z</time></trkpt><trkpt lat="44.372738398368305" lon="7.711420534490555"><ele>499.0</ele><time>2026-04-16T16:44:35.999Z</time></trkpt><trkpt lat="44.37266444271472" lon="7.711334371440201"><ele>499.00000000000006</ele><time>2026-04-16T16:44:36.999Z</time></trkpt><trkpt lat="44.37258996539775" lon="7.711250181302848"><ele>499.0</ele><time>2026-04-16T16:44:37.999Z</time></trkpt><trkpt lat="44.37251943897697" lon="7.711170447685831"><ele>499.0</ele><time>2026-04-16T16:44:38.999Z</time></trkpt><trkpt lat="44.37245117347051" lon="7.7110940969177975"><ele>499.0</ele><time>2026-04-16T16:44:39.999Z</time></trkpt><trkpt lat="44.37238348325785" lon="7.711020715339262"><ele>499.00000000000006</ele><time>2026-04-16T16:44:40.999Z</time></trkpt><trkpt lat="44.372317400545384" lon="7.710949828081351"><ele>499.0</ele><time>2026-04-16T16:44:41.999Z</time></trkpt><trkpt lat="44.37224202501753" lon="7.7108670447503105"><ele>499.6</ele><time>2026-04-16T16:44:42.999Z</time></trkpt><trkpt lat="44.372169543645974" lon="7.710776264115857"><ele>500.2</ele><time>2026-04-16T16:44:43.999Z</time></trkpt><trkpt lat="44.3721095012129" lon="7.71070197403472"><ele>500.80000000000007</ele><time>2026-04-16T16:44:44.999Z</time></trkpt><trkpt lat="44.372058742454236" lon="7.710636211896259"><ele>501.40000000000003</ele><time>2026-04-16T16:44:45.999Z</time></trkpt><trkpt lat="44.37195994024949" lon="7.7105219397596"><ele>502.0</ele><time>2026-04-16T16:44:47.999Z</time></trkpt><trkpt lat="44.37190066218026" lon="7.710453480762186"><ele>502.0</ele><time>2026-04-16T16:44:48.999Z</time></trkpt><trkpt lat="44.371838031735926" lon="7.710382629185191"><ele>502.00000000000006</ele><time>2026-04-16T16:44:49.999Z</time></trkpt><trkpt lat="44.3717850528062" lon="7.710329878408835"><ele>502.00000000000006</ele><time>2026-04-16T16:44:50.999Z</time></trkpt><trkpt lat="44.371713403285916" lon="7.710241405947806"><ele>502.0</ele><time>2026-04-16T16:44:52.999Z</time></trkpt><trkpt lat="44.371597297805124" lon="7.710368788686906"><ele>502.0</ele><time>2026-04-16T16:44:58.999Z</time></trkpt><trkpt lat="44.37160021254888" lon="7.710463177277941"><ele>502.00000000000006</ele><time>2026-04-16T16:44:59.999Z</time></trkpt><trkpt lat="44.371603480578756" lon="7.7106026990938625"><ele>502.0</ele><time>2026-04-16T16:45:01.999Z</time></trkpt><trkpt lat="44.3716233925841" lon="7.710707632521649"><ele>502.0</ele><time>2026-04-16T16:45:05.999Z</time></trkpt><trkpt lat="44.37162393307767" lon="7.710805613819728"><ele>502.0</ele><time>2026-04-16T16:45:07.999Z</time></trkpt><trkpt lat="44.37159302799344" lon="7.710967016332066"><ele>502.00000000000006</ele><time>2026-04-16T16:45:09.999Z</time></trkpt><trkpt lat="44.37155882667188" lon="7.7110545097117384"><ele>502.0</ele><time>2026-04-16T16:45:10.999Z</time></trkpt><trkpt lat="44.371519949993484" lon="7.711167711183041"><ele>501.83333333333337</ele><time>2026-04-16T16:45:11.999Z</time></trkpt><trkpt lat="44.37148390157302" lon="7.71125710625159"><ele>501.6666666666667</ele><time>2026-04-16T16:45:12.999Z</time></trkpt><trkpt lat="44.37146277736748" lon="7.7113583787682645"><ele>501.5</ele><time>2026-04-16T16:45:13.999Z</time></trkpt><trkpt lat="44.37141644571108" lon="7.7114294794288"><ele>501.33333333333337</ele><time>2026-04-16T16:45:14.998Z</time></trkpt><trkpt lat="44.37137417013651" lon="7.711524262596488"><ele>501.1666666666667</ele><time>2026-04-16T16:45:15.998Z</time></trkpt><trkpt lat="44.37131111118676" lon="7.711609761861042"><ele>501.0</ele><time>2026-04-16T16:45:16.998Z</time></trkpt><trkpt lat="44.37125820712044" lon="7.7116785219334005"><ele>501.0</ele><time>2026-04-16T16:45:17.998Z</time></trkpt><trkpt lat="44.37120407256822" lon="7.711743312629419"><ele>501.0</ele><time>2026-04-16T16:45:18.998Z</time></trkpt><trkpt lat="44.37114989881722" lon="7.7118146088435715"><ele>501.0</ele><time>2026-04-16T16:45:19.998Z</time></trkpt><trkpt lat="44.37110026506775" lon="7.7118847256963985"><ele>501.0</ele><time>2026-04-16T16:45:20.998Z</time></trkpt><trkpt lat="44.37105906788192" lon="7.711967659669761"><ele>501.0</ele><time>2026-04-16T16:45:21.998Z</time></trkpt><trkpt lat="44.370968531148684" lon="7.712147623462972"><ele>501.0</ele><time>2026-04-16T16:45:23.998Z</time></trkpt><trkpt lat="44.37090717181881" lon="7.712229736028271"><ele>500.6</ele><time>2026-04-16T16:45:24.998Z</time></trkpt><trkpt lat="44.370843074097664" lon="7.712374632906037"><ele>500.20000000000005</ele><time>2026-04-16T16:45:26.998Z</time></trkpt><trkpt lat="44.370786252950815" lon="7.71248033125059"><ele>499.79999999999995</ele><time>2026-04-16T16:45:29Z</time></trkpt><trkpt lat="44.37073814827318" lon="7.7125544273981985"><ele>499.4</ele><time>2026-04-16T16:45:31Z</time></trkpt><trkpt lat="44.37068644866086" lon="7.712644658947749"><ele>499.0</ele><time>2026-04-16T16:45:35Z</time></trkpt><trkpt lat="44.3705790511561" lon="7.712602421646692"><ele>499.0</ele><time>2026-04-16T16:45:36Z</time></trkpt><trkpt lat="44.370497826256255" lon="7.7125545840107685"><ele>499.0</ele><time>2026-04-16T16:45:37Z</time></trkpt><trkpt lat="44.37041421980428" lon="7.71249539782131"><ele>499.0</ele><time>2026-04-16T16:45:38Z</time></trkpt><trkpt lat="44.370317536712854" lon="7.712455176996936"><ele>499.0</ele><time>2026-04-16T16:45:39Z</time></trkpt><trkpt lat="44.37020610580943" lon="7.712406910545025"><ele>499.0</ele><time>2026-04-16T16:45:40Z</time></trkpt><trkpt lat="44.37008369633428" lon="7.712359614260487"><ele>499.0</ele><time>2026-04-16T16:45:41Z</time></trkpt><trkpt lat="44.369979066013286" lon="7.712314511027788"><ele>499.0</ele><time>2026-04-16T16:45:42Z</time></trkpt><trkpt lat="44.369883044483515" lon="7.712269273859576"><ele>499.0</ele><time>2026-04-16T16:45:43Z</time></trkpt><trkpt lat="44.36979708826643" lon="7.712229057938664"><ele>499.0</ele><time>2026-04-16T16:45:44Z</time></trkpt><trkpt lat="44.36970629882317" lon="7.712190714886487"><ele>499.0</ele><time>2026-04-16T16:45:45Z</time></trkpt><trkpt lat="44.369610994790314" lon="7.712155559306747"><ele>499.33333333333337</ele><time>2026-04-16T16:45:46Z</time></trkpt><trkpt lat="44.369514250827436" lon="7.712116326721563"><ele>499.6666666666667</ele><time>2026-04-16T16:45:47Z</time></trkpt><trkpt lat="44.369425145222685" lon="7.712078992301602"><ele>500.0</ele><time>2026-04-16T16:45:48Z</time></trkpt><trkpt lat="44.36934442514419" lon="7.712037155007049"><ele>500.33333333333337</ele><time>2026-04-16T16:45:49Z</time></trkpt><trkpt lat="44.369275715386614" lon="7.711998296806947"><ele>500.6666666666667</ele><time>2026-04-16T16:45:50Z</time></trkpt><trkpt lat="44.36919715849361" lon="7.7119900975365026"><ele>501.0</ele><time>2026-04-16T16:45:51Z</time></trkpt><trkpt lat="44.36909998905122" lon="7.71190426880374"><ele>501.0</ele><time>2026-04-16T16:45:53Z</time></trkpt><trkpt lat="44.36904170391249" lon="7.71185357668116"><ele>501.0</ele><time>2026-04-16T16:45:54Z</time></trkpt><trkpt lat="44.36896385172031" lon="7.711810265189466"><ele>501.0</ele><time>2026-04-16T16:45:55Z</time></trkpt><trkpt lat="44.3688935349282" lon="7.711733820301691"><ele>501.0</ele><time>2026-04-16T16:45:56Z</time></trkpt><trkpt lat="44.36879622314987" lon="7.7117063447604615"><ele>501.0</ele><time>2026-04-16T16:45:57Z</time></trkpt><trkpt lat="44.36868376523323" lon="7.7116840144677825"><ele>501.0</ele><time>2026-04-16T16:45:58Z</time></trkpt><trkpt lat="44.36857489149089" lon="7.711639915129044"><ele>501.0</ele><time>2026-04-16T16:45:59Z</time></trkpt><trkpt lat="44.36848489416629" lon="7.711574059065187"><ele>501.0</ele><time>2026-04-16T16:46:00Z</time></trkpt><trkpt lat="44.36839329127366" lon="7.71151178506341"><ele>501.0</ele><time>2026-04-16T16:46:01Z</time></trkpt><trkpt lat="44.368298058465776" lon="7.71144738611846"><ele>501.0</ele><time>2026-04-16T16:46:02Z</time></trkpt><trkpt lat="44.368204375263794" lon="7.7113772481861105"><ele>501.0</ele><time>2026-04-16T16:46:03Z</time></trkpt><trkpt lat="44.36810812713622" lon="7.711309492403776"><ele>501.0</ele><time>2026-04-16T16:46:04Z</time></trkpt><trkpt lat="44.3680147118333" lon="7.7112428503982136"><ele>501.0</ele><time>2026-04-16T16:46:05Z</time></trkpt><trkpt lat="44.3679195452255" lon="7.711169075823992"><ele>501.0</ele><time>2026-04-16T16:46:06Z</time></trkpt><trkpt lat="44.367824396966576" lon="7.711104398576308"><ele>501.0</ele><time>2026-04-16T16:46:07Z</time></trkpt><trkpt lat="44.36773274037788" lon="7.711045304269921"><ele>501.0</ele><time>2026-04-16T16:46:08Z</time></trkpt><trkpt lat="44.36763774071164" lon="7.710975459901565"><ele>501.0</ele><time>2026-04-16T16:46:09Z</time></trkpt><trkpt lat="44.36754362518446" lon="7.710914700796171"><ele>501.0</ele><time>2026-04-16T16:46:10Z</time></trkpt><trkpt lat="44.36745111475334" lon="7.710847069261604"><ele>501.0</ele><time>2026-04-16T16:46:11Z</time></trkpt><trkpt lat="44.3673532771143" lon="7.710780781862987"><ele>501.0</ele><time>2026-04-16T16:46:11.999Z</time></trkpt><trkpt lat="44.36726049067479" lon="7.71071933066492"><ele>501.6</ele><time>2026-04-16T16:46:12.999Z</time></trkpt><trkpt lat="44.367162539931016" lon="7.710649322320334"><ele>502.20000000000005</ele><time>2026-04-16T16:46:13.999Z</time></trkpt><trkpt lat="44.367062760184815" lon="7.7105798067204825"><ele>502.79999999999995</ele><time>2026-04-16T16:46:14.999Z</time></trkpt><trkpt lat="44.366965645393" lon="7.7105098569623305"><ele>503.4</ele><time>2026-04-16T16:46:15.999Z</time></trkpt><trkpt lat="44.366868424369244" lon="7.710443210588568"><ele>504.0</ele><time>2026-04-16T16:46:16.999Z</time></trkpt><trkpt lat="44.36676692767708" lon="7.710361696874723"><ele>504.0</ele><time>2026-04-16T16:46:17.999Z</time></trkpt><trkpt lat="44.36667062373432" lon="7.710290450150196"><ele>504.0</ele><time>2026-04-16T16:46:18.999Z</time></trkpt><trkpt lat="44.36657131458039" lon="7.710220331861415"><ele>504.0</ele><time>2026-04-16T16:46:19.999Z</time></trkpt><trkpt lat="44.36646926038037" lon="7.710151658125012"><ele>504.0</ele><time>2026-04-16T16:46:20.999Z</time></trkpt><trkpt lat="44.36636578161403" lon="7.71007656919234"><ele>504.4</ele><time>2026-04-16T16:46:21.999Z</time></trkpt><trkpt lat="44.36626425185189" lon="7.710007387201237"><ele>504.79999999999995</ele><time>2026-04-16T16:46:22.999Z</time></trkpt><trkpt lat="44.36617001739143" lon="7.709942078674248"><ele>505.20000000000005</ele><time>2026-04-16T16:46:23.999Z</time></trkpt><trkpt lat="44.36607131077083" lon="7.709875179860339"><ele>505.6</ele><time>2026-04-16T16:46:24.999Z</time></trkpt><trkpt lat="44.36597298705581" lon="7.709806913700492"><ele>506.0</ele><time>2026-04-16T16:46:25.999Z</time></trkpt><trkpt lat="44.365869840057535" lon="7.709733517631565"><ele>506.0</ele><time>2026-04-16T16:46:26.999Z</time></trkpt><trkpt lat="44.3657688719069" lon="7.709658295997158"><ele>506.0</ele><time>2026-04-16T16:46:27.999Z</time></trkpt><trkpt lat="44.3656796914003" lon="7.709604198110595"><ele>506.0</ele><time>2026-04-16T16:46:28.999Z</time></trkpt><trkpt lat="44.365578426850966" lon="7.709521433073435"><ele>506.0</ele><time>2026-04-16T16:46:29.999Z</time></trkpt><trkpt lat="44.365475295474745" lon="7.709443048201536"><ele>506.0</ele><time>2026-04-16T16:46:30.999Z</time></trkpt><trkpt lat="44.36537194346683" lon="7.709378580650896"><ele>506.4</ele><time>2026-04-16T16:46:31.999Z</time></trkpt><trkpt lat="44.36527562276521" lon="7.709308480693379"><ele>506.8</ele><time>2026-04-16T16:46:32.999Z</time></trkpt><trkpt lat="44.36517726271083" lon="7.7092395839609065"><ele>507.19999999999993</ele><time>2026-04-16T16:46:33.999Z</time></trkpt><trkpt lat="44.365080778165655" lon="7.7091717243233555"><ele>507.59999999999997</ele><time>2026-04-16T16:46:34.999Z</time></trkpt><trkpt lat="44.364987331524205" lon="7.709096807779966"><ele>508.0</ele><time>2026-04-16T16:46:35.999Z</time></trkpt><trkpt lat="44.36489753965305" lon="7.7090280904493484"><ele>508.0</ele><time>2026-04-16T16:46:36.999Z</time></trkpt><trkpt lat="44.36480302690811" lon="7.708953093549962"><ele>507.99999999999994</ele><time>2026-04-16T16:46:37.999Z</time></trkpt><trkpt lat="44.36470793946282" lon="7.7088784979200256"><ele>507.99999999999994</ele><time>2026-04-16T16:46:38.999Z</time></trkpt><trkpt lat="44.3646050624935" lon="7.70880482101565"><ele>508.0</ele><time>2026-04-16T16:46:39.999Z</time></trkpt><trkpt lat="44.36451388783444" lon="7.708727439650518"><ele>508.0</ele><time>2026-04-16T16:46:40.999Z</time></trkpt><trkpt lat="44.36441708308229" lon="7.708652270952109"><ele>508.2</ele><time>2026-04-16T16:46:41.999Z</time></trkpt><trkpt lat="44.36432227021348" lon="7.70857193376342"><ele>508.4</ele><time>2026-04-16T16:46:42.999Z</time></trkpt><trkpt lat="44.36422042340505" lon="7.70849307303285"><ele>508.59999999999997</ele><time>2026-04-16T16:46:43.999Z</time></trkpt><trkpt lat="44.364120480688996" lon="7.708409447287152"><ele>508.79999999999995</ele><time>2026-04-16T16:46:44.999Z</time></trkpt><trkpt lat="44.36403665798363" lon="7.708331764978039"><ele>509.0</ele><time>2026-04-16T16:46:45.999Z</time></trkpt><trkpt lat="44.363955227980625" lon="7.708255738454443"><ele>509.0</ele><time>2026-04-16T16:46:46.999Z</time></trkpt><trkpt lat="44.36387284992723" lon="7.708179423874529"><ele>509.0</ele><time>2026-04-16T16:46:47.999Z</time></trkpt><trkpt lat="44.36377916445306" lon="7.708106237364893"><ele>509.0</ele><time>2026-04-16T16:46:48.999Z</time></trkpt><trkpt lat="44.36368179055122" lon="7.7080203775362515"><ele>509.0</ele><time>2026-04-16T16:46:49.999Z</time></trkpt><trkpt lat="44.36359194648767" lon="7.707929571510339"><ele>509.0</ele><time>2026-04-16T16:46:50.999Z</time></trkpt><trkpt lat="44.36349373255758" lon="7.70784504553655"><ele>509.25</ele><time>2026-04-16T16:46:51.999Z</time></trkpt><trkpt lat="44.36339503209219" lon="7.70775336485187"><ele>509.5</ele><time>2026-04-16T16:46:52.999Z</time></trkpt><trkpt lat="44.36328630363847" lon="7.707657834421381"><ele>509.75</ele><time>2026-04-16T16:46:53.999Z</time></trkpt><trkpt lat="44.363172097609265" lon="7.707558394694029"><ele>510.0</ele><time>2026-04-16T16:46:54.999Z</time></trkpt><trkpt lat="44.36304672607252" lon="7.707455356166617"><ele>510.33333333333337</ele><time>2026-04-16T16:46:55.999Z</time></trkpt><trkpt lat="44.36291276033678" lon="7.70733600631174"><ele>510.6666666666667</ele><time>2026-04-16T16:46:56.999Z</time></trkpt><trkpt lat="44.362787223655" lon="7.707219101052932"><ele>511.0</ele><time>2026-04-16T16:46:57.999Z</time></trkpt><trkpt lat="44.36264572024145" lon="7.7070941630231244"><ele>511.0</ele><time>2026-04-16T16:46:58.999Z</time></trkpt><trkpt lat="44.362500774100006" lon="7.7069683289570845"><ele>511.0</ele><time>2026-04-16T16:46:59.999Z</time></trkpt><trkpt lat="44.36235363528757" lon="7.7068428330532335"><ele>511.0</ele><time>2026-04-16T16:47:00.999Z</time></trkpt><trkpt lat="44.36219876122433" lon="7.706706123331551"><ele>511.6666666666667</ele><time>2026-04-16T16:47:01.999Z</time></trkpt><trkpt lat="44.36204995293721" lon="7.706576062589999"><ele>512.3333333333334</ele><time>2026-04-16T16:47:02.999Z</time></trkpt><trkpt lat="44.36191335199989" lon="7.706458099807979"><ele>513.0</ele><time>2026-04-16T16:47:03.999Z</time></trkpt><trkpt lat="44.3617734569339" lon="7.706341747449427"><ele>513.0</ele><time>2026-04-16T16:47:04.999Z</time></trkpt><trkpt lat="44.36162867057172" lon="7.70621695251049"><ele>513.0</ele><time>2026-04-16T16:47:05.999Z</time></trkpt><trkpt lat="44.36149585788958" lon="7.70610064406591"><ele>513.0</ele><time>2026-04-16T16:47:06.999Z</time></trkpt><trkpt lat="44.3613662710942" lon="7.705987273447695"><ele>513.5</ele><time>2026-04-16T16:47:07.999Z</time></trkpt><trkpt lat="44.361239586664084" lon="7.705887330507645"><ele>514.0</ele><time>2026-04-16T16:47:08.999Z</time></trkpt><trkpt lat="44.36111646295241" lon="7.705786698234818"><ele>514.5</ele><time>2026-04-16T16:47:09.999Z</time></trkpt><trkpt lat="44.360991030469435" lon="7.705676008107325"><ele>515.0</ele><time>2026-04-16T16:47:10.999Z</time></trkpt><trkpt lat="44.36087014519856" lon="7.705570537827078"><ele>515.0</ele><time>2026-04-16T16:47:11.999Z</time></trkpt><trkpt lat="44.36075979018197" lon="7.705472485934114"><ele>515.0</ele><time>2026-04-16T16:47:12.999Z</time></trkpt><trkpt lat="44.36065039040473" lon="7.7053870210133715"><ele>515.0</ele><time>2026-04-16T16:47:13.998Z</time></trkpt><trkpt lat="44.360532770175986" lon="7.705289954295343"><ele>515.0</ele><time>2026-04-16T16:47:14.998Z</time></trkpt><trkpt lat="44.36041281481165" lon="7.705203711088257"><ele>515.5</ele><time>2026-04-16T16:47:15.998Z</time></trkpt><trkpt lat="44.36028905973546" lon="7.705130089376403"><ele>516.0</ele><time>2026-04-16T16:47:16.998Z</time></trkpt><trkpt lat="44.36015495584101" lon="7.705056770594404"><ele>516.5</ele><time>2026-04-16T16:47:17.998Z</time></trkpt><trkpt lat="44.360027903510996" lon="7.704976551513879"><ele>517.0</ele><time>2026-04-16T16:47:18.998Z</time></trkpt><trkpt lat="44.359905948640744" lon="7.704916353016115"><ele>517.0</ele><time>2026-04-16T16:47:19.998Z</time></trkpt><trkpt lat="44.359788040491814" lon="7.704854295358697"><ele>517.0</ele><time>2026-04-16T16:47:20.998Z</time></trkpt><trkpt lat="44.35966644581539" lon="7.704791425219169"><ele>517.0</ele><time>2026-04-16T16:47:21.998Z</time></trkpt><trkpt lat="44.35954904092322" lon="7.704730600561457"><ele>517.0</ele><time>2026-04-16T16:47:22.998Z</time></trkpt><trkpt lat="44.35942612137679" lon="7.704682521441417"><ele>517.75</ele><time>2026-04-16T16:47:23.998Z</time></trkpt><trkpt lat="44.35928944324138" lon="7.704650677040088"><ele>518.5</ele><time>2026-04-16T16:47:24.998Z</time></trkpt><trkpt lat="44.35915782753355" lon="7.704628696483331"><ele>519.25</ele><time>2026-04-16T16:47:25.998Z</time></trkpt><trkpt lat="44.35902313590422" lon="7.704609012293249"><ele>520.0</ele><time>2026-04-16T16:47:26.998Z</time></trkpt><trkpt lat="44.35887853308593" lon="7.704586243304371"><ele>520.0</ele><time>2026-04-16T16:47:27.998Z</time></trkpt><trkpt lat="44.358745464877465" lon="7.704538441834038"><ele>520.0</ele><time>2026-04-16T16:47:28.998Z</time></trkpt><trkpt lat="44.35861173572805" lon="7.704489693744706"><ele>520.0</ele><time>2026-04-16T16:47:29.998Z</time></trkpt><trkpt lat="44.358477952623296" lon="7.704437555940437"><ele>520.0</ele><time>2026-04-16T16:47:30.998Z</time></trkpt><trkpt lat="44.358343658977795" lon="7.704376914777447"><ele>520.25</ele><time>2026-04-16T16:47:31.998Z</time></trkpt><trkpt lat="44.35821397684277" lon="7.704330487679074"><ele>520.5</ele><time>2026-04-16T16:47:32.998Z</time></trkpt><trkpt lat="44.358086278825844" lon="7.7042793761032975"><ele>520.75</ele><time>2026-04-16T16:47:33.998Z</time></trkpt><trkpt lat="44.35795625966066" lon="7.704230388566278"><ele>521.0</ele><time>2026-04-16T16:47:35Z</time></trkpt><trkpt lat="44.35782395236594" lon="7.704175888013388"><ele>521.0</ele><time>2026-04-16T16:47:36Z</time></trkpt><trkpt lat="44.35769526853734" lon="7.704126537011893"><ele>521.0</ele><time>2026-04-16T16:47:37Z</time></trkpt><trkpt lat="44.35756478989936" lon="7.7040779897500045"><ele>521.0</ele><time>2026-04-16T16:47:38Z</time></trkpt><trkpt lat="44.35744237574732" lon="7.704037141840008"><ele>521.0</ele><time>2026-04-16T16:47:39Z</time></trkpt><trkpt lat="44.357315185408986" lon="7.703982018232775"><ele>521.75</ele><time>2026-04-16T16:47:40Z</time></trkpt><trkpt lat="44.3571934648547" lon="7.70393843581895"><ele>522.5</ele><time>2026-04-16T16:47:41Z</time></trkpt><trkpt lat="44.35706246001074" lon="7.703880488341709"><ele>523.25</ele><time>2026-04-16T16:47:42Z</time></trkpt><trkpt lat="44.35693122683827" lon="7.703819926606584"><ele>524.0</ele><time>2026-04-16T16:47:43Z</time></trkpt><trkpt lat="44.35680975970227" lon="7.703747873964919"><ele>524.0</ele><time>2026-04-16T16:47:44Z</time></trkpt><trkpt lat="44.356693067081785" lon="7.703656241630147"><ele>524.0</ele><time>2026-04-16T16:47:45Z</time></trkpt><trkpt lat="44.35659353072126" lon="7.70354263379879"><ele>524.0</ele><time>2026-04-16T16:47:46Z</time></trkpt><trkpt lat="44.35651463591045" lon="7.703415740680559"><ele>524.0</ele><time>2026-04-16T16:47:47Z</time></trkpt><trkpt lat="44.356443080810735" lon="7.7032676931686686"><ele>524.0</ele><time>2026-04-16T16:47:48Z</time></trkpt><trkpt lat="44.356382127483435" lon="7.703102191276345"><ele>524.0</ele><time>2026-04-16T16:47:49Z</time></trkpt><trkpt lat="44.356324572500604" lon="7.70292509367368"><ele>524.0</ele><time>2026-04-16T16:47:50Z</time></trkpt><trkpt lat="44.35626158612055" lon="7.702741083110974"><ele>524.0</ele><time>2026-04-16T16:47:51Z</time></trkpt><trkpt lat="44.35618952181134" lon="7.702548152634999"><ele>523.6666666666666</ele><time>2026-04-16T16:47:52Z</time></trkpt><trkpt lat="44.35611447981357" lon="7.702334563668446"><ele>523.3333333333334</ele><time>2026-04-16T16:47:53Z</time></trkpt><trkpt lat="44.35604556185206" lon="7.70212651750083"><ele>523.0</ele><time>2026-04-16T16:47:54Z</time></trkpt><trkpt lat="44.35597695021505" lon="7.701930686675531"><ele>523.0</ele><time>2026-04-16T16:47:55Z</time></trkpt><trkpt lat="44.35591237455552" lon="7.701728906968182"><ele>523.0</ele><time>2026-04-16T16:47:56Z</time></trkpt><trkpt lat="44.35584296776469" lon="7.701530099236096"><ele>523.0</ele><time>2026-04-16T16:47:57Z</time></trkpt><trkpt lat="44.35577737963372" lon="7.701335295054943"><ele>523.0</ele><time>2026-04-16T16:47:58Z</time></trkpt><trkpt lat="44.35571099040402" lon="7.70115791778276"><ele>523.0</ele><time>2026-04-16T16:47:59Z</time></trkpt><trkpt lat="44.35564862658135" lon="7.700981485069834"><ele>523.0</ele><time>2026-04-16T16:48:00Z</time></trkpt><trkpt lat="44.355592103179724" lon="7.700813289194481"><ele>523.0</ele><time>2026-04-16T16:48:01Z</time></trkpt><trkpt lat="44.35553296457818" lon="7.700618433260042"><ele>524.0</ele><time>2026-04-16T16:48:02Z</time></trkpt><trkpt lat="44.35548529448833" lon="7.700412720067408"><ele>525.0</ele><time>2026-04-16T16:48:03Z</time></trkpt><trkpt lat="44.35543824158845" lon="7.700202210980344"><ele>526.0</ele><time>2026-04-16T16:48:04Z</time></trkpt><trkpt lat="44.35540022942488" lon="7.6999971980917"><ele>526.0</ele><time>2026-04-16T16:48:05Z</time></trkpt><trkpt lat="44.35535600198316" lon="7.699777432523138"><ele>526.0</ele><time>2026-04-16T16:48:06Z</time></trkpt><trkpt lat="44.35531567976924" lon="7.6995389431136525"><ele>526.0</ele><time>2026-04-16T16:48:07Z</time></trkpt><trkpt lat="44.355269291502296" lon="7.699282717110265"><ele>525.0</ele><time>2026-04-16T16:48:08Z</time></trkpt><trkpt lat="44.3552236372249" lon="7.699044401507461"><ele>524.0</ele><time>2026-04-16T16:48:09Z</time></trkpt><trkpt lat="44.35518169558559" lon="7.698795196824753"><ele>523.0</ele><time>2026-04-16T16:48:10Z</time></trkpt><trkpt lat="44.35513990164305" lon="7.698546598519063"><ele>520.0</ele><time>2026-04-16T16:48:11Z</time></trkpt><trkpt lat="44.35510166524167" lon="7.698313024823101"><ele>517.0</ele><time>2026-04-16T16:48:12Z</time></trkpt><trkpt lat="44.35506260338204" lon="7.698070361325956"><ele>514.0</ele><time>2026-04-16T16:48:13Z</time></trkpt><trkpt lat="44.355017147456195" lon="7.697831219065202"><ele>512.6666666666667</ele><time>2026-04-16T16:48:14Z</time></trkpt><trkpt lat="44.35496394822326" lon="7.6976019441289605"><ele>511.33333333333337</ele><time>2026-04-16T16:48:15Z</time></trkpt><trkpt lat="44.35491298532791" lon="7.697393163844003"><ele>510.0</ele><time>2026-04-16T16:48:16Z</time></trkpt><trkpt lat="44.35485693913335" lon="7.6971746407164705"><ele>510.0</ele><time>2026-04-16T16:48:17Z</time></trkpt><trkpt lat="44.35478674108234" lon="7.69696265168444"><ele>510.0</ele><time>2026-04-16T16:48:18Z</time></trkpt><trkpt lat="44.35471187378865" lon="7.696741848496409"><ele>510.0</ele><time>2026-04-16T16:48:19Z</time></trkpt><trkpt lat="44.35462210164443" lon="7.6965204438644275"><ele>513.0</ele><time>2026-04-16T16:48:20Z</time></trkpt><trkpt lat="44.354529139907086" lon="7.6963061208188845"><ele>516.0</ele><time>2026-04-16T16:48:20.999Z</time></trkpt><trkpt lat="44.354444302246804" lon="7.6961050116994265"><ele>519.0</ele><time>2026-04-16T16:48:21.999Z</time></trkpt><trkpt lat="44.354360732815174" lon="7.6959219124913405"><ele>519.0</ele><time>2026-04-16T16:48:22.999Z</time></trkpt><trkpt lat="44.35428182599599" lon="7.695726558511538"><ele>519.0</ele><time>2026-04-16T16:48:23.999Z</time></trkpt><trkpt lat="44.35419189617437" lon="7.695519960838937"><ele>519.0</ele><time>2026-04-16T16:48:24.999Z</time></trkpt><trkpt lat="44.35408472324912" lon="7.695349099041663"><ele>520.3333333333334</ele><time>2026-04-16T16:48:25.999Z</time></trkpt><trkpt lat="44.35396488807264" lon="7.695168450130981"><ele>521.6666666666667</ele><time>2026-04-16T16:48:26.999Z</time></trkpt><trkpt lat="44.35383738691452" lon="7.6949904063156715"><ele>523.0</ele><time>2026-04-16T16:48:27.999Z</time></trkpt><trkpt lat="44.35369242354998" lon="7.694823392579893"><ele>523.0</ele><time>2026-04-16T16:48:28.999Z</time></trkpt><trkpt lat="44.35354054924444" lon="7.6946555077845655"><ele>523.0</ele><time>2026-04-16T16:48:29.999Z</time></trkpt><trkpt lat="44.353399269100215" lon="7.69448770835924"><ele>523.0</ele><time>2026-04-16T16:48:30.999Z</time></trkpt><trkpt lat="44.35325331612263" lon="7.694305539156704"><ele>523.0</ele><time>2026-04-16T16:48:31.999Z</time></trkpt><trkpt lat="44.35309916825557" lon="7.694137224676963"><ele>523.0</ele><time>2026-04-16T16:48:32.999Z</time></trkpt><trkpt lat="44.35293301051583" lon="7.693990365857379"><ele>523.0</ele><time>2026-04-16T16:48:33.999Z</time></trkpt><trkpt lat="44.352757227842666" lon="7.69384598711357"><ele>523.0</ele><time>2026-04-16T16:48:34.999Z</time></trkpt><trkpt lat="44.352578991579804" lon="7.693707586798108"><ele>523.0</ele><time>2026-04-16T16:48:35.999Z</time></trkpt><trkpt lat="44.35239781903629" lon="7.693572367037932"><ele>523.0</ele><time>2026-04-16T16:48:36.999Z</time></trkpt><trkpt lat="44.35223321439473" lon="7.693444410215081"><ele>526.3333333333334</ele><time>2026-04-16T16:48:37.999Z</time></trkpt><trkpt lat="44.352075965777296" lon="7.693306457675445"><ele>529.6666666666666</ele><time>2026-04-16T16:48:38.999Z</time></trkpt><trkpt lat="44.35192111751792" lon="7.693164476151284"><ele>533.0</ele><time>2026-04-16T16:48:39.999Z</time></trkpt><trkpt lat="44.3517740544452" lon="7.693012298588411"><ele>533.0</ele><time>2026-04-16T16:48:40.999Z</time></trkpt><trkpt lat="44.35164249802582" lon="7.692865139374766"><ele>533.0</ele><time>2026-04-16T16:48:41.999Z</time></trkpt><trkpt lat="44.35150689392144" lon="7.692708122429523"><ele>533.0</ele><time>2026-04-16T16:48:42.999Z</time></trkpt><trkpt lat="44.351396916798244" lon="7.692541385491497"><ele>531.5</ele><time>2026-04-16T16:48:43.999Z</time></trkpt><trkpt lat="44.3513166793507" lon="7.692382378747259"><ele>530.0</ele><time>2026-04-16T16:48:44.999Z</time></trkpt><trkpt lat="44.351255023843194" lon="7.692258039097993"><ele>528.5</ele><time>2026-04-16T16:48:45.999Z</time></trkpt><trkpt lat="44.35120176016352" lon="7.692137004884989"><ele>527.0</ele><time>2026-04-16T16:48:46.999Z</time></trkpt><trkpt lat="44.35115053020923" lon="7.692010198302334"><ele>525.0</ele><time>2026-04-16T16:48:47.999Z</time></trkpt><trkpt lat="44.35109455000746" lon="7.691899527914817"><ele>523.0</ele><time>2026-04-16T16:48:48.999Z</time></trkpt><trkpt lat="44.351034375244694" lon="7.691810388996876"><ele>521.0</ele><time>2026-04-16T16:48:49.999Z</time></trkpt><trkpt lat="44.35096410738182" lon="7.691727344652436"><ele>519.0</ele><time>2026-04-16T16:48:50.999Z</time></trkpt><trkpt lat="44.35087265611168" lon="7.691670002090771"><ele>517.0</ele><time>2026-04-16T16:48:51.999Z</time></trkpt><trkpt lat="44.35076740678404" lon="7.691645760137649"><ele>517.0</ele><time>2026-04-16T16:48:52.999Z</time></trkpt><trkpt lat="44.35065537658161" lon="7.691656935945857"><ele>517.0</ele><time>2026-04-16T16:48:53.999Z</time></trkpt><trkpt lat="44.350529473357085" lon="7.691687144144048"><ele>517.0</ele><time>2026-04-16T16:48:54.999Z</time></trkpt><trkpt lat="44.350395816690245" lon="7.691725784128236"><ele>517.0</ele><time>2026-04-16T16:48:55.999Z</time></trkpt><trkpt lat="44.35025160886532" lon="7.6917545106390115"><ele>517.3333333333334</ele><time>2026-04-16T16:48:56.999Z</time></trkpt><trkpt lat="44.35009240040486" lon="7.691785188321311"><ele>517.6666666666666</ele><time>2026-04-16T16:48:57.999Z</time></trkpt><trkpt lat="44.34992594383295" lon="7.6918221966613345"><ele>518.0</ele><time>2026-04-16T16:48:58.999Z</time></trkpt><trkpt lat="44.349762327208865" lon="7.691857134993811"><ele>518.0</ele><time>2026-04-16T16:48:59.999Z</time></trkpt><trkpt lat="44.349592788720535" lon="7.691894085682667"><ele>518.0</ele><time>2026-04-16T16:49:00.999Z</time></trkpt><trkpt lat="44.34941289923564" lon="7.691938934386529"><ele>518.0</ele><time>2026-04-16T16:49:01.999Z</time></trkpt><trkpt lat="44.34922344362161" lon="7.691981857601629"><ele>518.6666666666666</ele><time>2026-04-16T16:49:02.999Z</time></trkpt><trkpt lat="44.349026124243544" lon="7.692024716692574"><ele>519.3333333333334</ele><time>2026-04-16T16:49:03.999Z</time></trkpt><trkpt lat="44.3488368973475" lon="7.6920684549668685"><ele>520.0</ele><time>2026-04-16T16:49:04.999Z</time></trkpt><trkpt lat="44.34864125911313" lon="7.692111635960101"><ele>520.0</ele><time>2026-04-16T16:49:05.999Z</time></trkpt><trkpt lat="44.348433561955105" lon="7.692161314928455"><ele>520.0</ele><time>2026-04-16T16:49:06.999Z</time></trkpt><trkpt lat="44.34822328543916" lon="7.692208723011768"><ele>520.0</ele><time>2026-04-16T16:49:07.999Z</time></trkpt><trkpt lat="44.34801230307951" lon="7.692263757776141"><ele>521.0</ele><time>2026-04-16T16:49:08.999Z</time></trkpt><trkpt lat="44.347795192994596" lon="7.692322349888645"><ele>522.0</ele><time>2026-04-16T16:49:09.999Z</time></trkpt><trkpt lat="44.347567853659015" lon="7.692370232841221"><ele>522.0</ele><time>2026-04-16T16:49:10.999Z</time></trkpt><trkpt lat="44.34734472396822" lon="7.692404660775911"><ele>522.0</ele><time>2026-04-16T16:49:11.999Z</time></trkpt><trkpt lat="44.34713757268681" lon="7.692458234991879"><ele>522.0</ele><time>2026-04-16T16:49:12.999Z</time></trkpt><trkpt lat="44.34693806683269" lon="7.692500574579554"><ele>522.0</ele><time>2026-04-16T16:49:13.999Z</time></trkpt><trkpt lat="44.34675289020096" lon="7.69254142505142"><ele>522.0</ele><time>2026-04-16T16:49:14.999Z</time></trkpt><trkpt lat="44.34656509647674" lon="7.692580489455972"><ele>522.0</ele><time>2026-04-16T16:49:15.999Z</time></trkpt><trkpt lat="44.346372577291426" lon="7.692627399836297"><ele>522.0</ele><time>2026-04-16T16:49:16.999Z</time></trkpt><trkpt lat="44.34617341372519" lon="7.69266797960708"><ele>522.0</ele><time>2026-04-16T16:49:17.999Z</time></trkpt><trkpt lat="44.34596895113798" lon="7.692712594053995"><ele>522.0</ele><time>2026-04-16T16:49:18.999Z</time></trkpt><trkpt lat="44.34576317733248" lon="7.692762453968718"><ele>522.3333333333334</ele><time>2026-04-16T16:49:19.999Z</time></trkpt><trkpt lat="44.34555269171824" lon="7.692818775216846"><ele>522.6666666666667</ele><time>2026-04-16T16:49:20.999Z</time></trkpt><trkpt lat="44.34534303805031" lon="7.69286137127977"><ele>523.0</ele><time>2026-04-16T16:49:21.999Z</time></trkpt><trkpt lat="44.3451256950629" lon="7.692916952964267"><ele>523.6666666666667</ele><time>2026-04-16T16:49:22.999Z</time></trkpt><trkpt lat="44.34490922785964" lon="7.692977054034129"><ele>524.3333333333334</ele><time>2026-04-16T16:49:23.998Z</time></trkpt><trkpt lat="44.34468556391268" lon="7.693039421244478"><ele>525.0</ele><time>2026-04-16T16:49:24.998Z</time></trkpt><trkpt lat="44.34447026084263" lon="7.6930875413193425"><ele>525.6666666666666</ele><time>2026-04-16T16:49:25.998Z</time></trkpt><trkpt lat="44.34427433286209" lon="7.693139636551165"><ele>526.3333333333333</ele><time>2026-04-16T16:49:26.998Z</time></trkpt><trkpt lat="44.344086373967194" lon="7.693176553472878"><ele>527.0</ele><time>2026-04-16T16:49:27.998Z</time></trkpt><trkpt lat="44.3439010565506" lon="7.693218033003131"><ele>528.0</ele><time>2026-04-16T16:49:28.998Z</time></trkpt><trkpt lat="44.34372698726653" lon="7.693255025531628"><ele>529.0</ele><time>2026-04-16T16:49:29.998Z</time></trkpt><trkpt lat="44.34355508888304" lon="7.6932923041666035"><ele>530.0</ele><time>2026-04-16T16:49:30.998Z</time></trkpt><trkpt lat="44.34338738684417" lon="7.693320970293698"><ele>530.0</ele><time>2026-04-16T16:49:31.998Z</time></trkpt><trkpt lat="44.34320988000342" lon="7.693344634018695"><ele>530.0</ele><time>2026-04-16T16:49:32.998Z</time></trkpt><trkpt lat="44.34302989078828" lon="7.693356277440353"><ele>530.0</ele><time>2026-04-16T16:49:33.998Z</time></trkpt><trkpt lat="44.34284125900541" lon="7.693357451796477"><ele>531.0</ele><time>2026-04-16T16:49:34.998Z</time></trkpt><trkpt lat="44.34264964000337" lon="7.693353607367615"><ele>532.0</ele><time>2026-04-16T16:49:35.998Z</time></trkpt><trkpt lat="44.34246382648174" lon="7.693329645860948"><ele>533.0</ele><time>2026-04-16T16:49:36.998Z</time></trkpt><trkpt lat="44.342270150224365" lon="7.6933050690481"><ele>533.6666666666666</ele><time>2026-04-16T16:49:37.998Z</time></trkpt><trkpt lat="44.34207296092236" lon="7.693277472994173"><ele>534.3333333333334</ele><time>2026-04-16T16:49:38.998Z</time></trkpt><trkpt lat="44.34188920962107" lon="7.693252452050752"><ele>535.0</ele><time>2026-04-16T16:49:39.998Z</time></trkpt><trkpt lat="44.34169874212034" lon="7.693227071989044"><ele>535.0</ele><time>2026-04-16T16:49:41Z</time></trkpt><trkpt lat="44.34150982151521" lon="7.693201415954813"><ele>535.0</ele><time>2026-04-16T16:49:42Z</time></trkpt><trkpt lat="44.34132680023274" lon="7.693180839630251"><ele>535.0</ele><time>2026-04-16T16:49:43Z</time></trkpt><trkpt lat="44.341136379728326" lon="7.693163971960774"><ele>536.0</ele><time>2026-04-16T16:49:44Z</time></trkpt><trkpt lat="44.34095606310003" lon="7.693141863458039"><ele>537.0</ele><time>2026-04-16T16:49:45Z</time></trkpt><trkpt lat="44.34077123025225" lon="7.69311368661814"><ele>538.0</ele><time>2026-04-16T16:49:46Z</time></trkpt><trkpt lat="44.34058498178455" lon="7.693093462527551"><ele>539.0</ele><time>2026-04-16T16:49:47Z</time></trkpt><trkpt lat="44.34039682872403" lon="7.693073272427342"><ele>540.0</ele><time>2026-04-16T16:49:48Z</time></trkpt><trkpt lat="44.34021912368849" lon="7.69304359061738"><ele>541.0</ele><time>2026-04-16T16:49:49Z</time></trkpt><trkpt lat="44.340042556922334" lon="7.693024349443618"><ele>541.0</ele><time>2026-04-16T16:49:50Z</time></trkpt><trkpt lat="44.3398645338843" lon="7.692992681519478"><ele>541.0</ele><time>2026-04-16T16:49:51Z</time></trkpt><trkpt lat="44.3396849227584" lon="7.692960225528571"><ele>541.0</ele><time>2026-04-16T16:49:52Z</time></trkpt><trkpt lat="44.33950123661864" lon="7.692909691652929"><ele>539.6666666666667</ele><time>2026-04-16T16:49:53Z</time></trkpt><trkpt lat="44.33932400076821" lon="7.692856626391022"><ele>538.3333333333334</ele><time>2026-04-16T16:49:54Z</time></trkpt><trkpt lat="44.33914746573014" lon="7.6927787007679225"><ele>537.0</ele><time>2026-04-16T16:49:55Z</time></trkpt><trkpt lat="44.338973983236414" lon="7.6926913682116735"><ele>537.3333333333334</ele><time>2026-04-16T16:49:56Z</time></trkpt><trkpt lat="44.338791166842846" lon="7.692606646070734"><ele>537.6666666666667</ele><time>2026-04-16T16:49:57Z</time></trkpt><trkpt lat="44.338606791177284" lon="7.6925211769265935"><ele>538.0</ele><time>2026-04-16T16:49:58Z</time></trkpt><trkpt lat="44.33841498867622" lon="7.6924271368307995"><ele>538.0</ele><time>2026-04-16T16:49:59Z</time></trkpt><trkpt lat="44.338220095451284" lon="7.692339365914363"><ele>538.0</ele><time>2026-04-16T16:50:00Z</time></trkpt><trkpt lat="44.33802497231687" lon="7.692249509984771"><ele>538.0</ele><time>2026-04-16T16:50:01Z</time></trkpt><trkpt lat="44.33783067095194" lon="7.692153244516053"><ele>537.6666666666667</ele><time>2026-04-16T16:50:02Z</time></trkpt><trkpt lat="44.33763557884143" lon="7.692066431257608"><ele>537.3333333333334</ele><time>2026-04-16T16:50:03Z</time></trkpt><trkpt lat="44.33743417369884" lon="7.691969317560379"><ele>537.0</ele><time>2026-04-16T16:50:04Z</time></trkpt><trkpt lat="44.3372324064887" lon="7.69187815521309"><ele>538.3333333333334</ele><time>2026-04-16T16:50:05Z</time></trkpt><trkpt lat="44.33703836806396" lon="7.691786202488436"><ele>539.6666666666667</ele><time>2026-04-16T16:50:06Z</time></trkpt><trkpt lat="44.3368456162705" lon="7.691700332758026"><ele>541.0</ele><time>2026-04-16T16:50:07Z</time></trkpt><trkpt lat="44.33665555243781" lon="7.69162374628753"><ele>541.0</ele><time>2026-04-16T16:50:08Z</time></trkpt><trkpt lat="44.33646636766985" lon="7.691537765592182"><ele>541.0</ele><time>2026-04-16T16:50:09Z</time></trkpt><trkpt lat="44.336275769485916" lon="7.691442419657012"><ele>541.0</ele><time>2026-04-16T16:50:10Z</time></trkpt><trkpt lat="44.33608230788922" lon="7.691351187916525"><ele>542.0</ele><time>2026-04-16T16:50:11Z</time></trkpt><trkpt lat="44.33588782222096" lon="7.691242350681322"><ele>543.0</ele><time>2026-04-16T16:50:12Z</time></trkpt><trkpt lat="44.33570004549775" lon="7.691132090692869"><ele>544.0</ele><time>2026-04-16T16:50:13Z</time></trkpt><trkpt lat="44.3355083717135" lon="7.691003780201618"><ele>544.0</ele><time>2026-04-16T16:50:14Z</time></trkpt><trkpt lat="44.33531750946056" lon="7.690871269439441"><ele>544.0</ele><time>2026-04-16T16:50:15Z</time></trkpt><trkpt lat="44.33513131327774" lon="7.6907486693467595"><ele>544.0</ele><time>2026-04-16T16:50:16Z</time></trkpt><trkpt lat="44.334941067420516" lon="7.690617659556776"><ele>544.0</ele><time>2026-04-16T16:50:17Z</time></trkpt><trkpt lat="44.33475084965319" lon="7.6904879485222875"><ele>544.0</ele><time>2026-04-16T16:50:18Z</time></trkpt><trkpt lat="44.334554805946134" lon="7.690355986393676"><ele>544.0</ele><time>2026-04-16T16:50:19Z</time></trkpt><trkpt lat="44.33435826077999" lon="7.69022335973493"><ele>544.6666666666667</ele><time>2026-04-16T16:50:20Z</time></trkpt><trkpt lat="44.334167816008446" lon="7.690091127185076"><ele>545.3333333333334</ele><time>2026-04-16T16:50:21Z</time></trkpt><trkpt lat="44.33397580694757" lon="7.6899592701768595"><ele>546.0</ele><time>2026-04-16T16:50:22Z</time></trkpt><trkpt lat="44.33380622324701" lon="7.689834700672484"><ele>548.0</ele><time>2026-04-16T16:50:23Z</time></trkpt><trkpt lat="44.33363423154223" lon="7.689721118547118"><ele>550.0</ele><time>2026-04-16T16:50:23.999Z</time></trkpt><trkpt lat="44.33347292294764" lon="7.689610348273732"><ele>552.0</ele><time>2026-04-16T16:50:24.999Z</time></trkpt><trkpt lat="44.3333157465981" lon="7.6894991786308164"><ele>550.0</ele><time>2026-04-16T16:50:25.999Z</time></trkpt><trkpt lat="44.33315666994728" lon="7.689380473558031"><ele>548.0</ele><time>2026-04-16T16:50:26.999Z</time></trkpt><trkpt lat="44.33299396655127" lon="7.689251257644733"><ele>546.0</ele><time>2026-04-16T16:50:27.999Z</time></trkpt><trkpt lat="44.33283315195698" lon="7.689120491849963"><ele>551.0</ele><time>2026-04-16T16:50:28.999Z</time></trkpt><trkpt lat="44.33267201424299" lon="7.688977928090517"><ele>556.0</ele><time>2026-04-16T16:50:29.999Z</time></trkpt><trkpt lat="44.332515452863966" lon="7.688830788923881"><ele>561.0</ele><time>2026-04-16T16:50:30.999Z</time></trkpt><trkpt lat="44.33235983862539" lon="7.688677149396372"><ele>558.6666666666666</ele><time>2026-04-16T16:50:31.999Z</time></trkpt><trkpt lat="44.332206130616825" lon="7.68851503299439"><ele>556.3333333333333</ele><time>2026-04-16T16:50:32.999Z</time></trkpt><trkpt lat="44.33205587083819" lon="7.688344019296879"><ele>554.0</ele><time>2026-04-16T16:50:33.999Z</time></trkpt><trkpt lat="44.33190162055636" lon="7.6881716604249215"><ele>554.0</ele><time>2026-04-16T16:50:34.999Z</time></trkpt><trkpt lat="44.33174596888405" lon="7.687992811763742"><ele>554.0</ele><time>2026-04-16T16:50:35.999Z</time></trkpt><trkpt lat="44.33159839058467" lon="7.687829217092516"><ele>554.0</ele><time>2026-04-16T16:50:36.999Z</time></trkpt><trkpt lat="44.33145302766295" lon="7.687671499616261"><ele>554.0</ele><time>2026-04-16T16:50:37.999Z</time></trkpt><trkpt lat="44.33130707592617" lon="7.68749663011302"><ele>554.0</ele><time>2026-04-16T16:50:38.999Z</time></trkpt><trkpt lat="44.331169094531255" lon="7.687318039537294"><ele>554.0</ele><time>2026-04-16T16:50:39.999Z</time></trkpt><trkpt lat="44.33102703777091" lon="7.687128372060543"><ele>554.0</ele><time>2026-04-16T16:50:40.999Z</time></trkpt><trkpt lat="44.33088431432348" lon="7.686932417225353"><ele>554.0</ele><time>2026-04-16T16:50:41.999Z</time></trkpt><trkpt lat="44.330743374018255" lon="7.686727723487084"><ele>554.0</ele><time>2026-04-16T16:50:42.999Z</time></trkpt><trkpt lat="44.330603231367505" lon="7.68651958689955"><ele>555.0</ele><time>2026-04-16T16:50:43.999Z</time></trkpt><trkpt lat="44.33046813122968" lon="7.6863111934280415"><ele>556.0</ele><time>2026-04-16T16:50:44.999Z</time></trkpt><trkpt lat="44.33034017085956" lon="7.6860991208019245"><ele>557.0</ele><time>2026-04-16T16:50:45.999Z</time></trkpt><trkpt lat="44.330208189445464" lon="7.685877563295117"><ele>557.0</ele><time>2026-04-16T16:50:46.999Z</time></trkpt><trkpt lat="44.33008300616336" lon="7.685667003949788"><ele>557.0</ele><time>2026-04-16T16:50:47.999Z</time></trkpt><trkpt lat="44.3299513936224" lon="7.685463122204283"><ele>557.0</ele><time>2026-04-16T16:50:48.999Z</time></trkpt><trkpt lat="44.329826380216424" lon="7.685262552060125"><ele>558.3333333333333</ele><time>2026-04-16T16:50:49.999Z</time></trkpt><trkpt lat="44.32969778784446" lon="7.685059565724967"><ele>559.6666666666666</ele><time>2026-04-16T16:50:50.999Z</time></trkpt><trkpt lat="44.3295714944014" lon="7.684857266984193"><ele>561.0</ele><time>2026-04-16T16:50:51.999Z</time></trkpt><trkpt lat="44.329442959759994" lon="7.684651606524123"><ele>561.0</ele><time>2026-04-16T16:50:52.999Z</time></trkpt><trkpt lat="44.329314235921565" lon="7.684436148268942"><ele>561.0</ele><time>2026-04-16T16:50:53.999Z</time></trkpt><trkpt lat="44.3291868386062" lon="7.684215324320802"><ele>561.0</ele><time>2026-04-16T16:50:54.999Z</time></trkpt><trkpt lat="44.32905485010166" lon="7.6840062148602915"><ele>560.3333333333334</ele><time>2026-04-16T16:50:55.999Z</time></trkpt><trkpt lat="44.328935183473796" lon="7.683804961548294"><ele>559.6666666666667</ele><time>2026-04-16T16:50:56.999Z</time></trkpt><trkpt lat="44.32881516230762" lon="7.683607143105938"><ele>559.0</ele><time>2026-04-16T16:50:57.999Z</time></trkpt><trkpt lat="44.32869178938256" lon="7.683417611180722"><ele>562.0</ele><time>2026-04-16T16:50:58.999Z</time></trkpt><trkpt lat="44.328574835642" lon="7.683228176924012"><ele>565.0</ele><time>2026-04-16T16:50:59.999Z</time></trkpt><trkpt lat="44.328469198046136" lon="7.683045201900116"><ele>568.0</ele><time>2026-04-16T16:51:00.999Z</time></trkpt><trkpt lat="44.32836443142397" lon="7.6828715974873125"><ele>567.0</ele><time>2026-04-16T16:51:01.999Z</time></trkpt><trkpt lat="44.328265513972696" lon="7.682700371983701"><ele>566.0</ele><time>2026-04-16T16:51:02.999Z</time></trkpt><trkpt lat="44.328165900920375" lon="7.682537240450297"><ele>565.0</ele><time>2026-04-16T16:51:03.999Z</time></trkpt><trkpt lat="44.328067441020494" lon="7.68238740027945"><ele>569.25</ele><time>2026-04-16T16:51:04.999Z</time></trkpt><trkpt lat="44.32797540887088" lon="7.682233727601036"><ele>573.5</ele><time>2026-04-16T16:51:05.999Z</time></trkpt><trkpt lat="44.32789024154629" lon="7.682090535538504"><ele>577.75</ele><time>2026-04-16T16:51:06.999Z</time></trkpt><trkpt lat="44.327799998166185" lon="7.681950059932098"><ele>582.0</ele><time>2026-04-16T16:51:07.999Z</time></trkpt><trkpt lat="44.327716359560384" lon="7.68181544815033"><ele>582.0</ele><time>2026-04-16T16:51:08.999Z</time></trkpt><trkpt lat="44.32763108816513" lon="7.681680178840206"><ele>582.0</ele><time>2026-04-16T16:51:09.999Z</time></trkpt><trkpt lat="44.32754404104704" lon="7.681531668020268"><ele>582.0</ele><time>2026-04-16T16:51:10.999Z</time></trkpt><trkpt lat="44.32745888399245" lon="7.6813937590852355"><ele>582.0</ele><time>2026-04-16T16:51:11.999Z</time></trkpt><trkpt lat="44.327374546275315" lon="7.681266718232557"><ele>582.0</ele><time>2026-04-16T16:51:12.999Z</time></trkpt><trkpt lat="44.327292189994" lon="7.681145508218825"><ele>582.0</ele><time>2026-04-16T16:51:13.999Z</time></trkpt><trkpt lat="44.32721730213815" lon="7.681037733893893"><ele>582.0</ele><time>2026-04-16T16:51:14.999Z</time></trkpt><trkpt lat="44.32714111704023" lon="7.680940444287094"><ele>582.0</ele><time>2026-04-16T16:51:15.999Z</time></trkpt><trkpt lat="44.327066672187236" lon="7.6808496235778705"><ele>582.0</ele><time>2026-04-16T16:51:16.999Z</time></trkpt><trkpt lat="44.32699449163166" lon="7.680765450580834"><ele>582.8333333333334</ele><time>2026-04-16T16:51:17.999Z</time></trkpt><trkpt lat="44.32691672315254" lon="7.680681069449666"><ele>583.6666666666666</ele><time>2026-04-16T16:51:18.999Z</time></trkpt><trkpt lat="44.32684635092409" lon="7.680601678059176"><ele>584.5</ele><time>2026-04-16T16:51:19.999Z</time></trkpt><trkpt lat="44.32678718404306" lon="7.680539184826224"><ele>585.3333333333333</ele><time>2026-04-16T16:51:20.999Z</time></trkpt><trkpt lat="44.32673220713659" lon="7.6804751838384435"><ele>586.1666666666666</ele><time>2026-04-16T16:51:21.999Z</time></trkpt><trkpt lat="44.326645295426395" lon="7.6803769397758215"><ele>587.0</ele><time>2026-04-16T16:51:23.999Z</time></trkpt><trkpt lat="44.32658437822211" lon="7.680321148020389"><ele>587.0</ele><time>2026-04-16T16:51:25.999Z</time></trkpt><trkpt lat="44.326509696505866" lon="7.680260554173773"><ele>587.0</ele><time>2026-04-16T16:51:27.998Z</time></trkpt><trkpt lat="44.326445347537344" lon="7.680230381953933"><ele>587.0</ele><time>2026-04-16T16:51:28.998Z</time></trkpt><trkpt lat="44.326364721904575" lon="7.680194255096745"><ele>587.0</ele><time>2026-04-16T16:51:29.998Z</time></trkpt><trkpt lat="44.326277049511496" lon="7.680144856836633"><ele>587.0</ele><time>2026-04-16T16:51:30.998Z</time></trkpt><trkpt lat="44.32618842636159" lon="7.680097836815323"><ele>587.0</ele><time>2026-04-16T16:51:31.998Z</time></trkpt><trkpt lat="44.326098400991015" lon="7.680039137550867"><ele>587.0</ele><time>2026-04-16T16:51:32.998Z</time></trkpt><trkpt lat="44.32601814698961" lon="7.679992513120871"><ele>587.0</ele><time>2026-04-16T16:51:33.998Z</time></trkpt><trkpt lat="44.325940378141446" lon="7.679950747279012"><ele>587.0</ele><time>2026-04-16T16:51:34.998Z</time></trkpt><trkpt lat="44.32584414111153" lon="7.6799080258796515"><ele>587.0</ele><time>2026-04-16T16:51:35.998Z</time></trkpt><trkpt lat="44.32573167252819" lon="7.6798844874385175"><ele>587.0</ele><time>2026-04-16T16:51:36.998Z</time></trkpt><trkpt lat="44.32563252910277" lon="7.679870815265016"><ele>586.2</ele><time>2026-04-16T16:51:37.998Z</time></trkpt><trkpt lat="44.32552907550372" lon="7.679857114173642"><ele>585.4000000000001</ele><time>2026-04-16T16:51:38.998Z</time></trkpt><trkpt lat="44.32541109866254" lon="7.679855688512655"><ele>584.5999999999999</ele><time>2026-04-16T16:51:39.998Z</time></trkpt><trkpt lat="44.325297517115665" lon="7.679868106759589"><ele>583.8</ele><time>2026-04-16T16:51:40.998Z</time></trkpt><trkpt lat="44.32519395860411" lon="7.679894161305047"><ele>583.0</ele><time>2026-04-16T16:51:41.998Z</time></trkpt><trkpt lat="44.325092732701066" lon="7.679921889050291"><ele>583.0</ele><time>2026-04-16T16:51:42.998Z</time></trkpt><trkpt lat="44.32499612940386" lon="7.679956842284785"><ele>583.0</ele><time>2026-04-16T16:51:43.998Z</time></trkpt><trkpt lat="44.32490640998216" lon="7.679998416894792"><ele>583.0</ele><time>2026-04-16T16:51:44.998Z</time></trkpt><trkpt lat="44.324819536201154" lon="7.680053088530168"><ele>583.0</ele><time>2026-04-16T16:51:45.998Z</time></trkpt><trkpt lat="44.324740625536066" lon="7.680131385303936"><ele>583.0</ele><time>2026-04-16T16:51:47Z</time></trkpt><trkpt lat="44.32466128691135" lon="7.680229483123966"><ele>583.25</ele><time>2026-04-16T16:51:48Z</time></trkpt><trkpt lat="44.32458697077518" lon="7.680366336807095"><ele>583.5</ele><time>2026-04-16T16:51:49Z</time></trkpt><trkpt lat="44.324511474138475" lon="7.680512525118432"><ele>583.75</ele><time>2026-04-16T16:51:50Z</time></trkpt><trkpt lat="44.32442450356984" lon="7.680678541476614"><ele>584.0</ele><time>2026-04-16T16:51:51Z</time></trkpt><trkpt lat="44.32435408554223" lon="7.680850212057867"><ele>584.0</ele><time>2026-04-16T16:51:52Z</time></trkpt><trkpt lat="44.32428379552371" lon="7.6809946143816505"><ele>584.0</ele><time>2026-04-16T16:51:53Z</time></trkpt><trkpt lat="44.32422117347212" lon="7.681129343159788"><ele>584.0</ele><time>2026-04-16T16:51:54Z</time></trkpt><trkpt lat="44.324144692307286" lon="7.68126867874468"><ele>584.0</ele><time>2026-04-16T16:51:55Z</time></trkpt><trkpt lat="44.32405267633407" lon="7.681404689805905"><ele>583.25</ele><time>2026-04-16T16:51:56Z</time></trkpt><trkpt lat="44.323941697649396" lon="7.681529469885249"><ele>582.5</ele><time>2026-04-16T16:51:57Z</time></trkpt><trkpt lat="44.32382049888997" lon="7.6816610021483225"><ele>581.75</ele><time>2026-04-16T16:51:58Z</time></trkpt><trkpt lat="44.32371372965692" lon="7.6817586860717615"><ele>581.0</ele><time>2026-04-16T16:51:59Z</time></trkpt><trkpt lat="44.323605648550235" lon="7.681856312553969"><ele>586.25</ele><time>2026-04-16T16:52:00Z</time></trkpt><trkpt lat="44.32350288220905" lon="7.681959633787068"><ele>591.5</ele><time>2026-04-16T16:52:01Z</time></trkpt><trkpt lat="44.323398519865215" lon="7.682045316336932"><ele>596.75</ele><time>2026-04-16T16:52:02Z</time></trkpt><trkpt lat="44.32330886730996" lon="7.6821386947484305"><ele>602.0</ele><time>2026-04-16T16:52:03Z</time></trkpt><trkpt lat="44.32320974117411" lon="7.68223387727614"><ele>602.0</ele><time>2026-04-16T16:52:04Z</time></trkpt><trkpt lat="44.32311103812477" lon="7.682328568059163"><ele>602.0</ele><time>2026-04-16T16:52:05Z</time></trkpt><trkpt lat="44.32301138028777" lon="7.682421101815473"><ele>602.0</ele><time>2026-04-16T16:52:06Z</time></trkpt><trkpt lat="44.32291038513782" lon="7.682524842374322"><ele>602.0</ele><time>2026-04-16T16:52:07Z</time></trkpt><trkpt lat="44.3228084633958" lon="7.6826194590447985"><ele>603.5</ele><time>2026-04-16T16:52:08Z</time></trkpt><trkpt lat="44.32271759472954" lon="7.682711570017922"><ele>605.0</ele><time>2026-04-16T16:52:09Z</time></trkpt><trkpt lat="44.32261487935587" lon="7.682807344124157"><ele>606.5</ele><time>2026-04-16T16:52:10Z</time></trkpt><trkpt lat="44.322511858561406" lon="7.6828991095996315"><ele>608.0</ele><time>2026-04-16T16:52:11Z</time></trkpt><trkpt lat="44.3224071080181" lon="7.682996959081902"><ele>608.0</ele><time>2026-04-16T16:52:12Z</time></trkpt><trkpt lat="44.32229865026826" lon="7.683094252168744"><ele>608.0</ele><time>2026-04-16T16:52:13Z</time></trkpt><trkpt lat="44.322204495996864" lon="7.683170924587865"><ele>608.0</ele><time>2026-04-16T16:52:14Z</time></trkpt><trkpt lat="44.32210634581418" lon="7.6832505247333875"><ele>608.0</ele><time>2026-04-16T16:52:15Z</time></trkpt><trkpt lat="44.32199855774407" lon="7.6833449282584665"><ele>609.25</ele><time>2026-04-16T16:52:16Z</time></trkpt><trkpt lat="44.32188961237479" lon="7.683435501523617"><ele>610.5</ele><time>2026-04-16T16:52:17Z</time></trkpt><trkpt lat="44.321775226364096" lon="7.683519295635177"><ele>611.75</ele><time>2026-04-16T16:52:18Z</time></trkpt><trkpt lat="44.321646431195234" lon="7.683605649388933"><ele>613.0</ele><time>2026-04-16T16:52:19Z</time></trkpt><trkpt lat="44.32151830332426" lon="7.683683981305667"><ele>613.0</ele><time>2026-04-16T16:52:20Z</time></trkpt><trkpt lat="44.32140323034181" lon="7.68375372143886"><ele>613.0</ele><time>2026-04-16T16:52:21Z</time></trkpt><trkpt lat="44.32129651306709" lon="7.6838223509351495"><ele>613.0</ele><time>2026-04-16T16:52:22Z</time></trkpt><trkpt lat="44.321200234339514" lon="7.683873456961108"><ele>613.0</ele><time>2026-04-16T16:52:23Z</time></trkpt><trkpt lat="44.32110454279007" lon="7.683928351171601"><ele>613.0</ele><time>2026-04-16T16:52:24Z</time></trkpt><trkpt lat="44.32099875420401" lon="7.683987053531693"><ele>607.75</ele><time>2026-04-16T16:52:25Z</time></trkpt><trkpt lat="44.32088890000403" lon="7.684047400111567"><ele>602.5</ele><time>2026-04-16T16:52:26Z</time></trkpt><trkpt lat="44.32078001542424" lon="7.684110528950022"><ele>597.25</ele><time>2026-04-16T16:52:27Z</time></trkpt><trkpt lat="44.320680882676605" lon="7.684169652667023"><ele>592.0</ele><time>2026-04-16T16:52:28Z</time></trkpt><trkpt lat="44.32056928852826" lon="7.684237240024497"><ele>592.75</ele><time>2026-04-16T16:52:29Z</time></trkpt><trkpt lat="44.32046587774881" lon="7.684320709791357"><ele>593.5</ele><time>2026-04-16T16:52:30Z</time></trkpt><trkpt lat="44.32035985720363" lon="7.684422000243001"><ele>594.25</ele><time>2026-04-16T16:52:31Z</time></trkpt><trkpt lat="44.320257121575544" lon="7.68453005612782"><ele>595.0</ele><time>2026-04-16T16:52:32Z</time></trkpt><trkpt lat="44.320164125805654" lon="7.684639106072704"><ele>595.0</ele><time>2026-04-16T16:52:32.999Z</time></trkpt><trkpt lat="44.32007312705541" lon="7.684746944792063"><ele>595.0</ele><time>2026-04-16T16:52:33.999Z</time></trkpt><trkpt lat="44.319990951964705" lon="7.684845057105126"><ele>595.0</ele><time>2026-04-16T16:52:34.999Z</time></trkpt><trkpt lat="44.319906236262064" lon="7.684939394436107"><ele>595.0</ele><time>2026-04-16T16:52:35.999Z</time></trkpt><trkpt lat="44.31981667077575" lon="7.685033194172947"><ele>595.0</ele><time>2026-04-16T16:52:36.999Z</time></trkpt><trkpt lat="44.319725378001976" lon="7.6851268570374724"><ele>593.75</ele><time>2026-04-16T16:52:37.999Z</time></trkpt><trkpt lat="44.31962169388098" lon="7.685215083520175"><ele>592.5</ele><time>2026-04-16T16:52:38.999Z</time></trkpt><trkpt lat="44.31952005991892" lon="7.6852957551243435"><ele>591.25</ele><time>2026-04-16T16:52:39.999Z</time></trkpt><trkpt lat="44.31941883195062" lon="7.685370899102131"><ele>590.0</ele><time>2026-04-16T16:52:40.999Z</time></trkpt><trkpt lat="44.3193136269006" lon="7.685459096819238"><ele>592.75</ele><time>2026-04-16T16:52:41.999Z</time></trkpt><trkpt lat="44.31919416227521" lon="7.685554691898247"><ele>595.5</ele><time>2026-04-16T16:52:42.999Z</time></trkpt><trkpt lat="44.319071118504" lon="7.685642745468841"><ele>598.25</ele><time>2026-04-16T16:52:43.999Z</time></trkpt><trkpt lat="44.3189481128721" lon="7.685738933637086"><ele>601.0</ele><time>2026-04-16T16:52:44.999Z</time></trkpt><trkpt lat="44.318824125039036" lon="7.685831399408964"><ele>601.0</ele><time>2026-04-16T16:52:45.999Z</time></trkpt><trkpt lat="44.31868822107571" lon="7.685929112312595"><ele>601.0</ele><time>2026-04-16T16:52:46.999Z</time></trkpt><trkpt lat="44.318549690875514" lon="7.6860283927806305"><ele>601.0</ele><time>2026-04-16T16:52:47.999Z</time></trkpt><trkpt lat="44.31839970383001" lon="7.686136595500084"><ele>604.0</ele><time>2026-04-16T16:52:48.999Z</time></trkpt><trkpt lat="44.31825708037741" lon="7.686223145192697"><ele>607.0</ele><time>2026-04-16T16:52:49.999Z</time></trkpt><trkpt lat="44.31813087246273" lon="7.686311041661219"><ele>610.0</ele><time>2026-04-16T16:52:50.999Z</time></trkpt><trkpt lat="44.31800489416499" lon="7.686389416796732"><ele>613.0</ele><time>2026-04-16T16:52:51.999Z</time></trkpt><trkpt lat="44.31789023816501" lon="7.6864505404383765"><ele>613.0</ele><time>2026-04-16T16:52:52.999Z</time></trkpt><trkpt lat="44.31776392545942" lon="7.686538259150084"><ele>613.0</ele><time>2026-04-16T16:52:53.999Z</time></trkpt><trkpt lat="44.31764861150463" lon="7.686644541922451"><ele>613.0</ele><time>2026-04-16T16:52:54.999Z</time></trkpt><trkpt lat="44.31754550982027" lon="7.68676238141155"><ele>613.0</ele><time>2026-04-16T16:52:55.999Z</time></trkpt><trkpt lat="44.31744986706577" lon="7.686910054222351"><ele>616.25</ele><time>2026-04-16T16:52:56.999Z</time></trkpt><trkpt lat="44.31735657394981" lon="7.687056800708783"><ele>619.5</ele><time>2026-04-16T16:52:57.999Z</time></trkpt><trkpt lat="44.31725633531321" lon="7.687186796239388"><ele>622.75</ele><time>2026-04-16T16:52:58.999Z</time></trkpt><trkpt lat="44.31717285759765" lon="7.687293292233766"><ele>626.0</ele><time>2026-04-16T16:52:59.999Z</time></trkpt><trkpt lat="44.3170750388569" lon="7.687384668384796"><ele>626.0</ele><time>2026-04-16T16:53:00.999Z</time></trkpt><trkpt lat="44.31699401428361" lon="7.687454854228074"><ele>626.0</ele><time>2026-04-16T16:53:01.999Z</time></trkpt><trkpt lat="44.31690047917902" lon="7.6875162608623855"><ele>626.0</ele><time>2026-04-16T16:53:02.999Z</time></trkpt><trkpt lat="44.31682273851237" lon="7.687550742509249"><ele>626.0</ele><time>2026-04-16T16:53:03.999Z</time></trkpt><trkpt lat="44.31674391409108" lon="7.687597968444097"><ele>626.0</ele><time>2026-04-16T16:53:04.999Z</time></trkpt><trkpt lat="44.31666584310602" lon="7.687667656972634"><ele>630.0</ele><time>2026-04-16T16:53:05.999Z</time></trkpt><trkpt lat="44.31661574138554" lon="7.6877653638036225"><ele>634.0</ele><time>2026-04-16T16:53:06.999Z</time></trkpt><trkpt lat="44.31658031817716" lon="7.687880883149036"><ele>638.0</ele><time>2026-04-16T16:53:07.999Z</time></trkpt><trkpt lat="44.3165507635087" lon="7.6880080470488075"><ele>642.0</ele><time>2026-04-16T16:53:08.999Z</time></trkpt><trkpt lat="44.31654249396249" lon="7.688155867279008"><ele>646.0</ele><time>2026-04-16T16:53:09.999Z</time></trkpt><trkpt lat="44.31653421912881" lon="7.688306692855689"><ele>646.0</ele><time>2026-04-16T16:53:10.999Z</time></trkpt><trkpt lat="44.3165250925341" lon="7.688473042835485"><ele>646.0</ele><time>2026-04-16T16:53:11.999Z</time></trkpt><trkpt lat="44.316518993623916" lon="7.688656175207388"><ele>646.0</ele><time>2026-04-16T16:53:12.999Z</time></trkpt><trkpt lat="44.31650543142611" lon="7.688837117861498"><ele>646.0</ele><time>2026-04-16T16:53:13.999Z</time></trkpt><trkpt lat="44.316492031472066" lon="7.689015935588062"><ele>648.75</ele><time>2026-04-16T16:53:14.999Z</time></trkpt><trkpt lat="44.316476013892185" lon="7.689177005696687"><ele>651.5</ele><time>2026-04-16T16:53:15.999Z</time></trkpt><trkpt lat="44.31645828708125" lon="7.689360442148605"><ele>654.25</ele><time>2026-04-16T16:53:16.999Z</time></trkpt><trkpt lat="44.31644222035678" lon="7.689539169303926"><ele>657.0</ele><time>2026-04-16T16:53:17.999Z</time></trkpt><trkpt lat="44.31643420834649" lon="7.689742379289594"><ele>659.25</ele><time>2026-04-16T16:53:18.999Z</time></trkpt><trkpt lat="44.316420941441145" lon="7.689941998885274"><ele>661.5</ele><time>2026-04-16T16:53:19.999Z</time></trkpt><trkpt lat="44.316399004787094" lon="7.690107593751524"><ele>663.75</ele><time>2026-04-16T16:53:20.999Z</time></trkpt><trkpt lat="44.31635655567587" lon="7.690263538250964"><ele>666.0</ele><time>2026-04-16T16:53:21.999Z</time></trkpt><trkpt lat="44.316296570577975" lon="7.690426296564634"><ele>667.25</ele><time>2026-04-16T16:53:22.999Z</time></trkpt><trkpt lat="44.31622000479928" lon="7.69057800028067"><ele>668.5</ele><time>2026-04-16T16:53:23.999Z</time></trkpt><trkpt lat="44.31612790766839" lon="7.6907188054668625"><ele>669.75</ele><time>2026-04-16T16:53:24.999Z</time></trkpt><trkpt lat="44.31602184646673" lon="7.690834174312977"><ele>671.0</ele><time>2026-04-16T16:53:25.999Z</time></trkpt><trkpt lat="44.31590549355972" lon="7.690946766084589"><ele>671.0</ele><time>2026-04-16T16:53:26.999Z</time></trkpt><trkpt lat="44.315792326070685" lon="7.691060200113225"><ele>671.0</ele><time>2026-04-16T16:53:27.999Z</time></trkpt><trkpt lat="44.315673413230215" lon="7.691188445444872"><ele>671.0</ele><time>2026-04-16T16:53:28.999Z</time></trkpt><trkpt lat="44.315547257524855" lon="7.691309454064134"><ele>671.0</ele><time>2026-04-16T16:53:29.999Z</time></trkpt><trkpt lat="44.315430049238586" lon="7.691430512719571"><ele>671.75</ele><time>2026-04-16T16:53:30.999Z</time></trkpt><trkpt lat="44.315328679861665" lon="7.69153716717609"><ele>672.5</ele><time>2026-04-16T16:53:31.999Z</time></trkpt><trkpt lat="44.315223920304796" lon="7.691667927620998"><ele>673.25</ele><time>2026-04-16T16:53:32.999Z</time></trkpt><trkpt lat="44.31513229595175" lon="7.691831368485378"><ele>674.0</ele><time>2026-04-16T16:53:33.999Z</time></trkpt><trkpt lat="44.315058723473015" lon="7.692020153706245"><ele>674.0</ele><time>2026-04-16T16:53:34.999Z</time></trkpt><trkpt lat="44.31498992841424" lon="7.692217090673463"><ele>674.0</ele><time>2026-04-16T16:53:35.999Z</time></trkpt><trkpt lat="44.31492146448259" lon="7.692432432097337"><ele>674.0</ele><time>2026-04-16T16:53:36.998Z</time></trkpt><trkpt lat="44.31485854054702" lon="7.692645624016681"><ele>672.3333333333333</ele><time>2026-04-16T16:53:37.998Z</time></trkpt><trkpt lat="44.31480062214643" lon="7.692868340002174"><ele>670.6666666666666</ele><time>2026-04-16T16:53:38.998Z</time></trkpt><trkpt lat="44.31473579636672" lon="7.6931040728045454"><ele>669.0</ele><time>2026-04-16T16:53:39.998Z</time></trkpt><trkpt lat="44.31466945438006" lon="7.693336006896905"><ele>671.3333333333334</ele><time>2026-04-16T16:53:40.998Z</time></trkpt><trkpt lat="44.31460003848594" lon="7.693581092056114"><ele>673.6666666666667</ele><time>2026-04-16T16:53:41.998Z</time></trkpt><trkpt lat="44.31452453561476" lon="7.693827725434315"><ele>676.0</ele><time>2026-04-16T16:53:42.998Z</time></trkpt><trkpt lat="44.3144471258879" lon="7.694085783964105"><ele>676.0</ele><time>2026-04-16T16:53:43.998Z</time></trkpt><trkpt lat="44.31436628154599" lon="7.694332032829475"><ele>676.0</ele><time>2026-04-16T16:53:44.998Z</time></trkpt><trkpt lat="44.314291929345636" lon="7.694583585569676"><ele>676.0</ele><time>2026-04-16T16:53:45.998Z</time></trkpt><trkpt lat="44.31420474347505" lon="7.694837045194942"><ele>676.6666666666667</ele><time>2026-04-16T16:53:46.998Z</time></trkpt><trkpt lat="44.314117214604394" lon="7.695103650098421"><ele>677.3333333333334</ele><time>2026-04-16T16:53:47.998Z</time></trkpt><trkpt lat="44.314020678079814" lon="7.695362670015569"><ele>678.0</ele><time>2026-04-16T16:53:48.998Z</time></trkpt><trkpt lat="44.31393107585859" lon="7.695630295837309"><ele>679.6666666666666</ele><time>2026-04-16T16:53:49.998Z</time></trkpt><trkpt lat="44.313842840126895" lon="7.6958945449319405"><ele>681.3333333333333</ele><time>2026-04-16T16:53:50.998Z</time></trkpt><trkpt lat="44.313756077995805" lon="7.696154380885722"><ele>683.0</ele><time>2026-04-16T16:53:51.998Z</time></trkpt><trkpt lat="44.31366839679217" lon="7.696416969161221"><ele>685.3333333333333</ele><time>2026-04-16T16:53:53Z</time></trkpt><trkpt lat="44.31358819487436" lon="7.696657158404405"><ele>687.6666666666666</ele><time>2026-04-16T16:53:54Z</time></trkpt><trkpt lat="44.31351768709368" lon="7.696868315664605"><ele>690.0</ele><time>2026-04-16T16:53:55Z</time></trkpt><trkpt lat="44.31345400085998" lon="7.697059043557766"><ele>691.25</ele><time>2026-04-16T16:53:56Z</time></trkpt><trkpt lat="44.3134003477868" lon="7.6972222781213215"><ele>692.5</ele><time>2026-04-16T16:53:57Z</time></trkpt><trkpt lat="44.31335142518892" lon="7.697386871909406"><ele>693.75</ele><time>2026-04-16T16:53:58Z</time></trkpt><trkpt lat="44.313315311368534" lon="7.6975839445509235"><ele>695.0</ele><time>2026-04-16T16:53:59Z</time></trkpt><trkpt lat="44.3132972569931" lon="7.697789883760598"><ele>698.0</ele><time>2026-04-16T16:54:00Z</time></trkpt><trkpt lat="44.31328452169326" lon="7.698011604511878"><ele>701.0</ele><time>2026-04-16T16:54:01Z</time></trkpt><trkpt lat="44.31327743811011" lon="7.698229350858095"><ele>704.0</ele><time>2026-04-16T16:54:02Z</time></trkpt><trkpt lat="44.31327228081669" lon="7.6984519219571945"><ele>704.0</ele><time>2026-04-16T16:54:03Z</time></trkpt><trkpt lat="44.31327670961281" lon="7.698633324838762"><ele>704.0</ele><time>2026-04-16T16:54:04Z</time></trkpt><trkpt lat="44.31328873232712" lon="7.698804374172825"><ele>704.0</ele><time>2026-04-16T16:54:05Z</time></trkpt><trkpt lat="44.31331350757942" lon="7.698993115354586"><ele>704.0</ele><time>2026-04-16T16:54:06Z</time></trkpt><trkpt lat="44.313347536489324" lon="7.6991827463229825"><ele>704.0</ele><time>2026-04-16T16:54:07Z</time></trkpt><trkpt lat="44.31339145996484" lon="7.699377366620051"><ele>704.0</ele><time>2026-04-16T16:54:08Z</time></trkpt><trkpt lat="44.31343319392106" lon="7.699549743699023"><ele>704.0</ele><time>2026-04-16T16:54:09Z</time></trkpt><trkpt lat="44.313465350845775" lon="7.699699734414149"><ele>704.0</ele><time>2026-04-16T16:54:10Z</time></trkpt><trkpt lat="44.31350631981678" lon="7.699855741220715"><ele>704.6</ele><time>2026-04-16T16:54:11Z</time></trkpt><trkpt lat="44.31349727611281" lon="7.700011296730445"><ele>705.2</ele><time>2026-04-16T16:54:12Z</time></trkpt><trkpt lat="44.31350711080227" lon="7.700156727884598"><ele>705.8000000000001</ele><time>2026-04-16T16:54:13Z</time></trkpt><trkpt lat="44.31347773107833" lon="7.70029706422893"><ele>706.4000000000001</ele><time>2026-04-16T16:54:14Z</time></trkpt><trkpt lat="44.313439931837145" lon="7.700409084682652"><ele>707.0</ele><time>2026-04-16T16:54:15Z</time></trkpt><trkpt lat="44.31339137958455" lon="7.700511395449401"><ele>708.6</ele><time>2026-04-16T16:54:16Z</time></trkpt><trkpt lat="44.31332984520134" lon="7.700589697245592"><ele>710.2</ele><time>2026-04-16T16:54:17Z</time></trkpt><trkpt lat="44.31325074872197" lon="7.700646056061341"><ele>711.8</ele><time>2026-04-16T16:54:18Z</time></trkpt><trkpt lat="44.31314893526021" lon="7.700679227933435"><ele>713.4</ele><time>2026-04-16T16:54:19Z</time></trkpt><trkpt lat="44.31304427637824" lon="7.700695152111764"><ele>715.0</ele><time>2026-04-16T16:54:20Z</time></trkpt><trkpt lat="44.31295279930037" lon="7.700705615817598"><ele>715.0</ele><time>2026-04-16T16:54:21Z</time></trkpt><trkpt lat="44.312869978162006" lon="7.700720787242885"><ele>715.0</ele><time>2026-04-16T16:54:22Z</time></trkpt><trkpt lat="44.312774839176576" lon="7.700774165348179"><ele>715.0</ele><time>2026-04-16T16:54:23Z</time></trkpt><trkpt lat="44.31268812085696" lon="7.700859467897951"><ele>715.0</ele><time>2026-04-16T16:54:24Z</time></trkpt><trkpt lat="44.312606904523165" lon="7.700974187165288"><ele>715.0</ele><time>2026-04-16T16:54:25Z</time></trkpt><trkpt lat="44.31253320993567" lon="7.70111561472146"><ele>716.4</ele><time>2026-04-16T16:54:26Z</time></trkpt><trkpt lat="44.31247364345708" lon="7.701248516169366"><ele>717.8</ele><time>2026-04-16T16:54:27Z</time></trkpt><trkpt lat="44.312421832684095" lon="7.701371917183175"><ele>719.2</ele><time>2026-04-16T16:54:28Z</time></trkpt><trkpt lat="44.3123786485858" lon="7.701503831717067"><ele>720.6</ele><time>2026-04-16T16:54:29Z</time></trkpt><trkpt lat="44.312351427718525" lon="7.701639938326481"><ele>722.0</ele><time>2026-04-16T16:54:30Z</time></trkpt><trkpt lat="44.312334277697836" lon="7.701765905771"><ele>722.0</ele><time>2026-04-16T16:54:31Z</time></trkpt><trkpt lat="44.312318863117774" lon="7.701874587349518"><ele>722.0</ele><time>2026-04-16T16:54:32Z</time></trkpt><trkpt lat="44.312300657540696" lon="7.7019751929979385"><ele>722.0</ele><time>2026-04-16T16:54:33Z</time></trkpt><trkpt lat="44.3123159243976" lon="7.702160734546312"><ele>722.0</ele><time>2026-04-16T16:54:35Z</time></trkpt><trkpt lat="44.312314636998536" lon="7.702261249510637"><ele>722.0</ele><time>2026-04-16T16:54:36Z</time></trkpt><trkpt lat="44.31241413188518" lon="7.702345504273682"><ele>720.8</ele><time>2026-04-16T16:54:37Z</time></trkpt><trkpt lat="44.31251475031484" lon="7.702398332351413"><ele>719.6</ele><time>2026-04-16T16:54:38Z</time></trkpt><trkpt lat="44.3126066417079" lon="7.702452464026287"><ele>718.4</ele><time>2026-04-16T16:54:39Z</time></trkpt><trkpt lat="44.31268212551419" lon="7.702528712378104"><ele>717.1999999999999</ele><time>2026-04-16T16:54:40Z</time></trkpt><trkpt lat="44.312769902793505" lon="7.702573371434807"><ele>716.0</ele><time>2026-04-16T16:54:40.999Z</time></trkpt><trkpt lat="44.312838955312564" lon="7.702650031723116"><ele>713.8</ele><time>2026-04-16T16:54:41.999Z</time></trkpt><trkpt lat="44.3128974291433" lon="7.702760707069808"><ele>711.5999999999999</ele><time>2026-04-16T16:54:42.999Z</time></trkpt><trkpt lat="44.312938088348844" lon="7.70288704399814"><ele>709.4</ele><time>2026-04-16T16:54:43.999Z</time></trkpt><trkpt lat="44.312965872674056" lon="7.703029779180651"><ele>707.2</ele><time>2026-04-16T16:54:44.999Z</time></trkpt><trkpt lat="44.31298362827472" lon="7.7031906029277994"><ele>705.0</ele><time>2026-04-16T16:54:45.999Z</time></trkpt><trkpt lat="44.31300367330435" lon="7.7033583088480295"><ele>705.0</ele><time>2026-04-16T16:54:46.999Z</time></trkpt><trkpt lat="44.313040179862824" lon="7.703519625204325"><ele>705.0</ele><time>2026-04-16T16:54:47.999Z</time></trkpt><trkpt lat="44.31307723329158" lon="7.703686778371983"><ele>705.0</ele><time>2026-04-16T16:54:48.999Z</time></trkpt><trkpt lat="44.313122179897036" lon="7.703827763947677"><ele>705.0</ele><time>2026-04-16T16:54:49.999Z</time></trkpt><trkpt lat="44.31316130017139" lon="7.70394693832212"><ele>704.4</ele><time>2026-04-16T16:54:50.999Z</time></trkpt><trkpt lat="44.31319927735984" lon="7.704071259003804"><ele>703.8</ele><time>2026-04-16T16:54:51.999Z</time></trkpt><trkpt lat="44.313236623122386" lon="7.704195925547883"><ele>703.2</ele><time>2026-04-16T16:54:52.999Z</time></trkpt><trkpt lat="44.31327109562739" lon="7.704317517151759"><ele>702.6</ele><time>2026-04-16T16:54:53.999Z</time></trkpt><trkpt lat="44.31330179017991" lon="7.704442485299652"><ele>702.0</ele><time>2026-04-16T16:54:54.999Z</time></trkpt><trkpt lat="44.313322709309034" lon="7.704579996694008"><ele>702.0</ele><time>2026-04-16T16:54:55.999Z</time></trkpt><trkpt lat="44.31332820489321" lon="7.704744842275345"><ele>702.0</ele><time>2026-04-16T16:54:56.999Z</time></trkpt><trkpt lat="44.313321967936545" lon="7.704902692698371"><ele>702.0</ele><time>2026-04-16T16:54:57.999Z</time></trkpt><trkpt lat="44.31331692497924" lon="7.7050421391738455"><ele>702.0</ele><time>2026-04-16T16:54:58.999Z</time></trkpt><trkpt lat="44.3133124031919" lon="7.705191144702432"><ele>702.0</ele><time>2026-04-16T16:54:59.999Z</time></trkpt><trkpt lat="44.31331158662513" lon="7.705336430120711"><ele>701.5</ele><time>2026-04-16T16:55:00.999Z</time></trkpt><trkpt lat="44.31331924600472" lon="7.705508898482665"><ele>701.0</ele><time>2026-04-16T16:55:01.999Z</time></trkpt><trkpt lat="44.31334236735622" lon="7.70568284264654"><ele>700.5</ele><time>2026-04-16T16:55:02.999Z</time></trkpt><trkpt lat="44.313374954223974" lon="7.705842317463682"><ele>700.0</ele><time>2026-04-16T16:55:03.999Z</time></trkpt><trkpt lat="44.3134082088001" lon="7.705995265183619"><ele>699.0</ele><time>2026-04-16T16:55:04.999Z</time></trkpt><trkpt lat="44.31343820567159" lon="7.706138409037829"><ele>698.0</ele><time>2026-04-16T16:55:05.999Z</time></trkpt><trkpt lat="44.31345704226721" lon="7.706284263434492"><ele>697.0</ele><time>2026-04-16T16:55:06.999Z</time></trkpt><trkpt lat="44.31346793874941" lon="7.706425753616122"><ele>696.0</ele><time>2026-04-16T16:55:07.999Z</time></trkpt><trkpt lat="44.31346519425177" lon="7.7065508416753605"><ele>695.0</ele><time>2026-04-16T16:55:08.999Z</time></trkpt><trkpt lat="44.31343671474867" lon="7.706686666599504"><ele>695.0</ele><time>2026-04-16T16:55:09.999Z</time></trkpt><trkpt lat="44.31338595140793" lon="7.706819396963764"><ele>695.0</ele><time>2026-04-16T16:55:10.999Z</time></trkpt><trkpt lat="44.313313649495775" lon="7.706938063869174"><ele>695.0</ele><time>2026-04-16T16:55:11.999Z</time></trkpt><trkpt lat="44.313224791127226" lon="7.707058343463124"><ele>695.0</ele><time>2026-04-16T16:55:12.999Z</time></trkpt><trkpt lat="44.31312901687807" lon="7.707164921443311"><ele>694.25</ele><time>2026-04-16T16:55:13.999Z</time></trkpt><trkpt lat="44.31301436809468" lon="7.707265904174202"><ele>693.5</ele><time>2026-04-16T16:55:14.999Z</time></trkpt><trkpt lat="44.312895046228725" lon="7.707365323267602"><ele>692.75</ele><time>2026-04-16T16:55:15.999Z</time></trkpt><trkpt lat="44.31277091430195" lon="7.707471835950256"><ele>692.0</ele><time>2026-04-16T16:55:16.999Z</time></trkpt><trkpt lat="44.31264112861662" lon="7.70759233627456"><ele>692.0</ele><time>2026-04-16T16:55:17.999Z</time></trkpt><trkpt lat="44.312512902050884" lon="7.707710351173225"><ele>692.0</ele><time>2026-04-16T16:55:18.999Z</time></trkpt><trkpt lat="44.312392288429976" lon="7.70782102391382"><ele>692.0</ele><time>2026-04-16T16:55:19.999Z</time></trkpt><trkpt lat="44.312276005388576" lon="7.707927667443657"><ele>692.0</ele><time>2026-04-16T16:55:20.999Z</time></trkpt><trkpt lat="44.31216643010229" lon="7.708026779255486"><ele>692.0</ele><time>2026-04-16T16:55:21.999Z</time></trkpt><trkpt lat="44.312064492441124" lon="7.708113695079014"><ele>692.0</ele><time>2026-04-16T16:55:22.999Z</time></trkpt><trkpt lat="44.31196511401957" lon="7.708192610195797"><ele>692.0</ele><time>2026-04-16T16:55:23.999Z</time></trkpt><trkpt lat="44.31186891479316" lon="7.7082621019624815"><ele>692.0</ele><time>2026-04-16T16:55:24.999Z</time></trkpt><trkpt lat="44.311772701442436" lon="7.708322219660745"><ele>692.0</ele><time>2026-04-16T16:55:25.999Z</time></trkpt><trkpt lat="44.311675587224386" lon="7.708364544496525"><ele>692.0</ele><time>2026-04-16T16:55:26.999Z</time></trkpt><trkpt lat="44.31157460571156" lon="7.708387707940409"><ele>692.0</ele><time>2026-04-16T16:55:27.999Z</time></trkpt><trkpt lat="44.311467112748794" lon="7.708404193512895"><ele>692.0</ele><time>2026-04-16T16:55:28.999Z</time></trkpt><trkpt lat="44.31136810308752" lon="7.708414053463772"><ele>692.0</ele><time>2026-04-16T16:55:29.999Z</time></trkpt><trkpt lat="44.31127221633306" lon="7.7084210035659435"><ele>692.0</ele><time>2026-04-16T16:55:30.999Z</time></trkpt><trkpt lat="44.311187664949166" lon="7.708430598773281"><ele>692.6</ele><time>2026-04-16T16:55:31.999Z</time></trkpt><trkpt lat="44.31110432686164" lon="7.7084560603439956"><ele>693.2</ele><time>2026-04-16T16:55:32.999Z</time></trkpt><trkpt lat="44.31101590225118" lon="7.708489158659184"><ele>693.8</ele><time>2026-04-16T16:55:33.999Z</time></trkpt><trkpt lat="44.31092315956876" lon="7.708541002000915"><ele>694.4</ele><time>2026-04-16T16:55:34.999Z</time></trkpt><trkpt lat="44.310831055290436" lon="7.7086310532174664"><ele>695.0</ele><time>2026-04-16T16:55:35.999Z</time></trkpt><trkpt lat="44.31074177961496" lon="7.708751654213847"><ele>695.0</ele><time>2026-04-16T16:55:36.999Z</time></trkpt><trkpt lat="44.31064921063024" lon="7.708882824332401"><ele>695.0</ele><time>2026-04-16T16:55:37.999Z</time></trkpt><trkpt lat="44.3105629426098" lon="7.7090160029681"><ele>695.0</ele><time>2026-04-16T16:55:38.999Z</time></trkpt><trkpt lat="44.31048014178279" lon="7.7091373336275035"><ele>695.0</ele><time>2026-04-16T16:55:39.999Z</time></trkpt><trkpt lat="44.3104024605459" lon="7.709256187665158"><ele>694.5</ele><time>2026-04-16T16:55:40.999Z</time></trkpt><trkpt lat="44.31032323042417" lon="7.709359813400284"><ele>694.0</ele><time>2026-04-16T16:55:41.999Z</time></trkpt><trkpt lat="44.31023647362908" lon="7.709462545253797"><ele>693.5</ele><time>2026-04-16T16:55:42.999Z</time></trkpt><trkpt lat="44.310127629064986" lon="7.709566354499923"><ele>693.0</ele><time>2026-04-16T16:55:43.998Z</time></trkpt><trkpt lat="44.31000777212107" lon="7.709664372717917"><ele>693.0</ele><time>2026-04-16T16:55:44.998Z</time></trkpt><trkpt lat="44.30986318791045" lon="7.709755036042779"><ele>693.0</ele><time>2026-04-16T16:55:45.998Z</time></trkpt><trkpt lat="44.30972941595556" lon="7.709822730621362"><ele>693.0</ele><time>2026-04-16T16:55:46.998Z</time></trkpt><trkpt lat="44.30960374669117" lon="7.709877301130593"><ele>693.0</ele><time>2026-04-16T16:55:47.998Z</time></trkpt><trkpt lat="44.309488577922224" lon="7.70992542893892"><ele>690.8</ele><time>2026-04-16T16:55:48.998Z</time></trkpt><trkpt lat="44.309379880071596" lon="7.709977867862659"><ele>688.5999999999999</ele><time>2026-04-16T16:55:49.998Z</time></trkpt><trkpt lat="44.309286208779994" lon="7.710020775094718"><ele>686.4000000000001</ele><time>2026-04-16T16:55:50.998Z</time></trkpt><trkpt lat="44.30919100353078" lon="7.710088709596444"><ele>684.2</ele><time>2026-04-16T16:55:51.998Z</time></trkpt><trkpt lat="44.30910217397351" lon="7.710146877722691"><ele>682.0</ele><time>2026-04-16T16:55:52.998Z</time></trkpt><trkpt lat="44.309031975361655" lon="7.710201112695295"><ele>682.5</ele><time>2026-04-16T16:55:53.998Z</time></trkpt><trkpt lat="44.30896619612402" lon="7.7102623763371545"><ele>683.0</ele><time>2026-04-16T16:55:54.998Z</time></trkpt><trkpt lat="44.30889163773657" lon="7.7103158274520744"><ele>683.5</ele><time>2026-04-16T16:55:55.998Z</time></trkpt><trkpt lat="44.308835356478866" lon="7.710389576910661"><ele>684.0</ele><time>2026-04-16T16:55:56.998Z</time></trkpt><trkpt lat="44.30878072020287" lon="7.710489914673849"><ele>684.5</ele><time>2026-04-16T16:55:57.998Z</time></trkpt><trkpt lat="44.30874193487725" lon="7.710595035113486"><ele>685.0</ele><time>2026-04-16T16:55:59Z</time></trkpt><trkpt lat="44.308717014411776" lon="7.710720527970049"><ele>681.25</ele><time>2026-04-16T16:56:00Z</time></trkpt><trkpt lat="44.308716652830206" lon="7.710859556263515"><ele>677.5</ele><time>2026-04-16T16:56:01Z</time></trkpt><trkpt lat="44.30873938331401" lon="7.711013691357085"><ele>673.75</ele><time>2026-04-16T16:56:02Z</time></trkpt><trkpt lat="44.30879194655674" lon="7.711179422469816"><ele>670.0</ele><time>2026-04-16T16:56:03Z</time></trkpt><trkpt lat="44.30886154607891" lon="7.711340362588552"><ele>670.25</ele><time>2026-04-16T16:56:04Z</time></trkpt><trkpt lat="44.308940236957675" lon="7.7114854791404595"><ele>670.5</ele><time>2026-04-16T16:56:05Z</time></trkpt><trkpt lat="44.30899219985771" lon="7.711658222059028"><ele>670.75</ele><time>2026-04-16T16:56:06Z</time></trkpt><trkpt lat="44.30905988220818" lon="7.71182065197133"><ele>671.0</ele><time>2026-04-16T16:56:07Z</time></trkpt><trkpt lat="44.30912433803151" lon="7.711969680445247"><ele>667.5</ele><time>2026-04-16T16:56:08Z</time></trkpt><trkpt lat="44.309190296158484" lon="7.7121270845313115"><ele>664.0</ele><time>2026-04-16T16:56:09Z</time></trkpt><trkpt lat="44.30925992948976" lon="7.712275761251935"><ele>660.5</ele><time>2026-04-16T16:56:10Z</time></trkpt><trkpt lat="44.309331903254886" lon="7.712419370164122"><ele>657.0</ele><time>2026-04-16T16:56:11Z</time></trkpt><trkpt lat="44.3094043506781" lon="7.712575978020431"><ele>657.0</ele><time>2026-04-16T16:56:12Z</time></trkpt><trkpt lat="44.309475357920654" lon="7.71270972478375"><ele>657.0</ele><time>2026-04-16T16:56:13Z</time></trkpt><trkpt lat="44.309548776695515" lon="7.712850443650203"><ele>657.0</ele><time>2026-04-16T16:56:14Z</time></trkpt><trkpt lat="44.30961089645578" lon="7.712955849878241"><ele>657.0</ele><time>2026-04-16T16:56:15Z</time></trkpt><trkpt lat="44.30967875776595" lon="7.713070282080425"><ele>657.0</ele><time>2026-04-16T16:56:16Z</time></trkpt><trkpt lat="44.30974497610444" lon="7.7131908953417865"><ele>658.2</ele><time>2026-04-16T16:56:17Z</time></trkpt><trkpt lat="44.30981001982833" lon="7.713316537441783"><ele>659.4000000000001</ele><time>2026-04-16T16:56:18Z</time></trkpt><trkpt lat="44.30987423012699" lon="7.7134396713632185"><ele>660.5999999999999</ele><time>2026-04-16T16:56:19Z</time></trkpt><trkpt lat="44.30994054245991" lon="7.713562062978653"><ele>661.8</ele><time>2026-04-16T16:56:20Z</time></trkpt><trkpt lat="44.31000712031427" lon="7.71368387055069"><ele>663.0</ele><time>2026-04-16T16:56:21Z</time></trkpt><trkpt lat="44.310070961309975" lon="7.713807422831134"><ele>659.4</ele><time>2026-04-16T16:56:22Z</time></trkpt><trkpt lat="44.31012337214494" lon="7.713939378456269"><ele>655.8</ele><time>2026-04-16T16:56:23Z</time></trkpt><trkpt lat="44.31018734832979" lon="7.714070053244384"><ele>652.2</ele><time>2026-04-16T16:56:24Z</time></trkpt><trkpt lat="44.3102412122669" lon="7.7141977288452"><ele>648.6</ele><time>2026-04-16T16:56:25Z</time></trkpt><trkpt lat="44.310290966810996" lon="7.714327027863797"><ele>645.0</ele><time>2026-04-16T16:56:26Z</time></trkpt><trkpt lat="44.31034004771252" lon="7.7144568233775646"><ele>645.6</ele><time>2026-04-16T16:56:27Z</time></trkpt><trkpt lat="44.31039218276335" lon="7.714589573675387"><ele>646.2</ele><time>2026-04-16T16:56:28Z</time></trkpt><trkpt lat="44.3104433284396" lon="7.714728666479841"><ele>646.8</ele><time>2026-04-16T16:56:29Z</time></trkpt><trkpt lat="44.31049670319282" lon="7.714867188987846"><ele>647.4</ele><time>2026-04-16T16:56:30Z</time></trkpt><trkpt lat="44.31054532788574" lon="7.715004714529103"><ele>648.0</ele><time>2026-04-16T16:56:31Z</time></trkpt><trkpt lat="44.31058215282692" lon="7.71514120366609"><ele>643.25</ele><time>2026-04-16T16:56:32Z</time></trkpt><trkpt lat="44.31061284684596" lon="7.7152869556847"><ele>638.5</ele><time>2026-04-16T16:56:33Z</time></trkpt><trkpt lat="44.310628303808905" lon="7.71544028394918"><ele>633.75</ele><time>2026-04-16T16:56:34Z</time></trkpt><trkpt lat="44.31062283947573" lon="7.715604302016713"><ele>629.0</ele><time>2026-04-16T16:56:35Z</time></trkpt><trkpt lat="44.31060312129393" lon="7.715799789372466"><ele>629.0</ele><time>2026-04-16T16:56:36Z</time></trkpt><trkpt lat="44.310574974128954" lon="7.715997981970548"><ele>629.0</ele><time>2026-04-16T16:56:37Z</time></trkpt><trkpt lat="44.31053845558508" lon="7.716211343705785"><ele>629.0</ele><time>2026-04-16T16:56:38Z</time></trkpt><trkpt lat="44.31050166611205" lon="7.716427872848533"><ele>625.6666666666666</ele><time>2026-04-16T16:56:39Z</time></trkpt><trkpt lat="44.31046622527694" lon="7.716639751811845"><ele>622.3333333333334</ele><time>2026-04-16T16:56:40Z</time></trkpt><trkpt lat="44.310435193677705" lon="7.7168593347229715"><ele>619.0</ele><time>2026-04-16T16:56:41Z</time></trkpt><trkpt lat="44.31040426270635" lon="7.717076929393436"><ele>618.0</ele><time>2026-04-16T16:56:42Z</time></trkpt><trkpt lat="44.31038599558962" lon="7.7173045342591395"><ele>617.0</ele><time>2026-04-16T16:56:43Z</time></trkpt><trkpt lat="44.31037986678553" lon="7.717543478384671"><ele>616.0</ele><time>2026-04-16T16:56:44Z</time></trkpt><trkpt lat="44.31038946249541" lon="7.717792503078026"><ele>615.6666666666667</ele><time>2026-04-16T16:56:44.999Z</time></trkpt><trkpt lat="44.310407094393604" lon="7.718040372792768"><ele>615.3333333333334</ele><time>2026-04-16T16:56:45.999Z</time></trkpt><trkpt lat="44.31042484738532" lon="7.718291857940691"><ele>615.0</ele><time>2026-04-16T16:56:46.999Z</time></trkpt><trkpt lat="44.31044474934042" lon="7.718536270563519"><ele>615.6666666666666</ele><time>2026-04-16T16:56:47.999Z</time></trkpt><trkpt lat="44.31046609936172" lon="7.71878866498118"><ele>616.3333333333333</ele><time>2026-04-16T16:56:48.999Z</time></trkpt><trkpt lat="44.310486477874576" lon="7.7190311451390405"><ele>617.0</ele><time>2026-04-16T16:56:49.999Z</time></trkpt><trkpt lat="44.310508769655684" lon="7.719259102493213"><ele>619.6666666666666</ele><time>2026-04-16T16:56:50.999Z</time></trkpt><trkpt lat="44.310526383677534" lon="7.719485038784456"><ele>622.3333333333334</ele><time>2026-04-16T16:56:51.999Z</time></trkpt><trkpt lat="44.310546067148074" lon="7.719719067145994"><ele>625.0</ele><time>2026-04-16T16:56:52.999Z</time></trkpt><trkpt lat="44.31056464158786" lon="7.719956890111499"><ele>619.6666666666667</ele><time>2026-04-16T16:56:53.999Z</time></trkpt><trkpt lat="44.31059176246569" lon="7.7202088279983645"><ele>614.3333333333334</ele><time>2026-04-16T16:56:54.999Z</time></trkpt><trkpt lat="44.310612619660574" lon="7.720449154145355"><ele>609.0</ele><time>2026-04-16T16:56:55.999Z</time></trkpt><trkpt lat="44.31062746591693" lon="7.720680342287114"><ele>608.75</ele><time>2026-04-16T16:56:56.999Z</time></trkpt><trkpt lat="44.310640014758064" lon="7.720900010243611"><ele>608.5</ele><time>2026-04-16T16:56:57.999Z</time></trkpt><trkpt lat="44.3106571158384" lon="7.721104448525539"><ele>608.25</ele><time>2026-04-16T16:56:58.999Z</time></trkpt><trkpt lat="44.31067516956451" lon="7.721301589489633"><ele>608.0</ele><time>2026-04-16T16:56:59.999Z</time></trkpt><trkpt lat="44.31069292243964" lon="7.721483745519319"><ele>608.25</ele><time>2026-04-16T16:57:00.999Z</time></trkpt><trkpt lat="44.310710795609246" lon="7.721662736174452"><ele>608.5</ele><time>2026-04-16T16:57:01.999Z</time></trkpt><trkpt lat="44.31073159540815" lon="7.721816523067244"><ele>608.75</ele><time>2026-04-16T16:57:02.999Z</time></trkpt><trkpt lat="44.310767080788544" lon="7.72196562569533"><ele>609.0</ele><time>2026-04-16T16:57:03.999Z</time></trkpt><trkpt lat="44.310816100264965" lon="7.722115216406772"><ele>609.0</ele><time>2026-04-16T16:57:04.999Z</time></trkpt><trkpt lat="44.31087251393159" lon="7.7222691760887505"><ele>609.0</ele><time>2026-04-16T16:57:05.999Z</time></trkpt><trkpt lat="44.310935040554874" lon="7.722408243217271"><ele>609.0</ele><time>2026-04-16T16:57:06.999Z</time></trkpt><trkpt lat="44.31101455795858" lon="7.722521384728942"><ele>609.0</ele><time>2026-04-16T16:57:07.999Z</time></trkpt><trkpt lat="44.3111031803666" lon="7.722629233938062"><ele>609.0</ele><time>2026-04-16T16:57:08.999Z</time></trkpt><trkpt lat="44.3112157557242" lon="7.722714825841724"><ele>609.0</ele><time>2026-04-16T16:57:09.999Z</time></trkpt><trkpt lat="44.31134095284563" lon="7.722793382960267"><ele>609.0</ele><time>2026-04-16T16:57:10.999Z</time></trkpt><trkpt lat="44.31147875298935" lon="7.722862822454045"><ele>609.0</ele><time>2026-04-16T16:57:11.999Z</time></trkpt><trkpt lat="44.311625029477135" lon="7.7229227484352645"><ele>607.75</ele><time>2026-04-16T16:57:12.999Z</time></trkpt><trkpt lat="44.3117679970944" lon="7.7229744439584165"><ele>606.5</ele><time>2026-04-16T16:57:13.999Z</time></trkpt><trkpt lat="44.31190089040123" lon="7.723035039975914"><ele>605.25</ele><time>2026-04-16T16:57:14.999Z</time></trkpt><trkpt lat="44.31203315274855" lon="7.723095014770022"><ele>604.0</ele><time>2026-04-16T16:57:15.999Z</time></trkpt><trkpt lat="44.31215958189383" lon="7.723156344807295"><ele>603.25</ele><time>2026-04-16T16:57:16.999Z</time></trkpt><trkpt lat="44.31228722847674" lon="7.723227765555603"><ele>602.5</ele><time>2026-04-16T16:57:17.999Z</time></trkpt><trkpt lat="44.312406610904276" lon="7.723318431528812"><ele>601.75</ele><time>2026-04-16T16:57:18.999Z</time></trkpt><trkpt lat="44.312513959377256" lon="7.723419073579474"><ele>601.0</ele><time>2026-04-16T16:57:19.999Z</time></trkpt><trkpt lat="44.31262165490501" lon="7.723546009465079"><ele>600.6666666666667</ele><time>2026-04-16T16:57:20.999Z</time></trkpt><trkpt lat="44.31271989118389" lon="7.723705019147707"><ele>600.3333333333334</ele><time>2026-04-16T16:57:21.999Z</time></trkpt><trkpt lat="44.31281520657235" lon="7.723886032512066"><ele>600.0</ele><time>2026-04-16T16:57:22.999Z</time></trkpt><trkpt lat="44.31290417137454" lon="7.724088565768487"><ele>600.0</ele><time>2026-04-16T16:57:23.999Z</time></trkpt><trkpt lat="44.312989978217054" lon="7.724303204953487"><ele>600.0</ele><time>2026-04-16T16:57:24.999Z</time></trkpt><trkpt lat="44.313075544704795" lon="7.724524374746159"><ele>600.0</ele><time>2026-04-16T16:57:25.999Z</time></trkpt><trkpt lat="44.31315672301024" lon="7.72476011307178"><ele>598.6666666666666</ele><time>2026-04-16T16:57:26.999Z</time></trkpt><trkpt lat="44.313230918047424" lon="7.725011475404181"><ele>597.3333333333333</ele><time>2026-04-16T16:57:27.999Z</time></trkpt><trkpt lat="44.31328500836592" lon="7.725285173976181"><ele>596.0</ele><time>2026-04-16T16:57:28.999Z</time></trkpt><trkpt lat="44.313348262507894" lon="7.725560123918605"><ele>596.0</ele><time>2026-04-16T16:57:29.999Z</time></trkpt><trkpt lat="44.313413743839156" lon="7.725844488718878"><ele>596.0</ele><time>2026-04-16T16:57:30.999Z</time></trkpt><trkpt lat="44.31347938300518" lon="7.726129407401171"><ele>596.0</ele><time>2026-04-16T16:57:31.999Z</time></trkpt><trkpt lat="44.31354014484029" lon="7.726393155276546"><ele>596.0</ele><time>2026-04-16T16:57:32.999Z</time></trkpt><trkpt lat="44.313602585236595" lon="7.726658134736757"><ele>596.0</ele><time>2026-04-16T16:57:33.999Z</time></trkpt><trkpt lat="44.31366749044623" lon="7.7269270556633405"><ele>596.0</ele><time>2026-04-16T16:57:34.999Z</time></trkpt><trkpt lat="44.31374308379594" lon="7.727207077111455"><ele>595.0</ele><time>2026-04-16T16:57:35.999Z</time></trkpt><trkpt lat="44.313835308691765" lon="7.727487992096452"><ele>594.0</ele><time>2026-04-16T16:57:36.999Z</time></trkpt><trkpt lat="44.313950135943074" lon="7.727768056345864"><ele>591.5</ele><time>2026-04-16T16:57:37.999Z</time></trkpt><trkpt lat="44.314070433771725" lon="7.72804907141699"><ele>589.0</ele><time>2026-04-16T16:57:38.999Z</time></trkpt><trkpt lat="44.31419048164944" lon="7.728332382419398"><ele>588.5</ele><time>2026-04-16T16:57:39.999Z</time></trkpt><trkpt lat="44.314313768800965" lon="7.728621505594702"><ele>588.0</ele><time>2026-04-16T16:57:40.999Z</time></trkpt><trkpt lat="44.31444152237835" lon="7.728918053277887"><ele>588.0</ele><time>2026-04-16T16:57:41.999Z</time></trkpt><trkpt lat="44.31456672122303" lon="7.7292086707369965"><ele>588.0</ele><time>2026-04-16T16:57:42.999Z</time></trkpt><trkpt lat="44.31468243226549" lon="7.729477264859922"><ele>587.3333333333334</ele><time>2026-04-16T16:57:43.999Z</time></trkpt><trkpt lat="44.3147957166254" lon="7.729743861106312"><ele>586.6666666666667</ele><time>2026-04-16T16:57:44.999Z</time></trkpt><trkpt lat="44.3149112904838" lon="7.730015991037051"><ele>586.0</ele><time>2026-04-16T16:57:45.999Z</time></trkpt><trkpt lat="44.31501878702164" lon="7.730269102146321"><ele>585.6666666666667</ele><time>2026-04-16T16:57:46.999Z</time></trkpt><trkpt lat="44.315119803862764" lon="7.730509637851099"><ele>585.3333333333334</ele><time>2026-04-16T16:57:47.999Z</time></trkpt><trkpt lat="44.31522502645845" lon="7.730733899813534"><ele>585.0</ele><time>2026-04-16T16:57:48.998Z</time></trkpt><trkpt lat="44.315302786966825" lon="7.731000637240957"><ele>584.3333333333334</ele><time>2026-04-16T16:57:49.998Z</time></trkpt><trkpt lat="44.31537251434172" lon="7.731285846168179"><ele>583.6666666666667</ele><time>2026-04-16T16:57:50.998Z</time></trkpt><trkpt lat="44.31543054200939" lon="7.7315771067436225"><ele>583.0</ele><time>2026-04-16T16:57:51.998Z</time></trkpt><trkpt lat="44.31547637188139" lon="7.731888427301418"><ele>583.5</ele><time>2026-04-16T16:57:52.998Z</time></trkpt><trkpt lat="44.31551651090197" lon="7.732208472452279"><ele>584.0</ele><time>2026-04-16T16:57:53.998Z</time></trkpt><trkpt lat="44.315562368692326" lon="7.732537030820186"><ele>581.5</ele><time>2026-04-16T16:57:54.998Z</time></trkpt><trkpt lat="44.31560872857569" lon="7.732872497160771"><ele>579.0</ele><time>2026-04-16T16:57:55.998Z</time></trkpt><trkpt lat="44.315654002516936" lon="7.733209310053984"><ele>579.0</ele><time>2026-04-16T16:57:56.998Z</time></trkpt><trkpt lat="44.31570324100284" lon="7.733554569398755"><ele>579.0</ele><time>2026-04-16T16:57:57.998Z</time></trkpt><trkpt lat="44.31574792117679" lon="7.733883139620451"><ele>579.5</ele><time>2026-04-16T16:57:58.998Z</time></trkpt><trkpt lat="44.31577871066339" lon="7.73421174614085"><ele>580.0</ele><time>2026-04-16T16:57:59.998Z</time></trkpt><trkpt lat="44.31583268287663" lon="7.734540661228925"><ele>579.0</ele><time>2026-04-16T16:58:00.998Z</time></trkpt><trkpt lat="44.31588760435983" lon="7.7348459800976395"><ele>578.0</ele><time>2026-04-16T16:58:01.998Z</time></trkpt><trkpt lat="44.31595074151674" lon="7.735162975903263"><ele>577.5</ele><time>2026-04-16T16:58:02.998Z</time></trkpt><trkpt lat="44.31602017879518" lon="7.735480887913167"><ele>577.0</ele><time>2026-04-16T16:58:03.998Z</time></trkpt><trkpt lat="44.316090418276225" lon="7.7357749655816255"><ele>577.0</ele><time>2026-04-16T16:58:05Z</time></trkpt><trkpt lat="44.31615902882218" lon="7.736047889116205"><ele>577.0</ele><time>2026-04-16T16:58:06Z</time></trkpt><trkpt lat="44.31624169769082" lon="7.736300115036313"><ele>577.0</ele><time>2026-04-16T16:58:07Z</time></trkpt><trkpt lat="44.31630196111236" lon="7.736529281333727"><ele>577.25</ele><time>2026-04-16T16:58:08Z</time></trkpt><trkpt lat="44.31634116478389" lon="7.736743593183637"><ele>577.5</ele><time>2026-04-16T16:58:09Z</time></trkpt><trkpt lat="44.31639038255772" lon="7.736925514862405"><ele>577.75</ele><time>2026-04-16T16:58:10Z</time></trkpt><trkpt lat="44.31644877602729" lon="7.737082866572566"><ele>578.0</ele><time>2026-04-16T16:58:11Z</time></trkpt><trkpt lat="44.3164895932787" lon="7.737243458288101"><ele>578.0</ele><time>2026-04-16T16:58:12Z</time></trkpt><trkpt lat="44.31652422058182" lon="7.737386477193746"><ele>578.0</ele><time>2026-04-16T16:58:13Z</time></trkpt><trkpt lat="44.316562475812205" lon="7.737511711544676"><ele>578.0</ele><time>2026-04-16T16:58:14Z</time></trkpt><trkpt lat="44.316592685885155" lon="7.7376324106687875"><ele>578.0</ele><time>2026-04-16T16:58:15Z</time></trkpt><trkpt lat="44.31660833634062" lon="7.73775503704373"><ele>578.0</ele><time>2026-04-16T16:58:16Z</time></trkpt><trkpt lat="44.31663720617344" lon="7.737860194089692"><ele>578.4</ele><time>2026-04-16T16:58:17Z</time></trkpt><trkpt lat="44.31666404659896" lon="7.737956471710326"><ele>578.8</ele><time>2026-04-16T16:58:18Z</time></trkpt><trkpt lat="44.31670881839426" lon="7.73806833321149"><ele>579.2</ele><time>2026-04-16T16:58:20Z</time></trkpt><trkpt lat="44.31686076619336" lon="7.73806402864164"><ele>579.6</ele><time>2026-04-16T16:58:58.999Z</time></trkpt><trkpt lat="44.31682654283988" lon="7.737988933670174"><ele>580.0</ele><time>2026-04-16T16:59:51.999Z</time></trkpt><trkpt lat="44.31676131212025" lon="7.73803095224824"><ele>580.0</ele><time>2026-04-16T16:59:54.998Z</time></trkpt><trkpt lat="44.31673148005714" lon="7.738171446694945"><ele>580.0</ele><time>2026-04-16T16:59:58.998Z</time></trkpt><trkpt lat="44.316763680858486" lon="7.738286958357869"><ele>580.0</ele><time>2026-04-16T16:59:59.998Z</time></trkpt><trkpt lat="44.31680079548691" lon="7.738397802334414"><ele>580.0</ele><time>2026-04-16T17:00:00.998Z</time></trkpt><trkpt lat="44.31683524407351" lon="7.738553351322596"><ele>580.0</ele><time>2026-04-16T17:00:01.998Z</time></trkpt><trkpt lat="44.31687278681668" lon="7.73868870768027"><ele>579.8333333333334</ele><time>2026-04-16T17:00:02.998Z</time></trkpt><trkpt lat="44.316887952698636" lon="7.738802910125162"><ele>579.6666666666667</ele><time>2026-04-16T17:00:03.998Z</time></trkpt><trkpt lat="44.31692398990859" lon="7.738896743767721"><ele>579.5</ele><time>2026-04-16T17:00:04.998Z</time></trkpt><trkpt lat="44.316955900670195" lon="7.7390676630446755"><ele>579.3333333333334</ele><time>2026-04-16T17:00:06.998Z</time></trkpt><trkpt lat="44.31700422448939" lon="7.739162073225655"><ele>579.1666666666666</ele><time>2026-04-16T17:00:32Z</time></trkpt><trkpt lat="44.317012336090045" lon="7.739273438653538"><ele>579.0</ele><time>2026-04-16T17:00:33Z</time></trkpt><trkpt lat="44.31704736494645" lon="7.739405328152193"><ele>579.0</ele><time>2026-04-16T17:00:34Z</time></trkpt><trkpt lat="44.3170850712262" lon="7.739547296513691"><ele>579.0</ele><time>2026-04-16T17:00:35Z</time></trkpt><trkpt lat="44.317135654390455" lon="7.73974048335354"><ele>579.0</ele><time>2026-04-16T17:00:36Z</time></trkpt><trkpt lat="44.3171806717296" lon="7.739911884375044"><ele>579.0</ele><time>2026-04-16T17:00:37Z</time></trkpt><trkpt lat="44.317220329381016" lon="7.7400628792472155"><ele>578.75</ele><time>2026-04-16T17:00:38Z</time></trkpt><trkpt lat="44.31726354232304" lon="7.740198768267485"><ele>578.5</ele><time>2026-04-16T17:00:39Z</time></trkpt><trkpt lat="44.317289066535466" lon="7.74037554106393"><ele>578.25</ele><time>2026-04-16T17:00:40Z</time></trkpt><trkpt lat="44.3173331164767" lon="7.740562035645729"><ele>578.0</ele><time>2026-04-16T17:00:41Z</time></trkpt><trkpt lat="44.317396372453786" lon="7.740753977271381"><ele>578.0</ele><time>2026-04-16T17:00:42Z</time></trkpt><trkpt lat="44.31744640117771" lon="7.740962067330404"><ele>578.0</ele><time>2026-04-16T17:00:43Z</time></trkpt><trkpt lat="44.31749992833517" lon="7.741152921471369"><ele>578.0</ele><time>2026-04-16T17:00:44Z</time></trkpt><trkpt lat="44.31755398360293" lon="7.741329980321663"><ele>578.0</ele><time>2026-04-16T17:00:45Z</time></trkpt><trkpt lat="44.31760762375363" lon="7.741486498989597"><ele>578.25</ele><time>2026-04-16T17:00:45.999Z</time></trkpt><trkpt lat="44.317645670602964" lon="7.741616821108499"><ele>578.5</ele><time>2026-04-16T17:00:46.999Z</time></trkpt><trkpt lat="44.317686739830066" lon="7.741770083716646"><ele>578.75</ele><time>2026-04-16T17:00:47.999Z</time></trkpt><trkpt lat="44.31773439399316" lon="7.741939710483448"><ele>579.0</ele><time>2026-04-16T17:00:48.999Z</time></trkpt><trkpt lat="44.31777789944743" lon="7.742080536642525"><ele>578.6666666666666</ele><time>2026-04-16T17:00:49.999Z</time></trkpt><trkpt lat="44.317815155275156" lon="7.742220848363481"><ele>578.3333333333334</ele><time>2026-04-16T17:00:50.999Z</time></trkpt><trkpt lat="44.317860792871215" lon="7.742327792038123"><ele>578.0</ele><time>2026-04-16T17:00:51.999Z</time></trkpt><trkpt lat="44.31790133427408" lon="7.742426930394876"><ele>577.6666666666667</ele><time>2026-04-16T17:00:52.999Z</time></trkpt><trkpt lat="44.317921073367984" lon="7.7425168649212806"><ele>577.3333333333334</ele><time>2026-04-16T17:00:53.999Z</time></trkpt><trkpt lat="44.31792318070387" lon="7.742606600076749"><ele>577.0</ele><time>2026-04-16T17:00:54.999Z</time></trkpt><trkpt lat="44.31794182202348" lon="7.742698822461242"><ele>577.2</ele><time>2026-04-16T17:00:55.999Z</time></trkpt><trkpt lat="44.31805506156248" lon="7.742759264655448"><ele>577.4000000000001</ele><time>2026-04-16T17:00:56.999Z</time></trkpt><trkpt lat="44.31813682494057" lon="7.742800432496932"><ele>577.5999999999999</ele><time>2026-04-16T17:00:57.999Z</time></trkpt><trkpt lat="44.31820831207219" lon="7.742877139647867"><ele>577.8</ele><time>2026-04-16T17:00:58.999Z</time></trkpt><trkpt lat="44.31827665341286" lon="7.742949795578888"><ele>578.0</ele><time>2026-04-16T17:00:59.999Z</time></trkpt><trkpt lat="44.318342773438744" lon="7.743044282485282"><ele>577.5</ele><time>2026-04-16T17:01:00.999Z</time></trkpt><trkpt lat="44.31840493938484" lon="7.743122452415871"><ele>577.0</ele><time>2026-04-16T17:01:01.999Z</time></trkpt><trkpt lat="44.31846691614681" lon="7.743170283402115"><ele>576.5</ele><time>2026-04-16T17:01:02.999Z</time></trkpt><trkpt lat="44.31842146605545" lon="7.74348480520912"><ele>576.0</ele><time>2026-04-16T17:01:04.999Z</time></trkpt><trkpt lat="44.318438080708894" lon="7.743627088041279"><ele>576.0</ele><time>2026-04-16T17:01:05.999Z</time></trkpt><trkpt lat="44.31844955326009" lon="7.743726223474046"><ele>576.0</ele><time>2026-04-16T17:01:06.999Z</time></trkpt><trkpt lat="44.31846931363453" lon="7.743914691458639"><ele>576.0</ele><time>2026-04-16T17:01:08.999Z</time></trkpt><trkpt lat="44.31848347252249" lon="7.7440627987639905"><ele>576.0</ele><time>2026-04-16T17:01:09.999Z</time></trkpt><trkpt lat="44.31850875811163" lon="7.74418323162287"><ele>576.0</ele><time>2026-04-16T17:01:10.999Z</time></trkpt><trkpt lat="44.31851290726734" lon="7.744278655858693"><ele>576.0</ele><time>2026-04-16T17:01:11.999Z</time></trkpt><trkpt lat="44.318522606355366" lon="7.744370694526148"><ele>576.0</ele><time>2026-04-16T17:01:12.999Z</time></trkpt><trkpt lat="44.318510806908165" lon="7.744477013986984"><ele>576.0</ele><time>2026-04-16T17:01:13.999Z</time></trkpt><trkpt lat="44.31852858882038" lon="7.744612548261091"><ele>576.0</ele><time>2026-04-16T17:01:14.999Z</time></trkpt><trkpt lat="44.31852191991782" lon="7.74472847114164"><ele>576.0</ele><time>2026-04-16T17:01:15.999Z</time></trkpt><trkpt lat="44.31848671338128" lon="7.74482242412903"><ele>576.0</ele><time>2026-04-16T17:01:16.999Z</time></trkpt><trkpt lat="44.318455855054026" lon="7.744924830260946"><ele>576.0</ele><time>2026-04-16T17:01:17.999Z</time></trkpt><trkpt lat="44.31841688224956" lon="7.745044069045941"><ele>576.0</ele><time>2026-04-16T17:01:18.999Z</time></trkpt><trkpt lat="44.318379729338425" lon="7.745167187460232"><ele>576.0</ele><time>2026-04-16T17:01:19.999Z</time></trkpt><trkpt lat="44.318350512762265" lon="7.745292273002093"><ele>576.0</ele><time>2026-04-16T17:01:20.999Z</time></trkpt><trkpt lat="44.31832954511699" lon="7.745393812257566"><ele>576.0</ele><time>2026-04-16T17:01:21.999Z</time></trkpt><trkpt lat="44.31832972312751" lon="7.745495410214459"><ele>576.0</ele><time>2026-04-16T17:01:23.999Z</time></trkpt><trkpt lat="44.318324819354245" lon="7.745657154633883"><ele>576.0</ele><time>2026-04-16T17:01:26.999Z</time></trkpt><trkpt lat="44.31833549432018" lon="7.745802457615556"><ele>576.0</ele><time>2026-04-16T17:01:33.999Z</time></trkpt><trkpt lat="44.31833264294896" lon="7.745922042630822"><ele>576.0</ele><time>2026-04-16T17:01:35.999Z</time></trkpt><trkpt lat="44.31830420451006" lon="7.746074102101364"><ele>576.0</ele><time>2026-04-16T17:01:37.999Z</time></trkpt><trkpt lat="44.31828217425294" lon="7.746179433783551"><ele>576.0</ele><time>2026-04-16T17:01:38.999Z</time></trkpt><trkpt lat="44.31826052236145" lon="7.746295598164031"><ele>576.0</ele><time>2026-04-16T17:01:39.999Z</time></trkpt><trkpt lat="44.318179788736686" lon="7.746366659196799"><ele>576.0</ele><time>2026-04-16T17:01:40.999Z</time></trkpt><trkpt lat="44.318141446144296" lon="7.746484813139326"><ele>576.0</ele><time>2026-04-16T17:01:41.999Z</time></trkpt><trkpt lat="44.31810739547736" lon="7.746589742282296"><ele>576.0</ele><time>2026-04-16T17:01:42.999Z</time></trkpt><trkpt lat="44.31806512649509" lon="7.746719996603236"><ele>576.0</ele><time>2026-04-16T17:01:43.999Z</time></trkpt><trkpt lat="44.318038703010274" lon="7.74680142230613"><ele>576.0</ele><time>2026-04-16T17:01:44.999Z</time></trkpt><trkpt lat="44.31799349714932" lon="7.746934708217124"><ele>575.6</ele><time>2026-04-16T17:01:45.999Z</time></trkpt><trkpt lat="44.31796143367903" lon="7.747081364439105"><ele>575.2</ele><time>2026-04-16T17:01:46.999Z</time></trkpt><trkpt lat="44.31792396179001" lon="7.747178600326472"><ele>574.8</ele><time>2026-04-16T17:01:47.999Z</time></trkpt><trkpt lat="44.31785626039835" lon="7.747314061385355"><ele>574.4</ele><time>2026-04-16T17:01:48.999Z</time></trkpt><trkpt lat="44.31780425475606" lon="7.747443863701919"><ele>574.0</ele><time>2026-04-16T17:01:49.999Z</time></trkpt><trkpt lat="44.31778405401359" lon="7.747566485442614"><ele>573.8</ele><time>2026-04-16T17:01:50.999Z</time></trkpt><trkpt lat="44.31777213494795" lon="7.747712452387149"><ele>573.5999999999999</ele><time>2026-04-16T17:01:51.999Z</time></trkpt><trkpt lat="44.317757062466576" lon="7.747850310790554"><ele>573.4</ele><time>2026-04-16T17:01:52.999Z</time></trkpt><trkpt lat="44.31774532775678" lon="7.747993022325997"><ele>573.1999999999999</ele><time>2026-04-16T17:01:53.999Z</time></trkpt><trkpt lat="44.31772918592602" lon="7.748121748091556"><ele>573.0</ele><time>2026-04-16T17:01:54.998Z</time></trkpt><trkpt lat="44.31772432092858" lon="7.7482335259142445"><ele>573.0</ele><time>2026-04-16T17:01:55.998Z</time></trkpt><trkpt lat="44.31770254167099" lon="7.748329082335568"><ele>573.0</ele><time>2026-04-16T17:01:56.998Z</time></trkpt><trkpt lat="44.31768586517686" lon="7.748458479138344"><ele>573.0</ele><time>2026-04-16T17:01:57.998Z</time></trkpt><trkpt lat="44.317669436898825" lon="7.748544947206573"><ele>573.0</ele><time>2026-04-16T17:01:58.998Z</time></trkpt><trkpt lat="44.317651148118884" lon="7.748701589901436"><ele>573.0</ele><time>2026-04-16T17:02:00.998Z</time></trkpt><trkpt lat="44.31765623427568" lon="7.74885282017102"><ele>572.8333333333334</ele><time>2026-04-16T17:02:02.998Z</time></trkpt><trkpt lat="44.317630197185174" lon="7.748968352179057"><ele>572.6666666666666</ele><time>2026-04-16T17:02:04.998Z</time></trkpt><trkpt lat="44.31760823795941" lon="7.749090222811935"><ele>572.5</ele><time>2026-04-16T17:02:08.998Z</time></trkpt><trkpt lat="44.31767428076525" lon="7.7490591684839085"><ele>572.3333333333333</ele><time>2026-04-16T17:02:15.998Z</time></trkpt><trkpt lat="44.31764836494861" lon="7.748940244091986"><ele>572.1666666666666</ele><time>2026-04-16T17:02:19Z</time></trkpt><trkpt lat="44.317596863805754" lon="7.74887315105686"><ele>572.0</ele><time>2026-04-16T17:02:22Z</time></trkpt><trkpt lat="44.31761118256352" lon="7.748771781947487"><ele>572.0</ele><time>2026-04-16T17:02:45Z</time></trkpt><trkpt lat="44.31765216034571" lon="7.748692849833077"><ele>572.0</ele><time>2026-04-16T17:02:48Z</time></trkpt><trkpt lat="44.31767281279143" lon="7.748606804659982"><ele>572.0</ele><time>2026-04-16T17:02:49Z</time></trkpt><trkpt lat="44.31771210150313" lon="7.7484297102978745"><ele>572.0</ele><time>2026-04-16T17:02:51Z</time></trkpt><trkpt lat="44.31773729824333" lon="7.748294892716775"><ele>572.0</ele><time>2026-04-16T17:02:52Z</time></trkpt><trkpt lat="44.31775023226539" lon="7.748138994382515"><ele>572.2</ele><time>2026-04-16T17:02:53Z</time></trkpt><trkpt lat="44.31777059586086" lon="7.748009460463396"><ele>572.4000000000001</ele><time>2026-04-16T17:02:54Z</time></trkpt><trkpt lat="44.31779230483508" lon="7.747878052814158"><ele>572.5999999999999</ele><time>2026-04-16T17:02:55Z</time></trkpt><trkpt lat="44.31781129327507" lon="7.747746298221188"><ele>572.8</ele><time>2026-04-16T17:02:56Z</time></trkpt><trkpt lat="44.31783912716811" lon="7.747617579611874"><ele>573.0</ele><time>2026-04-16T17:02:57Z</time></trkpt><trkpt lat="44.31785327653462" lon="7.7474783587358065"><ele>573.1666666666666</ele><time>2026-04-16T17:02:58Z</time></trkpt><trkpt lat="44.31787034484893" lon="7.747342789445922"><ele>573.3333333333334</ele><time>2026-04-16T17:02:59Z</time></trkpt><trkpt lat="44.31790387810421" lon="7.747245927785343"><ele>573.5</ele><time>2026-04-16T17:03:00Z</time></trkpt><trkpt lat="44.317941079877635" lon="7.747143139278845"><ele>573.6666666666667</ele><time>2026-04-16T17:03:01Z</time></trkpt><trkpt lat="44.3179821861777" lon="7.747051642463208"><ele>573.8333333333334</ele><time>2026-04-16T17:03:01.999Z</time></trkpt><trkpt lat="44.31802301800968" lon="7.7469495155777945"><ele>574.0</ele><time>2026-04-16T17:03:02.999Z</time></trkpt><trkpt lat="44.318055834288906" lon="7.746860920645565"><ele>574.3333333333334</ele><time>2026-04-16T17:03:03.999Z</time></trkpt><trkpt lat="44.31809211513502" lon="7.746753333307364"><ele>574.6666666666667</ele><time>2026-04-16T17:03:04.999Z</time></trkpt><trkpt lat="44.31813734891409" lon="7.746643363607501"><ele>575.0</ele><time>2026-04-16T17:03:05.999Z</time></trkpt><trkpt lat="44.318177950914595" lon="7.746535360909245"><ele>575.3333333333334</ele><time>2026-04-16T17:03:06.999Z</time></trkpt><trkpt lat="44.318209275486886" lon="7.746439700479007"><ele>575.6666666666666</ele><time>2026-04-16T17:03:07.999Z</time></trkpt><trkpt lat="44.31824379313995" lon="7.746335274461921"><ele>576.0</ele><time>2026-04-16T17:03:08.999Z</time></trkpt><trkpt lat="44.31825942801308" lon="7.746221526248752"><ele>576.0</ele><time>2026-04-16T17:03:09.999Z</time></trkpt><trkpt lat="44.31830176682425" lon="7.746124986624323"><ele>576.0</ele><time>2026-04-16T17:03:10.999Z</time></trkpt><trkpt lat="44.318326229313215" lon="7.746043777315608"><ele>576.0</ele><time>2026-04-16T17:03:11.999Z</time></trkpt><trkpt lat="44.318347756301165" lon="7.745960681170785"><ele>576.0</ele><time>2026-04-16T17:03:12.999Z</time></trkpt><trkpt lat="44.318375312000875" lon="7.745809645440367"><ele>576.0</ele><time>2026-04-16T17:03:14.999Z</time></trkpt><trkpt lat="44.31836121972987" lon="7.745668956222239"><ele>576.0</ele><time>2026-04-16T17:03:16.999Z</time></trkpt><trkpt lat="44.31830168468279" lon="7.74560740679237"><ele>576.0</ele><time>2026-04-16T17:03:25.999Z</time></trkpt><trkpt lat="44.318331967646216" lon="7.74550135995003"><ele>576.0</ele><time>2026-04-16T17:03:28.999Z</time></trkpt><trkpt lat="44.318320358570766" lon="7.745412352308545"><ele>576.0</ele><time>2026-04-16T17:03:31.999Z</time></trkpt><trkpt lat="44.31836525416073" lon="7.745275003056869"><ele>576.0</ele><time>2026-04-16T17:03:34.999Z</time></trkpt><trkpt lat="44.31839972957409" lon="7.745154550478798"><ele>576.0</ele><time>2026-04-16T17:03:36.999Z</time></trkpt><trkpt lat="44.31843337773481" lon="7.745018179030375"><ele>576.0</ele><time>2026-04-16T17:03:38.999Z</time></trkpt><trkpt lat="44.31845155670281" lon="7.744926417479557"><ele>576.0</ele><time>2026-04-16T17:03:39.999Z</time></trkpt><trkpt lat="44.318463554940884" lon="7.744823829539724"><ele>576.0</ele><time>2026-04-16T17:03:40.999Z</time></trkpt><trkpt lat="44.31853422045142" lon="7.74474833617423"><ele>576.0</ele><time>2026-04-16T17:03:41.999Z</time></trkpt><trkpt lat="44.31854915163788" lon="7.744633254973889"><ele>576.0</ele><time>2026-04-16T17:03:42.999Z</time></trkpt><trkpt lat="44.318550428900885" lon="7.744540822755297"><ele>576.0</ele><time>2026-04-16T17:03:43.999Z</time></trkpt><trkpt lat="44.318542219371395" lon="7.744429989473644"><ele>576.0</ele><time>2026-04-16T17:03:44.999Z</time></trkpt><trkpt lat="44.31852706941778" lon="7.744304336394837"><ele>576.0</ele><time>2026-04-16T17:03:45.999Z</time></trkpt><trkpt lat="44.31852970002707" lon="7.744182523467758"><ele>576.0</ele><time>2026-04-16T17:03:46.999Z</time></trkpt><trkpt lat="44.31851954328575" lon="7.744074199492606"><ele>576.0</ele><time>2026-04-16T17:03:47.999Z</time></trkpt><trkpt lat="44.318510523749" lon="7.7439423673553645"><ele>576.0</ele><time>2026-04-16T17:03:48.999Z</time></trkpt><trkpt lat="44.31849320773209" lon="7.743792692878447"><ele>576.0</ele><time>2026-04-16T17:03:49.999Z</time></trkpt><trkpt lat="44.31847662156684" lon="7.743680909438458"><ele>576.0</ele><time>2026-04-16T17:03:50.999Z</time></trkpt><trkpt lat="44.318469573455346" lon="7.743576653779473"><ele>576.0</ele><time>2026-04-16T17:03:51.999Z</time></trkpt><trkpt lat="44.31846042142661" lon="7.7434895544478115"><ele>576.0</ele><time>2026-04-16T17:03:52.999Z</time></trkpt><trkpt lat="44.31845271007474" lon="7.743341508007263"><ele>576.0</ele><time>2026-04-16T17:03:54.999Z</time></trkpt><trkpt lat="44.3184593221688" lon="7.74322762843819"><ele>576.0</ele><time>2026-04-16T17:03:56.999Z</time></trkpt><trkpt lat="44.31845538573137" lon="7.7431322025111395"><ele>576.0</ele><time>2026-04-16T17:03:58.999Z</time></trkpt><trkpt lat="44.318391840522004" lon="7.74318390473914"><ele>576.0</ele><time>2026-04-16T17:04:39Z</time></trkpt><trkpt lat="44.31839382602313" lon="7.743298656560563"><ele>576.0</ele><time>2026-04-16T17:04:42Z</time></trkpt><trkpt lat="44.318402095751345" lon="7.743421834492271"><ele>576.0</ele><time>2026-04-16T17:04:45Z</time></trkpt><trkpt lat="44.31843512355541" lon="7.743576805226036"><ele>576.0</ele><time>2026-04-16T17:04:47Z</time></trkpt><trkpt lat="44.31844105445704" lon="7.74367680305586"><ele>576.0</ele><time>2026-04-16T17:04:48Z</time></trkpt><trkpt lat="44.3184528940437" lon="7.7437854612598045"><ele>576.0</ele><time>2026-04-16T17:04:49Z</time></trkpt><trkpt lat="44.31847283187012" lon="7.743935225010774"><ele>576.0</ele><time>2026-04-16T17:04:50Z</time></trkpt><trkpt lat="44.31849103734323" lon="7.744091489488834"><ele>576.0</ele><time>2026-04-16T17:04:51Z</time></trkpt><trkpt lat="44.318504363688106" lon="7.7442539611655725"><ele>576.0</ele><time>2026-04-16T17:04:52Z</time></trkpt><trkpt lat="44.31851380496968" lon="7.744388950717771"><ele>576.0</ele><time>2026-04-16T17:04:53Z</time></trkpt><trkpt lat="44.3185251823145" lon="7.7445156732194"><ele>576.0</ele><time>2026-04-16T17:04:54Z</time></trkpt><trkpt lat="44.31852674188072" lon="7.744631869721236"><ele>576.0</ele><time>2026-04-16T17:04:55Z</time></trkpt><trkpt lat="44.3185085132412" lon="7.744729233088801"><ele>576.0</ele><time>2026-04-16T17:04:56Z</time></trkpt><trkpt lat="44.31848361881091" lon="7.7448300966484345"><ele>576.0</ele><time>2026-04-16T17:04:57Z</time></trkpt><trkpt lat="44.31846155123111" lon="7.74491843361988"><ele>576.0</ele><time>2026-04-16T17:04:58Z</time></trkpt><trkpt lat="44.318403028387486" lon="7.745086888306824"><ele>576.0</ele><time>2026-04-16T17:05:00Z</time></trkpt><trkpt lat="44.31837213401947" lon="7.745199321818395"><ele>575.8333333333334</ele><time>2026-04-16T17:05:01Z</time></trkpt><trkpt lat="44.31835075477162" lon="7.745353110018966"><ele>575.6666666666666</ele><time>2026-04-16T17:05:03Z</time></trkpt><trkpt lat="44.31832448368963" lon="7.745464301976905"><ele>575.5</ele><time>2026-04-16T17:05:05Z</time></trkpt><trkpt lat="44.31830952965217" lon="7.7456014488656795"><ele>575.3333333333333</ele><time>2026-04-16T17:05:07Z</time></trkpt><trkpt lat="44.31829646804216" lon="7.745692962466904"><ele>575.1666666666666</ele><time>2026-04-16T17:05:24.999Z</time></trkpt><trkpt lat="44.318290873379446" lon="7.745597480664884"><ele>575.0</ele><time>2026-04-16T17:05:55.999Z</time></trkpt><trkpt lat="44.318365285418885" lon="7.745536346797015"><ele>575.0</ele><time>2026-04-16T17:06:23.998Z</time></trkpt><trkpt lat="44.31841014384553" lon="7.7454539735311405"><ele>575.0</ele><time>2026-04-16T17:06:33Z</time></trkpt><trkpt lat="44.318289150506686" lon="7.745465439807474"><ele>575.0</ele><time>2026-04-16T17:07:04Z</time></trkpt><trkpt lat="44.31837395354199" lon="7.74546710492389"><ele>575.0</ele><time>2026-04-16T17:09:15.999Z</time></trkpt><trkpt lat="44.318389755280585" lon="7.745566213948796"><ele>575.0</ele><time>2026-04-16T17:09:38.999Z</time></trkpt><trkpt lat="44.318374588708316" lon="7.745666249013962"><ele>575.0</ele><time>2026-04-16T17:09:43.999Z</time></trkpt><trkpt lat="44.318346249194995" lon="7.745745303048106"><ele>575.0</ele><time>2026-04-16T17:09:47.999Z</time></trkpt><trkpt lat="44.31835476930867" lon="7.745832684461601"><ele>575.0</ele><time>2026-04-16T17:09:52.999Z</time></trkpt><trkpt lat="44.31837218874659" lon="7.745921835001063"><ele>575.0</ele><time>2026-04-16T17:09:57.999Z</time></trkpt><trkpt lat="44.31835976093393" lon="7.746025429979654"><ele>575.0</ele><time>2026-04-16T17:10:03.999Z</time></trkpt><trkpt lat="44.3183317513224" lon="7.746107822325508"><ele>575.0</ele><time>2026-04-16T17:10:08.999Z</time></trkpt><trkpt lat="44.318283568858575" lon="7.746169790582175"><ele>575.0</ele><time>2026-04-16T17:10:12.999Z</time></trkpt><trkpt lat="44.31822426968395" lon="7.746221938507167"><ele>575.0</ele><time>2026-04-16T17:10:17.999Z</time></trkpt><trkpt lat="44.318216918158974" lon="7.746325367019579"><ele>575.1428571428571</ele><time>2026-04-16T17:10:25.999Z</time></trkpt><trkpt lat="44.31820946927034" lon="7.746417735689886"><ele>575.2857142857142</ele><time>2026-04-16T17:10:29.999Z</time></trkpt><trkpt lat="44.31816873839966" lon="7.746501870937072"><ele>575.4285714285714</ele><time>2026-04-16T17:10:35.999Z</time></trkpt><trkpt lat="44.3181077159921" lon="7.746554481246464"><ele>575.5714285714286</ele><time>2026-04-16T17:10:44.999Z</time></trkpt><trkpt lat="44.318078027262224" lon="7.746641631312914"><ele>575.7142857142858</ele><time>2026-04-16T17:10:48.998Z</time></trkpt><trkpt lat="44.31804116352828" lon="7.7467277709804065"><ele>575.8571428571429</ele><time>2026-04-16T17:10:52.998Z</time></trkpt><trkpt lat="44.3180496880074" lon="7.746827842847101"><ele>576.0</ele><time>2026-04-16T17:10:56.998Z</time></trkpt><trkpt lat="44.31804143562345" lon="7.746937960723158"><ele>575.7142857142858</ele><time>2026-04-16T17:11:02.998Z</time></trkpt><trkpt lat="44.31800418862649" lon="7.747029037944014"><ele>575.4285714285714</ele><time>2026-04-16T17:11:10Z</time></trkpt><trkpt lat="44.31797007054274" lon="7.747128903214641"><ele>575.1428571428571</ele><time>2026-04-16T17:11:16Z</time></trkpt><trkpt lat="44.317940015662785" lon="7.747209975466004"><ele>574.8571428571429</ele><time>2026-04-16T17:11:21Z</time></trkpt><trkpt lat="44.31790664868555" lon="7.747292552720607"><ele>574.5714285714286</ele><time>2026-04-16T17:11:26Z</time></trkpt><trkpt lat="44.31788528108773" lon="7.7473925548120235"><ele>574.2857142857143</ele><time>2026-04-16T17:11:31Z</time></trkpt><trkpt lat="44.317893431388846" lon="7.747493710712305"><ele>574.0</ele><time>2026-04-16T17:11:36Z</time></trkpt><trkpt lat="44.31784505014455" lon="7.747566400159786"><ele>574.0</ele><time>2026-04-16T17:11:42.999Z</time></trkpt><trkpt lat="44.31780292386123" lon="7.747634744969541"><ele>574.0</ele><time>2026-04-16T17:11:47.999Z</time></trkpt><trkpt lat="44.31779329706305" lon="7.7477294977080104"><ele>574.0</ele><time>2026-04-16T17:11:52.999Z</time></trkpt><trkpt lat="44.31779992405047" lon="7.7478341326440745"><ele>574.0</ele><time>2026-04-16T17:11:59.999Z</time></trkpt><trkpt lat="44.31777040879079" lon="7.747914900268073"><ele>574.0</ele><time>2026-04-16T17:12:06.999Z</time></trkpt><trkpt lat="44.317697159459215" lon="7.747920943566146"><ele>574.0</ele><time>2026-04-16T17:13:19Z</time></trkpt><trkpt lat="44.31763150752776" lon="7.74787566980854"><ele>574.0</ele><time>2026-04-16T17:13:31Z</time></trkpt><trkpt lat="44.3175837217654" lon="7.747811922129681"><ele>573.8</ele><time>2026-04-16T17:13:35Z</time></trkpt><trkpt lat="44.31752694749867" lon="7.747763056011666"><ele>573.5999999999999</ele><time>2026-04-16T17:13:44Z</time></trkpt><trkpt lat="44.3175924755529" lon="7.748043003451772"><ele>573.4</ele><time>2026-04-16T17:19:43Z</time></trkpt><trkpt lat="44.31751669388692" lon="7.747988887138431"><ele>573.1999999999999</ele><time>2026-04-16T17:19:50Z</time></trkpt><trkpt lat="44.317526919808785" lon="7.747875060893361"><ele>573.0</ele><time>2026-04-16T17:19:52Z</time></trkpt><trkpt lat="44.31752032585719" lon="7.747746757783669"><ele>573.0</ele><time>2026-04-16T17:19:56Z</time></trkpt><trkpt lat="44.31754565315612" lon="7.747831549207165"><ele>573.0</ele><time>2026-04-16T17:25:15.999Z</time></trkpt><trkpt lat="44.31747669624516" lon="7.747772506472738"><ele>573.0</ele><time>2026-04-16T17:26:30.999Z</time></trkpt><trkpt lat="44.31746887188746" lon="7.747662431826398"><ele>573.0</ele><time>2026-04-16T17:26:41.999Z</time></trkpt><trkpt lat="44.317401294426126" lon="7.747666456732688"><ele>573.0</ele><time>2026-04-16T17:26:46.999Z</time></trkpt><trkpt lat="44.317304977427796" lon="7.747649073082017"><ele>573.0</ele><time>2026-04-16T17:27:05.999Z</time></trkpt><trkpt lat="44.31742865906678" lon="7.747585311967754"><ele>573.0</ele><time>2026-04-16T17:27:41.999Z</time></trkpt><trkpt lat="44.31746080788786" lon="7.747672719094657"><ele>573.0</ele><time>2026-04-16T17:27:44.999Z</time></trkpt><trkpt lat="44.31752196305808" lon="7.747698083566726"><ele>573.0</ele><time>2026-04-16T17:28:02Z</time></trkpt><trkpt lat="44.31757442121017" lon="7.747759825813874"><ele>573.0</ele><time>2026-04-16T17:28:08Z</time></trkpt><trkpt lat="44.31763676955446" lon="7.747775914394751"><ele>573.0</ele><time>2026-04-16T17:28:39Z</time></trkpt><trkpt lat="44.317691759006294" lon="7.747837201956385"><ele>573.0</ele><time>2026-04-16T17:28:46.999Z</time></trkpt><trkpt lat="44.31774269432421" lon="7.747906206955504"><ele>573.0</ele><time>2026-04-16T17:28:53.999Z</time></trkpt><trkpt lat="44.31779738926059" lon="7.747859988937231"><ele>573.0</ele><time>2026-04-16T17:32:16Z</time></trkpt><trkpt lat="44.31780662945607" lon="7.747749253694327"><ele>573.0</ele><time>2026-04-16T17:32:18Z</time></trkpt><trkpt lat="44.31782072264575" lon="7.74764961154966"><ele>573.0</ele><time>2026-04-16T17:32:21Z</time></trkpt><trkpt lat="44.317828609507686" lon="7.74755386675396"><ele>573.0</ele><time>2026-04-16T17:32:23Z</time></trkpt><trkpt lat="44.31785388165816" lon="7.747472902823544"><ele>573.0</ele><time>2026-04-16T17:32:25Z</time></trkpt><trkpt lat="44.31787767400132" lon="7.747389825602114"><ele>573.0</ele><time>2026-04-16T17:32:27Z</time></trkpt><trkpt lat="44.3179043040224" lon="7.747296617104053"><ele>573.0</ele><time>2026-04-16T17:32:30Z</time></trkpt><trkpt lat="44.31793861908565" lon="7.747193688306257"><ele>573.1666666666666</ele><time>2026-04-16T17:32:33Z</time></trkpt><trkpt lat="44.317981485342195" lon="7.747102657689785"><ele>573.3333333333334</ele><time>2026-04-16T17:32:35Z</time></trkpt><trkpt lat="44.31802071698551" lon="7.746979935455465"><ele>573.5</ele><time>2026-04-16T17:32:37Z</time></trkpt><trkpt lat="44.31804989946259" lon="7.746892404927377"><ele>573.6666666666667</ele><time>2026-04-16T17:32:38Z</time></trkpt><trkpt lat="44.31808988059883" lon="7.746786672978744"><ele>573.8333333333334</ele><time>2026-04-16T17:32:39Z</time></trkpt><trkpt lat="44.3181332608989" lon="7.7466475848274134"><ele>574.0</ele><time>2026-04-16T17:32:40Z</time></trkpt><trkpt lat="44.3181653653891" lon="7.746511228900796"><ele>574.2</ele><time>2026-04-16T17:32:41Z</time></trkpt><trkpt lat="44.318188569712596" lon="7.746412398403264"><ele>574.4</ele><time>2026-04-16T17:32:42Z</time></trkpt><trkpt lat="44.31822029341048" lon="7.746315355572036"><ele>574.6</ele><time>2026-04-16T17:32:43Z</time></trkpt><trkpt lat="44.31827585023293" lon="7.746218345511634"><ele>574.8</ele><time>2026-04-16T17:32:44Z</time></trkpt><trkpt lat="44.31832126219541" lon="7.746052643536031"><ele>575.0</ele><time>2026-04-16T17:32:46Z</time></trkpt><trkpt lat="44.31833075206871" lon="7.745899655591771"><ele>575.0</ele><time>2026-04-16T17:32:48Z</time></trkpt><trkpt lat="44.318335038286314" lon="7.745784785868483"><ele>575.0</ele><time>2026-04-16T17:32:50Z</time></trkpt><trkpt lat="44.318343424808106" lon="7.745627793956409"><ele>575.0</ele><time>2026-04-16T17:32:55Z</time></trkpt><trkpt lat="44.3183350612605" lon="7.745489823796591"><ele>575.0</ele><time>2026-04-16T17:32:56Z</time></trkpt><trkpt lat="44.3183689182015" lon="7.745365422605603"><ele>575.0</ele><time>2026-04-16T17:32:57Z</time></trkpt><trkpt lat="44.318382563029644" lon="7.745245259011424"><ele>575.1666666666666</ele><time>2026-04-16T17:32:58Z</time></trkpt><trkpt lat="44.318423617155766" lon="7.7451469573761855"><ele>575.3333333333333</ele><time>2026-04-16T17:32:59Z</time></trkpt><trkpt lat="44.31847227825274" lon="7.7450568332885545"><ele>575.5</ele><time>2026-04-16T17:32:59.999Z</time></trkpt><trkpt lat="44.318492876884484" lon="7.744954519913384"><ele>575.6666666666666</ele><time>2026-04-16T17:33:00.999Z</time></trkpt><trkpt lat="44.31851389793168" lon="7.7448478104443375"><ele>575.8333333333334</ele><time>2026-04-16T17:33:01.999Z</time></trkpt><trkpt lat="44.31853323438122" lon="7.744748986573285"><ele>576.0</ele><time>2026-04-16T17:33:02.999Z</time></trkpt><trkpt lat="44.318551534979186" lon="7.744635674138559"><ele>576.0</ele><time>2026-04-16T17:33:03.999Z</time></trkpt><trkpt lat="44.318536861559224" lon="7.744533306342225"><ele>576.0</ele><time>2026-04-16T17:33:04.999Z</time></trkpt><trkpt lat="44.31853388761747" lon="7.744435951098279"><ele>576.0</ele><time>2026-04-16T17:33:05.999Z</time></trkpt><trkpt lat="44.31852637468666" lon="7.744318980843567"><ele>576.0</ele><time>2026-04-16T17:33:06.999Z</time></trkpt><trkpt lat="44.31852828143038" lon="7.744200155412641"><ele>576.0</ele><time>2026-04-16T17:33:07.999Z</time></trkpt><trkpt lat="44.318518906477934" lon="7.744086162351915"><ele>576.0</ele><time>2026-04-16T17:33:08.999Z</time></trkpt><trkpt lat="44.31851163056588" lon="7.743997692141202"><ele>576.0</ele><time>2026-04-16T17:33:09.999Z</time></trkpt><trkpt lat="44.31850365815056" lon="7.743869340993195"><ele>576.0</ele><time>2026-04-16T17:33:11.999Z</time></trkpt><trkpt lat="44.31848842522754" lon="7.743778609456196"><ele>576.0</ele><time>2026-04-16T17:33:13.999Z</time></trkpt><trkpt lat="44.31847500120495" lon="7.743677739519466"><ele>576.0</ele><time>2026-04-16T17:33:15.999Z</time></trkpt><trkpt lat="44.31845984339883" lon="7.743530195232003"><ele>576.0</ele><time>2026-04-16T17:33:17.999Z</time></trkpt><trkpt lat="44.31845937804049" lon="7.743440862124015"><ele>576.0</ele><time>2026-04-16T17:33:18.999Z</time></trkpt><trkpt lat="44.318452714857415" lon="7.7433052411313605"><ele>576.0</ele><time>2026-04-16T17:33:20.999Z</time></trkpt><trkpt lat="44.31844574804773" lon="7.743215083727761"><ele>576.0</ele><time>2026-04-16T17:33:23.999Z</time></trkpt><trkpt lat="44.31857646539205" lon="7.7431452155608795"><ele>576.0</ele><time>2026-04-16T17:33:27.999Z</time></trkpt><trkpt lat="44.31864516440761" lon="7.743207129282228"><ele>576.0</ele><time>2026-04-16T17:33:28.999Z</time></trkpt><trkpt lat="44.318719883372296" lon="7.7432610429277435"><ele>576.0</ele><time>2026-04-16T17:33:29.999Z</time></trkpt><trkpt lat="44.3188037820801" lon="7.743305226597493"><ele>576.0</ele><time>2026-04-16T17:33:30.999Z</time></trkpt><trkpt lat="44.31889789070344" lon="7.743373955191306"><ele>576.0</ele><time>2026-04-16T17:33:31.999Z</time></trkpt><trkpt lat="44.31900068130561" lon="7.743437282405576"><ele>576.0</ele><time>2026-04-16T17:33:32.999Z</time></trkpt><trkpt lat="44.319111569517545" lon="7.74352132478875"><ele>576.0</ele><time>2026-04-16T17:33:33.999Z</time></trkpt><trkpt lat="44.3192244735721" lon="7.743612183619616"><ele>575.0</ele><time>2026-04-16T17:33:34.999Z</time></trkpt><trkpt lat="44.31933061910558" lon="7.743688884604253"><ele>574.0</ele><time>2026-04-16T17:33:35.999Z</time></trkpt><trkpt lat="44.31944068442849" lon="7.743767907475328"><ele>573.0</ele><time>2026-04-16T17:33:36.999Z</time></trkpt><trkpt lat="44.319552624409326" lon="7.743872479668283"><ele>572.0</ele><time>2026-04-16T17:33:37.999Z</time></trkpt><trkpt lat="44.31967599329171" lon="7.743964584087609"><ele>571.25</ele><time>2026-04-16T17:33:38.999Z</time></trkpt><trkpt lat="44.31979973535034" lon="7.744056079787984"><ele>570.5</ele><time>2026-04-16T17:33:39.999Z</time></trkpt><trkpt lat="44.31992446341676" lon="7.744148240325763"><ele>569.75</ele><time>2026-04-16T17:33:40.999Z</time></trkpt><trkpt lat="44.32004574531329" lon="7.744214077869412"><ele>569.0</ele><time>2026-04-16T17:33:41.999Z</time></trkpt><trkpt lat="44.32015047858878" lon="7.744312283564"><ele>569.0</ele><time>2026-04-16T17:33:42.999Z</time></trkpt><trkpt lat="44.32026919719784" lon="7.744396254029676"><ele>569.0</ele><time>2026-04-16T17:33:43.999Z</time></trkpt><trkpt lat="44.32037109858837" lon="7.744477286489729"><ele>569.0</ele><time>2026-04-16T17:33:44.999Z</time></trkpt><trkpt lat="44.32050083872762" lon="7.744561821764289"><ele>569.0</ele><time>2026-04-16T17:33:45.999Z</time></trkpt><trkpt lat="44.32062715832764" lon="7.744659873593534"><ele>568.5</ele><time>2026-04-16T17:33:46.999Z</time></trkpt><trkpt lat="44.32075550807992" lon="7.744755189683933"><ele>568.0</ele><time>2026-04-16T17:33:47.999Z</time></trkpt><trkpt lat="44.32088557633377" lon="7.744853153441612"><ele>567.5</ele><time>2026-04-16T17:33:48.999Z</time></trkpt><trkpt lat="44.32101513334439" lon="7.744951033023064"><ele>567.0</ele><time>2026-04-16T17:33:49.999Z</time></trkpt><trkpt lat="44.3211448899276" lon="7.7450328786945715"><ele>567.0</ele><time>2026-04-16T17:33:50.999Z</time></trkpt><trkpt lat="44.321277491255316" lon="7.745128597141704"><ele>567.0</ele><time>2026-04-16T17:33:51.999Z</time></trkpt><trkpt lat="44.32140953040029" lon="7.745232678300051"><ele>567.0</ele><time>2026-04-16T17:33:52.999Z</time></trkpt><trkpt lat="44.32153203123903" lon="7.745325227692815"><ele>567.0</ele><time>2026-04-16T17:33:53.999Z</time></trkpt><trkpt lat="44.321656796304765" lon="7.745425198262138"><ele>566.5</ele><time>2026-04-16T17:33:54.999Z</time></trkpt><trkpt lat="44.32178291226004" lon="7.745521017803264"><ele>566.0</ele><time>2026-04-16T17:33:55.999Z</time></trkpt><trkpt lat="44.321899058242636" lon="7.745611653124522"><ele>565.5</ele><time>2026-04-16T17:33:56.999Z</time></trkpt><trkpt lat="44.322023808483586" lon="7.745696030970999"><ele>565.0</ele><time>2026-04-16T17:33:57.999Z</time></trkpt><trkpt lat="44.32214988665468" lon="7.745786330305894"><ele>564.75</ele><time>2026-04-16T17:33:58.999Z</time></trkpt><trkpt lat="44.32227154522622" lon="7.745877376602851"><ele>564.5</ele><time>2026-04-16T17:33:59.999Z</time></trkpt><trkpt lat="44.32239316013666" lon="7.745971664500363"><ele>564.25</ele><time>2026-04-16T17:34:00.999Z</time></trkpt><trkpt lat="44.32250992140836" lon="7.746058936026066"><ele>564.0</ele><time>2026-04-16T17:34:01.999Z</time></trkpt><trkpt lat="44.322630984990724" lon="7.746146131408522"><ele>563.5</ele><time>2026-04-16T17:34:02.999Z</time></trkpt><trkpt lat="44.32275286059254" lon="7.746228438421435"><ele>563.0</ele><time>2026-04-16T17:34:03.999Z</time></trkpt><trkpt lat="44.32287768981382" lon="7.746316979092152"><ele>562.5</ele><time>2026-04-16T17:34:04.999Z</time></trkpt><trkpt lat="44.32300168529262" lon="7.746433072615168"><ele>562.0</ele><time>2026-04-16T17:34:05.999Z</time></trkpt><trkpt lat="44.323130265063746" lon="7.7465281159326915"><ele>561.75</ele><time>2026-04-16T17:34:06.999Z</time></trkpt><trkpt lat="44.323260603685135" lon="7.746624459350078"><ele>561.5</ele><time>2026-04-16T17:34:07.999Z</time></trkpt><trkpt lat="44.323397649152234" lon="7.746704001009048"><ele>561.25</ele><time>2026-04-16T17:34:08.999Z</time></trkpt><trkpt lat="44.32352827787091" lon="7.746805237936483"><ele>561.0</ele><time>2026-04-16T17:34:10Z</time></trkpt><trkpt lat="44.323658679969036" lon="7.7469167333853814"><ele>560.6666666666666</ele><time>2026-04-16T17:34:11Z</time></trkpt><trkpt lat="44.32379248056342" lon="7.747016715079654"><ele>560.3333333333333</ele><time>2026-04-16T17:34:12Z</time></trkpt><trkpt lat="44.3239350367965" lon="7.747121421497679"><ele>560.0</ele><time>2026-04-16T17:34:13Z</time></trkpt><trkpt lat="44.324082255873904" lon="7.747226595352576"><ele>558.6666666666666</ele><time>2026-04-16T17:34:14Z</time></trkpt><trkpt lat="44.32423395000931" lon="7.74733858554991"><ele>557.3333333333334</ele><time>2026-04-16T17:34:15Z</time></trkpt><trkpt lat="44.324390619194" lon="7.747451498856187"><ele>556.0</ele><time>2026-04-16T17:34:16Z</time></trkpt><trkpt lat="44.32454629555389" lon="7.747566910064684"><ele>556.0</ele><time>2026-04-16T17:34:17Z</time></trkpt><trkpt lat="44.32470322239584" lon="7.747685605706252"><ele>556.0</ele><time>2026-04-16T17:34:18Z</time></trkpt><trkpt lat="44.32486183866627" lon="7.747802980092276"><ele>556.0</ele><time>2026-04-16T17:34:19Z</time></trkpt><trkpt lat="44.32503080141521" lon="7.747925745060647"><ele>555.6666666666667</ele><time>2026-04-16T17:34:20Z</time></trkpt><trkpt lat="44.325197807956144" lon="7.748043373158676"><ele>555.3333333333334</ele><time>2026-04-16T17:34:21Z</time></trkpt><trkpt lat="44.325358138327125" lon="7.748186407032401"><ele>555.0</ele><time>2026-04-16T17:34:22Z</time></trkpt><trkpt lat="44.32552283601846" lon="7.748309539685151"><ele>554.0</ele><time>2026-04-16T17:34:23Z</time></trkpt><trkpt lat="44.32568524257609" lon="7.748431345883445"><ele>553.0</ele><time>2026-04-16T17:34:24Z</time></trkpt><trkpt lat="44.32584600737603" lon="7.748551842056427"><ele>552.0</ele><time>2026-04-16T17:34:25Z</time></trkpt><trkpt lat="44.326008292730634" lon="7.7486734778721305"><ele>552.0</ele><time>2026-04-16T17:34:26Z</time></trkpt><trkpt lat="44.326170326838" lon="7.748796339231607"><ele>552.0</ele><time>2026-04-16T17:34:27Z</time></trkpt><trkpt lat="44.3263302633796" lon="7.748918107460751"><ele>552.0</ele><time>2026-04-16T17:34:28Z</time></trkpt><trkpt lat="44.32648803606188" lon="7.749038228233671"><ele>551.0</ele><time>2026-04-16T17:34:29Z</time></trkpt><trkpt lat="44.326655577867406" lon="7.749143616406537"><ele>550.0</ele><time>2026-04-16T17:34:30Z</time></trkpt><trkpt lat="44.32680963024603" lon="7.7492775710938435"><ele>549.0</ele><time>2026-04-16T17:34:31Z</time></trkpt><trkpt lat="44.32696275699633" lon="7.749408354760407"><ele>549.0</ele><time>2026-04-16T17:34:32Z</time></trkpt><trkpt lat="44.32711390871479" lon="7.749544918207263"><ele>549.0</ele><time>2026-04-16T17:34:33Z</time></trkpt><trkpt lat="44.327262965055276" lon="7.749683393205873"><ele>549.0</ele><time>2026-04-16T17:34:34Z</time></trkpt><trkpt lat="44.32741008789987" lon="7.749823982167627"><ele>548.6666666666666</ele><time>2026-04-16T17:34:35Z</time></trkpt><trkpt lat="44.32755841903207" lon="7.749968760838233"><ele>548.3333333333333</ele><time>2026-04-16T17:34:36Z</time></trkpt><trkpt lat="44.32770281511929" lon="7.750111538082099"><ele>548.0</ele><time>2026-04-16T17:34:37Z</time></trkpt><trkpt lat="44.32784455360944" lon="7.750257672991861"><ele>547.3333333333333</ele><time>2026-04-16T17:34:38Z</time></trkpt><trkpt lat="44.327987032244515" lon="7.750406736159863"><ele>546.6666666666666</ele><time>2026-04-16T17:34:39Z</time></trkpt><trkpt lat="44.328130026526075" lon="7.750560008792602"><ele>546.0</ele><time>2026-04-16T17:34:40Z</time></trkpt><trkpt lat="44.328274276389045" lon="7.750716665315265"><ele>545.0</ele><time>2026-04-16T17:34:41Z</time></trkpt><trkpt lat="44.32841755035047" lon="7.750872436085987"><ele>544.0</ele><time>2026-04-16T17:34:42Z</time></trkpt><trkpt lat="44.32855977807781" lon="7.75103019470556"><ele>543.0</ele><time>2026-04-16T17:34:43Z</time></trkpt><trkpt lat="44.328707334764864" lon="7.751187358682252"><ele>542.3333333333334</ele><time>2026-04-16T17:34:44Z</time></trkpt><trkpt lat="44.32885423695146" lon="7.751345824730229"><ele>541.6666666666667</ele><time>2026-04-16T17:34:45Z</time></trkpt><trkpt lat="44.329000290952955" lon="7.751502225538621"><ele>541.0</ele><time>2026-04-16T17:34:46Z</time></trkpt><trkpt lat="44.32914751106101" lon="7.751657783332658"><ele>541.0</ele><time>2026-04-16T17:34:47Z</time></trkpt><trkpt lat="44.3292947523599" lon="7.751818089413259"><ele>541.0</ele><time>2026-04-16T17:34:48Z</time></trkpt><trkpt lat="44.32944088806305" lon="7.751977559950544"><ele>541.0</ele><time>2026-04-16T17:34:49Z</time></trkpt><trkpt lat="44.329588025818815" lon="7.752138404539956"><ele>539.6666666666667</ele><time>2026-04-16T17:34:50Z</time></trkpt><trkpt lat="44.32973534000996" lon="7.752296167614896"><ele>538.3333333333334</ele><time>2026-04-16T17:34:51Z</time></trkpt><trkpt lat="44.32986409391898" lon="7.752461491581246"><ele>537.0</ele><time>2026-04-16T17:34:52Z</time></trkpt><trkpt lat="44.32999486488384" lon="7.752604167019005"><ele>535.0</ele><time>2026-04-16T17:34:53Z</time></trkpt><trkpt lat="44.33012806141573" lon="7.752749628110936"><ele>533.0</ele><time>2026-04-16T17:34:54Z</time></trkpt><trkpt lat="44.330266841098606" lon="7.752900826606159"><ele>531.0</ele><time>2026-04-16T17:34:55Z</time></trkpt><trkpt lat="44.33040994564949" lon="7.753055474532039"><ele>531.0</ele><time>2026-04-16T17:34:56Z</time></trkpt><trkpt lat="44.33055554554814" lon="7.753212819145793"><ele>531.0</ele><time>2026-04-16T17:34:57Z</time></trkpt><trkpt lat="44.33070773079672" lon="7.753377280223211"><ele>531.0</ele><time>2026-04-16T17:34:58Z</time></trkpt><trkpt lat="44.33085779056204" lon="7.753539444376161"><ele>531.0</ele><time>2026-04-16T17:34:59Z</time></trkpt><trkpt lat="44.331003331957184" lon="7.753696725596964"><ele>531.0</ele><time>2026-04-16T17:35:00Z</time></trkpt><trkpt lat="44.33115298631755" lon="7.753858451749709"><ele>531.0</ele><time>2026-04-16T17:35:01Z</time></trkpt><trkpt lat="44.33131321862859" lon="7.754002285770824"><ele>530.3333333333334</ele><time>2026-04-16T17:35:02Z</time></trkpt><trkpt lat="44.331464565910345" lon="7.754170320709684"><ele>529.6666666666667</ele><time>2026-04-16T17:35:03Z</time></trkpt><trkpt lat="44.331615073538615" lon="7.754333825753343"><ele>529.0</ele><time>2026-04-16T17:35:04Z</time></trkpt><trkpt lat="44.33175510501204" lon="7.754484808428755"><ele>529.0</ele><time>2026-04-16T17:35:05Z</time></trkpt><trkpt lat="44.33189602367746" lon="7.7546407531153685"><ele>529.0</ele><time>2026-04-16T17:35:06Z</time></trkpt><trkpt lat="44.33203627272008" lon="7.75480304162705"><ele>529.0</ele><time>2026-04-16T17:35:07Z</time></trkpt><trkpt lat="44.33218294701015" lon="7.754965405100325"><ele>529.3333333333334</ele><time>2026-04-16T17:35:08Z</time></trkpt><trkpt lat="44.33230834577674" lon="7.755142996605945"><ele>529.6666666666666</ele><time>2026-04-16T17:35:09Z</time></trkpt><trkpt lat="44.33243657248506" lon="7.755298135189683"><ele>530.0</ele><time>2026-04-16T17:35:10Z</time></trkpt><trkpt lat="44.33256917332576" lon="7.755458797330754"><ele>530.0</ele><time>2026-04-16T17:35:11Z</time></trkpt><trkpt lat="44.33271850270854" lon="7.755608158768774"><ele>530.0</ele><time>2026-04-16T17:35:12Z</time></trkpt><trkpt lat="44.332849216595974" lon="7.755793523535522"><ele>530.0</ele><time>2026-04-16T17:35:12.999Z</time></trkpt><trkpt lat="44.33298936471376" lon="7.755960821466178"><ele>529.6666666666666</ele><time>2026-04-16T17:35:13.999Z</time></trkpt><trkpt lat="44.33313625960525" lon="7.7561375380239435"><ele>529.3333333333334</ele><time>2026-04-16T17:35:14.999Z</time></trkpt><trkpt lat="44.33329468594027" lon="7.756302603665737"><ele>529.0</ele><time>2026-04-16T17:35:15.999Z</time></trkpt><trkpt lat="44.33344077564485" lon="7.756484994317141"><ele>529.0</ele><time>2026-04-16T17:35:16.999Z</time></trkpt><trkpt lat="44.333570694407385" lon="7.756662873679175"><ele>529.0</ele><time>2026-04-16T17:35:17.999Z</time></trkpt><trkpt lat="44.333715466514576" lon="7.7568367068469986"><ele>529.0</ele><time>2026-04-16T17:35:18.999Z</time></trkpt><trkpt lat="44.333859244473466" lon="7.75699862017181"><ele>528.3333333333334</ele><time>2026-04-16T17:35:19.999Z</time></trkpt><trkpt lat="44.334004000812406" lon="7.757148735674532"><ele>527.6666666666666</ele><time>2026-04-16T17:35:20.999Z</time></trkpt><trkpt lat="44.33416043253388" lon="7.7572953774315545"><ele>527.0</ele><time>2026-04-16T17:35:21.999Z</time></trkpt><trkpt lat="44.33431160096663" lon="7.757435493614483"><ele>527.0</ele><time>2026-04-16T17:35:22.999Z</time></trkpt><trkpt lat="44.33447124017642" lon="7.757584635550038"><ele>527.0</ele><time>2026-04-16T17:35:23.999Z</time></trkpt><trkpt lat="44.33463572467996" lon="7.757738303891786"><ele>527.0</ele><time>2026-04-16T17:35:24.999Z</time></trkpt><trkpt lat="44.33480358696277" lon="7.757896127853153"><ele>525.3333333333333</ele><time>2026-04-16T17:35:25.999Z</time></trkpt><trkpt lat="44.3349675404243" lon="7.758049754589796"><ele>523.6666666666666</ele><time>2026-04-16T17:35:26.999Z</time></trkpt><trkpt lat="44.3351201693304" lon="7.758192090292614"><ele>522.0</ele><time>2026-04-16T17:35:27.999Z</time></trkpt><trkpt lat="44.33527469846122" lon="7.7583353758781755"><ele>522.0</ele><time>2026-04-16T17:35:28.999Z</time></trkpt><trkpt lat="44.335419712129415" lon="7.75846972937248"><ele>522.0</ele><time>2026-04-16T17:35:29.999Z</time></trkpt><trkpt lat="44.3355561174723" lon="7.758598198029711"><ele>522.0</ele><time>2026-04-16T17:35:30.999Z</time></trkpt><trkpt lat="44.33569370711729" lon="7.758728512563728"><ele>521.6666666666666</ele><time>2026-04-16T17:35:31.999Z</time></trkpt><trkpt lat="44.335829065598176" lon="7.758866427238802"><ele>521.3333333333333</ele><time>2026-04-16T17:35:32.999Z</time></trkpt><trkpt lat="44.335958199553" lon="7.759029793638533"><ele>521.0</ele><time>2026-04-16T17:35:33.999Z</time></trkpt><trkpt lat="44.336071715039864" lon="7.7592078366244905"><ele>520.3333333333333</ele><time>2026-04-16T17:35:34.999Z</time></trkpt><trkpt lat="44.33617099514771" lon="7.759402905517968"><ele>519.6666666666666</ele><time>2026-04-16T17:35:35.999Z</time></trkpt><trkpt lat="44.33626341923228" lon="7.759607513379638"><ele>519.0</ele><time>2026-04-16T17:35:36.999Z</time></trkpt><trkpt lat="44.33635390394938" lon="7.759818414030021"><ele>519.0</ele><time>2026-04-16T17:35:37.999Z</time></trkpt><trkpt lat="44.33644318123327" lon="7.7600051788054865"><ele>519.0</ele><time>2026-04-16T17:35:38.999Z</time></trkpt><trkpt lat="44.33655427384462" lon="7.7601709170471596"><ele>519.0</ele><time>2026-04-16T17:35:39.999Z</time></trkpt><trkpt lat="44.336663394331865" lon="7.7603406771235095"><ele>519.0</ele><time>2026-04-16T17:35:40.999Z</time></trkpt><trkpt lat="44.336791633298056" lon="7.760488282692125"><ele>519.0</ele><time>2026-04-16T17:35:41.999Z</time></trkpt><trkpt lat="44.3369318299582" lon="7.760615683077442"><ele>519.0</ele><time>2026-04-16T17:35:42.999Z</time></trkpt><trkpt lat="44.33708550031421" lon="7.760729992906424"><ele>519.6666666666666</ele><time>2026-04-16T17:35:43.999Z</time></trkpt><trkpt lat="44.337221407805664" lon="7.760856522802432"><ele>520.3333333333333</ele><time>2026-04-16T17:35:44.999Z</time></trkpt><trkpt lat="44.33736119794583" lon="7.760940415149043"><ele>521.0</ele><time>2026-04-16T17:35:45.999Z</time></trkpt><trkpt lat="44.33749285803119" lon="7.761038666767192"><ele>521.0</ele><time>2026-04-16T17:35:46.999Z</time></trkpt><trkpt lat="44.33762739812728" lon="7.7611463017733255"><ele>521.0</ele><time>2026-04-16T17:35:47.999Z</time></trkpt><trkpt lat="44.3377583035717" lon="7.7612404302012274"><ele>521.0</ele><time>2026-04-16T17:35:48.999Z</time></trkpt><trkpt lat="44.33788528219293" lon="7.7613232025818935"><ele>521.0</ele><time>2026-04-16T17:35:49.999Z</time></trkpt><trkpt lat="44.338015375345805" lon="7.761421400465855"><ele>522.25</ele><time>2026-04-16T17:35:50.999Z</time></trkpt><trkpt lat="44.338145462983384" lon="7.761516132866498"><ele>523.5</ele><time>2026-04-16T17:35:51.999Z</time></trkpt><trkpt lat="44.33826809808443" lon="7.7616058644261825"><ele>524.75</ele><time>2026-04-16T17:35:52.999Z</time></trkpt><trkpt lat="44.33838407934676" lon="7.761695702636536"><ele>526.0</ele><time>2026-04-16T17:35:53.999Z</time></trkpt><trkpt lat="44.338498527025145" lon="7.761777598226781"><ele>525.0</ele><time>2026-04-16T17:35:54.999Z</time></trkpt><trkpt lat="44.33861658080756" lon="7.761865767945487"><ele>524.0</ele><time>2026-04-16T17:35:55.999Z</time></trkpt><trkpt lat="44.33873553712496" lon="7.761951962401418"><ele>523.0</ele><time>2026-04-16T17:35:56.999Z</time></trkpt><trkpt lat="44.3388493064361" lon="7.762035341501788"><ele>522.0</ele><time>2026-04-16T17:35:57.999Z</time></trkpt><trkpt lat="44.33895622268036" lon="7.762116645826656"><ele>522.0</ele><time>2026-04-16T17:35:58.999Z</time></trkpt><trkpt lat="44.33906509163378" lon="7.762193711775024"><ele>522.0</ele><time>2026-04-16T17:35:59.999Z</time></trkpt><trkpt lat="44.339175310886596" lon="7.762269251692646"><ele>522.0</ele><time>2026-04-16T17:36:00.999Z</time></trkpt><trkpt lat="44.33928548560911" lon="7.762345379401821"><ele>522.0</ele><time>2026-04-16T17:36:01.999Z</time></trkpt><trkpt lat="44.3393869265224" lon="7.7624197647673085"><ele>522.0</ele><time>2026-04-16T17:36:02.999Z</time></trkpt><trkpt lat="44.339482622481356" lon="7.762491107254086"><ele>522.0</ele><time>2026-04-16T17:36:03.999Z</time></trkpt><trkpt lat="44.339578087809116" lon="7.762561879156747"><ele>522.0</ele><time>2026-04-16T17:36:04.999Z</time></trkpt><trkpt lat="44.339680069005944" lon="7.762629983882466"><ele>522.0</ele><time>2026-04-16T17:36:05.999Z</time></trkpt><trkpt lat="44.339776294337895" lon="7.762700574827642"><ele>522.0</ele><time>2026-04-16T17:36:06.999Z</time></trkpt><trkpt lat="44.33986977298495" lon="7.762766464378398"><ele>520.6</ele><time>2026-04-16T17:36:07.999Z</time></trkpt><trkpt lat="44.33996806266771" lon="7.762837758654348"><ele>519.2</ele><time>2026-04-16T17:36:08.999Z</time></trkpt><trkpt lat="44.34006438199805" lon="7.76290515485114"><ele>517.8</ele><time>2026-04-16T17:36:09.999Z</time></trkpt><trkpt lat="44.34015555761824" lon="7.762971419943289"><ele>516.4</ele><time>2026-04-16T17:36:10.999Z</time></trkpt><trkpt lat="44.340251338786935" lon="7.763042051026982"><ele>515.0</ele><time>2026-04-16T17:36:11.999Z</time></trkpt><trkpt lat="44.34034373471564" lon="7.763114775915387"><ele>515.0</ele><time>2026-04-16T17:36:12.999Z</time></trkpt><trkpt lat="44.340431976811765" lon="7.76319073370941"><ele>515.0</ele><time>2026-04-16T17:36:13.999Z</time></trkpt><trkpt lat="44.340526961808536" lon="7.763265947293804"><ele>515.0</ele><time>2026-04-16T17:36:14.999Z</time></trkpt><trkpt lat="44.340624017115836" lon="7.763345032476496"><ele>515.0</ele><time>2026-04-16T17:36:16Z</time></trkpt><trkpt lat="44.34072173570596" lon="7.763429112021668"><ele>515.0</ele><time>2026-04-16T17:36:17Z</time></trkpt><trkpt lat="44.34081999140704" lon="7.7635152269262635"><ele>515.0</ele><time>2026-04-16T17:36:18Z</time></trkpt><trkpt lat="44.340905827218776" lon="7.763596318402844"><ele>515.0</ele><time>2026-04-16T17:36:19Z</time></trkpt><trkpt lat="44.34099734068168" lon="7.763688021992482"><ele>515.0</ele><time>2026-04-16T17:36:20Z</time></trkpt><trkpt lat="44.34108918559381" lon="7.763778231854919"><ele>515.0</ele><time>2026-04-16T17:36:21Z</time></trkpt><trkpt lat="44.34118602302477" lon="7.76387616878251"><ele>515.0</ele><time>2026-04-16T17:36:22Z</time></trkpt><trkpt lat="44.341278056819206" lon="7.763971914738989"><ele>515.0</ele><time>2026-04-16T17:36:23Z</time></trkpt><trkpt lat="44.34134143492799" lon="7.764057794816823"><ele>515.0</ele><time>2026-04-16T17:36:24Z</time></trkpt><trkpt lat="44.34142569994558" lon="7.76415191896504"><ele>515.0</ele><time>2026-04-16T17:36:25Z</time></trkpt><trkpt lat="44.3415216999418" lon="7.764251034374682"><ele>515.0</ele><time>2026-04-16T17:36:26Z</time></trkpt><trkpt lat="44.34160777426905" lon="7.764353594729798"><ele>515.0</ele><time>2026-04-16T17:36:27Z</time></trkpt><trkpt lat="44.34169395660028" lon="7.764451683153955"><ele>515.2</ele><time>2026-04-16T17:36:28Z</time></trkpt><trkpt lat="44.34177746578145" lon="7.7645549004858205"><ele>515.4</ele><time>2026-04-16T17:36:29Z</time></trkpt><trkpt lat="44.34186193610046" lon="7.7646592481791075"><ele>515.6</ele><time>2026-04-16T17:36:30Z</time></trkpt><trkpt lat="44.34194327075626" lon="7.7647683952595825"><ele>515.8</ele><time>2026-04-16T17:36:31Z</time></trkpt><trkpt lat="44.342014947993796" lon="7.7648772727474515"><ele>516.0</ele><time>2026-04-16T17:36:32Z</time></trkpt><trkpt lat="44.34210005899887" lon="7.764995948266281"><ele>516.0</ele><time>2026-04-16T17:36:33Z</time></trkpt><trkpt lat="44.34217121222566" lon="7.7651064104011365"><ele>516.0</ele><time>2026-04-16T17:36:34Z</time></trkpt><trkpt lat="44.342245215179645" lon="7.7652289143738695"><ele>516.0</ele><time>2026-04-16T17:36:35Z</time></trkpt><trkpt lat="44.34232131399208" lon="7.7653521284773115"><ele>516.0</ele><time>2026-04-16T17:36:36Z</time></trkpt><trkpt lat="44.34239643411363" lon="7.765478446338665"><ele>516.5</ele><time>2026-04-16T17:36:37Z</time></trkpt><trkpt lat="44.342474419235415" lon="7.76560601020515"><ele>517.0</ele><time>2026-04-16T17:36:38Z</time></trkpt><trkpt lat="44.34255237864519" lon="7.765738240913956"><ele>517.5</ele><time>2026-04-16T17:36:39Z</time></trkpt><trkpt lat="44.342636757512395" lon="7.765877472083946"><ele>518.0</ele><time>2026-04-16T17:36:40Z</time></trkpt><trkpt lat="44.34272565261975" lon="7.76601249838158"><ele>518.5</ele><time>2026-04-16T17:36:41Z</time></trkpt><trkpt lat="44.342807709167666" lon="7.766146664765122"><ele>519.0</ele><time>2026-04-16T17:36:42Z</time></trkpt><trkpt lat="44.34288578155232" lon="7.766275480052618"><ele>519.5</ele><time>2026-04-16T17:36:43Z</time></trkpt><trkpt lat="44.34297022375296" lon="7.766398176463692"><ele>520.0</ele><time>2026-04-16T17:36:44Z</time></trkpt><trkpt lat="44.343057010030144" lon="7.7665046295235936"><ele>520.0</ele><time>2026-04-16T17:36:45Z</time></trkpt><trkpt lat="44.34314847673369" lon="7.766603280795267"><ele>520.0</ele><time>2026-04-16T17:36:46Z</time></trkpt><trkpt lat="44.343253110344186" lon="7.766686925017526"><ele>520.0</ele><time>2026-04-16T17:36:47Z</time></trkpt><trkpt lat="44.34336096071443" lon="7.766742595107371"><ele>520.0</ele><time>2026-04-16T17:36:48Z</time></trkpt><trkpt lat="44.34345574815793" lon="7.766827651861952"><ele>520.0</ele><time>2026-04-16T17:36:49Z</time></trkpt><trkpt lat="44.34357857291851" lon="7.766843433616522"><ele>520.0</ele><time>2026-04-16T17:36:50Z</time></trkpt><trkpt lat="44.34369142944618" lon="7.766812113682002"><ele>520.0</ele><time>2026-04-16T17:36:51Z</time></trkpt><trkpt lat="44.34379875679508" lon="7.766811916332485"><ele>520.0</ele><time>2026-04-16T17:36:52Z</time></trkpt><trkpt lat="44.34391289414935" lon="7.766814535261477"><ele>520.5</ele><time>2026-04-16T17:36:53Z</time></trkpt><trkpt lat="44.34402939392824" lon="7.766810977335503"><ele>521.0</ele><time>2026-04-16T17:36:54Z</time></trkpt><trkpt lat="44.34415060614742" lon="7.766838351592381"><ele>521.5</ele><time>2026-04-16T17:36:55Z</time></trkpt><trkpt lat="44.34426934213703" lon="7.766830342594841"><ele>522.0</ele><time>2026-04-16T17:36:56Z</time></trkpt><trkpt lat="44.344379369111" lon="7.766805601910318"><ele>522.0</ele><time>2026-04-16T17:36:57Z</time></trkpt><trkpt lat="44.3444897784738" lon="7.7668025551466275"><ele>522.0</ele><time>2026-04-16T17:36:58Z</time></trkpt><trkpt lat="44.344602781085456" lon="7.766795941066364"><ele>522.0</ele><time>2026-04-16T17:36:59Z</time></trkpt><trkpt lat="44.344713241900706" lon="7.766786240686473"><ele>522.0</ele><time>2026-04-16T17:37:00Z</time></trkpt><trkpt lat="44.34481608633553" lon="7.766781589041816"><ele>522.0</ele><time>2026-04-16T17:37:01Z</time></trkpt><trkpt lat="44.3449270081042" lon="7.766776097934571"><ele>522.2</ele><time>2026-04-16T17:37:02Z</time></trkpt><trkpt lat="44.34503665849509" lon="7.766771465026786"><ele>522.4000000000001</ele><time>2026-04-16T17:37:03Z</time></trkpt><trkpt lat="44.34514986911032" lon="7.766763080729626"><ele>522.5999999999999</ele><time>2026-04-16T17:37:04Z</time></trkpt><trkpt lat="44.345260883589575" lon="7.766761760950587"><ele>522.8</ele><time>2026-04-16T17:37:05Z</time></trkpt><trkpt lat="44.34536620797769" lon="7.766765788371178"><ele>523.0</ele><time>2026-04-16T17:37:06Z</time></trkpt><trkpt lat="44.345471702293764" lon="7.766781799729958"><ele>522.8</ele><time>2026-04-16T17:37:07Z</time></trkpt><trkpt lat="44.34557907691064" lon="7.766815051796562"><ele>522.5999999999999</ele><time>2026-04-16T17:37:08Z</time></trkpt><trkpt lat="44.34567917626133" lon="7.7668655526391746"><ele>522.4000000000001</ele><time>2026-04-16T17:37:09Z</time></trkpt><trkpt lat="44.34577571241147" lon="7.766931268246416"><ele>522.2</ele><time>2026-04-16T17:37:10Z</time></trkpt><trkpt lat="44.34587100771112" lon="7.767011600932952"><ele>522.0</ele><time>2026-04-16T17:37:11Z</time></trkpt><trkpt lat="44.34596161186453" lon="7.767091504840272"><ele>522.0</ele><time>2026-04-16T17:37:12Z</time></trkpt><trkpt lat="44.346049139725864" lon="7.76718378798767"><ele>522.0</ele><time>2026-04-16T17:37:13Z</time></trkpt><trkpt lat="44.3461284706977" lon="7.767294231397531"><ele>522.0</ele><time>2026-04-16T17:37:14Z</time></trkpt><trkpt lat="44.34619930992849" lon="7.767415114537371"><ele>522.0</ele><time>2026-04-16T17:37:15Z</time></trkpt><trkpt lat="44.346272286196985" lon="7.767545088926986"><ele>522.0</ele><time>2026-04-16T17:37:16Z</time></trkpt><trkpt lat="44.34633641263858" lon="7.767672314100229"><ele>522.0</ele><time>2026-04-16T17:37:17Z</time></trkpt><trkpt lat="44.34639474958653" lon="7.767804441992365"><ele>522.0</ele><time>2026-04-16T17:37:18Z</time></trkpt><trkpt lat="44.34645183037794" lon="7.767932541390444"><ele>522.0</ele><time>2026-04-16T17:37:19Z</time></trkpt><trkpt lat="44.346504151682524" lon="7.768061348350174"><ele>522.0</ele><time>2026-04-16T17:37:20Z</time></trkpt><trkpt lat="44.34655873719707" lon="7.768174060063786"><ele>521.8000000000001</ele><time>2026-04-16T17:37:21Z</time></trkpt><trkpt lat="44.34660540902346" lon="7.768286844758372"><ele>521.6</ele><time>2026-04-16T17:37:22Z</time></trkpt><trkpt lat="44.34665839395366" lon="7.768405898881888"><ele>521.4000000000001</ele><time>2026-04-16T17:37:23Z</time></trkpt><trkpt lat="44.346716511813774" lon="7.768519664789624"><ele>521.2</ele><time>2026-04-16T17:37:24Z</time></trkpt><trkpt lat="44.34677951842104" lon="7.7686469098645565"><ele>521.0</ele><time>2026-04-16T17:37:24.999Z</time></trkpt><trkpt lat="44.346835938206645" lon="7.768767875079602"><ele>520.4</ele><time>2026-04-16T17:37:25.999Z</time></trkpt><trkpt lat="44.346897782036116" lon="7.7688888377861165"><ele>519.8</ele><time>2026-04-16T17:37:26.999Z</time></trkpt><trkpt lat="44.346960206394755" lon="7.7690115330386895"><ele>519.1999999999999</ele><time>2026-04-16T17:37:27.999Z</time></trkpt><trkpt lat="44.34701837907913" lon="7.76913450450711"><ele>518.6</ele><time>2026-04-16T17:37:28.999Z</time></trkpt><trkpt lat="44.347073580410914" lon="7.769247089547504"><ele>518.0</ele><time>2026-04-16T17:37:29.999Z</time></trkpt><trkpt lat="44.34712096791643" lon="7.769360701858353"><ele>517.6</ele><time>2026-04-16T17:37:30.999Z</time></trkpt><trkpt lat="44.34717311991122" lon="7.769480698607038"><ele>517.1999999999999</ele><time>2026-04-16T17:37:31.999Z</time></trkpt><trkpt lat="44.34722285352442" lon="7.769589415159541"><ele>516.8</ele><time>2026-04-16T17:37:32.999Z</time></trkpt><trkpt lat="44.34726868379396" lon="7.7696956081509105"><ele>516.4</ele><time>2026-04-16T17:37:33.999Z</time></trkpt><trkpt lat="44.347313739702464" lon="7.7697993103745455"><ele>516.0</ele><time>2026-04-16T17:37:34.999Z</time></trkpt><trkpt lat="44.34735689714085" lon="7.769900726738927"><ele>516.0</ele><time>2026-04-16T17:37:35.999Z</time></trkpt><trkpt lat="44.34739458386959" lon="7.76999993082795"><ele>516.0</ele><time>2026-04-16T17:37:36.999Z</time></trkpt><trkpt lat="44.34743065965479" lon="7.770112153930344"><ele>516.0</ele><time>2026-04-16T17:37:37.999Z</time></trkpt><trkpt lat="44.34746509331117" lon="7.770236474153208"><ele>516.0</ele><time>2026-04-16T17:37:38.999Z</time></trkpt><trkpt lat="44.34748475713716" lon="7.770365503757357"><ele>516.0</ele><time>2026-04-16T17:37:39.999Z</time></trkpt><trkpt lat="44.347532466691156" lon="7.77048255610829"><ele>515.5</ele><time>2026-04-16T17:37:40.999Z</time></trkpt><trkpt lat="44.347611036220805" lon="7.770564904445277"><ele>515.0</ele><time>2026-04-16T17:37:41.999Z</time></trkpt><trkpt lat="44.34766010230459" lon="7.770658997279694"><ele>514.5</ele><time>2026-04-16T17:37:42.999Z</time></trkpt><trkpt lat="44.34770185578459" lon="7.770760285602279"><ele>514.0</ele><time>2026-04-16T17:37:43.999Z</time></trkpt><trkpt lat="44.34773620401435" lon="7.770858307600329"><ele>513.5</ele><time>2026-04-16T17:37:44.999Z</time></trkpt><trkpt lat="44.34775594058108" lon="7.770948877072323"><ele>513.0</ele><time>2026-04-16T17:37:45.999Z</time></trkpt><trkpt lat="44.34778033166584" lon="7.771109728949042"><ele>512.1999999999999</ele><time>2026-04-16T17:37:47.999Z</time></trkpt><trkpt lat="44.34778643856859" lon="7.771275259480268"><ele>511.4</ele><time>2026-04-16T17:37:50.999Z</time></trkpt><trkpt lat="44.347772672948615" lon="7.771428168888275"><ele>510.59999999999997</ele><time>2026-04-16T17:37:52.999Z</time></trkpt><trkpt lat="44.34784780679215" lon="7.77156361454247"><ele>509.79999999999995</ele><time>2026-04-16T17:37:54.999Z</time></trkpt><trkpt lat="44.347925776091614" lon="7.771557681844007"><ele>509.0</ele><time>2026-04-16T17:37:55.999Z</time></trkpt><trkpt lat="44.348031258507916" lon="7.771604793199986"><ele>509.0</ele><time>2026-04-16T17:37:57.999Z</time></trkpt><trkpt lat="44.34813782883337" lon="7.771720848518213"><ele>509.0</ele><time>2026-04-16T17:37:59.999Z</time></trkpt><trkpt lat="44.34820034416024" lon="7.771798302389895"><ele>509.0</ele><time>2026-04-16T17:38:00.999Z</time></trkpt><trkpt lat="44.3482624423675" lon="7.771879639988263"><ele>509.0</ele><time>2026-04-16T17:38:01.999Z</time></trkpt><trkpt lat="44.34831758916821" lon="7.771954090692573"><ele>509.0</ele><time>2026-04-16T17:38:02.999Z</time></trkpt><trkpt lat="44.348379401582484" lon="7.7720299869753795"><ele>508.99999999999994</ele><time>2026-04-16T17:38:03.999Z</time></trkpt><trkpt lat="44.34842935237278" lon="7.772112853014175"><ele>509.0</ele><time>2026-04-16T17:38:04.999Z</time></trkpt><trkpt lat="44.34847439730956" lon="7.772184319430441"><ele>509.0</ele><time>2026-04-16T17:38:05.999Z</time></trkpt><trkpt lat="44.34851498543983" lon="7.772255844012543"><ele>509.0</ele><time>2026-04-16T17:38:06.999Z</time></trkpt><trkpt lat="44.348563958270184" lon="7.772338955837637"><ele>508.99999999999994</ele><time>2026-04-16T17:38:07.999Z</time></trkpt><trkpt lat="44.348617531002475" lon="7.7724356336745"><ele>509.0</ele><time>2026-04-16T17:38:08.999Z</time></trkpt><trkpt lat="44.34867205028083" lon="7.772552664757118"><ele>509.0</ele><time>2026-04-16T17:38:09.999Z</time></trkpt><trkpt lat="44.34872693956681" lon="7.7726737206838115"><ele>509.0</ele><time>2026-04-16T17:38:10.999Z</time></trkpt><trkpt lat="44.34877895518028" lon="7.772807416972844"><ele>509.0</ele><time>2026-04-16T17:38:11.999Z</time></trkpt><trkpt lat="44.34882960858832" lon="7.772931263524693"><ele>509.0</ele><time>2026-04-16T17:38:12.999Z</time></trkpt><trkpt lat="44.34888341117744" lon="7.773056327519363"><ele>509.0</ele><time>2026-04-16T17:38:13.999Z</time></trkpt><trkpt lat="44.348946813071024" lon="7.773171284062587"><ele>509.2</ele><time>2026-04-16T17:38:14.999Z</time></trkpt><trkpt lat="44.34898718284138" lon="7.773302340517377"><ele>509.4</ele><time>2026-04-16T17:38:15.999Z</time></trkpt><trkpt lat="44.34903937856797" lon="7.773426028853669"><ele>509.6</ele><time>2026-04-16T17:38:16.999Z</time></trkpt><trkpt lat="44.34909416505397" lon="7.773547635394464"><ele>509.8</ele><time>2026-04-16T17:38:17.999Z</time></trkpt><trkpt lat="44.34914804627962" lon="7.773677209588874"><ele>510.0</ele><time>2026-04-16T17:38:18.999Z</time></trkpt><trkpt lat="44.34919447292524" lon="7.7738081774191"><ele>509.6</ele><time>2026-04-16T17:38:19.999Z</time></trkpt><trkpt lat="44.349241741993495" lon="7.773931010721888"><ele>509.2</ele><time>2026-04-16T17:38:20.999Z</time></trkpt><trkpt lat="44.34929279112128" lon="7.774059631193424"><ele>508.79999999999995</ele><time>2026-04-16T17:38:22.001Z</time></trkpt><trkpt lat="44.34934676371054" lon="7.774186247662469"><ele>508.4</ele><time>2026-04-16T17:38:23.001Z</time></trkpt><trkpt lat="44.34940216816128" lon="7.77431389727533"><ele>508.0</ele><time>2026-04-16T17:38:24.001Z</time></trkpt><trkpt lat="44.34945488355089" lon="7.774436275830519"><ele>507.79999999999995</ele><time>2026-04-16T17:38:25.001Z</time></trkpt><trkpt lat="44.349510645687594" lon="7.774560244807434"><ele>507.59999999999997</ele><time>2026-04-16T17:38:26.001Z</time></trkpt><trkpt lat="44.34956615216989" lon="7.774694559738891"><ele>507.40000000000003</ele><time>2026-04-16T17:38:27.001Z</time></trkpt><trkpt lat="44.34961771529039" lon="7.774813419804009"><ele>507.20000000000005</ele><time>2026-04-16T17:38:28.001Z</time></trkpt><trkpt lat="44.349671439718215" lon="7.774931770236419"><ele>507.0</ele><time>2026-04-16T17:38:29.001Z</time></trkpt><trkpt lat="44.34972703581421" lon="7.775059170501467"><ele>507.0</ele><time>2026-04-16T17:38:30Z</time></trkpt><trkpt lat="44.34978176292039" lon="7.775185972318541"><ele>507.00000000000006</ele><time>2026-04-16T17:38:31Z</time></trkpt><trkpt lat="44.349840948526314" lon="7.7753147271131535"><ele>507.00000000000006</ele><time>2026-04-16T17:38:32Z</time></trkpt><trkpt lat="44.34989663586448" lon="7.775437028218251"><ele>507.0</ele><time>2026-04-16T17:38:33Z</time></trkpt><trkpt lat="44.34994571753167" lon="7.775551713164199"><ele>507.0</ele><time>2026-04-16T17:38:34Z</time></trkpt><trkpt lat="44.34999460111195" lon="7.775668088341313"><ele>506.6</ele><time>2026-04-16T17:38:35Z</time></trkpt><trkpt lat="44.35005016207732" lon="7.775803387863277"><ele>506.20000000000005</ele><time>2026-04-16T17:38:36Z</time></trkpt><trkpt lat="44.35010778252331" lon="7.775933696453229"><ele>505.8</ele><time>2026-04-16T17:38:37Z</time></trkpt><trkpt lat="44.35016556402735" lon="7.776054618189626"><ele>505.4</ele><time>2026-04-16T17:38:38Z</time></trkpt><trkpt lat="44.350221937678555" lon="7.776180515789835"><ele>505.0</ele><time>2026-04-16T17:38:39Z</time></trkpt><trkpt lat="44.350278954327464" lon="7.776309197335455"><ele>505.0</ele><time>2026-04-16T17:38:40Z</time></trkpt><trkpt lat="44.35033185378185" lon="7.776447079509094"><ele>505.0</ele><time>2026-04-16T17:38:41Z</time></trkpt><trkpt lat="44.35039267258822" lon="7.776577151965583"><ele>505.0</ele><time>2026-04-16T17:38:42Z</time></trkpt><trkpt lat="44.35045077748834" lon="7.776710466043571"><ele>505.0</ele><time>2026-04-16T17:38:43Z</time></trkpt><trkpt lat="44.35050591537091" lon="7.7768402572486695"><ele>505.0</ele><time>2026-04-16T17:38:44Z</time></trkpt><trkpt lat="44.35056125474227" lon="7.776961882553748"><ele>504.4</ele><time>2026-04-16T17:38:45Z</time></trkpt><trkpt lat="44.35061988442122" lon="7.777090798839591"><ele>503.8</ele><time>2026-04-16T17:38:46Z</time></trkpt><trkpt lat="44.35067701662732" lon="7.777218666288149"><ele>503.20000000000005</ele><time>2026-04-16T17:38:47Z</time></trkpt><trkpt lat="44.3507364680768" lon="7.777349374933948"><ele>502.6</ele><time>2026-04-16T17:38:48Z</time></trkpt><trkpt lat="44.35079833028379" lon="7.777479446153515"><ele>502.0</ele><time>2026-04-16T17:38:49Z</time></trkpt><trkpt lat="44.35085191127246" lon="7.777602355575251"><ele>501.40000000000003</ele><time>2026-04-16T17:38:50Z</time></trkpt><trkpt lat="44.350905108563985" lon="7.777724950708002"><ele>500.80000000000007</ele><time>2026-04-16T17:38:51Z</time></trkpt><trkpt lat="44.35096157626634" lon="7.777850503928611"><ele>500.2</ele><time>2026-04-16T17:38:52Z</time></trkpt><trkpt lat="44.35101802871979" lon="7.777971787664888"><ele>499.6</ele><time>2026-04-16T17:38:53Z</time></trkpt><trkpt lat="44.35107352378335" lon="7.778096683008077"><ele>499.0</ele><time>2026-04-16T17:38:54Z</time></trkpt><trkpt lat="44.3511307693228" lon="7.77822148188026"><ele>499.0</ele><time>2026-04-16T17:38:55Z</time></trkpt><trkpt lat="44.35118811300433" lon="7.778349911883645"><ele>499.0</ele><time>2026-04-16T17:38:56Z</time></trkpt><trkpt lat="44.35124098247136" lon="7.778469917958637"><ele>499.0</ele><time>2026-04-16T17:38:57Z</time></trkpt><trkpt lat="44.35129552047677" lon="7.778588842683836"><ele>499.0</ele><time>2026-04-16T17:38:58Z</time></trkpt><trkpt lat="44.35134828917033" lon="7.77871191546617"><ele>499.0</ele><time>2026-04-16T17:38:59Z</time></trkpt><trkpt lat="44.35140404252089" lon="7.778840940843374"><ele>499.2</ele><time>2026-04-16T17:39:00Z</time></trkpt><trkpt lat="44.35145590988165" lon="7.778952557132795"><ele>499.4</ele><time>2026-04-16T17:39:01Z</time></trkpt><trkpt lat="44.35150604606347" lon="7.779068378707882"><ele>499.6</ele><time>2026-04-16T17:39:02Z</time></trkpt><trkpt lat="44.35155665005137" lon="7.779178370771716"><ele>499.8</ele><time>2026-04-16T17:39:03Z</time></trkpt><trkpt lat="44.35160752114586" lon="7.779293900218634"><ele>500.0</ele><time>2026-04-16T17:39:04Z</time></trkpt><trkpt lat="44.35166057391907" lon="7.779410716613332"><ele>499.6</ele><time>2026-04-16T17:39:05Z</time></trkpt><trkpt lat="44.35171701270161" lon="7.779528313992523"><ele>499.2</ele><time>2026-04-16T17:39:06Z</time></trkpt><trkpt lat="44.35176834746364" lon="7.779643269357358"><ele>498.79999999999995</ele><time>2026-04-16T17:39:07Z</time></trkpt><trkpt lat="44.35182325355204" lon="7.7797633022604975"><ele>498.4</ele><time>2026-04-16T17:39:08Z</time></trkpt><trkpt lat="44.35187933374502" lon="7.7798875527846425"><ele>498.0</ele><time>2026-04-16T17:39:09Z</time></trkpt><trkpt lat="44.351940297721086" lon="7.7800128587671225"><ele>498.0</ele><time>2026-04-16T17:39:10Z</time></trkpt><trkpt lat="44.35199557456886" lon="7.7801348042526435"><ele>497.99999999999994</ele><time>2026-04-16T17:39:11Z</time></trkpt><trkpt lat="44.352053634196764" lon="7.780258910490932"><ele>497.99999999999994</ele><time>2026-04-16T17:39:12Z</time></trkpt><trkpt lat="44.35211085268853" lon="7.780386254946599"><ele>498.0</ele><time>2026-04-16T17:39:13Z</time></trkpt><trkpt lat="44.35216655843778" lon="7.780504270611173"><ele>498.0</ele><time>2026-04-16T17:39:14Z</time></trkpt><trkpt lat="44.35222215745502" lon="7.780626960728567"><ele>498.0</ele><time>2026-04-16T17:39:15Z</time></trkpt><trkpt lat="44.35227598987752" lon="7.780750832759796"><ele>497.99999999999994</ele><time>2026-04-16T17:39:16Z</time></trkpt><trkpt lat="44.35233377637612" lon="7.7808787864194064"><ele>497.99999999999994</ele><time>2026-04-16T17:39:17Z</time></trkpt><trkpt lat="44.35238749583941" lon="7.781001473371918"><ele>498.0</ele><time>2026-04-16T17:39:18Z</time></trkpt><trkpt lat="44.3524409227503" lon="7.781130472478147"><ele>498.0</ele><time>2026-04-16T17:39:19Z</time></trkpt><trkpt lat="44.35249538332727" lon="7.781262414663423"><ele>498.2</ele><time>2026-04-16T17:39:20Z</time></trkpt><trkpt lat="44.352551910357526" lon="7.781389381630616"><ele>498.4</ele><time>2026-04-16T17:39:21Z</time></trkpt><trkpt lat="44.352604116187585" lon="7.781515526441418"><ele>498.59999999999997</ele><time>2026-04-16T17:39:22Z</time></trkpt><trkpt lat="44.35265761687223" lon="7.781645878168817"><ele>498.79999999999995</ele><time>2026-04-16T17:39:23Z</time></trkpt><trkpt lat="44.35270853559893" lon="7.781773533072957"><ele>499.0</ele><time>2026-04-16T17:39:24Z</time></trkpt><trkpt lat="44.35275758800128" lon="7.78190045421932"><ele>499.0</ele><time>2026-04-16T17:39:25Z</time></trkpt><trkpt lat="44.35281217915391" lon="7.782020318330459"><ele>499.0</ele><time>2026-04-16T17:39:26Z</time></trkpt><trkpt lat="44.352867652546344" lon="7.782144401181505"><ele>499.0</ele><time>2026-04-16T17:39:27Z</time></trkpt><trkpt lat="44.35291607999737" lon="7.782260618285104"><ele>499.0</ele><time>2026-04-16T17:39:28Z</time></trkpt><trkpt lat="44.35297174570501" lon="7.782384488502515"><ele>499.0</ele><time>2026-04-16T17:39:29Z</time></trkpt><trkpt lat="44.35302692048521" lon="7.782508436472723"><ele>498.79999999999995</ele><time>2026-04-16T17:39:30Z</time></trkpt><trkpt lat="44.35307745301237" lon="7.782636897683161"><ele>498.59999999999997</ele><time>2026-04-16T17:39:31Z</time></trkpt><trkpt lat="44.353134131763454" lon="7.782764563263706"><ele>498.4</ele><time>2026-04-16T17:39:31.999Z</time></trkpt><trkpt lat="44.35318873601414" lon="7.782887464785158"><ele>498.2</ele><time>2026-04-16T17:39:32.999Z</time></trkpt><trkpt lat="44.35324481062394" lon="7.783007834126148"><ele>498.0</ele><time>2026-04-16T17:39:33.999Z</time></trkpt><trkpt lat="44.35330630374427" lon="7.78313543351104"><ele>497.79999999999995</ele><time>2026-04-16T17:39:34.999Z</time></trkpt><trkpt lat="44.35336589251095" lon="7.783265420386071"><ele>497.59999999999997</ele><time>2026-04-16T17:39:35.999Z</time></trkpt><trkpt lat="44.35342759690989" lon="7.783394729466452"><ele>497.40000000000003</ele><time>2026-04-16T17:39:36.999Z</time></trkpt><trkpt lat="44.353492049156344" lon="7.783522657844111"><ele>497.20000000000005</ele><time>2026-04-16T17:39:37.999Z</time></trkpt><trkpt lat="44.35355860361919" lon="7.78365488317712"><ele>497.0</ele><time>2026-04-16T17:39:38.999Z</time></trkpt><trkpt lat="44.35362743315358" lon="7.783783869550423"><ele>497.25</ele><time>2026-04-16T17:39:39.999Z</time></trkpt><trkpt lat="44.35369204432419" lon="7.783917103143736"><ele>497.5</ele><time>2026-04-16T17:39:40.999Z</time></trkpt><trkpt lat="44.35376003086523" lon="7.784052655195876"><ele>497.75</ele><time>2026-04-16T17:39:41.999Z</time></trkpt><trkpt lat="44.35382817456464" lon="7.784190566708936"><ele>498.0</ele><time>2026-04-16T17:39:42.999Z</time></trkpt><trkpt lat="44.353896608183646" lon="7.784324863468955"><ele>497.4</ele><time>2026-04-16T17:39:43.999Z</time></trkpt><trkpt lat="44.353956873616454" lon="7.784457236091243"><ele>496.79999999999995</ele><time>2026-04-16T17:39:44.999Z</time></trkpt><trkpt lat="44.35401995166737" lon="7.784586070433458"><ele>496.2</ele><time>2026-04-16T17:39:45.999Z</time></trkpt><trkpt lat="44.3540820751375" lon="7.784714174701608"><ele>495.6</ele><time>2026-04-16T17:39:46.999Z</time></trkpt><trkpt lat="44.35414439494186" lon="7.784840505004811"><ele>495.0</ele><time>2026-04-16T17:39:47.999Z</time></trkpt><trkpt lat="44.35420080555501" lon="7.784960853958933"><ele>495.0</ele><time>2026-04-16T17:39:48.999Z</time></trkpt><trkpt lat="44.354257254618304" lon="7.7850847476714575"><ele>495.0</ele><time>2026-04-16T17:39:49.999Z</time></trkpt><trkpt lat="44.354318176016704" lon="7.785208100482424"><ele>495.0</ele><time>2026-04-16T17:39:50.999Z</time></trkpt><trkpt lat="44.35437374126701" lon="7.785322118365915"><ele>495.0</ele><time>2026-04-16T17:39:51.999Z</time></trkpt><trkpt lat="44.35442285342051" lon="7.785438531374421"><ele>495.0</ele><time>2026-04-16T17:39:52.999Z</time></trkpt><trkpt lat="44.35447236853657" lon="7.785571094482473"><ele>494.5</ele><time>2026-04-16T17:39:53.999Z</time></trkpt><trkpt lat="44.354532492610105" lon="7.785691176971383"><ele>494.0</ele><time>2026-04-16T17:39:54.999Z</time></trkpt><trkpt lat="44.35461307514057" lon="7.785802418901579"><ele>493.5</ele><time>2026-04-16T17:39:55.999Z</time></trkpt><trkpt lat="44.35470749031783" lon="7.785904346851048"><ele>493.0</ele><time>2026-04-16T17:39:56.999Z</time></trkpt><trkpt lat="44.35481402160342" lon="7.786005488125704"><ele>492.5</ele><time>2026-04-16T17:39:57.999Z</time></trkpt><trkpt lat="44.3549252740713" lon="7.7861144783170975"><ele>492.0</ele><time>2026-04-16T17:39:58.999Z</time></trkpt><trkpt lat="44.35503945984716" lon="7.786226887902176"><ele>491.5</ele><time>2026-04-16T17:39:59.999Z</time></trkpt><trkpt lat="44.355150561911586" lon="7.786360390921504"><ele>491.0</ele><time>2026-04-16T17:40:00.999Z</time></trkpt><trkpt lat="44.355277502110134" lon="7.7864810227188475"><ele>491.0</ele><time>2026-04-16T17:40:01.999Z</time></trkpt><trkpt lat="44.35540485265661" lon="7.786599137211132"><ele>491.0</ele><time>2026-04-16T17:40:02.999Z</time></trkpt><trkpt lat="44.35553836725217" lon="7.786725299597893"><ele>491.0</ele><time>2026-04-16T17:40:03.999Z</time></trkpt><trkpt lat="44.355677621420575" lon="7.786860178423488"><ele>489.66666666666663</ele><time>2026-04-16T17:40:04.999Z</time></trkpt><trkpt lat="44.35582084608819" lon="7.786998750273505"><ele>488.33333333333337</ele><time>2026-04-16T17:40:05.999Z</time></trkpt><trkpt lat="44.35595314326702" lon="7.787116266414032"><ele>487.0</ele><time>2026-04-16T17:40:06.999Z</time></trkpt><trkpt lat="44.356101038469795" lon="7.787260346346866"><ele>487.0</ele><time>2026-04-16T17:40:07.999Z</time></trkpt><trkpt lat="44.356228547256066" lon="7.787371026036489"><ele>487.0</ele><time>2026-04-16T17:40:08.999Z</time></trkpt><trkpt lat="44.35635223231839" lon="7.787490737653337"><ele>487.0</ele><time>2026-04-16T17:40:09.999Z</time></trkpt><trkpt lat="44.35646927287732" lon="7.78759536790891"><ele>487.0</ele><time>2026-04-16T17:40:10.999Z</time></trkpt><trkpt lat="44.35657325481266" lon="7.787685817302748"><ele>486.8</ele><time>2026-04-16T17:40:11.999Z</time></trkpt><trkpt lat="44.35666324873081" lon="7.787777153731238"><ele>486.6</ele><time>2026-04-16T17:40:12.999Z</time></trkpt><trkpt lat="44.356739009206514" lon="7.787861918043899"><ele>486.40000000000003</ele><time>2026-04-16T17:40:13.999Z</time></trkpt><trkpt lat="44.356797477223594" lon="7.787949322621741"><ele>486.20000000000005</ele><time>2026-04-16T17:40:14.999Z</time></trkpt><trkpt lat="44.356848330118" lon="7.7880433539841185"><ele>486.0</ele><time>2026-04-16T17:40:15.999Z</time></trkpt><trkpt lat="44.35688914358272" lon="7.788142632408684"><ele>486.0</ele><time>2026-04-16T17:40:16.999Z</time></trkpt><trkpt lat="44.35693825260134" lon="7.788222659573195"><ele>486.0</ele><time>2026-04-16T17:40:17.999Z</time></trkpt><trkpt lat="44.35700321804967" lon="7.788261630652753"><ele>486.0</ele><time>2026-04-16T17:40:18.999Z</time></trkpt><trkpt lat="44.35708569273139" lon="7.788294912490523"><ele>486.0</ele><time>2026-04-16T17:40:19.999Z</time></trkpt><trkpt lat="44.35718532257202" lon="7.788320201607777"><ele>486.0</ele><time>2026-04-16T17:40:20.999Z</time></trkpt><trkpt lat="44.35729074430857" lon="7.788372145537203"><ele>486.0</ele><time>2026-04-16T17:40:21.999Z</time></trkpt><trkpt lat="44.35739607957502" lon="7.788452098208722"><ele>485.5</ele><time>2026-04-16T17:40:22.999Z</time></trkpt><trkpt lat="44.357500145410874" lon="7.788539759898326"><ele>485.0</ele><time>2026-04-16T17:40:23.999Z</time></trkpt><trkpt lat="44.357612236369725" lon="7.7886482046752885"><ele>484.5</ele><time>2026-04-16T17:40:24.999Z</time></trkpt><trkpt lat="44.35773383370833" lon="7.78876434676031"><ele>484.0</ele><time>2026-04-16T17:40:25.999Z</time></trkpt><trkpt lat="44.35785448457425" lon="7.788880355282262"><ele>484.0</ele><time>2026-04-16T17:40:26.999Z</time></trkpt><trkpt lat="44.35798534085396" lon="7.789008087462586"><ele>484.0</ele><time>2026-04-16T17:40:28.001Z</time></trkpt><trkpt lat="44.3581229719134" lon="7.789145532470562"><ele>484.0</ele><time>2026-04-16T17:40:29.001Z</time></trkpt><trkpt lat="44.35825980984668" lon="7.789276308168043"><ele>483.33333333333337</ele><time>2026-04-16T17:40:30Z</time></trkpt><trkpt lat="44.35840329993139" lon="7.789409747383006"><ele>482.66666666666663</ele><time>2026-04-16T17:40:31Z</time></trkpt><trkpt lat="44.35855063094722" lon="7.789549077496985"><ele>482.0</ele><time>2026-04-16T17:40:32Z</time></trkpt><trkpt lat="44.3587033836324" lon="7.789695045648326"><ele>482.0</ele><time>2026-04-16T17:40:33Z</time></trkpt><trkpt lat="44.358854992354196" lon="7.789832857013642"><ele>482.0</ele><time>2026-04-16T17:40:34Z</time></trkpt><trkpt lat="44.35900705966007" lon="7.789974709457058"><ele>482.0</ele><time>2026-04-16T17:40:35Z</time></trkpt><trkpt lat="44.35915855292207" lon="7.790114765317158"><ele>483.0</ele><time>2026-04-16T17:40:36Z</time></trkpt><trkpt lat="44.3593077579677" lon="7.790257038050376"><ele>484.0</ele><time>2026-04-16T17:40:37Z</time></trkpt><trkpt lat="44.35945865493299" lon="7.790403262138014"><ele>485.0</ele><time>2026-04-16T17:40:38Z</time></trkpt><trkpt lat="44.35961265065963" lon="7.790543284831581"><ele>484.0</ele><time>2026-04-16T17:40:39Z</time></trkpt><trkpt lat="44.359765907376286" lon="7.790688258247013"><ele>483.0</ele><time>2026-04-16T17:40:40Z</time></trkpt><trkpt lat="44.359918796500786" lon="7.790835509054944"><ele>482.0</ele><time>2026-04-16T17:40:41Z</time></trkpt><trkpt lat="44.36007031135847" lon="7.790981154606223"><ele>482.3333333333333</ele><time>2026-04-16T17:40:42Z</time></trkpt><trkpt lat="44.36022399873199" lon="7.791121929740184"><ele>482.66666666666663</ele><time>2026-04-16T17:40:43Z</time></trkpt><trkpt lat="44.36038072563992" lon="7.791268568169576"><ele>483.0</ele><time>2026-04-16T17:40:44Z</time></trkpt><trkpt lat="44.3605361922366" lon="7.791413286872016"><ele>482.66666666666663</ele><time>2026-04-16T17:40:45Z</time></trkpt><trkpt lat="44.360695615196356" lon="7.791563082375411"><ele>482.3333333333333</ele><time>2026-04-16T17:40:46Z</time></trkpt><trkpt lat="44.36085265941137" lon="7.7917079395249695"><ele>482.0</ele><time>2026-04-16T17:40:47Z</time></trkpt><trkpt lat="44.36101120756233" lon="7.791847040513676"><ele>482.0</ele><time>2026-04-16T17:40:48Z</time></trkpt><trkpt lat="44.361168642323754" lon="7.791991063937497"><ele>482.0</ele><time>2026-04-16T17:40:49Z</time></trkpt><trkpt lat="44.36132674342897" lon="7.792136690006177"><ele>482.0</ele><time>2026-04-16T17:40:50Z</time></trkpt><trkpt lat="44.361481370896655" lon="7.79228726685013"><ele>482.0</ele><time>2026-04-16T17:40:51Z</time></trkpt><trkpt lat="44.36163758673806" lon="7.792439212170971"><ele>482.0</ele><time>2026-04-16T17:40:52Z</time></trkpt><trkpt lat="44.361795694600296" lon="7.792578201755758"><ele>482.0</ele><time>2026-04-16T17:40:53Z</time></trkpt><trkpt lat="44.36195612657626" lon="7.792721859194939"><ele>482.0</ele><time>2026-04-16T17:40:54Z</time></trkpt><trkpt lat="44.3621094357513" lon="7.792869492099502"><ele>482.0</ele><time>2026-04-16T17:40:55Z</time></trkpt><trkpt lat="44.36225522075465" lon="7.793031280169714"><ele>482.0</ele><time>2026-04-16T17:40:56Z</time></trkpt><trkpt lat="44.36241371304884" lon="7.793179478483354"><ele>481.66666666666663</ele><time>2026-04-16T17:40:57Z</time></trkpt><trkpt lat="44.36257229007278" lon="7.793326753485895"><ele>481.33333333333337</ele><time>2026-04-16T17:40:58Z</time></trkpt><trkpt lat="44.362726260294686" lon="7.793469749993898"><ele>481.0</ele><time>2026-04-16T17:40:59Z</time></trkpt><trkpt lat="44.36288167322204" lon="7.793614086465487"><ele>480.33333333333337</ele><time>2026-04-16T17:41:00Z</time></trkpt><trkpt lat="44.363035585587106" lon="7.793758729316845"><ele>479.66666666666663</ele><time>2026-04-16T17:41:01Z</time></trkpt><trkpt lat="44.36319212348281" lon="7.793906580629252"><ele>479.0</ele><time>2026-04-16T17:41:02Z</time></trkpt><trkpt lat="44.363338463344604" lon="7.794045023447087"><ele>479.0</ele><time>2026-04-16T17:41:03Z</time></trkpt><trkpt lat="44.36349268642479" lon="7.794190357980451"><ele>479.0</ele><time>2026-04-16T17:41:04Z</time></trkpt><trkpt lat="44.36364398961783" lon="7.794333017550677"><ele>479.0</ele><time>2026-04-16T17:41:05Z</time></trkpt><trkpt lat="44.3637967619768" lon="7.7944770623984745"><ele>478.0</ele><time>2026-04-16T17:41:06Z</time></trkpt><trkpt lat="44.36395279343609" lon="7.794624180174505"><ele>477.0</ele><time>2026-04-16T17:41:07Z</time></trkpt><trkpt lat="44.36410537375332" lon="7.794767764032776"><ele>476.0</ele><time>2026-04-16T17:41:08Z</time></trkpt><trkpt lat="44.364262003314415" lon="7.794914952606955"><ele>476.0</ele><time>2026-04-16T17:41:09Z</time></trkpt><trkpt lat="44.36441611588367" lon="7.7950597758438676"><ele>476.0</ele><time>2026-04-16T17:41:10Z</time></trkpt><trkpt lat="44.36457006279462" lon="7.795204443436757"><ele>476.0</ele><time>2026-04-16T17:41:11Z</time></trkpt><trkpt lat="44.36472623594541" lon="7.795351203114942"><ele>476.3333333333333</ele><time>2026-04-16T17:41:12Z</time></trkpt><trkpt lat="44.364879782861394" lon="7.79549549476603"><ele>476.66666666666663</ele><time>2026-04-16T17:41:13Z</time></trkpt><trkpt lat="44.36504032274723" lon="7.795646358037029"><ele>477.0</ele><time>2026-04-16T17:41:14Z</time></trkpt><trkpt lat="44.36519623084508" lon="7.795792868508654"><ele>477.0</ele><time>2026-04-16T17:41:15Z</time></trkpt><trkpt lat="44.365354665631656" lon="7.795941753504118"><ele>477.0</ele><time>2026-04-16T17:41:16Z</time></trkpt><trkpt lat="44.36551363776424" lon="7.796091143416702"><ele>477.0</ele><time>2026-04-16T17:41:17Z</time></trkpt><trkpt lat="44.365667861405655" lon="7.796236618946139"><ele>476.66666666666663</ele><time>2026-04-16T17:41:18Z</time></trkpt><trkpt lat="44.36580886520359" lon="7.796369836359771"><ele>476.3333333333333</ele><time>2026-04-16T17:41:19Z</time></trkpt><trkpt lat="44.365947314493646" lon="7.796500640042285"><ele>476.0</ele><time>2026-04-16T17:41:20Z</time></trkpt><trkpt lat="44.36608407267007" lon="7.796629846014246"><ele>476.0</ele><time>2026-04-16T17:41:21Z</time></trkpt><trkpt lat="44.36621243585119" lon="7.796751117297095"><ele>476.0</ele><time>2026-04-16T17:41:22Z</time></trkpt><trkpt lat="44.36634906281842" lon="7.79683760184536"><ele>476.0</ele><time>2026-04-16T17:41:23Z</time></trkpt><trkpt lat="44.36646796530951" lon="7.79695252384724"><ele>476.0</ele><time>2026-04-16T17:41:24Z</time></trkpt><trkpt lat="44.366586271771126" lon="7.797069218299193"><ele>475.5</ele><time>2026-04-16T17:41:25Z</time></trkpt><trkpt lat="44.36669662650861" lon="7.797166139895891"><ele>475.0</ele><time>2026-04-16T17:41:26Z</time></trkpt><trkpt lat="44.36679614975748" lon="7.797264866341297"><ele>474.5</ele><time>2026-04-16T17:41:27Z</time></trkpt><trkpt lat="44.366881102743776" lon="7.797379731281649"><ele>474.0</ele><time>2026-04-16T17:41:28Z</time></trkpt><trkpt lat="44.36698159144293" lon="7.797446437095044"><ele>474.0</ele><time>2026-04-16T17:41:29Z</time></trkpt><trkpt lat="44.36706612485511" lon="7.797525957879076"><ele>474.0</ele><time>2026-04-16T17:41:30Z</time></trkpt><trkpt lat="44.36714286988828" lon="7.7976082891726834"><ele>474.0</ele><time>2026-04-16T17:41:30.999Z</time></trkpt><trkpt lat="44.367215859848876" lon="7.797690590925509"><ele>474.0</ele><time>2026-04-16T17:41:31.999Z</time></trkpt><trkpt lat="44.367278318016375" lon="7.797771544072197"><ele>474.0</ele><time>2026-04-16T17:41:32.999Z</time></trkpt><trkpt lat="44.367324611789684" lon="7.797854346932652"><ele>473.6666666666667</ele><time>2026-04-16T17:41:33.999Z</time></trkpt><trkpt lat="44.36735088900899" lon="7.797944397235432"><ele>473.33333333333337</ele><time>2026-04-16T17:41:34.999Z</time></trkpt><trkpt lat="44.36736138881553" lon="7.798053596310685"><ele>473.0</ele><time>2026-04-16T17:41:35.999Z</time></trkpt><trkpt lat="44.36736906815007" lon="7.798177303650021"><ele>472.6666666666667</ele><time>2026-04-16T17:41:36.999Z</time></trkpt><trkpt lat="44.367385154320786" lon="7.798295554059843"><ele>472.33333333333337</ele><time>2026-04-16T17:41:37.999Z</time></trkpt><trkpt lat="44.36738747347741" lon="7.798410771922338"><ele>472.0</ele><time>2026-04-16T17:41:38.999Z</time></trkpt><trkpt lat="44.367423822068524" lon="7.798518341257346"><ele>471.40000000000003</ele><time>2026-04-16T17:41:39.999Z</time></trkpt><trkpt lat="44.36748109387438" lon="7.798610975061937"><ele>470.80000000000007</ele><time>2026-04-16T17:41:40.999Z</time></trkpt><trkpt lat="44.367557142885" lon="7.7986871853445505"><ele>470.2</ele><time>2026-04-16T17:41:41.999Z</time></trkpt><trkpt lat="44.3676516430755" lon="7.798724553971318"><ele>469.6</ele><time>2026-04-16T17:41:42.999Z</time></trkpt><trkpt lat="44.367754511420515" lon="7.798724187816489"><ele>469.0</ele><time>2026-04-16T17:41:43.999Z</time></trkpt><trkpt lat="44.36785660222167" lon="7.798688452451135"><ele>469.0</ele><time>2026-04-16T17:41:44.999Z</time></trkpt><trkpt lat="44.367951634935714" lon="7.798625210226654"><ele>469.0</ele><time>2026-04-16T17:41:45.999Z</time></trkpt><trkpt lat="44.36804711186845" lon="7.798607028499019"><ele>469.0</ele><time>2026-04-16T17:41:46.999Z</time></trkpt><trkpt lat="44.368152117688915" lon="7.798624563102693"><ele>469.0</ele><time>2026-04-16T17:41:47.999Z</time></trkpt><trkpt lat="44.36826339863083" lon="7.798678332863377"><ele>469.0</ele><time>2026-04-16T17:41:48.999Z</time></trkpt><trkpt lat="44.368362318052014" lon="7.7987926019606455"><ele>469.25</ele><time>2026-04-16T17:41:49.999Z</time></trkpt><trkpt lat="44.36846482642954" lon="7.798895041200728"><ele>469.5</ele><time>2026-04-16T17:41:50.999Z</time></trkpt><trkpt lat="44.36857601813242" lon="7.7990055189810175"><ele>469.75</ele><time>2026-04-16T17:41:51.999Z</time></trkpt><trkpt lat="44.36869082192239" lon="7.799120077517867"><ele>470.0</ele><time>2026-04-16T17:41:52.999Z</time></trkpt><trkpt lat="44.36881080685712" lon="7.799239806185179"><ele>469.66666666666663</ele><time>2026-04-16T17:41:53.999Z</time></trkpt><trkpt lat="44.36893350775591" lon="7.7993496096970905"><ele>469.33333333333337</ele><time>2026-04-16T17:41:54.999Z</time></trkpt><trkpt lat="44.369057376210314" lon="7.799479141877095"><ele>469.0</ele><time>2026-04-16T17:41:55.999Z</time></trkpt><trkpt lat="44.36918817428849" lon="7.799612077346353"><ele>469.0</ele><time>2026-04-16T17:41:56.999Z</time></trkpt><trkpt lat="44.36931910625944" lon="7.79973651657009"><ele>469.0</ele><time>2026-04-16T17:41:57.999Z</time></trkpt><trkpt lat="44.36943058269452" lon="7.799870425948835"><ele>469.0</ele><time>2026-04-16T17:41:58.999Z</time></trkpt><trkpt lat="44.369554095120876" lon="7.799997656009957"><ele>469.0</ele><time>2026-04-16T17:41:59.999Z</time></trkpt><trkpt lat="44.36967526019323" lon="7.80012221737303"><ele>469.0</ele><time>2026-04-16T17:42:00.999Z</time></trkpt><trkpt lat="44.36980344993425" lon="7.800253598167661"><ele>469.0</ele><time>2026-04-16T17:42:01.999Z</time></trkpt><trkpt lat="44.36992702366563" lon="7.800380550279048"><ele>468.6666666666667</ele><time>2026-04-16T17:42:02.999Z</time></trkpt><trkpt lat="44.37006476644002" lon="7.8004994375149295"><ele>468.33333333333337</ele><time>2026-04-16T17:42:03.999Z</time></trkpt><trkpt lat="44.3701907416352" lon="7.800628009485389"><ele>468.0</ele><time>2026-04-16T17:42:04.999Z</time></trkpt><trkpt lat="44.37030972120701" lon="7.8007686272437855"><ele>468.0</ele><time>2026-04-16T17:42:05.999Z</time></trkpt><trkpt lat="44.37043480701971" lon="7.800909604352465"><ele>468.0</ele><time>2026-04-16T17:42:06.999Z</time></trkpt><trkpt lat="44.37054214281346" lon="7.801045680700236"><ele>468.0</ele><time>2026-04-16T17:42:07.999Z</time></trkpt><trkpt lat="44.370650415593154" lon="7.801199236087646"><ele>467.33333333333337</ele><time>2026-04-16T17:42:08.999Z</time></trkpt><trkpt lat="44.37075318633755" lon="7.801358692634789"><ele>466.6666666666667</ele><time>2026-04-16T17:42:09.999Z</time></trkpt><trkpt lat="44.37084933023657" lon="7.801511635036775"><ele>466.0</ele><time>2026-04-16T17:42:10.999Z</time></trkpt><trkpt lat="44.370946031188524" lon="7.801685084904926"><ele>465.0</ele><time>2026-04-16T17:42:11.999Z</time></trkpt><trkpt lat="44.37103828481915" lon="7.801862100167529"><ele>464.0</ele><time>2026-04-16T17:42:12.999Z</time></trkpt><trkpt lat="44.37112063374875" lon="7.8020219549211705"><ele>463.0</ele><time>2026-04-16T17:42:13.999Z</time></trkpt><trkpt lat="44.371202330886206" lon="7.802218660599627"><ele>463.0</ele><time>2026-04-16T17:42:14.999Z</time></trkpt><trkpt lat="44.37128263189287" lon="7.8024056761984495"><ele>463.0</ele><time>2026-04-16T17:42:15.999Z</time></trkpt><trkpt lat="44.371361625191945" lon="7.802605086748715"><ele>463.0</ele><time>2026-04-16T17:42:16.999Z</time></trkpt><trkpt lat="44.371435492861046" lon="7.802805005350645"><ele>463.6666666666667</ele><time>2026-04-16T17:42:17.999Z</time></trkpt><trkpt lat="44.371510754196684" lon="7.803011471902674"><ele>464.33333333333337</ele><time>2026-04-16T17:42:18.999Z</time></trkpt><trkpt lat="44.37158701180476" lon="7.803218925130386"><ele>465.0</ele><time>2026-04-16T17:42:19.999Z</time></trkpt><trkpt lat="44.3716574330573" lon="7.8034250937923515"><ele>463.66666666666663</ele><time>2026-04-16T17:42:20.999Z</time></trkpt><trkpt lat="44.371726448296535" lon="7.803633058390453"><ele>462.3333333333333</ele><time>2026-04-16T17:42:21.999Z</time></trkpt><trkpt lat="44.37178888891988" lon="7.803835372381804"><ele>461.0</ele><time>2026-04-16T17:42:22.999Z</time></trkpt><trkpt lat="44.3718318686644" lon="7.804034523149946"><ele>461.0</ele><time>2026-04-16T17:42:23.999Z</time></trkpt><trkpt lat="44.371890471504976" lon="7.804237560913568"><ele>461.0</ele><time>2026-04-16T17:42:24.999Z</time></trkpt><trkpt lat="44.371961540080044" lon="7.804435559497252"><ele>461.0</ele><time>2026-04-16T17:42:25.999Z</time></trkpt><trkpt lat="44.372015488301415" lon="7.804634688775522"><ele>461.0</ele><time>2026-04-16T17:42:26.999Z</time></trkpt><trkpt lat="44.372068613840185" lon="7.804831760912584"><ele>461.0</ele><time>2026-04-16T17:42:27.999Z</time></trkpt><trkpt lat="44.3721230358562" lon="7.805017228986059"><ele>461.0</ele><time>2026-04-16T17:42:28.999Z</time></trkpt><trkpt lat="44.37217535796054" lon="7.8052034768562875"><ele>461.0</ele><time>2026-04-16T17:42:29.999Z</time></trkpt><trkpt lat="44.372224125857855" lon="7.805379107458371"><ele>459.25</ele><time>2026-04-16T17:42:30.999Z</time></trkpt><trkpt lat="44.372276018179214" lon="7.805542023897524"><ele>457.5</ele><time>2026-04-16T17:42:31.999Z</time></trkpt><trkpt lat="44.372334542567906" lon="7.8057096252827405"><ele>455.75</ele><time>2026-04-16T17:42:32.999Z</time></trkpt><trkpt lat="44.37239899184618" lon="7.8058514226658495"><ele>454.0</ele><time>2026-04-16T17:42:34Z</time></trkpt><trkpt lat="44.37246870552655" lon="7.805984165893996"><ele>452.5</ele><time>2026-04-16T17:42:35Z</time></trkpt><trkpt lat="44.372542221303206" lon="7.806103732559153"><ele>451.0</ele><time>2026-04-16T17:42:36Z</time></trkpt><trkpt lat="44.37263185564552" lon="7.806224387044525"><ele>449.5</ele><time>2026-04-16T17:42:37Z</time></trkpt><trkpt lat="44.37274061790092" lon="7.806347618422502"><ele>448.0</ele><time>2026-04-16T17:42:38Z</time></trkpt><trkpt lat="44.37286748856043" lon="7.806463332783625"><ele>448.0</ele><time>2026-04-16T17:42:39Z</time></trkpt><trkpt lat="44.373007443181585" lon="7.806563713910659"><ele>448.0</ele><time>2026-04-16T17:42:40Z</time></trkpt><trkpt lat="44.3731547932927" lon="7.806654552015625"><ele>448.0</ele><time>2026-04-16T17:42:41Z</time></trkpt><trkpt lat="44.3733173886826" lon="7.806737596981518"><ele>447.6666666666667</ele><time>2026-04-16T17:42:42Z</time></trkpt><trkpt lat="44.373485826279904" lon="7.806827539537517"><ele>447.33333333333337</ele><time>2026-04-16T17:42:43Z</time></trkpt><trkpt lat="44.373659522090904" lon="7.806921629097595"><ele>447.0</ele><time>2026-04-16T17:42:44Z</time></trkpt><trkpt lat="44.373843333552934" lon="7.807022262060482"><ele>445.0</ele><time>2026-04-16T17:42:45Z</time></trkpt><trkpt lat="44.37403328322335" lon="7.807132851331566"><ele>443.0</ele><time>2026-04-16T17:42:46Z</time></trkpt><trkpt lat="44.37422738244463" lon="7.807243142752953"><ele>441.0</ele><time>2026-04-16T17:42:47Z</time></trkpt><trkpt lat="44.374426027771165" lon="7.807353919872573"><ele>441.0</ele><time>2026-04-16T17:42:48Z</time></trkpt><trkpt lat="44.37462496890311" lon="7.807466772819319"><ele>441.0</ele><time>2026-04-16T17:42:49Z</time></trkpt><trkpt lat="44.37483286750512" lon="7.807577370901704"><ele>441.0</ele><time>2026-04-16T17:42:50Z</time></trkpt><trkpt lat="44.375025949583716" lon="7.807680513689458"><ele>440.66666666666663</ele><time>2026-04-16T17:42:51Z</time></trkpt><trkpt lat="44.375210042139095" lon="7.807782220027522"><ele>440.3333333333333</ele><time>2026-04-16T17:42:52Z</time></trkpt><trkpt lat="44.37538365388693" lon="7.807874364206112"><ele>440.0</ele><time>2026-04-16T17:42:53Z</time></trkpt><trkpt lat="44.375551897684815" lon="7.807970746293674"><ele>439.66666666666663</ele><time>2026-04-16T17:42:54Z</time></trkpt><trkpt lat="44.37570752958378" lon="7.808061223276191"><ele>439.33333333333337</ele><time>2026-04-16T17:42:55Z</time></trkpt><trkpt lat="44.37585884780046" lon="7.808143215578196"><ele>439.0</ele><time>2026-04-16T17:42:56Z</time></trkpt><trkpt lat="44.37599983923775" lon="7.808222565611217"><ele>439.0</ele><time>2026-04-16T17:42:57Z</time></trkpt><trkpt lat="44.3761336535058" lon="7.8082974193817405"><ele>439.0</ele><time>2026-04-16T17:42:58Z</time></trkpt><trkpt lat="44.3762635462184" lon="7.808371423330241"><ele>439.0</ele><time>2026-04-16T17:42:59Z</time></trkpt><trkpt lat="44.37638421584679" lon="7.8084432991330575"><ele>439.0</ele><time>2026-04-16T17:43:00Z</time></trkpt><trkpt lat="44.37649665334314" lon="7.808522005600805"><ele>438.75</ele><time>2026-04-16T17:43:01Z</time></trkpt><trkpt lat="44.37660232453724" lon="7.808597073782093"><ele>438.5</ele><time>2026-04-16T17:43:02Z</time></trkpt><trkpt lat="44.37670967235789" lon="7.808679102677454"><ele>438.25</ele><time>2026-04-16T17:43:03Z</time></trkpt><trkpt lat="44.37680975265941" lon="7.808764879122486"><ele>438.0</ele><time>2026-04-16T17:43:04Z</time></trkpt><trkpt lat="44.37690717336406" lon="7.808856118931585"><ele>438.0</ele><time>2026-04-16T17:43:05Z</time></trkpt><trkpt lat="44.37700585563127" lon="7.808940517340365"><ele>437.99999999999994</ele><time>2026-04-16T17:43:06Z</time></trkpt><trkpt lat="44.37709403000198" lon="7.809028317864584"><ele>437.99999999999994</ele><time>2026-04-16T17:43:07Z</time></trkpt><trkpt lat="44.37718664216537" lon="7.80911447207721"><ele>438.0</ele><time>2026-04-16T17:43:08Z</time></trkpt><trkpt lat="44.37728171543446" lon="7.809195777389631"><ele>438.0</ele><time>2026-04-16T17:43:09Z</time></trkpt><trkpt lat="44.37738119620552" lon="7.80928360237426"><ele>437.59999999999997</ele><time>2026-04-16T17:43:10Z</time></trkpt><trkpt lat="44.377475961624384" lon="7.809374927809808"><ele>437.19999999999993</ele><time>2026-04-16T17:43:11Z</time></trkpt><trkpt lat="44.377569404104136" lon="7.809461356890376"><ele>436.8</ele><time>2026-04-16T17:43:12Z</time></trkpt><trkpt lat="44.3776630848501" lon="7.809550546628119"><ele>436.4</ele><time>2026-04-16T17:43:13Z</time></trkpt><trkpt lat="44.377747834121685" lon="7.809640339703575"><ele>436.0</ele><time>2026-04-16T17:43:14Z</time></trkpt><trkpt lat="44.37783367890712" lon="7.809719624444967"><ele>436.0</ele><time>2026-04-16T17:43:15Z</time></trkpt><trkpt lat="44.37792920228054" lon="7.809802740008628"><ele>436.0</ele><time>2026-04-16T17:43:16Z</time></trkpt><trkpt lat="44.37802769259713" lon="7.809876568470997"><ele>436.0</ele><time>2026-04-16T17:43:17Z</time></trkpt><trkpt lat="44.378126651767424" lon="7.809958579537283"><ele>436.0</ele><time>2026-04-16T17:43:18Z</time></trkpt><trkpt lat="44.37821497503538" lon="7.8100418706289565"><ele>436.0</ele><time>2026-04-16T17:43:19Z</time></trkpt><trkpt lat="44.37830942859378" lon="7.810125701944233"><ele>435.5</ele><time>2026-04-16T17:43:20Z</time></trkpt><trkpt lat="44.378408446460334" lon="7.810211169394102"><ele>435.0</ele><time>2026-04-16T17:43:21Z</time></trkpt><trkpt lat="44.378505117996" lon="7.810296703705192"><ele>434.5</ele><time>2026-04-16T17:43:22Z</time></trkpt><trkpt lat="44.3785975977888" lon="7.810378288140863"><ele>434.0</ele><time>2026-04-16T17:43:23Z</time></trkpt><trkpt lat="44.378689656060466" lon="7.81047014888151"><ele>434.0</ele><time>2026-04-16T17:43:24Z</time></trkpt><trkpt lat="44.378785456822534" lon="7.8105558878472285"><ele>434.0</ele><time>2026-04-16T17:43:25Z</time></trkpt><trkpt lat="44.37887729450013" lon="7.810642753583989"><ele>434.0</ele><time>2026-04-16T17:43:26Z</time></trkpt><trkpt lat="44.37896927087711" lon="7.810727111065362"><ele>434.0</ele><time>2026-04-16T17:43:27Z</time></trkpt><trkpt lat="44.379059649359874" lon="7.8108092420810955"><ele>434.0</ele><time>2026-04-16T17:43:28Z</time></trkpt><trkpt lat="44.3791499715675" lon="7.810897317010992"><ele>434.2</ele><time>2026-04-16T17:43:29Z</time></trkpt><trkpt lat="44.3792415785806" lon="7.810980184770874"><ele>434.4</ele><time>2026-04-16T17:43:30Z</time></trkpt><trkpt lat="44.37932642183871" lon="7.811061766804984"><ele>434.6</ele><time>2026-04-16T17:43:31Z</time></trkpt><trkpt lat="44.37941767522244" lon="7.811144434537348"><ele>434.8</ele><time>2026-04-16T17:43:31.999Z</time></trkpt><trkpt lat="44.37951238285855" lon="7.811233211905466"><ele>435.0</ele><time>2026-04-16T17:43:32.999Z</time></trkpt><trkpt lat="44.37960645446396" lon="7.811314948342026"><ele>434.4</ele><time>2026-04-16T17:43:33.999Z</time></trkpt><trkpt lat="44.37969640422946" lon="7.811387755540466"><ele>433.8</ele><time>2026-04-16T17:43:34.999Z</time></trkpt><trkpt lat="44.379790608959055" lon="7.8114699880267695"><ele>433.20000000000005</ele><time>2026-04-16T17:43:35.999Z</time></trkpt><trkpt lat="44.37988174619792" lon="7.811552160971371"><ele>432.6</ele><time>2026-04-16T17:43:36.999Z</time></trkpt><trkpt lat="44.37997872529459" lon="7.811635531438401"><ele>432.0</ele><time>2026-04-16T17:43:37.999Z</time></trkpt><trkpt lat="44.38007140092396" lon="7.811723615926476"><ele>432.0</ele><time>2026-04-16T17:43:38.999Z</time></trkpt><trkpt lat="44.38015905119715" lon="7.811807305001591"><ele>432.00000000000006</ele><time>2026-04-16T17:43:39.999Z</time></trkpt><trkpt lat="44.38024947075896" lon="7.811891357306645"><ele>432.00000000000006</ele><time>2026-04-16T17:43:40.999Z</time></trkpt><trkpt lat="44.380343339509" lon="7.8119741142390975"><ele>432.0</ele><time>2026-04-16T17:43:41.999Z</time></trkpt><trkpt lat="44.380442587790654" lon="7.812059604124231"><ele>432.0</ele><time>2026-04-16T17:43:42.999Z</time></trkpt><trkpt lat="44.380536583869315" lon="7.812140734134282"><ele>431.8</ele><time>2026-04-16T17:43:43.999Z</time></trkpt><trkpt lat="44.38062891163365" lon="7.812228185485255"><ele>431.6</ele><time>2026-04-16T17:43:44.999Z</time></trkpt><trkpt lat="44.380725220276865" lon="7.812321351641404"><ele>431.40000000000003</ele><time>2026-04-16T17:43:45.999Z</time></trkpt><trkpt lat="44.38081673215378" lon="7.812399270371184"><ele>431.20000000000005</ele><time>2026-04-16T17:43:46.999Z</time></trkpt><trkpt lat="44.380914816250325" lon="7.812478809212052"><ele>431.0</ele><time>2026-04-16T17:43:47.999Z</time></trkpt><trkpt lat="44.38101580385326" lon="7.812559093636461"><ele>431.0</ele><time>2026-04-16T17:43:48.999Z</time></trkpt><trkpt lat="44.381108331606505" lon="7.81264249873395"><ele>431.0</ele><time>2026-04-16T17:43:49.999Z</time></trkpt><trkpt lat="44.38119630884806" lon="7.812717570605573"><ele>431.0</ele><time>2026-04-16T17:43:50.999Z</time></trkpt><trkpt lat="44.38128907242891" lon="7.812802393735071"><ele>431.0</ele><time>2026-04-16T17:43:51.999Z</time></trkpt><trkpt lat="44.38138269399645" lon="7.812881193081317"><ele>431.0</ele><time>2026-04-16T17:43:52.999Z</time></trkpt><trkpt lat="44.38147571084626" lon="7.812957896038677"><ele>431.75</ele><time>2026-04-16T17:43:53.999Z</time></trkpt><trkpt lat="44.38156975877372" lon="7.813044270606945"><ele>432.5</ele><time>2026-04-16T17:43:54.999Z</time></trkpt><trkpt lat="44.381664607800445" lon="7.813130599723831"><ele>433.25</ele><time>2026-04-16T17:43:55.999Z</time></trkpt><trkpt lat="44.381761529996034" lon="7.813215867261077"><ele>434.0</ele><time>2026-04-16T17:43:56.999Z</time></trkpt><trkpt lat="44.38185669765216" lon="7.813301990779053"><ele>434.0</ele><time>2026-04-16T17:43:57.999Z</time></trkpt><trkpt lat="44.38194236686612" lon="7.81338306256923"><ele>434.0</ele><time>2026-04-16T17:43:58.999Z</time></trkpt><trkpt lat="44.38203715678479" lon="7.813475387074289"><ele>434.0</ele><time>2026-04-16T17:43:59.999Z</time></trkpt><trkpt lat="44.38213692717581" lon="7.813558521342526"><ele>434.0</ele><time>2026-04-16T17:44:00.999Z</time></trkpt><trkpt lat="44.382226776161815" lon="7.813647842955372"><ele>434.0</ele><time>2026-04-16T17:44:01.999Z</time></trkpt><trkpt lat="44.382322106902144" lon="7.813727349092886"><ele>433.6</ele><time>2026-04-16T17:44:02.999Z</time></trkpt><trkpt lat="44.382419938069475" lon="7.81380937601743"><ele>433.2</ele><time>2026-04-16T17:44:03.999Z</time></trkpt><trkpt lat="44.38250810644503" lon="7.813892014066687"><ele>432.80000000000007</ele><time>2026-04-16T17:44:04.999Z</time></trkpt><trkpt lat="44.382601160682164" lon="7.813973443856869"><ele>432.40000000000003</ele><time>2026-04-16T17:44:05.999Z</time></trkpt><trkpt lat="44.382692768345976" lon="7.814061756724282"><ele>432.0</ele><time>2026-04-16T17:44:06.999Z</time></trkpt><trkpt lat="44.382782368852574" lon="7.814141326676936"><ele>432.0</ele><time>2026-04-16T17:44:07.999Z</time></trkpt><trkpt lat="44.382875461085604" lon="7.814224936186937"><ele>432.00000000000006</ele><time>2026-04-16T17:44:08.999Z</time></trkpt><trkpt lat="44.38297166419473" lon="7.81430912826"><ele>432.00000000000006</ele><time>2026-04-16T17:44:09.999Z</time></trkpt><trkpt lat="44.38306046930942" lon="7.814390079019998"><ele>432.0</ele><time>2026-04-16T17:44:10.999Z</time></trkpt><trkpt lat="44.383156230490066" lon="7.814469289737401"><ele>432.0</ele><time>2026-04-16T17:44:11.999Z</time></trkpt><trkpt lat="44.38324482151823" lon="7.814548420669167"><ele>431.8</ele><time>2026-04-16T17:44:12.999Z</time></trkpt><trkpt lat="44.383325488420695" lon="7.814616765651037"><ele>431.6</ele><time>2026-04-16T17:44:13.999Z</time></trkpt><trkpt lat="44.38341401848573" lon="7.814693732538273"><ele>431.40000000000003</ele><time>2026-04-16T17:44:14.999Z</time></trkpt><trkpt lat="44.38349988332017" lon="7.814769281533541"><ele>431.20000000000005</ele><time>2026-04-16T17:44:15.999Z</time></trkpt><trkpt lat="44.38357493615253" lon="7.81483667452519"><ele>431.0</ele><time>2026-04-16T17:44:16.999Z</time></trkpt><trkpt lat="44.383648223965764" lon="7.814897589842223"><ele>430.99999999999994</ele><time>2026-04-16T17:44:17.999Z</time></trkpt><trkpt lat="44.3837129330803" lon="7.814964536661886"><ele>431.0</ele><time>2026-04-16T17:44:18.999Z</time></trkpt><trkpt lat="44.38376396303647" lon="7.815016974701104"><ele>431.0</ele><time>2026-04-16T17:44:19.999Z</time></trkpt><trkpt lat="44.383826096150784" lon="7.815125750906458"><ele>431.0</ele><time>2026-04-16T17:44:21.999Z</time></trkpt><trkpt lat="44.383802841178394" lon="7.815212181021569"><ele>430.99999999999994</ele><time>2026-04-16T17:44:22.999Z</time></trkpt><trkpt lat="44.38383844312533" lon="7.81536465631524"><ele>431.0</ele><time>2026-04-16T17:44:24.999Z</time></trkpt><trkpt lat="44.38387835167895" lon="7.815503472775566"><ele>430.66666666666663</ele><time>2026-04-16T17:44:26.999Z</time></trkpt><trkpt lat="44.38391094671432" lon="7.815614347564011"><ele>430.3333333333333</ele><time>2026-04-16T17:44:27.999Z</time></trkpt><trkpt lat="44.383943961428926" lon="7.815727372656823"><ele>430.0</ele><time>2026-04-16T17:44:28.999Z</time></trkpt><trkpt lat="44.38397411420132" lon="7.815831386496577"><ele>429.66666666666663</ele><time>2026-04-16T17:44:29.999Z</time></trkpt><trkpt lat="44.38403101586419" lon="7.815911547160658"><ele>429.3333333333333</ele><time>2026-04-16T17:44:30.999Z</time></trkpt><trkpt lat="44.38405511666561" lon="7.81600183823435"><ele>429.0</ele><time>2026-04-16T17:44:31.999Z</time></trkpt><trkpt lat="44.38407881935932" lon="7.816088307357837"><ele>428.0</ele><time>2026-04-16T17:44:32.999Z</time></trkpt><trkpt lat="44.38410317790838" lon="7.816170655650305"><ele>427.0</ele><time>2026-04-16T17:44:33.999Z</time></trkpt><trkpt lat="44.38410319149153" lon="7.816270792182089"><ele>426.0</ele><time>2026-04-16T17:44:34.999Z</time></trkpt><trkpt lat="44.38412907170663" lon="7.8163594658858235"><ele>425.0</ele><time>2026-04-16T17:44:35.999Z</time></trkpt><trkpt lat="44.38416012824" lon="7.816458688426218"><ele>424.0</ele><time>2026-04-16T17:44:36.999Z</time></trkpt><trkpt lat="44.384185930738276" lon="7.816541124206389"><ele>423.0</ele><time>2026-04-16T17:44:37.998Z</time></trkpt><trkpt lat="44.384228652255295" lon="7.816650086932447"><ele>422.0</ele><time>2026-04-16T17:44:40Z</time></trkpt><trkpt lat="44.38426042606269" lon="7.8167288912652655"><ele>419.20000000000005</ele><time>2026-04-16T17:44:42Z</time></trkpt><trkpt lat="44.38430883458256" lon="7.816885388325937"><ele>416.4</ele><time>2026-04-16T17:44:44Z</time></trkpt><trkpt lat="44.38435488798013" lon="7.816968397730852"><ele>413.6</ele><time>2026-04-16T17:44:45Z</time></trkpt><trkpt lat="44.38442641881418" lon="7.817042615790329"><ele>410.79999999999995</ele><time>2026-04-16T17:44:46Z</time></trkpt><trkpt lat="44.38449785418257" lon="7.81715378939613"><ele>408.0</ele><time>2026-04-16T17:44:47Z</time></trkpt><trkpt lat="44.384574924424776" lon="7.817234085220995"><ele>408.0</ele><time>2026-04-16T17:44:48Z</time></trkpt><trkpt lat="44.384659220902165" lon="7.817287773722857"><ele>408.0</ele><time>2026-04-16T17:44:49Z</time></trkpt><trkpt lat="44.38474092690786" lon="7.817349292933923"><ele>408.0</ele><time>2026-04-16T17:44:50Z</time></trkpt><trkpt lat="44.38481590569327" lon="7.817413436645795"><ele>408.0</ele><time>2026-04-16T17:44:51Z</time></trkpt><trkpt lat="44.38489259677488" lon="7.81744795655304"><ele>408.0</ele><time>2026-04-16T17:44:52Z</time></trkpt><trkpt lat="44.384957345365265" lon="7.817439281047082"><ele>408.0</ele><time>2026-04-16T17:44:53Z</time></trkpt><trkpt lat="44.38504649780834" lon="7.817485002593081"><ele>408.1666666666667</ele><time>2026-04-16T17:44:55Z</time></trkpt><trkpt lat="44.38511594483926" lon="7.817524793127115"><ele>408.33333333333337</ele><time>2026-04-16T17:44:59Z</time></trkpt><trkpt lat="44.38510725316897" lon="7.817653258611306"><ele>408.5</ele><time>2026-04-16T17:45:00Z</time></trkpt><trkpt lat="44.38507101073905" lon="7.8177528483178484"><ele>408.6666666666667</ele><time>2026-04-16T17:45:01Z</time></trkpt><trkpt lat="44.38504327380948" lon="7.817870599830934"><ele>408.83333333333337</ele><time>2026-04-16T17:45:02Z</time></trkpt><trkpt lat="44.38501648062474" lon="7.817997326260691"><ele>409.0</ele><time>2026-04-16T17:45:03Z</time></trkpt><trkpt lat="44.384996307408066" lon="7.8181458570333175"><ele>409.0</ele><time>2026-04-16T17:45:04Z</time></trkpt><trkpt lat="44.38497247483657" lon="7.818312059240735"><ele>409.0</ele><time>2026-04-16T17:45:05Z</time></trkpt><trkpt lat="44.38494369139776" lon="7.818476333765104"><ele>409.0</ele><time>2026-04-16T17:45:06Z</time></trkpt><trkpt lat="44.38491814462909" lon="7.818639206547734"><ele>409.0</ele><time>2026-04-16T17:45:07Z</time></trkpt><trkpt lat="44.38489024583468" lon="7.818797984995768"><ele>408.6</ele><time>2026-04-16T17:45:08Z</time></trkpt><trkpt lat="44.38486190844129" lon="7.818958361120704"><ele>408.2</ele><time>2026-04-16T17:45:09Z</time></trkpt><trkpt lat="44.384838173591845" lon="7.819107150549506"><ele>407.8</ele><time>2026-04-16T17:45:10Z</time></trkpt><trkpt lat="44.38481465840847" lon="7.819247727341925"><ele>407.40000000000003</ele><time>2026-04-16T17:45:11Z</time></trkpt><trkpt lat="44.384792205707626" lon="7.819366580219071"><ele>407.0</ele><time>2026-04-16T17:45:12Z</time></trkpt><trkpt lat="44.38477072243684" lon="7.8194753239346895"><ele>406.16666666666663</ele><time>2026-04-16T17:45:13Z</time></trkpt><trkpt lat="44.384749159779226" lon="7.819578206871153"><ele>405.3333333333333</ele><time>2026-04-16T17:45:14Z</time></trkpt><trkpt lat="44.38473056957903" lon="7.819672924291265"><ele>404.5</ele><time>2026-04-16T17:45:15Z</time></trkpt><trkpt lat="44.384700680242894" lon="7.819820512597134"><ele>403.66666666666663</ele><time>2026-04-16T17:45:17Z</time></trkpt><trkpt lat="44.3846919565696" lon="7.819917206042241"><ele>402.8333333333333</ele><time>2026-04-16T17:45:19Z</time></trkpt><trkpt lat="44.384715234366055" lon="7.82001670591851"><ele>402.0</ele><time>2026-04-16T17:45:21Z</time></trkpt><trkpt lat="44.38479381307305" lon="7.820108401053341"><ele>402.0</ele><time>2026-04-16T17:45:23Z</time></trkpt><trkpt lat="44.384910022035484" lon="7.820173307595718"><ele>402.0</ele><time>2026-04-16T17:45:25Z</time></trkpt><trkpt lat="44.38497048024391" lon="7.82020937593468"><ele>402.0</ele><time>2026-04-16T17:45:26Z</time></trkpt><trkpt lat="44.3850637317232" lon="7.820127425160014"><ele>402.0</ele><time>2026-04-16T17:45:27Z</time></trkpt><trkpt lat="44.38513278041829" lon="7.820104075993599"><ele>402.0</ele><time>2026-04-16T17:45:28Z</time></trkpt><trkpt lat="44.38519988333862" lon="7.820074698956658"><ele>402.0</ele><time>2026-04-16T17:45:29Z</time></trkpt><trkpt lat="44.38526480365005" lon="7.820040905538086"><ele>402.0</ele><time>2026-04-16T17:45:30Z</time></trkpt><trkpt lat="44.38532675702949" lon="7.820006519965144"><ele>402.0</ele><time>2026-04-16T17:45:31Z</time></trkpt><trkpt lat="44.385387489090135" lon="7.819968268614941"><ele>402.0</ele><time>2026-04-16T17:45:32Z</time></trkpt><trkpt lat="44.3854825163915" lon="7.819882378752308"><ele>402.0</ele><time>2026-04-16T17:45:33.999Z</time></trkpt><trkpt lat="44.38556623145205" lon="7.8197969564829775"><ele>402.0</ele><time>2026-04-16T17:45:35.999Z</time></trkpt><trkpt lat="44.38564300438738" lon="7.81973675836943"><ele>402.0</ele><time>2026-04-16T17:45:37.999Z</time></trkpt><trkpt lat="44.38572216749838" lon="7.819725020316689"><ele>401.5</ele><time>2026-04-16T17:45:39.999Z</time></trkpt><trkpt lat="44.38577913057349" lon="7.81976485544603"><ele>401.0</ele><time>2026-04-16T17:45:40.999Z</time></trkpt><trkpt lat="44.385837320190056" lon="7.819828156702066"><ele>400.5</ele><time>2026-04-16T17:45:41.999Z</time></trkpt><trkpt lat="44.38591057290464" lon="7.819897559556111"><ele>400.0</ele><time>2026-04-16T17:45:42.999Z</time></trkpt><trkpt lat="44.38597412170658" lon="7.819984107424962"><ele>399.5</ele><time>2026-04-16T17:45:43.999Z</time></trkpt><trkpt lat="44.38604227060788" lon="7.8200260515552"><ele>399.0</ele><time>2026-04-16T17:45:44.999Z</time></trkpt><trkpt lat="44.38609393450336" lon="7.820085646111635"><ele>399.0</ele><time>2026-04-16T17:45:45.999Z</time></trkpt><trkpt lat="44.38617075053432" lon="7.82020305200433"><ele>399.0</ele><time>2026-04-16T17:45:47.999Z</time></trkpt><trkpt lat="44.38622326097268" lon="7.820257516785114"><ele>399.0</ele><time>2026-04-16T17:45:49.999Z</time></trkpt><trkpt lat="44.3863223633537" lon="7.820247017061648"><ele>399.0</ele><time>2026-04-16T17:45:51.999Z</time></trkpt><trkpt lat="44.38639350584461" lon="7.82020553803984"><ele>399.0</ele><time>2026-04-16T17:45:52.999Z</time></trkpt><trkpt lat="44.38647731224116" lon="7.820166982763581"><ele>399.0</ele><time>2026-04-16T17:45:53.999Z</time></trkpt><trkpt lat="44.38657902220398" lon="7.820132134053563"><ele>399.0</ele><time>2026-04-16T17:45:54.999Z</time></trkpt><trkpt lat="44.386676794539945" lon="7.82011248121205"><ele>399.0</ele><time>2026-04-16T17:45:55.999Z</time></trkpt><trkpt lat="44.38676362414668" lon="7.8200882830014375"><ele>399.0</ele><time>2026-04-16T17:45:56.999Z</time></trkpt><trkpt lat="44.38684376526159" lon="7.820074669297439"><ele>399.0</ele><time>2026-04-16T17:45:57.999Z</time></trkpt><trkpt lat="44.38694040301717" lon="7.820051633059765"><ele>399.0</ele><time>2026-04-16T17:45:58.999Z</time></trkpt><trkpt lat="44.387027211205215" lon="7.820047481391556"><ele>399.0</ele><time>2026-04-16T17:45:59.999Z</time></trkpt><trkpt lat="44.38710393172186" lon="7.820049156219362"><ele>399.0</ele><time>2026-04-16T17:46:00.999Z</time></trkpt><trkpt lat="44.38717599178343" lon="7.820050934580917"><ele>399.0</ele><time>2026-04-16T17:46:01.999Z</time></trkpt><trkpt lat="44.38724287950955" lon="7.820058782556444"><ele>399.0</ele><time>2026-04-16T17:46:02.999Z</time></trkpt><trkpt lat="44.387328890192734" lon="7.820075462892567"><ele>399.0</ele><time>2026-04-16T17:46:03.999Z</time></trkpt><trkpt lat="44.38741742537367" lon="7.820100201461422"><ele>399.0</ele><time>2026-04-16T17:46:04.999Z</time></trkpt><trkpt lat="44.38749016058601" lon="7.820127872878141"><ele>399.6666666666667</ele><time>2026-04-16T17:46:05.999Z</time></trkpt><trkpt lat="44.387576984434354" lon="7.820168930495484"><ele>400.33333333333337</ele><time>2026-04-16T17:46:06.999Z</time></trkpt><trkpt lat="44.38764556388703" lon="7.82022158173856"><ele>401.0</ele><time>2026-04-16T17:46:07.999Z</time></trkpt><trkpt lat="44.38772038212458" lon="7.820292609686403"><ele>401.6666666666667</ele><time>2026-04-16T17:46:08.999Z</time></trkpt><trkpt lat="44.387783707913925" lon="7.82034183184137"><ele>402.33333333333337</ele><time>2026-04-16T17:46:09.999Z</time></trkpt><trkpt lat="44.38784711964367" lon="7.820383855717384"><ele>403.0</ele><time>2026-04-16T17:46:10.999Z</time></trkpt><trkpt lat="44.38794063257244" lon="7.820474670155022"><ele>402.83333333333337</ele><time>2026-04-16T17:46:12.999Z</time></trkpt><trkpt lat="44.38801559688318" lon="7.820505652413534"><ele>402.6666666666667</ele><time>2026-04-16T17:46:13.999Z</time></trkpt><trkpt lat="44.38810843780871" lon="7.820526695899209"><ele>402.5</ele><time>2026-04-16T17:46:14.999Z</time></trkpt><trkpt lat="44.38818685976602" lon="7.820532058818541"><ele>402.33333333333337</ele><time>2026-04-16T17:46:15.999Z</time></trkpt><trkpt lat="44.38826590656236" lon="7.820532729020331"><ele>402.1666666666667</ele><time>2026-04-16T17:46:16.999Z</time></trkpt><trkpt lat="44.38835848983247" lon="7.820539640809932"><ele>402.0</ele><time>2026-04-16T17:46:17.999Z</time></trkpt><trkpt lat="44.388435219200105" lon="7.820521717058657"><ele>402.0</ele><time>2026-04-16T17:46:18.999Z</time></trkpt><trkpt lat="44.38850306442183" lon="7.820504602499446"><ele>402.0</ele><time>2026-04-16T17:46:19.999Z</time></trkpt><trkpt lat="44.38857656046276" lon="7.820510897485784"><ele>402.0</ele><time>2026-04-16T17:46:20.999Z</time></trkpt><trkpt lat="44.38864217525903" lon="7.820502798539396"><ele>402.0</ele><time>2026-04-16T17:46:21.999Z</time></trkpt><trkpt lat="44.38870941232148" lon="7.820485480919438"><ele>402.0</ele><time>2026-04-16T17:46:22.999Z</time></trkpt><trkpt lat="44.3887850148591" lon="7.820460028305167"><ele>402.0</ele><time>2026-04-16T17:46:23.999Z</time></trkpt><trkpt lat="44.38886868390015" lon="7.820439049592854"><ele>402.0</ele><time>2026-04-16T17:46:24.999Z</time></trkpt><trkpt lat="44.388945247926365" lon="7.8204024533999315"><ele>401.5</ele><time>2026-04-16T17:46:25.999Z</time></trkpt><trkpt lat="44.389039384823405" lon="7.820384720010575"><ele>401.0</ele><time>2026-04-16T17:46:26.999Z</time></trkpt><trkpt lat="44.389119710805765" lon="7.820358403782597"><ele>400.5</ele><time>2026-04-16T17:46:27.999Z</time></trkpt><trkpt lat="44.38918537163182" lon="7.82033867707376"><ele>400.0</ele><time>2026-04-16T17:46:28.999Z</time></trkpt><trkpt lat="44.3892936020071" lon="7.820309069495151"><ele>399.5</ele><time>2026-04-16T17:46:30.999Z</time></trkpt><trkpt lat="44.38936287738525" lon="7.820310532780027"><ele>399.0</ele><time>2026-04-16T17:46:31.999Z</time></trkpt><trkpt lat="44.38944218578354" lon="7.820332204723297"><ele>399.0</ele><time>2026-04-16T17:46:32.999Z</time></trkpt><trkpt lat="44.38951039907985" lon="7.820353688265169"><ele>399.0</ele><time>2026-04-16T17:46:33.999Z</time></trkpt><trkpt lat="44.38961913269909" lon="7.820401017089437"><ele>399.0</ele><time>2026-04-16T17:46:35.998Z</time></trkpt><trkpt lat="44.389682717783145" lon="7.8204234787510245"><ele>399.0</ele><time>2026-04-16T17:46:37.998Z</time></trkpt><trkpt lat="44.38975432556206" lon="7.820451901340453"><ele>399.0</ele><time>2026-04-16T17:46:39.998Z</time></trkpt><trkpt lat="44.389847878022124" lon="7.820526818226663"><ele>399.0</ele><time>2026-04-16T17:46:41.998Z</time></trkpt><trkpt lat="44.389944491391816" lon="7.820605054463833"><ele>398.0</ele><time>2026-04-16T17:46:43.998Z</time></trkpt><trkpt lat="44.390002318233236" lon="7.82064473212853"><ele>397.0</ele><time>2026-04-16T17:46:44.998Z</time></trkpt><trkpt lat="44.39011203510165" lon="7.8206873286412035"><ele>396.0</ele><time>2026-04-16T17:46:47Z</time></trkpt><trkpt lat="44.39022875533044" lon="7.820725646781441"><ele>395.0</ele><time>2026-04-16T17:46:49Z</time></trkpt><trkpt lat="44.390308030128246" lon="7.82072714664279"><ele>394.0</ele><time>2026-04-16T17:46:50Z</time></trkpt><trkpt lat="44.3903987560893" lon="7.820715529185296"><ele>394.0</ele><time>2026-04-16T17:46:51Z</time></trkpt><trkpt lat="44.390494128157776" lon="7.820706418638186"><ele>394.0</ele><time>2026-04-16T17:46:52Z</time></trkpt><trkpt lat="44.39060018368187" lon="7.820699939471267"><ele>394.0</ele><time>2026-04-16T17:46:53Z</time></trkpt><trkpt lat="44.39069598977409" lon="7.8206988524941385"><ele>394.0</ele><time>2026-04-16T17:46:54Z</time></trkpt><trkpt lat="44.390791534758364" lon="7.820692895272391"><ele>394.0</ele><time>2026-04-16T17:46:55Z</time></trkpt><trkpt lat="44.39088296529329" lon="7.820687054728773"><ele>393.6</ele><time>2026-04-16T17:46:56Z</time></trkpt><trkpt lat="44.39096464799369" lon="7.820682806055002"><ele>393.2</ele><time>2026-04-16T17:46:57Z</time></trkpt><trkpt lat="44.39105417474187" lon="7.820677687790382"><ele>392.8</ele><time>2026-04-16T17:46:58Z</time></trkpt><trkpt lat="44.39115162303913" lon="7.820669228635973"><ele>392.40000000000003</ele><time>2026-04-16T17:46:59Z</time></trkpt><trkpt lat="44.39125398389313" lon="7.820658286144079"><ele>392.0</ele><time>2026-04-16T17:47:00Z</time></trkpt><trkpt lat="44.39134739796081" lon="7.820649906391858"><ele>391.49999999999994</ele><time>2026-04-16T17:47:01Z</time></trkpt><trkpt lat="44.39143671512077" lon="7.820642627701296"><ele>391.0</ele><time>2026-04-16T17:47:02Z</time></trkpt><trkpt lat="44.391521145486095" lon="7.820637989931812"><ele>390.5</ele><time>2026-04-16T17:47:03Z</time></trkpt><trkpt lat="44.391599442927756" lon="7.820631521331731"><ele>390.0</ele><time>2026-04-16T17:47:04Z</time></trkpt><trkpt lat="44.39168258729955" lon="7.820627508674089"><ele>389.49999999999994</ele><time>2026-04-16T17:47:05Z</time></trkpt><trkpt lat="44.39178112215613" lon="7.82062015316437"><ele>389.0</ele><time>2026-04-16T17:47:06Z</time></trkpt><trkpt lat="44.391871288774524" lon="7.820608065947031"><ele>388.99999999999994</ele><time>2026-04-16T17:47:07Z</time></trkpt><trkpt lat="44.39196552941006" lon="7.82060202573918"><ele>389.0</ele><time>2026-04-16T17:47:08Z</time></trkpt><trkpt lat="44.39205022739526" lon="7.82058558695084"><ele>389.0</ele><time>2026-04-16T17:47:09Z</time></trkpt><trkpt lat="44.39213986145655" lon="7.820577706479245"><ele>389.0</ele><time>2026-04-16T17:47:10Z</time></trkpt><trkpt lat="44.392216137048315" lon="7.820566127369627"><ele>388.99999999999994</ele><time>2026-04-16T17:47:11Z</time></trkpt><trkpt lat="44.392296729438094" lon="7.820561820518627"><ele>389.0</ele><time>2026-04-16T17:47:12Z</time></trkpt><trkpt lat="44.39238233295419" lon="7.820557498174201"><ele>388.8333333333333</ele><time>2026-04-16T17:47:13Z</time></trkpt><trkpt lat="44.39246353053214" lon="7.820551951243538"><ele>388.66666666666663</ele><time>2026-04-16T17:47:14Z</time></trkpt><trkpt lat="44.392530562358374" lon="7.820541191168552"><ele>388.5</ele><time>2026-04-16T17:47:15Z</time></trkpt><trkpt lat="44.39259493811455" lon="7.820540740953037"><ele>388.33333333333337</ele><time>2026-04-16T17:47:16Z</time></trkpt><trkpt lat="44.39266006152685" lon="7.820538861235754"><ele>388.1666666666667</ele><time>2026-04-16T17:47:17Z</time></trkpt><trkpt lat="44.392763879082125" lon="7.820559955522249"><ele>388.0</ele><time>2026-04-16T17:47:19Z</time></trkpt><trkpt lat="44.39285310981998" lon="7.820688179626909"><ele>388.0</ele><time>2026-04-16T17:47:21Z</time></trkpt><trkpt lat="44.39288867459898" lon="7.820776724095138"><ele>388.0</ele><time>2026-04-16T17:47:22Z</time></trkpt><trkpt lat="44.39292358436955" lon="7.82085083934107"><ele>388.0</ele><time>2026-04-16T17:47:23Z</time></trkpt><trkpt lat="44.392998534111165" lon="7.8209649699955275"><ele>388.0</ele><time>2026-04-16T17:47:25Z</time></trkpt><trkpt lat="44.39302620541307" lon="7.8211638848154745"><ele>388.0</ele><time>2026-04-16T17:47:27Z</time></trkpt><trkpt lat="44.3930308520236" lon="7.8212920064965195"><ele>387.4</ele><time>2026-04-16T17:47:28Z</time></trkpt><trkpt lat="44.39302911797747" lon="7.821431926948007"><ele>386.79999999999995</ele><time>2026-04-16T17:47:29Z</time></trkpt><trkpt lat="44.39303042827005" lon="7.821582402167999"><ele>386.2</ele><time>2026-04-16T17:47:30Z</time></trkpt><trkpt lat="44.393027441981424" lon="7.8217139085600556"><ele>385.6</ele><time>2026-04-16T17:47:31Z</time></trkpt><trkpt lat="44.393026300185625" lon="7.8218228558307645"><ele>385.0</ele><time>2026-04-16T17:47:32Z</time></trkpt><trkpt lat="44.39303741308029" lon="7.821920707923996"><ele>384.4</ele><time>2026-04-16T17:47:33Z</time></trkpt><trkpt lat="44.39308206530066" lon="7.82201699478803"><ele>383.8</ele><time>2026-04-16T17:47:33.999Z</time></trkpt><trkpt lat="44.39315731631642" lon="7.822109503165172"><ele>383.20000000000005</ele><time>2026-04-16T17:47:34.999Z</time></trkpt><trkpt lat="44.39323549560337" lon="7.822197499196346"><ele>382.6</ele><time>2026-04-16T17:47:35.999Z</time></trkpt><trkpt lat="44.39329816788554" lon="7.822278098459468"><ele>382.0</ele><time>2026-04-16T17:47:36.999Z</time></trkpt><trkpt lat="44.39336404306784" lon="7.82235622548673"><ele>382.0</ele><time>2026-04-16T17:47:37.999Z</time></trkpt><trkpt lat="44.39343960890587" lon="7.822433525756513"><ele>382.0</ele><time>2026-04-16T17:47:38.999Z</time></trkpt><trkpt lat="44.39353510457471" lon="7.82250469073547"><ele>382.0</ele><time>2026-04-16T17:47:39.999Z</time></trkpt><trkpt lat="44.3936317149712" lon="7.822585793184366"><ele>382.0</ele><time>2026-04-16T17:47:40.999Z</time></trkpt><trkpt lat="44.39373738821484" lon="7.822681188893017"><ele>382.0</ele><time>2026-04-16T17:47:41.999Z</time></trkpt><trkpt lat="44.39383041681385" lon="7.822788871559305"><ele>381.25</ele><time>2026-04-16T17:47:42.999Z</time></trkpt><trkpt lat="44.3939169154417" lon="7.822885197138273"><ele>380.5</ele><time>2026-04-16T17:47:43.999Z</time></trkpt><trkpt lat="44.39401432281407" lon="7.82299132267292"><ele>379.75</ele><time>2026-04-16T17:47:44.999Z</time></trkpt><trkpt lat="44.394120447745834" lon="7.823094738387187"><ele>379.0</ele><time>2026-04-16T17:47:45.999Z</time></trkpt><trkpt lat="44.39422783638867" lon="7.823182260909702"><ele>379.0</ele><time>2026-04-16T17:47:46.999Z</time></trkpt><trkpt lat="44.39432343454272" lon="7.82326124189851"><ele>379.0</ele><time>2026-04-16T17:47:47.999Z</time></trkpt><trkpt lat="44.394429095493216" lon="7.823339893398058"><ele>379.0</ele><time>2026-04-16T17:47:48.999Z</time></trkpt><trkpt lat="44.39453721606774" lon="7.823430107679438"><ele>379.0</ele><time>2026-04-16T17:47:49.999Z</time></trkpt><trkpt lat="44.394646666217746" lon="7.823524934393635"><ele>379.4</ele><time>2026-04-16T17:47:50.999Z</time></trkpt><trkpt lat="44.39474945690395" lon="7.823614508002005"><ele>379.79999999999995</ele><time>2026-04-16T17:47:51.999Z</time></trkpt><trkpt lat="44.394831927691094" lon="7.82369166043618"><ele>380.20000000000005</ele><time>2026-04-16T17:47:52.999Z</time></trkpt><trkpt lat="44.39490255330682" lon="7.823772035058869"><ele>380.6</ele><time>2026-04-16T17:47:53.999Z</time></trkpt><trkpt lat="44.39496842058442" lon="7.823831576314146"><ele>381.0</ele><time>2026-04-16T17:47:54.999Z</time></trkpt><trkpt lat="44.39502198367216" lon="7.823901135141195"><ele>381.0</ele><time>2026-04-16T17:47:55.999Z</time></trkpt><trkpt lat="44.3950649845756" lon="7.824047665510173"><ele>381.0</ele><time>2026-04-16T17:47:57.999Z</time></trkpt><trkpt lat="44.395164786581276" lon="7.824108841639738"><ele>381.0</ele><time>2026-04-16T17:47:59.999Z</time></trkpt><trkpt lat="44.39524524031495" lon="7.824105770639417"><ele>381.0</ele><time>2026-04-16T17:48:00.999Z</time></trkpt><trkpt lat="44.39533221313097" lon="7.824123205392412"><ele>381.0</ele><time>2026-04-16T17:48:01.999Z</time></trkpt><trkpt lat="44.39542292715337" lon="7.8241765970837"><ele>380.8</ele><time>2026-04-16T17:48:02.999Z</time></trkpt><trkpt lat="44.395519667542445" lon="7.824238937789336"><ele>380.6</ele><time>2026-04-16T17:48:03.999Z</time></trkpt><trkpt lat="44.39561267153928" lon="7.824302948814033"><ele>380.4</ele><time>2026-04-16T17:48:04.999Z</time></trkpt><trkpt lat="44.39571441309421" lon="7.824370242098496"><ele>380.2</ele><time>2026-04-16T17:48:05.999Z</time></trkpt><trkpt lat="44.39581673322043" lon="7.824434886804436"><ele>380.0</ele><time>2026-04-16T17:48:06.999Z</time></trkpt><trkpt lat="44.39593417387205" lon="7.82448170650797"><ele>380.0</ele><time>2026-04-16T17:48:07.999Z</time></trkpt><trkpt lat="44.396051619163735" lon="7.824523928598132"><ele>380.0</ele><time>2026-04-16T17:48:08.999Z</time></trkpt><trkpt lat="44.396184019050814" lon="7.8245613055657515"><ele>380.0</ele><time>2026-04-16T17:48:09.999Z</time></trkpt><trkpt lat="44.39630897325399" lon="7.824588447913419"><ele>380.0</ele><time>2026-04-16T17:48:10.999Z</time></trkpt><trkpt lat="44.39643980705022" lon="7.82460296916442"><ele>382.75</ele><time>2026-04-16T17:48:11.999Z</time></trkpt><trkpt lat="44.39657160460899" lon="7.824621341894148"><ele>385.5</ele><time>2026-04-16T17:48:12.999Z</time></trkpt><trkpt lat="44.396706898216586" lon="7.824638718669308"><ele>388.25</ele><time>2026-04-16T17:48:13.999Z</time></trkpt><trkpt lat="44.39684220589461" lon="7.824636176622596"><ele>391.0</ele><time>2026-04-16T17:48:14.999Z</time></trkpt><trkpt lat="44.396982435226555" lon="7.824624620567742"><ele>391.0</ele><time>2026-04-16T17:48:15.999Z</time></trkpt><trkpt lat="44.39710375963682" lon="7.824606326135807"><ele>391.0</ele><time>2026-04-16T17:48:16.999Z</time></trkpt><trkpt lat="44.39721502366636" lon="7.8245946750076"><ele>391.0</ele><time>2026-04-16T17:48:17.999Z</time></trkpt><trkpt lat="44.397330337209965" lon="7.824591344912469"><ele>391.0</ele><time>2026-04-16T17:48:18.999Z</time></trkpt><trkpt lat="44.39745351301325" lon="7.824615316394512"><ele>392.5</ele><time>2026-04-16T17:48:19.999Z</time></trkpt><trkpt lat="44.397582773292264" lon="7.824661824518489"><ele>394.0</ele><time>2026-04-16T17:48:20.999Z</time></trkpt><trkpt lat="44.39769431581711" lon="7.824720569838149"><ele>395.5</ele><time>2026-04-16T17:48:21.999Z</time></trkpt><trkpt lat="44.39779639823467" lon="7.824791020023136"><ele>397.0</ele><time>2026-04-16T17:48:22.999Z</time></trkpt><trkpt lat="44.39787503868268" lon="7.824856255603865"><ele>397.0</ele><time>2026-04-16T17:48:23.999Z</time></trkpt><trkpt lat="44.397955240272466" lon="7.824898844164037"><ele>397.0</ele><time>2026-04-16T17:48:24.999Z</time></trkpt><trkpt lat="44.398024854091574" lon="7.82493358273854"><ele>397.0</ele><time>2026-04-16T17:48:25.999Z</time></trkpt><trkpt lat="44.398105125685646" lon="7.824965804105657"><ele>397.0</ele><time>2026-04-16T17:48:26.999Z</time></trkpt><trkpt lat="44.3982072586891" lon="7.825004658673082"><ele>397.0</ele><time>2026-04-16T17:48:27.999Z</time></trkpt><trkpt lat="44.39832006150718" lon="7.825007615119749"><ele>398.5</ele><time>2026-04-16T17:48:28.999Z</time></trkpt><trkpt lat="44.398421502555486" lon="7.825093440110014"><ele>400.0</ele><time>2026-04-16T17:48:29.999Z</time></trkpt><trkpt lat="44.39851973171449" lon="7.82520207891206"><ele>401.5</ele><time>2026-04-16T17:48:30.999Z</time></trkpt><trkpt lat="44.39862906500744" lon="7.825304532587203"><ele>403.0</ele><time>2026-04-16T17:48:31.999Z</time></trkpt><trkpt lat="44.39873884172847" lon="7.82540494846847"><ele>402.0</ele><time>2026-04-16T17:48:32.999Z</time></trkpt><trkpt lat="44.3988496897176" lon="7.825508837106014"><ele>401.0</ele><time>2026-04-16T17:48:33.999Z</time></trkpt><trkpt lat="44.39896172354197" lon="7.825613935015703"><ele>400.0</ele><time>2026-04-16T17:48:34.998Z</time></trkpt><trkpt lat="44.39907291221123" lon="7.8257182401233205"><ele>399.0</ele><time>2026-04-16T17:48:35.998Z</time></trkpt><trkpt lat="44.39917738081325" lon="7.825814912869264"><ele>399.0</ele><time>2026-04-16T17:48:36.998Z</time></trkpt><trkpt lat="44.399284048216145" lon="7.825913319864522"><ele>399.0</ele><time>2026-04-16T17:48:37.998Z</time></trkpt><trkpt lat="44.399392691519274" lon="7.8260135120416"><ele>399.0</ele><time>2026-04-16T17:48:38.998Z</time></trkpt><trkpt lat="44.399494923902786" lon="7.826107785965037"><ele>399.0</ele><time>2026-04-16T17:48:39.998Z</time></trkpt><trkpt lat="44.39960390734123" lon="7.826205200497151"><ele>398.0</ele><time>2026-04-16T17:48:40.998Z</time></trkpt><trkpt lat="44.39972051010697" lon="7.826304678024623"><ele>397.0</ele><time>2026-04-16T17:48:41.998Z</time></trkpt><trkpt lat="44.39983961026127" lon="7.826392505257543"><ele>396.0</ele><time>2026-04-16T17:48:42.998Z</time></trkpt><trkpt lat="44.399954211080505" lon="7.82645472003537"><ele>395.0</ele><time>2026-04-16T17:48:43.998Z</time></trkpt><trkpt lat="44.400078366387476" lon="7.826492261938987"><ele>395.0</ele><time>2026-04-16T17:48:44.998Z</time></trkpt><trkpt lat="44.40018967275949" lon="7.826550909230626"><ele>395.0</ele><time>2026-04-16T17:48:45.998Z</time></trkpt><trkpt lat="44.40030070997357" lon="7.82659578826464"><ele>395.0</ele><time>2026-04-16T17:48:46.998Z</time></trkpt><trkpt lat="44.40040522960905" lon="7.8266403920312895"><ele>395.0</ele><time>2026-04-16T17:48:47.998Z</time></trkpt><trkpt lat="44.40051639364749" lon="7.826691376016471"><ele>393.75</ele><time>2026-04-16T17:48:48.998Z</time></trkpt><trkpt lat="44.400627534361085" lon="7.826763842650253"><ele>392.5</ele><time>2026-04-16T17:48:49.998Z</time></trkpt><trkpt lat="44.40074064398721" lon="7.826847645999616"><ele>391.25</ele><time>2026-04-16T17:48:50.998Z</time></trkpt><trkpt lat="44.40083418545106" lon="7.826931932608969"><ele>390.0</ele><time>2026-04-16T17:48:52Z</time></trkpt><trkpt lat="44.40091865182712" lon="7.827038020711198"><ele>390.0</ele><time>2026-04-16T17:48:53Z</time></trkpt><trkpt lat="44.40100686158479" lon="7.827135640706845"><ele>390.0</ele><time>2026-04-16T17:48:54Z</time></trkpt><trkpt lat="44.40110320833652" lon="7.827233192810686"><ele>390.0</ele><time>2026-04-16T17:48:55Z</time></trkpt><trkpt lat="44.40119478213527" lon="7.82731956781576"><ele>390.0</ele><time>2026-04-16T17:48:56Z</time></trkpt><trkpt lat="44.4012857090338" lon="7.827413963602568"><ele>390.8</ele><time>2026-04-16T17:48:57Z</time></trkpt><trkpt lat="44.4013768571591" lon="7.827505754508279"><ele>391.6</ele><time>2026-04-16T17:48:58Z</time></trkpt><trkpt lat="44.40145850660635" lon="7.827612075356283"><ele>392.4</ele><time>2026-04-16T17:48:59Z</time></trkpt><trkpt lat="44.40155563445833" lon="7.827686621322394"><ele>393.2</ele><time>2026-04-16T17:49:00Z</time></trkpt><trkpt lat="44.40164436430885" lon="7.82777850780002"><ele>394.0</ele><time>2026-04-16T17:49:01Z</time></trkpt><trkpt lat="44.40172691872777" lon="7.8278650490537895"><ele>394.0</ele><time>2026-04-16T17:49:02Z</time></trkpt><trkpt lat="44.401815990436724" lon="7.8279559325460415"><ele>394.0</ele><time>2026-04-16T17:49:03Z</time></trkpt><trkpt lat="44.40190157789306" lon="7.828044698485606"><ele>394.0</ele><time>2026-04-16T17:49:04Z</time></trkpt><trkpt lat="44.40198511743245" lon="7.82812778764121"><ele>394.0</ele><time>2026-04-16T17:49:05Z</time></trkpt><trkpt lat="44.40207742236898" lon="7.828216475755249"><ele>394.0</ele><time>2026-04-16T17:49:06Z</time></trkpt><trkpt lat="44.4021769076079" lon="7.828307673178716"><ele>394.4</ele><time>2026-04-16T17:49:07Z</time></trkpt><trkpt lat="44.40225411357192" lon="7.828397878979295"><ele>394.79999999999995</ele><time>2026-04-16T17:49:08Z</time></trkpt><trkpt lat="44.402333768166876" lon="7.82848714129059"><ele>395.20000000000005</ele><time>2026-04-16T17:49:09Z</time></trkpt><trkpt lat="44.40242188015354" lon="7.828571169687239"><ele>395.6</ele><time>2026-04-16T17:49:10Z</time></trkpt><trkpt lat="44.40251361795355" lon="7.828661236671264"><ele>396.0</ele><time>2026-04-16T17:49:11Z</time></trkpt><trkpt lat="44.40259996477849" lon="7.828748778914861"><ele>396.0</ele><time>2026-04-16T17:49:12Z</time></trkpt><trkpt lat="44.402680065898906" lon="7.828823743128493"><ele>396.0</ele><time>2026-04-16T17:49:13Z</time></trkpt><trkpt lat="44.40276371810946" lon="7.828911059368905"><ele>396.0</ele><time>2026-04-16T17:49:14Z</time></trkpt><trkpt lat="44.402837434420235" lon="7.829015688243949"><ele>396.0</ele><time>2026-04-16T17:49:15Z</time></trkpt><trkpt lat="44.40291170016278" lon="7.829092839105533"><ele>396.0</ele><time>2026-04-16T17:49:16Z</time></trkpt><trkpt lat="44.40298253190965" lon="7.829160238076946"><ele>396.4</ele><time>2026-04-16T17:49:17Z</time></trkpt><trkpt lat="44.40305522584273" lon="7.8291912874545995"><ele>396.8</ele><time>2026-04-16T17:49:18Z</time></trkpt><trkpt lat="44.40316439891715" lon="7.8292862508345955"><ele>397.2</ele><time>2026-04-16T17:49:20Z</time></trkpt><trkpt lat="44.403233726917584" lon="7.8293560603227155"><ele>397.59999999999997</ele><time>2026-04-16T17:49:21Z</time></trkpt><trkpt lat="44.403308280174265" lon="7.829432617093808"><ele>398.0</ele><time>2026-04-16T17:49:22Z</time></trkpt><trkpt lat="44.40336915275319" lon="7.829507386668001"><ele>397.99999999999994</ele><time>2026-04-16T17:49:23Z</time></trkpt><trkpt lat="44.40341430152008" lon="7.829599204296367"><ele>398.0</ele><time>2026-04-16T17:49:24Z</time></trkpt><trkpt lat="44.40348092097182" lon="7.829680703935264"><ele>398.0</ele><time>2026-04-16T17:49:25Z</time></trkpt><trkpt lat="44.40355559166051" lon="7.829755659385162"><ele>398.0</ele><time>2026-04-16T17:49:26Z</time></trkpt><trkpt lat="44.40363041318565" lon="7.829830766215019"><ele>397.99999999999994</ele><time>2026-04-16T17:49:27Z</time></trkpt><trkpt lat="44.40371052871568" lon="7.82989233635198"><ele>398.0</ele><time>2026-04-16T17:49:28Z</time></trkpt><trkpt lat="44.40378818796605" lon="7.829974657695632"><ele>397.79999999999995</ele><time>2026-04-16T17:49:29Z</time></trkpt><trkpt lat="44.403871610586855" lon="7.830063706984125"><ele>397.6</ele><time>2026-04-16T17:49:30Z</time></trkpt><trkpt lat="44.40395567107525" lon="7.830149949750685"><ele>397.4</ele><time>2026-04-16T17:49:31Z</time></trkpt><trkpt lat="44.404039549071456" lon="7.830234578066277"><ele>397.20000000000005</ele><time>2026-04-16T17:49:32Z</time></trkpt><trkpt lat="44.404119269021436" lon="7.830317007693997"><ele>397.0</ele><time>2026-04-16T17:49:33Z</time></trkpt><trkpt lat="44.40420224513293" lon="7.830401594783906"><ele>396.8</ele><time>2026-04-16T17:49:34Z</time></trkpt><trkpt lat="44.40429274800619" lon="7.83048666708994"><ele>396.6</ele><time>2026-04-16T17:49:35Z</time></trkpt><trkpt lat="44.404386332157245" lon="7.830581044630749"><ele>396.40000000000003</ele><time>2026-04-16T17:49:36Z</time></trkpt><trkpt lat="44.40447532013862" lon="7.8306772913468"><ele>396.20000000000005</ele><time>2026-04-16T17:49:36.999Z</time></trkpt><trkpt lat="44.40456537488933" lon="7.830768858443033"><ele>396.0</ele><time>2026-04-16T17:49:37.999Z</time></trkpt><trkpt lat="44.4046626636736" lon="7.830862573549393"><ele>396.0</ele><time>2026-04-16T17:49:38.999Z</time></trkpt><trkpt lat="44.40475570618618" lon="7.830954754916564"><ele>396.0</ele><time>2026-04-16T17:49:39.999Z</time></trkpt><trkpt lat="44.404832638098185" lon="7.831056149425292"><ele>396.0</ele><time>2026-04-16T17:49:40.999Z</time></trkpt><trkpt lat="44.404919738539235" lon="7.831138555456589"><ele>396.0</ele><time>2026-04-16T17:49:41.999Z</time></trkpt><trkpt lat="44.405008232634515" lon="7.831231699525937"><ele>396.0</ele><time>2026-04-16T17:49:42.999Z</time></trkpt><trkpt lat="44.40509079130845" lon="7.8313157189685"><ele>396.0</ele><time>2026-04-16T17:49:43.999Z</time></trkpt><trkpt lat="44.40516689724786" lon="7.8313885797190474"><ele>396.0</ele><time>2026-04-16T17:49:44.999Z</time></trkpt><trkpt lat="44.40523353044313" lon="7.831460239041974"><ele>396.0</ele><time>2026-04-16T17:49:45.999Z</time></trkpt><trkpt lat="44.40529049393559" lon="7.831518026077732"><ele>396.0</ele><time>2026-04-16T17:49:46.999Z</time></trkpt><trkpt lat="44.40536370859806" lon="7.831608006985754"><ele>396.0</ele><time>2026-04-16T17:49:48.999Z</time></trkpt><trkpt lat="44.40541370500598" lon="7.831671545792112"><ele>396.0</ele><time>2026-04-16T17:49:49.999Z</time></trkpt><trkpt lat="44.405462834671646" lon="7.831759958199757"><ele>396.4</ele><time>2026-04-16T17:49:50.999Z</time></trkpt><trkpt lat="44.40551064470434" lon="7.831844325870434"><ele>396.8</ele><time>2026-04-16T17:49:51.999Z</time></trkpt><trkpt lat="44.40556004812059" lon="7.831956085808031"><ele>397.2</ele><time>2026-04-16T17:49:52.999Z</time></trkpt><trkpt lat="44.40560472509153" lon="7.83208730168295"><ele>397.59999999999997</ele><time>2026-04-16T17:49:53.999Z</time></trkpt><trkpt lat="44.405654156120924" lon="7.832224821786799"><ele>398.0</ele><time>2026-04-16T17:49:54.999Z</time></trkpt><trkpt lat="44.40571034195487" lon="7.832381587895532"><ele>398.0</ele><time>2026-04-16T17:49:55.999Z</time></trkpt><trkpt lat="44.40575678585758" lon="7.832560591035889"><ele>398.0</ele><time>2026-04-16T17:49:56.999Z</time></trkpt><trkpt lat="44.405823981879436" lon="7.832719272843316"><ele>398.0</ele><time>2026-04-16T17:49:57.999Z</time></trkpt><trkpt lat="44.405876504093264" lon="7.832904325105942"><ele>398.0</ele><time>2026-04-16T17:49:58.999Z</time></trkpt><trkpt lat="44.40590396223914" lon="7.833104746525702"><ele>396.5</ele><time>2026-04-16T17:49:59.999Z</time></trkpt><trkpt lat="44.405942935148325" lon="7.833309779759015"><ele>395.0</ele><time>2026-04-16T17:50:00.999Z</time></trkpt><trkpt lat="44.40597751112053" lon="7.83350188643658"><ele>393.5</ele><time>2026-04-16T17:50:01.999Z</time></trkpt><trkpt lat="44.40601444864442" lon="7.833694345967436"><ele>392.0</ele><time>2026-04-16T17:50:02.999Z</time></trkpt><trkpt lat="44.40606117926597" lon="7.83387515052212"><ele>392.0</ele><time>2026-04-16T17:50:03.999Z</time></trkpt><trkpt lat="44.406116825812994" lon="7.834047373360795"><ele>392.0</ele><time>2026-04-16T17:50:04.999Z</time></trkpt><trkpt lat="44.406193920223544" lon="7.834225914662197"><ele>392.0</ele><time>2026-04-16T17:50:05.999Z</time></trkpt><trkpt lat="44.40628656371073" lon="7.8343960219763735"><ele>392.0</ele><time>2026-04-16T17:50:06.999Z</time></trkpt><trkpt lat="44.40639196770496" lon="7.83455533907941"><ele>394.0</ele><time>2026-04-16T17:50:07.999Z</time></trkpt><trkpt lat="44.40650437096627" lon="7.8347056921182805"><ele>396.0</ele><time>2026-04-16T17:50:08.999Z</time></trkpt><trkpt lat="44.40662350677744" lon="7.834851859634089"><ele>398.0</ele><time>2026-04-16T17:50:09.999Z</time></trkpt><trkpt lat="44.40673656920106" lon="7.834990577195925"><ele>398.0</ele><time>2026-04-16T17:50:10.999Z</time></trkpt><trkpt lat="44.40684954996483" lon="7.835129193150033"><ele>398.0</ele><time>2026-04-16T17:50:11.999Z</time></trkpt><trkpt lat="44.406965126484074" lon="7.835270993814779"><ele>398.0</ele><time>2026-04-16T17:50:12.999Z</time></trkpt><trkpt lat="44.407088432918734" lon="7.83539296585997"><ele>397.66666666666663</ele><time>2026-04-16T17:50:13.999Z</time></trkpt><trkpt lat="44.40719370058449" lon="7.835547993133294"><ele>397.33333333333337</ele><time>2026-04-16T17:50:14.999Z</time></trkpt><trkpt lat="44.407308762234436" lon="7.835686877458663"><ele>397.0</ele><time>2026-04-16T17:50:15.999Z</time></trkpt><trkpt lat="44.407425173462" lon="7.835827699085929"><ele>397.0</ele><time>2026-04-16T17:50:16.999Z</time></trkpt><trkpt lat="44.40755539810208" lon="7.835956113393985"><ele>397.0</ele><time>2026-04-16T17:50:17.999Z</time></trkpt><trkpt lat="44.407674466066354" lon="7.836102006965813"><ele>397.0</ele><time>2026-04-16T17:50:18.999Z</time></trkpt><trkpt lat="44.40779362510164" lon="7.836247712171584"><ele>397.0</ele><time>2026-04-16T17:50:19.999Z</time></trkpt><trkpt lat="44.407912823951776" lon="7.836396715488195"><ele>397.0</ele><time>2026-04-16T17:50:20.999Z</time></trkpt><trkpt lat="44.408031773562435" lon="7.836541495632623"><ele>397.0</ele><time>2026-04-16T17:50:21.999Z</time></trkpt><trkpt lat="44.40815124758501" lon="7.836688896181165"><ele>397.0</ele><time>2026-04-16T17:50:22.999Z</time></trkpt><trkpt lat="44.408270567666065" lon="7.836827415554905"><ele>397.0</ele><time>2026-04-16T17:50:23.999Z</time></trkpt><trkpt lat="44.40838689949824" lon="7.836968905433598"><ele>397.0</ele><time>2026-04-16T17:50:24.999Z</time></trkpt><trkpt lat="44.408498144115704" lon="7.837105242471048"><ele>397.0</ele><time>2026-04-16T17:50:25.999Z</time></trkpt><trkpt lat="44.40861301890981" lon="7.837241731834918"><ele>397.0</ele><time>2026-04-16T17:50:26.999Z</time></trkpt><trkpt lat="44.408714238460014" lon="7.83739181048029"><ele>397.0</ele><time>2026-04-16T17:50:27.999Z</time></trkpt><trkpt lat="44.40882178275479" lon="7.837522409328944"><ele>397.0</ele><time>2026-04-16T17:50:28.999Z</time></trkpt><trkpt lat="44.4089436826414" lon="7.837641863144185"><ele>397.0</ele><time>2026-04-16T17:50:29.999Z</time></trkpt><trkpt lat="44.40904105778504" lon="7.837789810552927"><ele>397.0</ele><time>2026-04-16T17:50:30.999Z</time></trkpt><trkpt lat="44.40914229267799" lon="7.8379128255506"><ele>397.0</ele><time>2026-04-16T17:50:31.999Z</time></trkpt><trkpt lat="44.409241047900906" lon="7.838032374624851"><ele>397.0</ele><time>2026-04-16T17:50:32.999Z</time></trkpt><trkpt lat="44.409337217236214" lon="7.838150532776626"><ele>397.0</ele><time>2026-04-16T17:50:33.999Z</time></trkpt><trkpt lat="44.40944579227234" lon="7.838241957568188"><ele>397.0</ele><time>2026-04-16T17:50:34.999Z</time></trkpt><trkpt lat="44.40953824638216" lon="7.838351836426741"><ele>397.0</ele><time>2026-04-16T17:50:35.999Z</time></trkpt><trkpt lat="44.40963666814643" lon="7.8384676463035525"><ele>397.0</ele><time>2026-04-16T17:50:36.999Z</time></trkpt><trkpt lat="44.40973522096579" lon="7.838588662558501"><ele>396.5</ele><time>2026-04-16T17:50:37.998Z</time></trkpt><trkpt lat="44.409816791455334" lon="7.8387333058600595"><ele>396.0</ele><time>2026-04-16T17:50:38.998Z</time></trkpt><trkpt lat="44.40991914042272" lon="7.83885784680027"><ele>395.5</ele><time>2026-04-16T17:50:39.998Z</time></trkpt><trkpt lat="44.41003379968047" lon="7.838969393200029"><ele>395.0</ele><time>2026-04-16T17:50:40.998Z</time></trkpt><trkpt lat="44.410128874634125" lon="7.839113057102074"><ele>395.0</ele><time>2026-04-16T17:50:41.998Z</time></trkpt><trkpt lat="44.4102346567195" lon="7.839244405928395"><ele>395.0</ele><time>2026-04-16T17:50:42.998Z</time></trkpt><trkpt lat="44.4103435401714" lon="7.839376427690991"><ele>395.0</ele><time>2026-04-16T17:50:43.998Z</time></trkpt><trkpt lat="44.41045174188086" lon="7.839507622834329"><ele>395.0</ele><time>2026-04-16T17:50:44.998Z</time></trkpt><trkpt lat="44.41057821105388" lon="7.839616174524617"><ele>394.25</ele><time>2026-04-16T17:50:45.998Z</time></trkpt><trkpt lat="44.410688387602406" lon="7.839751417571459"><ele>393.5</ele><time>2026-04-16T17:50:46.998Z</time></trkpt><trkpt lat="44.41079944063751" lon="7.839887636972451"><ele>392.75</ele><time>2026-04-16T17:50:47.998Z</time></trkpt><trkpt lat="44.41090803174305" lon="7.840024608361737"><ele>392.0</ele><time>2026-04-16T17:50:48.998Z</time></trkpt><trkpt lat="44.4110038628168" lon="7.840184563391072"><ele>392.0</ele><time>2026-04-16T17:50:49.998Z</time></trkpt><trkpt lat="44.411113472096126" lon="7.840319858003637"><ele>392.0</ele><time>2026-04-16T17:50:50.998Z</time></trkpt><trkpt lat="44.411223536976735" lon="7.840455714891422"><ele>392.0</ele><time>2026-04-16T17:50:51.998Z</time></trkpt><trkpt lat="44.41133383306249" lon="7.840591226950581"><ele>392.0</ele><time>2026-04-16T17:50:52.998Z</time></trkpt><trkpt lat="44.41144586497848" lon="7.840728859123165"><ele>392.0</ele><time>2026-04-16T17:50:53.998Z</time></trkpt><trkpt lat="44.411554984290845" lon="7.840862911995254"><ele>392.0</ele><time>2026-04-16T17:50:54.998Z</time></trkpt><trkpt lat="44.41166024059689" lon="7.840992188235622"><ele>392.0</ele><time>2026-04-16T17:50:55.998Z</time></trkpt><trkpt lat="44.41175801994114" lon="7.841112286770469"><ele>392.0</ele><time>2026-04-16T17:50:56.998Z</time></trkpt><trkpt lat="44.41184979752957" lon="7.841225013606859"><ele>392.0</ele><time>2026-04-16T17:50:58Z</time></trkpt><trkpt lat="44.41193981930309" lon="7.841333584027793"><ele>392.0</ele><time>2026-04-16T17:50:59Z</time></trkpt><trkpt lat="44.41202403949747" lon="7.841432939997988"><ele>392.0</ele><time>2026-04-16T17:51:00Z</time></trkpt><trkpt lat="44.4121139940501" lon="7.841510574178301"><ele>392.0</ele><time>2026-04-16T17:51:01Z</time></trkpt><trkpt lat="44.41217642984197" lon="7.841608295915354"><ele>392.0</ele><time>2026-04-16T17:51:02Z</time></trkpt><trkpt lat="44.412227997048795" lon="7.841710250768229"><ele>391.8333333333333</ele><time>2026-04-16T17:51:03Z</time></trkpt><trkpt lat="44.41226867753538" lon="7.841808406183049"><ele>391.66666666666663</ele><time>2026-04-16T17:51:04Z</time></trkpt><trkpt lat="44.4122937052189" lon="7.841898927969951"><ele>391.5</ele><time>2026-04-16T17:51:05Z</time></trkpt><trkpt lat="44.412306115127166" lon="7.841999015782888"><ele>391.33333333333337</ele><time>2026-04-16T17:51:06Z</time></trkpt><trkpt lat="44.41230678359328" lon="7.842113495490555"><ele>391.1666666666667</ele><time>2026-04-16T17:51:07Z</time></trkpt><trkpt lat="44.412295961917515" lon="7.842208308440755"><ele>391.0</ele><time>2026-04-16T17:51:08Z</time></trkpt><trkpt lat="44.41232518088505" lon="7.842364992132506"><ele>390.99999999999994</ele><time>2026-04-16T17:51:10Z</time></trkpt><trkpt lat="44.41236599575774" lon="7.842438435635588"><ele>391.0</ele><time>2026-04-16T17:51:11Z</time></trkpt><trkpt lat="44.41241099621588" lon="7.8425111410157875"><ele>391.0</ele><time>2026-04-16T17:51:12Z</time></trkpt><trkpt lat="44.412496058581574" lon="7.84253173240657"><ele>391.0</ele><time>2026-04-16T17:51:13Z</time></trkpt><trkpt lat="44.41256298188928" lon="7.842517662125679"><ele>391.0</ele><time>2026-04-16T17:51:14Z</time></trkpt><trkpt lat="44.41262540113454" lon="7.842452938340114"><ele>390.99999999999994</ele><time>2026-04-16T17:51:15Z</time></trkpt><trkpt lat="44.41268563883256" lon="7.8423764694337965"><ele>391.0</ele><time>2026-04-16T17:51:16Z</time></trkpt><trkpt lat="44.41271055644505" lon="7.842270776385653"><ele>391.0</ele><time>2026-04-16T17:51:17Z</time></trkpt><trkpt lat="44.412860323185974" lon="7.8422097169743346"><ele>391.0</ele><time>2026-04-16T17:51:19Z</time></trkpt><trkpt lat="44.41294051234943" lon="7.842218891816806"><ele>391.0</ele><time>2026-04-16T17:51:20Z</time></trkpt><trkpt lat="44.41302935272772" lon="7.8422488163627255"><ele>391.0</ele><time>2026-04-16T17:51:21Z</time></trkpt><trkpt lat="44.413126915025025" lon="7.842295712725796"><ele>391.0</ele><time>2026-04-16T17:51:22Z</time></trkpt><trkpt lat="44.41321663216736" lon="7.842352579957339"><ele>391.0</ele><time>2026-04-16T17:51:23Z</time></trkpt><trkpt lat="44.41331965173725" lon="7.842415401889953"><ele>391.0</ele><time>2026-04-16T17:51:24Z</time></trkpt><trkpt lat="44.413429220878605" lon="7.842481026345447"><ele>391.0</ele><time>2026-04-16T17:51:25Z</time></trkpt><trkpt lat="44.413546559520846" lon="7.842550160727202"><ele>391.0</ele><time>2026-04-16T17:51:26Z</time></trkpt><trkpt lat="44.413657406166834" lon="7.842618151257803"><ele>391.0</ele><time>2026-04-16T17:51:27Z</time></trkpt><trkpt lat="44.41378033034983" lon="7.842693980799311"><ele>391.0</ele><time>2026-04-16T17:51:28Z</time></trkpt><trkpt lat="44.41391311473389" lon="7.8427677348827824"><ele>391.0</ele><time>2026-04-16T17:51:29Z</time></trkpt><trkpt lat="44.41404824910014" lon="7.8428457893349135"><ele>391.0</ele><time>2026-04-16T17:51:30Z</time></trkpt><trkpt lat="44.41418439923725" lon="7.842928873822652"><ele>391.0</ele><time>2026-04-16T17:51:31Z</time></trkpt><trkpt lat="44.41432202448821" lon="7.843009644127329"><ele>391.0</ele><time>2026-04-16T17:51:32Z</time></trkpt><trkpt lat="44.41447210616132" lon="7.843108397370627"><ele>391.0</ele><time>2026-04-16T17:51:33Z</time></trkpt><trkpt lat="44.41460949166288" lon="7.843189815929612"><ele>391.0</ele><time>2026-04-16T17:51:34Z</time></trkpt><trkpt lat="44.41474705505389" lon="7.843268664260359"><ele>391.0</ele><time>2026-04-16T17:51:35Z</time></trkpt><trkpt lat="44.41488683403226" lon="7.84335228562252"><ele>391.0</ele><time>2026-04-16T17:51:36Z</time></trkpt><trkpt lat="44.41502491504257" lon="7.843447089641648"><ele>390.6666666666667</ele><time>2026-04-16T17:51:37Z</time></trkpt><trkpt lat="44.415170358826536" lon="7.843532631638385"><ele>390.33333333333337</ele><time>2026-04-16T17:51:38Z</time></trkpt><trkpt lat="44.41530700457901" lon="7.843621211596622"><ele>390.0</ele><time>2026-04-16T17:51:39Z</time></trkpt><trkpt lat="44.41543863248755" lon="7.843701022840961"><ele>390.25</ele><time>2026-04-16T17:51:40Z</time></trkpt><trkpt lat="44.415563049873626" lon="7.843796961878198"><ele>390.5</ele><time>2026-04-16T17:51:41Z</time></trkpt><trkpt lat="44.41568316455944" lon="7.843907899454936"><ele>390.75</ele><time>2026-04-16T17:51:41.999Z</time></trkpt><trkpt lat="44.41579711629735" lon="7.844010222100515"><ele>391.0</ele><time>2026-04-16T17:51:42.999Z</time></trkpt><trkpt lat="44.415911748125005" lon="7.844117424321308"><ele>391.0</ele><time>2026-04-16T17:51:43.999Z</time></trkpt><trkpt lat="44.416030726742356" lon="7.84422301517151"><ele>391.0</ele><time>2026-04-16T17:51:44.999Z</time></trkpt><trkpt lat="44.41614672258128" lon="7.844330711826414"><ele>391.0</ele><time>2026-04-16T17:51:45.999Z</time></trkpt><trkpt lat="44.416266030658605" lon="7.8444380316812214"><ele>391.0</ele><time>2026-04-16T17:51:46.999Z</time></trkpt><trkpt lat="44.41638845767834" lon="7.844547553684173"><ele>390.5</ele><time>2026-04-16T17:51:47.999Z</time></trkpt><trkpt lat="44.416513679663" lon="7.844653200227785"><ele>390.0</ele><time>2026-04-16T17:51:48.999Z</time></trkpt><trkpt lat="44.41663474446589" lon="7.844763002122349"><ele>389.5</ele><time>2026-04-16T17:51:49.999Z</time></trkpt><trkpt lat="44.41675651930084" lon="7.84486531882568"><ele>389.0</ele><time>2026-04-16T17:51:50.999Z</time></trkpt><trkpt lat="44.41687219756216" lon="7.844968854065899"><ele>389.0</ele><time>2026-04-16T17:51:51.999Z</time></trkpt><trkpt lat="44.41698917523073" lon="7.845069533581257"><ele>389.0</ele><time>2026-04-16T17:51:52.999Z</time></trkpt><trkpt lat="44.4171062318278" lon="7.845166991236151"><ele>389.0</ele><time>2026-04-16T17:51:53.999Z</time></trkpt><trkpt lat="44.417217462071896" lon="7.845259561573391"><ele>389.0</ele><time>2026-04-16T17:51:54.999Z</time></trkpt><trkpt lat="44.41732418422537" lon="7.845339014400992"><ele>389.5</ele><time>2026-04-16T17:51:55.999Z</time></trkpt><trkpt lat="44.417424021648344" lon="7.845422150870393"><ele>390.0</ele><time>2026-04-16T17:51:56.999Z</time></trkpt><trkpt lat="44.41752218767698" lon="7.845512786943503"><ele>390.5</ele><time>2026-04-16T17:51:57.999Z</time></trkpt><trkpt lat="44.41762394279151" lon="7.845606349657166"><ele>391.0</ele><time>2026-04-16T17:51:58.999Z</time></trkpt><trkpt lat="44.4177228057634" lon="7.845692160035329"><ele>391.0</ele><time>2026-04-16T17:51:59.999Z</time></trkpt><trkpt lat="44.41782650227435" lon="7.845779689188392"><ele>391.0</ele><time>2026-04-16T17:52:00.999Z</time></trkpt><trkpt lat="44.417933666880636" lon="7.845871342878564"><ele>391.0</ele><time>2026-04-16T17:52:01.999Z</time></trkpt><trkpt lat="44.418043746866275" lon="7.84596757982377"><ele>391.0</ele><time>2026-04-16T17:52:02.999Z</time></trkpt><trkpt lat="44.418156143300564" lon="7.846066761599944"><ele>390.75</ele><time>2026-04-16T17:52:03.999Z</time></trkpt><trkpt lat="44.41826254097562" lon="7.846159433717742"><ele>390.5</ele><time>2026-04-16T17:52:04.999Z</time></trkpt><trkpt lat="44.41836448862098" lon="7.846236751655454"><ele>390.25</ele><time>2026-04-16T17:52:05.999Z</time></trkpt><trkpt lat="44.41846161937082" lon="7.846331146081395"><ele>390.0</ele><time>2026-04-16T17:52:06.999Z</time></trkpt><trkpt lat="44.418571022520815" lon="7.8464202636015505"><ele>390.0</ele><time>2026-04-16T17:52:07.999Z</time></trkpt><trkpt lat="44.41866364989308" lon="7.846504731919616"><ele>390.0</ele><time>2026-04-16T17:52:08.999Z</time></trkpt><trkpt lat="44.41874909561424" lon="7.8465838303732065"><ele>390.0</ele><time>2026-04-16T17:52:09.999Z</time></trkpt><trkpt lat="44.418832083463826" lon="7.846652899483819"><ele>390.0</ele><time>2026-04-16T17:52:10.999Z</time></trkpt><trkpt lat="44.41890753617832" lon="7.846721686447852"><ele>390.0</ele><time>2026-04-16T17:52:11.999Z</time></trkpt><trkpt lat="44.41897691023399" lon="7.846787844909898"><ele>389.6666666666667</ele><time>2026-04-16T17:52:12.999Z</time></trkpt><trkpt lat="44.41903611567299" lon="7.8468556400974725"><ele>389.33333333333337</ele><time>2026-04-16T17:52:13.999Z</time></trkpt><trkpt lat="44.419080153152876" lon="7.846919247137194"><ele>389.0</ele><time>2026-04-16T17:52:14.999Z</time></trkpt><trkpt lat="44.41915029140246" lon="7.847059468633046"><ele>388.6666666666667</ele><time>2026-04-16T17:52:16.999Z</time></trkpt><trkpt lat="44.419137014284665" lon="7.847186872595926"><ele>388.33333333333337</ele><time>2026-04-16T17:52:17.999Z</time></trkpt><trkpt lat="44.41915129855539" lon="7.847277537190908"><ele>388.0</ele><time>2026-04-16T17:52:18.999Z</time></trkpt><trkpt lat="44.41920026198317" lon="7.847431332620367"><ele>388.0</ele><time>2026-04-16T17:52:20.999Z</time></trkpt><trkpt lat="44.41926823785686" lon="7.847486471593888"><ele>388.0</ele><time>2026-04-16T17:52:21.999Z</time></trkpt><trkpt lat="44.419369859403915" lon="7.847467785573608"><ele>388.0</ele><time>2026-04-16T17:52:22.999Z</time></trkpt><trkpt lat="44.41945817203685" lon="7.847399929952405"><ele>388.0</ele><time>2026-04-16T17:52:23.999Z</time></trkpt><trkpt lat="44.419565366418695" lon="7.84744093796084"><ele>388.0</ele><time>2026-04-16T17:52:24.999Z</time></trkpt><trkpt lat="44.41966376952363" lon="7.847487149305901"><ele>388.0</ele><time>2026-04-16T17:52:25.999Z</time></trkpt><trkpt lat="44.41975893377252" lon="7.84754699701067"><ele>388.0</ele><time>2026-04-16T17:52:26.999Z</time></trkpt><trkpt lat="44.4198562256538" lon="7.847625563041027"><ele>388.0</ele><time>2026-04-16T17:52:27.999Z</time></trkpt><trkpt lat="44.41995670046754" lon="7.847716850860392"><ele>388.0</ele><time>2026-04-16T17:52:28.999Z</time></trkpt><trkpt lat="44.420049838312856" lon="7.8478215316485604"><ele>388.0</ele><time>2026-04-16T17:52:29.999Z</time></trkpt><trkpt lat="44.42015124393776" lon="7.847937353824098"><ele>388.0</ele><time>2026-04-16T17:52:30.999Z</time></trkpt><trkpt lat="44.42025398539745" lon="7.848056254893349"><ele>388.0</ele><time>2026-04-16T17:52:31.999Z</time></trkpt><trkpt lat="44.420353270320874" lon="7.848173607593599"><ele>388.0</ele><time>2026-04-16T17:52:32.999Z</time></trkpt><trkpt lat="44.42047017876803" lon="7.848289191731351"><ele>388.0</ele><time>2026-04-16T17:52:33.999Z</time></trkpt><trkpt lat="44.42057843681873" lon="7.848406338289181"><ele>388.0</ele><time>2026-04-16T17:52:34.999Z</time></trkpt><trkpt lat="44.42066824220629" lon="7.8485374181894425"><ele>388.0</ele><time>2026-04-16T17:52:35.999Z</time></trkpt><trkpt lat="44.420751101303274" lon="7.848645267159771"><ele>388.0</ele><time>2026-04-16T17:52:36.999Z</time></trkpt><trkpt lat="44.42085521045448" lon="7.848737235829839"><ele>387.59999999999997</ele><time>2026-04-16T17:52:37.999Z</time></trkpt><trkpt lat="44.420962621630714" lon="7.848839302094983"><ele>387.2</ele><time>2026-04-16T17:52:38.999Z</time></trkpt><trkpt lat="44.42107128658669" lon="7.848898730956156"><ele>386.8</ele><time>2026-04-16T17:52:39.999Z</time></trkpt><trkpt lat="44.421171738094" lon="7.848919890532362"><ele>386.4</ele><time>2026-04-16T17:52:40.999Z</time></trkpt><trkpt lat="44.42125664399244" lon="7.848979549988569"><ele>386.0</ele><time>2026-04-16T17:52:41.999Z</time></trkpt><trkpt lat="44.421339294298505" lon="7.849003890588211"><ele>385.8333333333333</ele><time>2026-04-16T17:52:42.998Z</time></trkpt><trkpt lat="44.42140648384058" lon="7.849038923223271"><ele>385.66666666666663</ele><time>2026-04-16T17:52:43.998Z</time></trkpt><trkpt lat="44.42150620015998" lon="7.849142048231101"><ele>385.5</ele><time>2026-04-16T17:52:45.998Z</time></trkpt><trkpt lat="44.4215415898365" lon="7.849246326196167"><ele>385.33333333333337</ele><time>2026-04-16T17:52:46.998Z</time></trkpt><trkpt lat="44.4215636483184" lon="7.849357182519983"><ele>385.1666666666667</ele><time>2026-04-16T17:52:47.998Z</time></trkpt><trkpt lat="44.421581636173144" lon="7.8494494101215615"><ele>385.0</ele><time>2026-04-16T17:52:48.998Z</time></trkpt><trkpt lat="44.42162089886644" lon="7.849528338863095"><ele>385.00000000000006</ele><time>2026-04-16T17:52:49.998Z</time></trkpt><trkpt lat="44.42167551123881" lon="7.849589773418123"><ele>385.0</ele><time>2026-04-16T17:52:50.998Z</time></trkpt><trkpt lat="44.42174607941071" lon="7.849634253096099"><ele>385.0</ele><time>2026-04-16T17:52:51.998Z</time></trkpt><trkpt lat="44.42181471868617" lon="7.8496525544453055"><ele>385.0</ele><time>2026-04-16T17:52:52.998Z</time></trkpt><trkpt lat="44.42188688873752" lon="7.849650472365703"><ele>385.00000000000006</ele><time>2026-04-16T17:52:53.998Z</time></trkpt><trkpt lat="44.421961500608845" lon="7.849618001893256"><ele>385.0</ele><time>2026-04-16T17:52:54.998Z</time></trkpt><trkpt lat="44.42203067889363" lon="7.849555156066121"><ele>385.0</ele><time>2026-04-16T17:52:55.998Z</time></trkpt><trkpt lat="44.42209143477566" lon="7.8494615609049045"><ele>385.0</ele><time>2026-04-16T17:52:56.998Z</time></trkpt><trkpt lat="44.42213070927023" lon="7.849369836470967"><ele>385.0</ele><time>2026-04-16T17:52:57.998Z</time></trkpt><trkpt lat="44.42217470290624" lon="7.849292490443092"><ele>385.0</ele><time>2026-04-16T17:52:58.998Z</time></trkpt><trkpt lat="44.42229868565407" lon="7.849218199286735"><ele>385.0</ele><time>2026-04-16T17:53:00.998Z</time></trkpt><trkpt lat="44.42238518013299" lon="7.8492387590265436"><ele>385.0</ele><time>2026-04-16T17:53:01.998Z</time></trkpt><trkpt lat="44.42247515401631" lon="7.849282488963036"><ele>385.0</ele><time>2026-04-16T17:53:02.998Z</time></trkpt><trkpt lat="44.42256603424026" lon="7.849333571942695"><ele>385.0</ele><time>2026-04-16T17:53:04Z</time></trkpt><trkpt lat="44.4226616428807" lon="7.849402588609289"><ele>385.0</ele><time>2026-04-16T17:53:05Z</time></trkpt><trkpt lat="44.42275229389794" lon="7.849487741128502"><ele>385.0</ele><time>2026-04-16T17:53:06Z</time></trkpt><trkpt lat="44.4228230296486" lon="7.849577858457298"><ele>385.00000000000006</ele><time>2026-04-16T17:53:07Z</time></trkpt><trkpt lat="44.42288896223157" lon="7.849663132218964"><ele>385.0</ele><time>2026-04-16T17:53:08Z</time></trkpt><trkpt lat="44.42294863562834" lon="7.849745020830213"><ele>385.0</ele><time>2026-04-16T17:53:09Z</time></trkpt><trkpt lat="44.42299874230052" lon="7.849827890128747"><ele>385.0</ele><time>2026-04-16T17:53:10Z</time></trkpt><trkpt lat="44.42304104140086" lon="7.849926840992379"><ele>385.00000000000006</ele><time>2026-04-16T17:53:11Z</time></trkpt><trkpt lat="44.42308330749823" lon="7.85004004365578"><ele>385.0</ele><time>2026-04-16T17:53:12Z</time></trkpt><trkpt lat="44.42313985893129" lon="7.85014229925735"><ele>384.8</ele><time>2026-04-16T17:53:13Z</time></trkpt><trkpt lat="44.42322061662249" lon="7.8502291487799924"><ele>384.6</ele><time>2026-04-16T17:53:14Z</time></trkpt><trkpt lat="44.42331574470702" lon="7.850314083950551"><ele>384.4</ele><time>2026-04-16T17:53:15Z</time></trkpt><trkpt lat="44.42340835242833" lon="7.850404506035752"><ele>384.2</ele><time>2026-04-16T17:53:16Z</time></trkpt><trkpt lat="44.423495931988064" lon="7.8505175774840845"><ele>384.0</ele><time>2026-04-16T17:53:17Z</time></trkpt><trkpt lat="44.42358521522234" lon="7.850661762474613"><ele>384.0</ele><time>2026-04-16T17:53:18Z</time></trkpt><trkpt lat="44.42366496256677" lon="7.850815186203967"><ele>384.0</ele><time>2026-04-16T17:53:19Z</time></trkpt><trkpt lat="44.42374092146772" lon="7.850981676071627"><ele>384.0</ele><time>2026-04-16T17:53:20Z</time></trkpt><trkpt lat="44.42382424855915" lon="7.851161471570776"><ele>384.0</ele><time>2026-04-16T17:53:21Z</time></trkpt><trkpt lat="44.42391015559841" lon="7.851354435462055"><ele>383.6666666666667</ele><time>2026-04-16T17:53:22Z</time></trkpt><trkpt lat="44.42400019368492" lon="7.851560772062793"><ele>383.33333333333337</ele><time>2026-04-16T17:53:23Z</time></trkpt><trkpt lat="44.424088978143494" lon="7.851766738938179"><ele>383.0</ele><time>2026-04-16T17:53:24Z</time></trkpt><trkpt lat="44.424185034997116" lon="7.851979397045394"><ele>383.0</ele><time>2026-04-16T17:53:25Z</time></trkpt><trkpt lat="44.42428762616792" lon="7.852195218448427"><ele>383.0</ele><time>2026-04-16T17:53:26Z</time></trkpt><trkpt lat="44.424384512200135" lon="7.852415263397287"><ele>383.0</ele><time>2026-04-16T17:53:27Z</time></trkpt><trkpt lat="44.42448893008994" lon="7.852637739093288"><ele>383.0</ele><time>2026-04-16T17:53:28Z</time></trkpt><trkpt lat="44.424608960021644" lon="7.85284981129868"><ele>383.0</ele><time>2026-04-16T17:53:29Z</time></trkpt><trkpt lat="44.42474571234693" lon="7.853044458408094"><ele>383.0</ele><time>2026-04-16T17:53:30Z</time></trkpt><trkpt lat="44.42489504798802" lon="7.853229947097751"><ele>383.0</ele><time>2026-04-16T17:53:31Z</time></trkpt><trkpt lat="44.42504567783525" lon="7.853417421504699"><ele>383.0</ele><time>2026-04-16T17:53:32Z</time></trkpt><trkpt lat="44.425190538291005" lon="7.85360284664501"><ele>383.0</ele><time>2026-04-16T17:53:33Z</time></trkpt><trkpt lat="44.42533557040042" lon="7.853793561760423"><ele>383.0</ele><time>2026-04-16T17:53:34Z</time></trkpt><trkpt lat="44.42548136365768" lon="7.853981497055568"><ele>383.0</ele><time>2026-04-16T17:53:35Z</time></trkpt><trkpt lat="44.42561503756237" lon="7.8541857570206455"><ele>383.0</ele><time>2026-04-16T17:53:36Z</time></trkpt><trkpt lat="44.425759816772306" lon="7.8543741775892215"><ele>383.0</ele><time>2026-04-16T17:53:37Z</time></trkpt><trkpt lat="44.42590331876945" lon="7.854559889793387"><ele>383.0</ele><time>2026-04-16T17:53:38Z</time></trkpt><trkpt lat="44.42604876203122" lon="7.85474958168845"><ele>383.0</ele><time>2026-04-16T17:53:39Z</time></trkpt><trkpt lat="44.426197517443036" lon="7.854943153893119"><ele>382.6666666666667</ele><time>2026-04-16T17:53:40Z</time></trkpt><trkpt lat="44.42634773808554" lon="7.855139604150108"><ele>382.3333333333333</ele><time>2026-04-16T17:53:41Z</time></trkpt><trkpt lat="44.42649888820524" lon="7.855336146304206"><ele>382.0</ele><time>2026-04-16T17:53:42Z</time></trkpt><trkpt lat="44.42664023883166" lon="7.85551938114578"><ele>382.0</ele><time>2026-04-16T17:53:43Z</time></trkpt><trkpt lat="44.426781855231255" lon="7.855702961528009"><ele>382.0</ele><time>2026-04-16T17:53:44Z</time></trkpt><trkpt lat="44.42692612012963" lon="7.855888938742168"><ele>382.0</ele><time>2026-04-16T17:53:45Z</time></trkpt><trkpt lat="44.42707410523658" lon="7.856079672339628"><ele>382.0</ele><time>2026-04-16T17:53:46Z</time></trkpt><trkpt lat="44.427236577644024" lon="7.856265152683769"><ele>382.0</ele><time>2026-04-16T17:53:47Z</time></trkpt><trkpt lat="44.42738931196367" lon="7.8564649423700015"><ele>382.0</ele><time>2026-04-16T17:53:48Z</time></trkpt><trkpt lat="44.42753296360887" lon="7.856670410477311"><ele>381.66666666666663</ele><time>2026-04-16T17:53:49Z</time></trkpt><trkpt lat="44.42768851105474" lon="7.85687012806176"><ele>381.3333333333333</ele><time>2026-04-16T17:53:49.999Z</time></trkpt><trkpt lat="44.42784843243467" lon="7.857067402687822"><ele>381.0</ele><time>2026-04-16T17:53:50.999Z</time></trkpt><trkpt lat="44.42800815819056" lon="7.857255186451435"><ele>380.3333333333333</ele><time>2026-04-16T17:53:51.999Z</time></trkpt><trkpt lat="44.4281697082921" lon="7.857439921539557"><ele>379.66666666666663</ele><time>2026-04-16T17:53:52.999Z</time></trkpt><trkpt lat="44.42833385221748" lon="7.857623512475427"><ele>379.0</ele><time>2026-04-16T17:53:53.999Z</time></trkpt><trkpt lat="44.42850069236296" lon="7.857810119024928"><ele>379.0</ele><time>2026-04-16T17:53:54.999Z</time></trkpt><trkpt lat="44.428667137735765" lon="7.85799698741472"><ele>379.0</ele><time>2026-04-16T17:53:55.999Z</time></trkpt><trkpt lat="44.428830821318236" lon="7.858181497664223"><ele>379.0</ele><time>2026-04-16T17:53:56.999Z</time></trkpt><trkpt lat="44.42899426159097" lon="7.858365733636633"><ele>379.0</ele><time>2026-04-16T17:53:57.999Z</time></trkpt><trkpt lat="44.42915847198012" lon="7.858550837710118"><ele>379.0</ele><time>2026-04-16T17:53:58.999Z</time></trkpt><trkpt lat="44.429319609896" lon="7.858732478431902"><ele>379.0</ele><time>2026-04-16T17:53:59.999Z</time></trkpt><trkpt lat="44.42948452113406" lon="7.85891750137392"><ele>378.66666666666663</ele><time>2026-04-16T17:54:00.999Z</time></trkpt><trkpt lat="44.429648396802456" lon="7.859101101065066"><ele>378.3333333333333</ele><time>2026-04-16T17:54:01.999Z</time></trkpt><trkpt lat="44.42981343789024" lon="7.859286006429612"><ele>378.0</ele><time>2026-04-16T17:54:02.999Z</time></trkpt><trkpt lat="44.42997735336023" lon="7.859469650699433"><ele>378.6666666666667</ele><time>2026-04-16T17:54:03.999Z</time></trkpt><trkpt lat="44.430142476097835" lon="7.859654988064234"><ele>379.33333333333337</ele><time>2026-04-16T17:54:04.999Z</time></trkpt><trkpt lat="44.43030686091025" lon="7.859839747334921"><ele>380.0</ele><time>2026-04-16T17:54:05.999Z</time></trkpt><trkpt lat="44.430472374843355" lon="7.86002577566502"><ele>379.33333333333337</ele><time>2026-04-16T17:54:06.999Z</time></trkpt><trkpt lat="44.43063516390836" lon="7.860208603982096"><ele>378.6666666666667</ele><time>2026-04-16T17:54:07.999Z</time></trkpt><trkpt lat="44.430798292349" lon="7.860390812350633"><ele>378.0</ele><time>2026-04-16T17:54:08.999Z</time></trkpt><trkpt lat="44.43096004824292" lon="7.860571716497272"><ele>378.0</ele><time>2026-04-16T17:54:09.999Z</time></trkpt><trkpt lat="44.431120194128496" lon="7.860752618659728"><ele>378.0</ele><time>2026-04-16T17:54:10.999Z</time></trkpt><trkpt lat="44.431280637194206" lon="7.860933184102863"><ele>378.0</ele><time>2026-04-16T17:54:11.999Z</time></trkpt><trkpt lat="44.43144386789005" lon="7.861116215867961"><ele>378.3333333333333</ele><time>2026-04-16T17:54:12.999Z</time></trkpt><trkpt lat="44.43160702434348" lon="7.861299163713055"><ele>378.66666666666663</ele><time>2026-04-16T17:54:13.999Z</time></trkpt><trkpt lat="44.43176901551081" lon="7.861480805010848"><ele>379.0</ele><time>2026-04-16T17:54:14.999Z</time></trkpt><trkpt lat="44.43193061001364" lon="7.861662001440502"><ele>378.66666666666663</ele><time>2026-04-16T17:54:15.999Z</time></trkpt><trkpt lat="44.43209350921808" lon="7.861844660998542"><ele>378.3333333333333</ele><time>2026-04-16T17:54:16.999Z</time></trkpt><trkpt lat="44.4322566112066" lon="7.862027547701257"><ele>378.0</ele><time>2026-04-16T17:54:17.999Z</time></trkpt><trkpt lat="44.43241947795282" lon="7.862210170787671"><ele>377.6666666666667</ele><time>2026-04-16T17:54:18.999Z</time></trkpt><trkpt lat="44.432585266315435" lon="7.862396069880904"><ele>377.33333333333337</ele><time>2026-04-16T17:54:19.999Z</time></trkpt><trkpt lat="44.43275245536069" lon="7.862583539523122"><ele>377.0</ele><time>2026-04-16T17:54:20.999Z</time></trkpt><trkpt lat="44.4329161798421" lon="7.8627671243524375"><ele>376.33333333333337</ele><time>2026-04-16T17:54:21.999Z</time></trkpt><trkpt lat="44.433083397088986" lon="7.862955002886304"><ele>375.6666666666667</ele><time>2026-04-16T17:54:22.999Z</time></trkpt><trkpt lat="44.4332492165397" lon="7.863141436360685"><ele>375.0</ele><time>2026-04-16T17:54:23.999Z</time></trkpt><trkpt lat="44.433417289867414" lon="7.863330420790317"><ele>375.0</ele><time>2026-04-16T17:54:24.999Z</time></trkpt><trkpt lat="44.433583263533826" lon="7.863518271393875"><ele>375.0</ele><time>2026-04-16T17:54:25.999Z</time></trkpt><trkpt lat="44.43374648588481" lon="7.863703007858898"><ele>375.0</ele><time>2026-04-16T17:54:26.999Z</time></trkpt><trkpt lat="44.43391303474832" lon="7.863891506829899"><ele>374.6666666666667</ele><time>2026-04-16T17:54:27.999Z</time></trkpt><trkpt lat="44.43408361564373" lon="7.864084568791132"><ele>374.33333333333337</ele><time>2026-04-16T17:54:28.999Z</time></trkpt><trkpt lat="44.43425331392946" lon="7.864272989931534"><ele>374.0</ele><time>2026-04-16T17:54:29.999Z</time></trkpt><trkpt lat="44.43444366557787" lon="7.864420216894864"><ele>374.0</ele><time>2026-04-16T17:54:30.999Z</time></trkpt><trkpt lat="44.43460983992355" lon="7.8646096439868485"><ele>374.0</ele><time>2026-04-16T17:54:31.999Z</time></trkpt><trkpt lat="44.434772615576655" lon="7.864795991146069"><ele>374.0</ele><time>2026-04-16T17:54:32.999Z</time></trkpt><trkpt lat="44.43493701825053" lon="7.864978489102009"><ele>374.0</ele><time>2026-04-16T17:54:33.999Z</time></trkpt><trkpt lat="44.43510145957005" lon="7.86516353786436"><ele>374.0</ele><time>2026-04-16T17:54:34.999Z</time></trkpt><trkpt lat="44.435262941433905" lon="7.865342874132926"><ele>374.0</ele><time>2026-04-16T17:54:35.999Z</time></trkpt><trkpt lat="44.435420744813506" lon="7.865524357101763"><ele>374.0</ele><time>2026-04-16T17:54:36.999Z</time></trkpt><trkpt lat="44.435578350378364" lon="7.865701975198651"><ele>374.0</ele><time>2026-04-16T17:54:37.999Z</time></trkpt><trkpt lat="44.435735454154134" lon="7.865880127691162"><ele>374.0</ele><time>2026-04-16T17:54:38.999Z</time></trkpt><trkpt lat="44.435893537482976" lon="7.866056111724999"><ele>374.0</ele><time>2026-04-16T17:54:39.999Z</time></trkpt><trkpt lat="44.43604665302681" lon="7.866235635809555"><ele>374.0</ele><time>2026-04-16T17:54:40.999Z</time></trkpt><trkpt lat="44.436205258443586" lon="7.866415099604767"><ele>374.0</ele><time>2026-04-16T17:54:41.999Z</time></trkpt><trkpt lat="44.43636162880389" lon="7.86658577738804"><ele>374.0</ele><time>2026-04-16T17:54:42.999Z</time></trkpt><trkpt lat="44.43652222980806" lon="7.866760093812736"><ele>374.0</ele><time>2026-04-16T17:54:43.999Z</time></trkpt><trkpt lat="44.436678836950236" lon="7.866933144809779"><ele>374.0</ele><time>2026-04-16T17:54:44.999Z</time></trkpt><trkpt lat="44.436837579601224" lon="7.867103989188963"><ele>373.6666666666667</ele><time>2026-04-16T17:54:45.999Z</time></trkpt><trkpt lat="44.436993695900796" lon="7.867277528619281"><ele>373.3333333333333</ele><time>2026-04-16T17:54:46.999Z</time></trkpt><trkpt lat="44.43714884153668" lon="7.867452993425656"><ele>373.0</ele><time>2026-04-16T17:54:47.999Z</time></trkpt><trkpt lat="44.437306194830036" lon="7.867629953688633"><ele>372.3333333333333</ele><time>2026-04-16T17:54:48.999Z</time></trkpt><trkpt lat="44.437463990049174" lon="7.867799911810591"><ele>371.6666666666667</ele><time>2026-04-16T17:54:49.999Z</time></trkpt><trkpt lat="44.437625984748635" lon="7.867964776414602"><ele>371.0</ele><time>2026-04-16T17:54:50.998Z</time></trkpt><trkpt lat="44.43778844787592" lon="7.8681320809434006"><ele>371.0</ele><time>2026-04-16T17:54:51.998Z</time></trkpt><trkpt lat="44.437949871924225" lon="7.868298146297359"><ele>371.0</ele><time>2026-04-16T17:54:52.998Z</time></trkpt><trkpt lat="44.43811560594426" lon="7.868461809399536"><ele>371.0</ele><time>2026-04-16T17:54:53.998Z</time></trkpt><trkpt lat="44.43828187439447" lon="7.8686182407552785"><ele>371.0</ele><time>2026-04-16T17:54:54.998Z</time></trkpt><trkpt lat="44.43845387868925" lon="7.868765073645474"><ele>371.0</ele><time>2026-04-16T17:54:55.998Z</time></trkpt><trkpt lat="44.43862595992205" lon="7.868917310755442"><ele>371.0</ele><time>2026-04-16T17:54:56.998Z</time></trkpt><trkpt lat="44.43879679937743" lon="7.869071738622935"><ele>371.0</ele><time>2026-04-16T17:54:57.998Z</time></trkpt><trkpt lat="44.43897259346611" lon="7.8692160831739395"><ele>371.0</ele><time>2026-04-16T17:54:58.998Z</time></trkpt><trkpt lat="44.439148494905155" lon="7.869362463578886"><ele>371.0</ele><time>2026-04-16T17:54:59.998Z</time></trkpt><trkpt lat="44.43932712368967" lon="7.869497118748359"><ele>371.0</ele><time>2026-04-16T17:55:00.998Z</time></trkpt><trkpt lat="44.43950332610914" lon="7.869635308797962"><ele>371.0</ele><time>2026-04-16T17:55:01.998Z</time></trkpt><trkpt lat="44.4396822449019" lon="7.869765342016484"><ele>371.0</ele><time>2026-04-16T17:55:02.998Z</time></trkpt><trkpt lat="44.439858551658226" lon="7.869892336076647"><ele>371.0</ele><time>2026-04-16T17:55:03.998Z</time></trkpt><trkpt lat="44.4400367429662" lon="7.870017987565726"><ele>371.0</ele><time>2026-04-16T17:55:04.998Z</time></trkpt><trkpt lat="44.44021047586311" lon="7.870159368898904"><ele>371.0</ele><time>2026-04-16T17:55:05.998Z</time></trkpt><trkpt lat="44.44038507795322" lon="7.870302007840022"><ele>370.6666666666667</ele><time>2026-04-16T17:55:06.998Z</time></trkpt><trkpt lat="44.440559182240335" lon="7.870429286309682"><ele>370.3333333333333</ele><time>2026-04-16T17:55:07.998Z</time></trkpt><trkpt lat="44.44073484213174" lon="7.870563387757314"><ele>370.0</ele><time>2026-04-16T17:55:08.998Z</time></trkpt><trkpt lat="44.440909237870805" lon="7.870699559890919"><ele>370.0</ele><time>2026-04-16T17:55:10Z</time></trkpt><trkpt lat="44.441085684269204" lon="7.870832977742745"><ele>370.0</ele><time>2026-04-16T17:55:11Z</time></trkpt><trkpt lat="44.441263676879686" lon="7.8709630357196065"><ele>370.0</ele><time>2026-04-16T17:55:12Z</time></trkpt><trkpt lat="44.44142996708401" lon="7.871092185228591"><ele>367.66666666666663</ele><time>2026-04-16T17:55:13Z</time></trkpt><trkpt lat="44.44159811179051" lon="7.871218833611133"><ele>365.3333333333333</ele><time>2026-04-16T17:55:14Z</time></trkpt><trkpt lat="44.4417579560842" lon="7.8713438754182"><ele>363.0</ele><time>2026-04-16T17:55:15Z</time></trkpt><trkpt lat="44.44192008371586" lon="7.871464392877373"><ele>363.0</ele><time>2026-04-16T17:55:16Z</time></trkpt><trkpt lat="44.44208581076407" lon="7.871589098834576"><ele>363.0</ele><time>2026-04-16T17:55:17Z</time></trkpt><trkpt lat="44.442248784164576" lon="7.8717108865884144"><ele>363.0</ele><time>2026-04-16T17:55:18Z</time></trkpt><trkpt lat="44.44241212636523" lon="7.871844822517079"><ele>361.0</ele><time>2026-04-16T17:55:19Z</time></trkpt><trkpt lat="44.442577490059584" lon="7.871973077131356"><ele>359.0</ele><time>2026-04-16T17:55:20Z</time></trkpt><trkpt lat="44.44274310268783" lon="7.872109046874945"><ele>357.0</ele><time>2026-04-16T17:55:21Z</time></trkpt><trkpt lat="44.442902118792055" lon="7.872248487800511"><ele>356.0</ele><time>2026-04-16T17:55:22Z</time></trkpt><trkpt lat="44.44305555901343" lon="7.872384450931057"><ele>355.0</ele><time>2026-04-16T17:55:23Z</time></trkpt><trkpt lat="44.44319932267309" lon="7.87251675798968"><ele>354.0</ele><time>2026-04-16T17:55:24Z</time></trkpt><trkpt lat="44.443339465101296" lon="7.872657083985873"><ele>350.0</ele><time>2026-04-16T17:55:25Z</time></trkpt><trkpt lat="44.44348342888314" lon="7.872797688430656"><ele>346.0</ele><time>2026-04-16T17:55:26Z</time></trkpt><trkpt lat="44.44361989954228" lon="7.872926340017284"><ele>342.0</ele><time>2026-04-16T17:55:27Z</time></trkpt><trkpt lat="44.4437533812623" lon="7.873055556720926"><ele>342.3333333333333</ele><time>2026-04-16T17:55:28Z</time></trkpt><trkpt lat="44.44388361264711" lon="7.873180180014427"><ele>342.66666666666663</ele><time>2026-04-16T17:55:29Z</time></trkpt><trkpt lat="44.4440084777523" lon="7.873298728937409"><ele>343.0</ele><time>2026-04-16T17:55:30Z</time></trkpt><trkpt lat="44.44413115307849" lon="7.873417777799228"><ele>338.0</ele><time>2026-04-16T17:55:31Z</time></trkpt><trkpt lat="44.44426071075955" lon="7.873547567702166"><ele>333.0</ele><time>2026-04-16T17:55:32Z</time></trkpt><trkpt lat="44.444385673024335" lon="7.873666841713375"><ele>328.0</ele><time>2026-04-16T17:55:33Z</time></trkpt><trkpt lat="44.44450936188119" lon="7.873796970233659"><ele>331.66666666666663</ele><time>2026-04-16T17:55:34Z</time></trkpt><trkpt lat="44.44463045598833" lon="7.873921705945145"><ele>335.3333333333333</ele><time>2026-04-16T17:55:35Z</time></trkpt><trkpt lat="44.4447508613982" lon="7.874048811463387"><ele>339.0</ele><time>2026-04-16T17:55:36Z</time></trkpt><trkpt lat="44.44486003096259" lon="7.874198046692039"><ele>336.25</ele><time>2026-04-16T17:55:37Z</time></trkpt><trkpt lat="44.444961480998785" lon="7.874352108147485"><ele>333.5</ele><time>2026-04-16T17:55:38Z</time></trkpt><trkpt lat="44.44503579998702" lon="7.874530773581441"><ele>330.75</ele><time>2026-04-16T17:55:39Z</time></trkpt><trkpt lat="44.445122688893186" lon="7.874697565143445"><ele>328.0</ele><time>2026-04-16T17:55:40Z</time></trkpt><trkpt lat="44.445203899636546" lon="7.874875430246075"><ele>328.0</ele><time>2026-04-16T17:55:41Z</time></trkpt><trkpt lat="44.445269963747215" lon="7.875063787601733"><ele>328.0</ele><time>2026-04-16T17:55:42Z</time></trkpt><trkpt lat="44.445332948117844" lon="7.875255725960986"><ele>328.0</ele><time>2026-04-16T17:55:43Z</time></trkpt><trkpt lat="44.44538800372083" lon="7.875462339865615"><ele>330.0</ele><time>2026-04-16T17:55:44Z</time></trkpt><trkpt lat="44.445433656031476" lon="7.875677104764556"><ele>332.0</ele><time>2026-04-16T17:55:45Z</time></trkpt><trkpt lat="44.44547460847838" lon="7.875900099992257"><ele>334.0</ele><time>2026-04-16T17:55:46Z</time></trkpt><trkpt lat="44.44551138783486" lon="7.876114145364995"><ele>334.0</ele><time>2026-04-16T17:55:47Z</time></trkpt><trkpt lat="44.445546855254854" lon="7.876320555534813"><ele>334.0</ele><time>2026-04-16T17:55:48Z</time></trkpt><trkpt lat="44.44557964631816" lon="7.876510478660529"><ele>334.0</ele><time>2026-04-16T17:55:49Z</time></trkpt><trkpt lat="44.44561196171082" lon="7.876686293012493"><ele>334.0</ele><time>2026-04-16T17:55:50Z</time></trkpt><trkpt lat="44.44564778008295" lon="7.876863918530788"><ele>330.75</ele><time>2026-04-16T17:55:51Z</time></trkpt><trkpt lat="44.4456983868957" lon="7.877041684221102"><ele>327.5</ele><time>2026-04-16T17:55:52Z</time></trkpt><trkpt lat="44.44574986901587" lon="7.877217642029289"><ele>324.25</ele><time>2026-04-16T17:55:53Z</time></trkpt><trkpt lat="44.4458181381996" lon="7.877389592990606"><ele>321.0</ele><time>2026-04-16T17:55:54Z</time></trkpt><trkpt lat="44.44589205066878" lon="7.8775476246747616"><ele>314.0</ele><time>2026-04-16T17:55:54.999Z</time></trkpt><trkpt lat="44.445985186592225" lon="7.87770438268973"><ele>307.0</ele><time>2026-04-16T17:55:55.999Z</time></trkpt><trkpt lat="44.44609595315746" lon="7.87785716408639"><ele>300.0</ele><time>2026-04-16T17:55:56.999Z</time></trkpt><trkpt lat="44.44622292556752" lon="7.87799903840591"><ele>308.3333333333333</ele><time>2026-04-16T17:55:57.999Z</time></trkpt><trkpt lat="44.44634611896303" lon="7.878128294936798"><ele>316.66666666666663</ele><time>2026-04-16T17:55:58.999Z</time></trkpt><trkpt lat="44.44646515379964" lon="7.878252050467205"><ele>325.0</ele><time>2026-04-16T17:55:59.999Z</time></trkpt><trkpt lat="44.446583524486286" lon="7.878382261403172"><ele>319.5</ele><time>2026-04-16T17:56:00.999Z</time></trkpt><trkpt lat="44.44669155930605" lon="7.8785227057785665"><ele>314.0</ele><time>2026-04-16T17:56:01.999Z</time></trkpt><trkpt lat="44.446793207481896" lon="7.878676988749109"><ele>308.5</ele><time>2026-04-16T17:56:02.999Z</time></trkpt><trkpt lat="44.44687815889576" lon="7.878834831563026"><ele>303.0</ele><time>2026-04-16T17:56:03.999Z</time></trkpt><trkpt lat="44.44695072357457" lon="7.8789991883575"><ele>303.0</ele><time>2026-04-16T17:56:04.999Z</time></trkpt><trkpt lat="44.44701104983791" lon="7.879177834195498"><ele>303.0</ele><time>2026-04-16T17:56:05.999Z</time></trkpt><trkpt lat="44.44706028146442" lon="7.87937052825093"><ele>303.0</ele><time>2026-04-16T17:56:06.999Z</time></trkpt><trkpt lat="44.447112841626186" lon="7.879577500031208"><ele>303.0</ele><time>2026-04-16T17:56:07.999Z</time></trkpt><trkpt lat="44.447122695815594" lon="7.879793370677416"><ele>307.3333333333333</ele><time>2026-04-16T17:56:08.999Z</time></trkpt><trkpt lat="44.44714108142723" lon="7.880024476092975"><ele>311.66666666666663</ele><time>2026-04-16T17:56:09.999Z</time></trkpt><trkpt lat="44.447156537961284" lon="7.880272128080203"><ele>316.0</ele><time>2026-04-16T17:56:10.999Z</time></trkpt><trkpt lat="44.447171606513386" lon="7.880534128134354"><ele>316.0</ele><time>2026-04-16T17:56:11.999Z</time></trkpt><trkpt lat="44.44718705496089" lon="7.880804448763603"><ele>316.0</ele><time>2026-04-16T17:56:12.999Z</time></trkpt><trkpt lat="44.447202747013485" lon="7.881085090280767"><ele>316.0</ele><time>2026-04-16T17:56:13.999Z</time></trkpt><trkpt lat="44.44721908951971" lon="7.881377364795564"><ele>313.66666666666663</ele><time>2026-04-16T17:56:14.999Z</time></trkpt><trkpt lat="44.44723668543352" lon="7.8816654507981285"><ele>311.3333333333333</ele><time>2026-04-16T17:56:15.999Z</time></trkpt><trkpt lat="44.44725321664536" lon="7.881943836991872"><ele>309.0</ele><time>2026-04-16T17:56:16.999Z</time></trkpt><trkpt lat="44.44726815924774" lon="7.882217033720033"><ele>308.0</ele><time>2026-04-16T17:56:17.999Z</time></trkpt><trkpt lat="44.447282961438255" lon="7.882481708892714"><ele>307.0</ele><time>2026-04-16T17:56:18.999Z</time></trkpt><trkpt lat="44.44730007028351" lon="7.882736291880276"><ele>306.0</ele><time>2026-04-16T17:56:19.999Z</time></trkpt><trkpt lat="44.44731825323452" lon="7.882985084324541"><ele>304.6666666666667</ele><time>2026-04-16T17:56:20.999Z</time></trkpt><trkpt lat="44.447336757215375" lon="7.883230682441869"><ele>303.33333333333337</ele><time>2026-04-16T17:56:21.999Z</time></trkpt><trkpt lat="44.44736156321283" lon="7.8834747277297"><ele>302.0</ele><time>2026-04-16T17:56:22.999Z</time></trkpt><trkpt lat="44.44739440358715" lon="7.883715224153345"><ele>299.6666666666667</ele><time>2026-04-16T17:56:23.999Z</time></trkpt><trkpt lat="44.4474411827846" lon="7.883957734322348"><ele>297.3333333333333</ele><time>2026-04-16T17:56:24.999Z</time></trkpt><trkpt lat="44.44750078060685" lon="7.884193722088358"><ele>295.0</ele><time>2026-04-16T17:56:25.999Z</time></trkpt><trkpt lat="44.44756907354815" lon="7.8844274594544475"><ele>294.3333333333333</ele><time>2026-04-16T17:56:26.999Z</time></trkpt><trkpt lat="44.447645137228534" lon="7.884653725352857"><ele>293.6666666666667</ele><time>2026-04-16T17:56:27.999Z</time></trkpt><trkpt lat="44.4477280724386" lon="7.884878301930851"><ele>293.0</ele><time>2026-04-16T17:56:28.999Z</time></trkpt><trkpt lat="44.447814283343156" lon="7.88510515963237"><ele>292.0</ele><time>2026-04-16T17:56:29.999Z</time></trkpt><trkpt lat="44.4479081750299" lon="7.885327570690517"><ele>291.0</ele><time>2026-04-16T17:56:30.999Z</time></trkpt><trkpt lat="44.44801111237976" lon="7.885544502306798"><ele>290.0</ele><time>2026-04-16T17:56:31.999Z</time></trkpt><trkpt lat="44.44811606116351" lon="7.885755965471974"><ele>291.0</ele><time>2026-04-16T17:56:32.999Z</time></trkpt><trkpt lat="44.44822244762028" lon="7.885970321033679"><ele>292.0</ele><time>2026-04-16T17:56:33.999Z</time></trkpt><trkpt lat="44.44832727221765" lon="7.886185290285531"><ele>293.0</ele><time>2026-04-16T17:56:34.999Z</time></trkpt><trkpt lat="44.448431266950436" lon="7.886397754389233"><ele>293.0</ele><time>2026-04-16T17:56:35.999Z</time></trkpt><trkpt lat="44.448538116589965" lon="7.886614414400426"><ele>293.0</ele><time>2026-04-16T17:56:36.999Z</time></trkpt><trkpt lat="44.44864594109106" lon="7.886831559162241"><ele>293.0</ele><time>2026-04-16T17:56:37.999Z</time></trkpt><trkpt lat="44.44875432241649" lon="7.887050427617802"><ele>293.0</ele><time>2026-04-16T17:56:38.999Z</time></trkpt><trkpt lat="44.44886412374452" lon="7.887273982358465"><ele>293.0</ele><time>2026-04-16T17:56:39.999Z</time></trkpt><trkpt lat="44.44897554048123" lon="7.887500827297074"><ele>293.0</ele><time>2026-04-16T17:56:40.999Z</time></trkpt><trkpt lat="44.449087868613425" lon="7.887726695860913"><ele>293.0</ele><time>2026-04-16T17:56:41.999Z</time></trkpt><trkpt lat="44.4492192513608" lon="7.8879358378758555"><ele>293.0</ele><time>2026-04-16T17:56:42.999Z</time></trkpt><trkpt lat="44.44933335162196" lon="7.888165911446928"><ele>293.0</ele><time>2026-04-16T17:56:43.999Z</time></trkpt><trkpt lat="44.449450338219165" lon="7.888392964842039"><ele>291.0</ele><time>2026-04-16T17:56:44.999Z</time></trkpt><trkpt lat="44.44956481132314" lon="7.888621348241951"><ele>289.0</ele><time>2026-04-16T17:56:45.999Z</time></trkpt><trkpt lat="44.449661273289095" lon="7.888883247088851"><ele>287.0</ele><time>2026-04-16T17:56:46.999Z</time></trkpt><trkpt lat="44.44977901267819" lon="7.889120489773777"><ele>287.6666666666667</ele><time>2026-04-16T17:56:47.999Z</time></trkpt><trkpt lat="44.449896904218" lon="7.889357764684023"><ele>288.3333333333333</ele><time>2026-04-16T17:56:48.999Z</time></trkpt><trkpt lat="44.45001369277847" lon="7.889591620023488"><ele>289.0</ele><time>2026-04-16T17:56:49.999Z</time></trkpt><trkpt lat="44.450130119352444" lon="7.889824750546711"><ele>289.0</ele><time>2026-04-16T17:56:50.999Z</time></trkpt><trkpt lat="44.45024659174934" lon="7.890057972825063"><ele>289.0</ele><time>2026-04-16T17:56:51.999Z</time></trkpt><trkpt lat="44.450357351263165" lon="7.890279755716956"><ele>289.0</ele><time>2026-04-16T17:56:52.999Z</time></trkpt><trkpt lat="44.450470734329365" lon="7.890506959865127"><ele>287.3333333333333</ele><time>2026-04-16T17:56:53.999Z</time></trkpt><trkpt lat="44.45058098306303" lon="7.890727921403122"><ele>285.6666666666667</ele><time>2026-04-16T17:56:54.999Z</time></trkpt><trkpt lat="44.45067838520579" lon="7.8909231357158065"><ele>284.0</ele><time>2026-04-16T17:56:55.998Z</time></trkpt><trkpt lat="44.45076745517561" lon="7.89110177076761"><ele>284.0</ele><time>2026-04-16T17:56:56.998Z</time></trkpt><trkpt lat="44.45084965121707" lon="7.891267665996604"><ele>284.0</ele><time>2026-04-16T17:56:57.998Z</time></trkpt><trkpt lat="44.45094179048262" lon="7.8914146969046515"><ele>284.0</ele><time>2026-04-16T17:56:58.998Z</time></trkpt><trkpt lat="44.45101679328469" lon="7.891565911226549"><ele>284.0</ele><time>2026-04-16T17:56:59.998Z</time></trkpt><trkpt lat="44.45106870244597" lon="7.891711904635232"><ele>284.0</ele><time>2026-04-16T17:57:00.998Z</time></trkpt><trkpt lat="44.451137504627575" lon="7.891826559814853"><ele>284.0</ele><time>2026-04-16T17:57:01.998Z</time></trkpt><trkpt lat="44.45118358215903" lon="7.891948647934467"><ele>284.0</ele><time>2026-04-16T17:57:02.998Z</time></trkpt><trkpt lat="44.4512181619317" lon="7.892070462520688"><ele>284.0</ele><time>2026-04-16T17:57:03.998Z</time></trkpt><trkpt lat="44.45124107323726" lon="7.892192594221106"><ele>284.0</ele><time>2026-04-16T17:57:04.998Z</time></trkpt><trkpt lat="44.451256399351784" lon="7.892311208941038"><ele>284.0</ele><time>2026-04-16T17:57:05.998Z</time></trkpt><trkpt lat="44.45126796946693" lon="7.892422315903275"><ele>284.0</ele><time>2026-04-16T17:57:06.998Z</time></trkpt><trkpt lat="44.451276019584945" lon="7.892514195026811"><ele>284.0</ele><time>2026-04-16T17:57:07.998Z</time></trkpt><trkpt lat="44.4512901027377" lon="7.8926883863719945"><ele>284.0</ele><time>2026-04-16T17:57:09.998Z</time></trkpt><trkpt lat="44.45140782889896" lon="7.892826861848505"><ele>284.0</ele><time>2026-04-16T17:57:11.998Z</time></trkpt><trkpt lat="44.451488256784465" lon="7.89283541371083"><ele>283.8</ele><time>2026-04-16T17:57:12.998Z</time></trkpt><trkpt lat="44.45156931459674" lon="7.892787509116437"><ele>283.59999999999997</ele><time>2026-04-16T17:57:13.998Z</time></trkpt><trkpt lat="44.451659217281616" lon="7.892736873639973"><ele>283.4</ele><time>2026-04-16T17:57:14.998Z</time></trkpt><trkpt lat="44.45175502805853" lon="7.892674481506782"><ele>283.2</ele><time>2026-04-16T17:57:16Z</time></trkpt><trkpt lat="44.45187188136489" lon="7.892604144601853"><ele>283.0</ele><time>2026-04-16T17:57:17Z</time></trkpt><trkpt lat="44.451997682507184" lon="7.892552956458183"><ele>282.0</ele><time>2026-04-16T17:57:18Z</time></trkpt><trkpt lat="44.45213986554585" lon="7.892518634492744"><ele>281.0</ele><time>2026-04-16T17:57:19Z</time></trkpt><trkpt lat="44.45228335237546" lon="7.892470226229502"><ele>280.0</ele><time>2026-04-16T17:57:20Z</time></trkpt><trkpt lat="44.45243477734829" lon="7.892393722306548"><ele>280.0</ele><time>2026-04-16T17:57:21Z</time></trkpt><trkpt lat="44.4525970430185" lon="7.8923422622981585"><ele>280.0</ele><time>2026-04-16T17:57:22Z</time></trkpt><trkpt lat="44.452760481316396" lon="7.892289160472067"><ele>280.0</ele><time>2026-04-16T17:57:23Z</time></trkpt><trkpt lat="44.45293683473088" lon="7.892227703715731"><ele>279.3333333333333</ele><time>2026-04-16T17:57:24Z</time></trkpt><trkpt lat="44.453124874272" lon="7.892167681725199"><ele>278.6666666666667</ele><time>2026-04-16T17:57:25Z</time></trkpt><trkpt lat="44.453303339067624" lon="7.892107232937593"><ele>278.0</ele><time>2026-04-16T17:57:26Z</time></trkpt><trkpt lat="44.45349066114334" lon="7.892041934713138"><ele>278.0</ele><time>2026-04-16T17:57:27Z</time></trkpt><trkpt lat="44.453683277416545" lon="7.8919749625912985"><ele>278.0</ele><time>2026-04-16T17:57:28Z</time></trkpt><trkpt lat="44.45387770111956" lon="7.891911967860374"><ele>278.0</ele><time>2026-04-16T17:57:29Z</time></trkpt><trkpt lat="44.454074336131725" lon="7.891840717576308"><ele>279.33333333333337</ele><time>2026-04-16T17:57:30Z</time></trkpt><trkpt lat="44.454275294421755" lon="7.891770829936696"><ele>280.6666666666667</ele><time>2026-04-16T17:57:31Z</time></trkpt><trkpt lat="44.454470837423045" lon="7.891699848415518"><ele>282.0</ele><time>2026-04-16T17:57:32Z</time></trkpt><trkpt lat="44.45466382611598" lon="7.8916287521954285"><ele>283.0</ele><time>2026-04-16T17:57:33Z</time></trkpt><trkpt lat="44.45485964232673" lon="7.891558804500045"><ele>284.0</ele><time>2026-04-16T17:57:34Z</time></trkpt><trkpt lat="44.45505846168714" lon="7.8914899588754785"><ele>285.0</ele><time>2026-04-16T17:57:35Z</time></trkpt><trkpt lat="44.45525694801834" lon="7.891425181374718"><ele>284.0</ele><time>2026-04-16T17:57:36Z</time></trkpt><trkpt lat="44.45546294208864" lon="7.891356340852954"><ele>283.0</ele><time>2026-04-16T17:57:37Z</time></trkpt><trkpt lat="44.45567144086488" lon="7.891283405348864"><ele>282.0</ele><time>2026-04-16T17:57:38Z</time></trkpt><trkpt lat="44.455878957100154" lon="7.891210135413952"><ele>282.0</ele><time>2026-04-16T17:57:39Z</time></trkpt><trkpt lat="44.45608347246453" lon="7.891141664831517"><ele>282.0</ele><time>2026-04-16T17:57:40Z</time></trkpt><trkpt lat="44.456293544786" lon="7.891070476725178"><ele>282.0</ele><time>2026-04-16T17:57:41Z</time></trkpt><trkpt lat="44.45650757586029" lon="7.890994435286715"><ele>280.0</ele><time>2026-04-16T17:57:42Z</time></trkpt><trkpt lat="44.456720698395756" lon="7.890922054720727"><ele>278.0</ele><time>2026-04-16T17:57:43Z</time></trkpt><trkpt lat="44.45692851615526" lon="7.89084799901498"><ele>276.0</ele><time>2026-04-16T17:57:44Z</time></trkpt><trkpt lat="44.457127962644925" lon="7.890775207251939"><ele>274.6666666666667</ele><time>2026-04-16T17:57:45Z</time></trkpt><trkpt lat="44.45733333830087" lon="7.890704957276637"><ele>273.33333333333337</ele><time>2026-04-16T17:57:46Z</time></trkpt><trkpt lat="44.45754739506035" lon="7.890628989401018"><ele>272.0</ele><time>2026-04-16T17:57:47Z</time></trkpt><trkpt lat="44.45775435151991" lon="7.890556623009306"><ele>272.0</ele><time>2026-04-16T17:57:48Z</time></trkpt><trkpt lat="44.45795122809213" lon="7.890489872680896"><ele>272.0</ele><time>2026-04-16T17:57:49Z</time></trkpt><trkpt lat="44.458141436546256" lon="7.890424329067254"><ele>272.0</ele><time>2026-04-16T17:57:50Z</time></trkpt><trkpt lat="44.458321200030724" lon="7.890363374722279"><ele>272.33333333333337</ele><time>2026-04-16T17:57:51Z</time></trkpt><trkpt lat="44.45849966532339" lon="7.890301014201879"><ele>272.6666666666667</ele><time>2026-04-16T17:57:52Z</time></trkpt><trkpt lat="44.45868038707973" lon="7.890237173256266"><ele>273.0</ele><time>2026-04-16T17:57:53Z</time></trkpt><trkpt lat="44.45885630940642" lon="7.890168352964871"><ele>273.6666666666667</ele><time>2026-04-16T17:57:54Z</time></trkpt><trkpt lat="44.459025918542174" lon="7.89009439491182"><ele>274.33333333333337</ele><time>2026-04-16T17:57:55Z</time></trkpt><trkpt lat="44.45919480565636" lon="7.890001963870446"><ele>275.0</ele><time>2026-04-16T17:57:56Z</time></trkpt><trkpt lat="44.459365214765704" lon="7.889891299059314"><ele>275.6666666666667</ele><time>2026-04-16T17:57:57Z</time></trkpt><trkpt lat="44.45953067723812" lon="7.889760836943997"><ele>276.3333333333333</ele><time>2026-04-16T17:57:58Z</time></trkpt><trkpt lat="44.45970095083937" lon="7.88962558795238"><ele>277.0</ele><time>2026-04-16T17:57:59Z</time></trkpt><trkpt lat="44.45986628431543" lon="7.889475164527009"><ele>277.0</ele><time>2026-04-16T17:58:00Z</time></trkpt><trkpt lat="44.460030195845654" lon="7.889309159099066"><ele>277.0</ele><time>2026-04-16T17:58:00.999Z</time></trkpt><trkpt lat="44.46018698902155" lon="7.889127664895264"><ele>277.0</ele><time>2026-04-16T17:58:01.999Z</time></trkpt><trkpt lat="44.46034367969469" lon="7.888935141605807"><ele>277.66666666666663</ele><time>2026-04-16T17:58:02.999Z</time></trkpt><trkpt lat="44.460500257890814" lon="7.888739873683994"><ele>278.3333333333333</ele><time>2026-04-16T17:58:03.999Z</time></trkpt><trkpt lat="44.46066080188361" lon="7.888541163125422"><ele>279.0</ele><time>2026-04-16T17:58:04.999Z</time></trkpt><trkpt lat="44.46082493718111" lon="7.88834281235167"><ele>279.0</ele><time>2026-04-16T17:58:05.999Z</time></trkpt><trkpt lat="44.46098960610365" lon="7.888140409178663"><ele>279.0</ele><time>2026-04-16T17:58:06.999Z</time></trkpt><trkpt lat="44.46115689629032" lon="7.887937045331131"><ele>279.0</ele><time>2026-04-16T17:58:07.999Z</time></trkpt><trkpt lat="44.461322591317845" lon="7.887730918355341"><ele>280.5</ele><time>2026-04-16T17:58:08.999Z</time></trkpt><trkpt lat="44.46149358636312" lon="7.887521117200595"><ele>282.0</ele><time>2026-04-16T17:58:09.999Z</time></trkpt><trkpt lat="44.461663093515426" lon="7.887310165513423"><ele>282.0</ele><time>2026-04-16T17:58:10.999Z</time></trkpt><trkpt lat="44.46183414862886" lon="7.887095139425086"><ele>282.0</ele><time>2026-04-16T17:58:11.999Z</time></trkpt><trkpt lat="44.46200450083635" lon="7.886876169803423"><ele>284.0</ele><time>2026-04-16T17:58:12.999Z</time></trkpt><trkpt lat="44.46218090272059" lon="7.8866578747558265"><ele>286.0</ele><time>2026-04-16T17:58:13.999Z</time></trkpt><trkpt lat="44.462359958207024" lon="7.886436780460301"><ele>286.0</ele><time>2026-04-16T17:58:14.999Z</time></trkpt><trkpt lat="44.46253509963218" lon="7.886217228166429"><ele>286.0</ele><time>2026-04-16T17:58:15.999Z</time></trkpt><trkpt lat="44.462717471739644" lon="7.886013178742708"><ele>286.5</ele><time>2026-04-16T17:58:16.999Z</time></trkpt><trkpt lat="44.46289158007908" lon="7.885810022473633"><ele>287.0</ele><time>2026-04-16T17:58:17.999Z</time></trkpt><trkpt lat="44.46306733614413" lon="7.885606816610826"><ele>280.0</ele><time>2026-04-16T17:58:18.999Z</time></trkpt><trkpt lat="44.46325387461024" lon="7.885410699689776"><ele>273.0</ele><time>2026-04-16T17:58:19.999Z</time></trkpt><trkpt lat="44.46344988439951" lon="7.885230595530214"><ele>274.5</ele><time>2026-04-16T17:58:20.999Z</time></trkpt><trkpt lat="44.463654107002846" lon="7.8850630718296095"><ele>276.0</ele><time>2026-04-16T17:58:21.999Z</time></trkpt><trkpt lat="44.463862182808235" lon="7.884907109512061"><ele>276.5</ele><time>2026-04-16T17:58:22.999Z</time></trkpt><trkpt lat="44.464078007272654" lon="7.884757868307283"><ele>277.0</ele><time>2026-04-16T17:58:23.999Z</time></trkpt><trkpt lat="44.46429485284589" lon="7.8846209757860715"><ele>277.0</ele><time>2026-04-16T17:58:24.999Z</time></trkpt><trkpt lat="44.464519624385055" lon="7.884499146454831"><ele>277.0</ele><time>2026-04-16T17:58:25.999Z</time></trkpt><trkpt lat="44.4647466561043" lon="7.884399449554843"><ele>276.0</ele><time>2026-04-16T17:58:26.999Z</time></trkpt><trkpt lat="44.464975957242395" lon="7.884306756549754"><ele>275.0</ele><time>2026-04-16T17:58:27.999Z</time></trkpt><trkpt lat="44.46521493301936" lon="7.884227271303354"><ele>277.5</ele><time>2026-04-16T17:58:28.999Z</time></trkpt><trkpt lat="44.46545416078066" lon="7.884166311627784"><ele>280.0</ele><time>2026-04-16T17:58:29.999Z</time></trkpt><trkpt lat="44.465695180664326" lon="7.884122092642972"><ele>280.0</ele><time>2026-04-16T17:58:30.999Z</time></trkpt><trkpt lat="44.46593426541838" lon="7.884091750534817"><ele>280.0</ele><time>2026-04-16T17:58:31.999Z</time></trkpt><trkpt lat="44.46617110958324" lon="7.8840766551404435"><ele>282.5</ele><time>2026-04-16T17:58:32.999Z</time></trkpt><trkpt lat="44.46640726567508" lon="7.884076379748381"><ele>285.0</ele><time>2026-04-16T17:58:33.999Z</time></trkpt><trkpt lat="44.466628126705345" lon="7.884090480239367"><ele>285.0</ele><time>2026-04-16T17:58:34.999Z</time></trkpt><trkpt lat="44.46684296504788" lon="7.884117948234689"><ele>285.0</ele><time>2026-04-16T17:58:35.999Z</time></trkpt><trkpt lat="44.46704717754865" lon="7.884151244042856"><ele>285.0</ele><time>2026-04-16T17:58:36.999Z</time></trkpt><trkpt lat="44.46724878820204" lon="7.884195941226122"><ele>285.0</ele><time>2026-04-16T17:58:37.999Z</time></trkpt><trkpt lat="44.46744297318733" lon="7.8842501911131855"><ele>285.0</ele><time>2026-04-16T17:58:38.999Z</time></trkpt><trkpt lat="44.46762249265952" lon="7.884312657170666"><ele>285.0</ele><time>2026-04-16T17:58:39.999Z</time></trkpt><trkpt lat="44.467803752509894" lon="7.884377641702036"><ele>285.0</ele><time>2026-04-16T17:58:40.999Z</time></trkpt><trkpt lat="44.467989500795255" lon="7.88446701682486"><ele>285.0</ele><time>2026-04-16T17:58:41.999Z</time></trkpt><trkpt lat="44.468166306351605" lon="7.884564635932203"><ele>285.0</ele><time>2026-04-16T17:58:42.999Z</time></trkpt><trkpt lat="44.468329615753746" lon="7.884663175479201"><ele>285.0</ele><time>2026-04-16T17:58:43.999Z</time></trkpt><trkpt lat="44.46848785016498" lon="7.88476266470186"><ele>285.0</ele><time>2026-04-16T17:58:44.999Z</time></trkpt><trkpt lat="44.46864352892654" lon="7.8848678872361635"><ele>285.0</ele><time>2026-04-16T17:58:45.999Z</time></trkpt><trkpt lat="44.46878955783583" lon="7.884970738527647"><ele>285.3333333333333</ele><time>2026-04-16T17:58:46.999Z</time></trkpt><trkpt lat="44.46893899641445" lon="7.885086603185291"><ele>285.66666666666663</ele><time>2026-04-16T17:58:47.999Z</time></trkpt><trkpt lat="44.4690853723994" lon="7.885208880576573"><ele>286.0</ele><time>2026-04-16T17:58:48.999Z</time></trkpt><trkpt lat="44.46923280429498" lon="7.885342164649872"><ele>286.0</ele><time>2026-04-16T17:58:49.999Z</time></trkpt><trkpt lat="44.469371976177094" lon="7.885472952288867"><ele>286.0</ele><time>2026-04-16T17:58:50.999Z</time></trkpt><trkpt lat="44.4694959794803" lon="7.88560474606623"><ele>286.0</ele><time>2026-04-16T17:58:51.999Z</time></trkpt><trkpt lat="44.469609606049886" lon="7.885733062949128"><ele>286.0</ele><time>2026-04-16T17:58:52.999Z</time></trkpt><trkpt lat="44.46971967290845" lon="7.885855988406455"><ele>286.0</ele><time>2026-04-16T17:58:53.999Z</time></trkpt><trkpt lat="44.469825072287804" lon="7.885987941086557"><ele>286.0</ele><time>2026-04-16T17:58:54.999Z</time></trkpt><trkpt lat="44.469929951324865" lon="7.886129164458096"><ele>286.0</ele><time>2026-04-16T17:58:55.999Z</time></trkpt><trkpt lat="44.470029788703215" lon="7.886268145547923"><ele>286.25</ele><time>2026-04-16T17:58:56.999Z</time></trkpt><trkpt lat="44.47013525391951" lon="7.886412514409752"><ele>286.5</ele><time>2026-04-16T17:58:57.999Z</time></trkpt><trkpt lat="44.47024192654143" lon="7.886556310067421"><ele>286.75</ele><time>2026-04-16T17:58:58.999Z</time></trkpt><trkpt lat="44.47035021850099" lon="7.886697774420049"><ele>287.0</ele><time>2026-04-16T17:58:59.998Z</time></trkpt><trkpt lat="44.470457047456584" lon="7.886849220952897"><ele>286.33333333333337</ele><time>2026-04-16T17:59:00.998Z</time></trkpt><trkpt lat="44.47056892506568" lon="7.887012547154091"><ele>285.6666666666667</ele><time>2026-04-16T17:59:01.998Z</time></trkpt><trkpt lat="44.47068510656828" lon="7.887174577863116"><ele>285.0</ele><time>2026-04-16T17:59:02.998Z</time></trkpt><trkpt lat="44.47080580436451" lon="7.887339271233133"><ele>285.0</ele><time>2026-04-16T17:59:03.998Z</time></trkpt><trkpt lat="44.47093679572185" lon="7.887506669281498"><ele>285.0</ele><time>2026-04-16T17:59:04.998Z</time></trkpt><trkpt lat="44.47107240188265" lon="7.887677391926854"><ele>285.0</ele><time>2026-04-16T17:59:05.998Z</time></trkpt><trkpt lat="44.4712157437606" lon="7.887840730789928"><ele>283.6666666666667</ele><time>2026-04-16T17:59:06.998Z</time></trkpt><trkpt lat="44.471372746274646" lon="7.888005489439583"><ele>282.33333333333337</ele><time>2026-04-16T17:59:07.998Z</time></trkpt><trkpt lat="44.47153500382865" lon="7.888170806790647"><ele>281.0</ele><time>2026-04-16T17:59:08.998Z</time></trkpt><trkpt lat="44.471703038911066" lon="7.8883332062767435"><ele>280.33333333333337</ele><time>2026-04-16T17:59:09.998Z</time></trkpt><trkpt lat="44.471874877893946" lon="7.888490315917833"><ele>279.6666666666667</ele><time>2026-04-16T17:59:10.998Z</time></trkpt><trkpt lat="44.47205200798418" lon="7.888642519602406"><ele>279.0</ele><time>2026-04-16T17:59:11.998Z</time></trkpt><trkpt lat="44.47223998084717" lon="7.888778639680239"><ele>279.0</ele><time>2026-04-16T17:59:12.998Z</time></trkpt><trkpt lat="44.47242275872222" lon="7.888904886962696"><ele>279.0</ele><time>2026-04-16T17:59:13.998Z</time></trkpt><trkpt lat="44.47261479315028" lon="7.889017548743118"><ele>279.0</ele><time>2026-04-16T17:59:14.998Z</time></trkpt><trkpt lat="44.47280893376402" lon="7.8891231705537255"><ele>278.3333333333333</ele><time>2026-04-16T17:59:15.998Z</time></trkpt><trkpt lat="44.47300860298489" lon="7.889222383396459"><ele>277.66666666666663</ele><time>2026-04-16T17:59:16.998Z</time></trkpt><trkpt lat="44.47320336850831" lon="7.889315693998729"><ele>277.0</ele><time>2026-04-16T17:59:17.998Z</time></trkpt><trkpt lat="44.47339832428242" lon="7.889390738057158"><ele>277.0</ele><time>2026-04-16T17:59:18.998Z</time></trkpt><trkpt lat="44.47360222729313" lon="7.889463704596991"><ele>277.0</ele><time>2026-04-16T17:59:19.998Z</time></trkpt><trkpt lat="44.47380227250647" lon="7.889522709527683"><ele>277.0</ele><time>2026-04-16T17:59:20.998Z</time></trkpt><trkpt lat="44.474009288900014" lon="7.889579417515887"><ele>277.3333333333333</ele><time>2026-04-16T17:59:22Z</time></trkpt><trkpt lat="44.47422469852395" lon="7.889624250980923"><ele>277.6666666666667</ele><time>2026-04-16T17:59:23Z</time></trkpt><trkpt lat="44.47444632470012" lon="7.8896533931403665"><ele>278.0</ele><time>2026-04-16T17:59:24Z</time></trkpt><trkpt lat="44.47467346679977" lon="7.889667899268842"><ele>277.0</ele><time>2026-04-16T17:59:25Z</time></trkpt><trkpt lat="44.47490419855753" lon="7.889706995135133"><ele>276.0</ele><time>2026-04-16T17:59:26Z</time></trkpt><trkpt lat="44.475142713042786" lon="7.889703557823113"><ele>276.0</ele><time>2026-04-16T17:59:27Z</time></trkpt><trkpt lat="44.4753723018871" lon="7.889697765266546"><ele>276.0</ele><time>2026-04-16T17:59:28Z</time></trkpt><trkpt lat="44.47559017745253" lon="7.889692268237266"><ele>276.0</ele><time>2026-04-16T17:59:29Z</time></trkpt><trkpt lat="44.47579873812268" lon="7.889666341900641"><ele>275.3333333333333</ele><time>2026-04-16T17:59:30Z</time></trkpt><trkpt lat="44.47600708583456" lon="7.889697066082581"><ele>274.66666666666663</ele><time>2026-04-16T17:59:31Z</time></trkpt><trkpt lat="44.476219539782846" lon="7.889717133780168"><ele>274.0</ele><time>2026-04-16T17:59:32Z</time></trkpt><trkpt lat="44.47644151761689" lon="7.889755990033311"><ele>274.0</ele><time>2026-04-16T17:59:33Z</time></trkpt><trkpt lat="44.47666809950364" lon="7.889810649966193"><ele>274.0</ele><time>2026-04-16T17:59:34Z</time></trkpt><trkpt lat="44.47690001943638" lon="7.889849012347069"><ele>274.3333333333333</ele><time>2026-04-16T17:59:35Z</time></trkpt><trkpt lat="44.477123997526256" lon="7.889919294336386"><ele>274.6666666666667</ele><time>2026-04-16T17:59:36Z</time></trkpt><trkpt lat="44.47732201592958" lon="7.8899953834892536"><ele>275.0</ele><time>2026-04-16T17:59:37Z</time></trkpt><trkpt lat="44.477515066925704" lon="7.890072305301119"><ele>275.33333333333337</ele><time>2026-04-16T17:59:38Z</time></trkpt><trkpt lat="44.477690835893995" lon="7.890176285045171"><ele>275.6666666666667</ele><time>2026-04-16T17:59:39Z</time></trkpt><trkpt lat="44.47786484179178" lon="7.89023210627121"><ele>276.0</ele><time>2026-04-16T17:59:40Z</time></trkpt><trkpt lat="44.47802731098757" lon="7.890286073888279"><ele>275.25</ele><time>2026-04-16T17:59:41Z</time></trkpt><trkpt lat="44.47817951087184" lon="7.890328401444158"><ele>274.5</ele><time>2026-04-16T17:59:42Z</time></trkpt><trkpt lat="44.47831720303832" lon="7.890357460670135"><ele>273.75</ele><time>2026-04-16T17:59:43Z</time></trkpt><trkpt lat="44.47845585574312" lon="7.890376682315134"><ele>273.0</ele><time>2026-04-16T17:59:44Z</time></trkpt><trkpt lat="44.47858960392782" lon="7.890367819632816"><ele>273.0</ele><time>2026-04-16T17:59:45Z</time></trkpt><trkpt lat="44.47871264156351" lon="7.890352321739045"><ele>273.0</ele><time>2026-04-16T17:59:46Z</time></trkpt><trkpt lat="44.478830738077235" lon="7.8903312576693425"><ele>273.0</ele><time>2026-04-16T17:59:47Z</time></trkpt><trkpt lat="44.47893596097747" lon="7.890273019234771"><ele>273.0</ele><time>2026-04-16T17:59:48Z</time></trkpt><trkpt lat="44.47903321659489" lon="7.890249427398971"><ele>273.1666666666667</ele><time>2026-04-16T17:59:49Z</time></trkpt><trkpt lat="44.47911977658742" lon="7.890230671942184"><ele>273.3333333333333</ele><time>2026-04-16T17:59:50Z</time></trkpt><trkpt lat="44.47919849944354" lon="7.890231504555049"><ele>273.5</ele><time>2026-04-16T17:59:51Z</time></trkpt><trkpt lat="44.47928189831577" lon="7.890253357423979"><ele>273.66666666666663</ele><time>2026-04-16T17:59:52Z</time></trkpt><trkpt lat="44.479357918255914" lon="7.890279315647225"><ele>273.8333333333333</ele><time>2026-04-16T17:59:53Z</time></trkpt><trkpt lat="44.47941610186122" lon="7.890315708877442"><ele>274.0</ele><time>2026-04-16T17:59:54Z</time></trkpt><trkpt lat="44.47947957684786" lon="7.890322546807104"><ele>274.0</ele><time>2026-04-16T17:59:55Z</time></trkpt><trkpt lat="44.4796086913416" lon="7.890217037377885"><ele>274.0</ele><time>2026-04-16T17:59:57Z</time></trkpt><trkpt lat="44.479645509939" lon="7.8901024422843165"><ele>274.0</ele><time>2026-04-16T17:59:58Z</time></trkpt><trkpt lat="44.479647138890456" lon="7.8899780270407796"><ele>274.0</ele><time>2026-04-16T17:59:59Z</time></trkpt><trkpt lat="44.479556379049164" lon="7.8898550941709695"><ele>274.0</ele><time>2026-04-16T18:00:00Z</time></trkpt><trkpt lat="44.47950299227744" lon="7.889732398780724"><ele>274.0</ele><time>2026-04-16T18:00:01Z</time></trkpt><trkpt lat="44.47946627343144" lon="7.889587000013179"><ele>274.0</ele><time>2026-04-16T18:00:02Z</time></trkpt><trkpt lat="44.479450424990965" lon="7.889402687161593"><ele>274.0</ele><time>2026-04-16T18:00:03Z</time></trkpt><trkpt lat="44.47943423814903" lon="7.889212474251167"><ele>274.5</ele><time>2026-04-16T18:00:04Z</time></trkpt><trkpt lat="44.479422301448906" lon="7.889018067079373"><ele>275.0</ele><time>2026-04-16T18:00:05Z</time></trkpt><trkpt lat="44.47940744049717" lon="7.888815705028587"><ele>275.5</ele><time>2026-04-16T18:00:06Z</time></trkpt><trkpt lat="44.47938931411917" lon="7.888612258908188"><ele>276.0</ele><time>2026-04-16T18:00:06.999Z</time></trkpt><trkpt lat="44.47937869879211" lon="7.888438363014528"><ele>276.40000000000003</ele><time>2026-04-16T18:00:07.999Z</time></trkpt><trkpt lat="44.47937254776453" lon="7.888313460474781"><ele>276.8</ele><time>2026-04-16T18:00:08.999Z</time></trkpt><trkpt lat="44.47938555930671" lon="7.888174326273329"><ele>277.20000000000005</ele><time>2026-04-16T18:00:09.999Z</time></trkpt><trkpt lat="44.47941950976226" lon="7.888037383239974"><ele>277.6</ele><time>2026-04-16T18:00:10.999Z</time></trkpt><trkpt lat="44.47948325820427" lon="7.887917603460956"><ele>278.0</ele><time>2026-04-16T18:00:11.999Z</time></trkpt><trkpt lat="44.479568308428355" lon="7.887810962497202"><ele>278.4</ele><time>2026-04-16T18:00:12.999Z</time></trkpt><trkpt lat="44.47966060701273" lon="7.887716400407294"><ele>278.8</ele><time>2026-04-16T18:00:13.999Z</time></trkpt><trkpt lat="44.47974465028588" lon="7.8876349020340335"><ele>279.2</ele><time>2026-04-16T18:00:14.999Z</time></trkpt><trkpt lat="44.47981772332599" lon="7.88752770463616"><ele>279.6</ele><time>2026-04-16T18:00:15.999Z</time></trkpt><trkpt lat="44.47987627194157" lon="7.887406160241497"><ele>280.0</ele><time>2026-04-16T18:00:16.999Z</time></trkpt><trkpt lat="44.47990596707644" lon="7.887268264701842"><ele>283.5</ele><time>2026-04-16T18:00:17.999Z</time></trkpt><trkpt lat="44.47991041142706" lon="7.887114460919005"><ele>287.0</ele><time>2026-04-16T18:00:18.999Z</time></trkpt><trkpt lat="44.479889590687385" lon="7.8869509873950285"><ele>290.5</ele><time>2026-04-16T18:00:19.999Z</time></trkpt><trkpt lat="44.47985057137855" lon="7.886786423871219"><ele>294.0</ele><time>2026-04-16T18:00:20.999Z</time></trkpt><trkpt lat="44.47981570533988" lon="7.8866064645092635"><ele>296.75</ele><time>2026-04-16T18:00:21.999Z</time></trkpt><trkpt lat="44.47977480795683" lon="7.886422520434338"><ele>299.5</ele><time>2026-04-16T18:00:22.999Z</time></trkpt><trkpt lat="44.47973546892437" lon="7.886228696699002"><ele>302.25</ele><time>2026-04-16T18:00:23.999Z</time></trkpt><trkpt lat="44.47969412583416" lon="7.886024868228799"><ele>305.0</ele><time>2026-04-16T18:00:24.999Z</time></trkpt><trkpt lat="44.47964330515877" lon="7.885805852830806"><ele>300.33333333333337</ele><time>2026-04-16T18:00:25.999Z</time></trkpt><trkpt lat="44.47959743525888" lon="7.8856091988881465"><ele>295.6666666666667</ele><time>2026-04-16T18:00:26.999Z</time></trkpt><trkpt lat="44.479551245648054" lon="7.885399837091973"><ele>291.0</ele><time>2026-04-16T18:00:27.999Z</time></trkpt><trkpt lat="44.47949309203976" lon="7.88518905886948"><ele>294.3333333333333</ele><time>2026-04-16T18:00:28.999Z</time></trkpt><trkpt lat="44.479412768175344" lon="7.884988107597996"><ele>297.66666666666663</ele><time>2026-04-16T18:00:29.999Z</time></trkpt><trkpt lat="44.47931426060283" lon="7.88479439484191"><ele>301.0</ele><time>2026-04-16T18:00:30.999Z</time></trkpt><trkpt lat="44.47919466073269" lon="7.884608475734304"><ele>301.0</ele><time>2026-04-16T18:00:31.999Z</time></trkpt><trkpt lat="44.479075579675325" lon="7.884424691760178"><ele>301.0</ele><time>2026-04-16T18:00:32.999Z</time></trkpt><trkpt lat="44.47895539204612" lon="7.884238763672958"><ele>301.0</ele><time>2026-04-16T18:00:33.999Z</time></trkpt><trkpt lat="44.47885536540737" lon="7.884082976686578"><ele>299.6</ele><time>2026-04-16T18:00:34.999Z</time></trkpt><trkpt lat="44.47878138602838" lon="7.883962891104723"><ele>298.20000000000005</ele><time>2026-04-16T18:00:35.999Z</time></trkpt><trkpt lat="44.4787151968564" lon="7.88383635412135"><ele>296.79999999999995</ele><time>2026-04-16T18:00:36.999Z</time></trkpt><trkpt lat="44.478669438315585" lon="7.883715767603199"><ele>295.4</ele><time>2026-04-16T18:00:37.999Z</time></trkpt><trkpt lat="44.47864075468783" lon="7.8836042775399795"><ele>294.0</ele><time>2026-04-16T18:00:38.999Z</time></trkpt><trkpt lat="44.478618319555416" lon="7.883498732819658"><ele>295.2</ele><time>2026-04-16T18:00:39.999Z</time></trkpt><trkpt lat="44.478652954068465" lon="7.883324664460251"><ele>296.4</ele><time>2026-04-16T18:00:41.999Z</time></trkpt><trkpt lat="44.47870157999324" lon="7.883248360770964"><ele>297.6</ele><time>2026-04-16T18:00:42.999Z</time></trkpt><trkpt lat="44.47877965542386" lon="7.883195774661459"><ele>298.8</ele><time>2026-04-16T18:00:43.999Z</time></trkpt><trkpt lat="44.478869467963555" lon="7.88314730548645"><ele>300.0</ele><time>2026-04-16T18:00:44.999Z</time></trkpt><trkpt lat="44.47895698038701" lon="7.8830656114901885"><ele>304.8</ele><time>2026-04-16T18:00:45.999Z</time></trkpt><trkpt lat="44.479054390260664" lon="7.8829806725709295"><ele>309.6</ele><time>2026-04-16T18:00:46.999Z</time></trkpt><trkpt lat="44.47914631077599" lon="7.88292860099814"><ele>314.4</ele><time>2026-04-16T18:00:47.999Z</time></trkpt><trkpt lat="44.47921392295581" lon="7.8828544166503915"><ele>319.2</ele><time>2026-04-16T18:00:48.999Z</time></trkpt><trkpt lat="44.47925290408989" lon="7.882751345301299"><ele>324.0</ele><time>2026-04-16T18:00:49.999Z</time></trkpt><trkpt lat="44.47928818243089" lon="7.882653971718846"><ele>324.2857142857143</ele><time>2026-04-16T18:00:50.999Z</time></trkpt><trkpt lat="44.47930066507446" lon="7.882558546254832"><ele>324.57142857142856</ele><time>2026-04-16T18:00:51.999Z</time></trkpt><trkpt lat="44.479310060023614" lon="7.882464890190775"><ele>324.8571428571429</ele><time>2026-04-16T18:00:52.999Z</time></trkpt><trkpt lat="44.47927514788051" lon="7.88236610636637"><ele>325.1428571428571</ele><time>2026-04-16T18:00:53.999Z</time></trkpt><trkpt lat="44.479204551759594" lon="7.882313912544053"><ele>325.4285714285714</ele><time>2026-04-16T18:00:54.999Z</time></trkpt><trkpt lat="44.479142900571915" lon="7.88228782354321"><ele>325.7142857142857</ele><time>2026-04-16T18:00:55.999Z</time></trkpt><trkpt lat="44.479074335771806" lon="7.882300936160708"><ele>326.0</ele><time>2026-04-16T18:00:56.999Z</time></trkpt><trkpt lat="44.47901099035354" lon="7.88233769658445"><ele>326.0</ele><time>2026-04-16T18:00:57.999Z</time></trkpt><trkpt lat="44.47893661860521" lon="7.882400385829196"><ele>326.0</ele><time>2026-04-16T18:00:58.999Z</time></trkpt><trkpt lat="44.47885158929513" lon="7.882461380126545"><ele>326.0</ele><time>2026-04-16T18:00:59.999Z</time></trkpt><trkpt lat="44.478765006371034" lon="7.882480918837978"><ele>326.0</ele><time>2026-04-16T18:01:00.999Z</time></trkpt><trkpt lat="44.4786929292513" lon="7.882466235291097"><ele>326.0</ele><time>2026-04-16T18:01:01.999Z</time></trkpt><trkpt lat="44.47862971435836" lon="7.882444788083019"><ele>326.0</ele><time>2026-04-16T18:01:02.999Z</time></trkpt><trkpt lat="44.47855571289656" lon="7.882390621091013"><ele>323.8</ele><time>2026-04-16T18:01:03.999Z</time></trkpt><trkpt lat="44.47848559434196" lon="7.88231018067476"><ele>321.6</ele><time>2026-04-16T18:01:04.999Z</time></trkpt><trkpt lat="44.47841608741267" lon="7.882213590226632"><ele>319.4</ele><time>2026-04-16T18:01:05.998Z</time></trkpt><trkpt lat="44.47833101330437" lon="7.882114144243344"><ele>317.2</ele><time>2026-04-16T18:01:06.998Z</time></trkpt><trkpt lat="44.47823009500178" lon="7.882005459969958"><ele>315.0</ele><time>2026-04-16T18:01:07.998Z</time></trkpt><trkpt lat="44.478134370478664" lon="7.881895501775172"><ele>315.0</ele><time>2026-04-16T18:01:08.998Z</time></trkpt><trkpt lat="44.47803644789116" lon="7.881784764456062"><ele>315.0</ele><time>2026-04-16T18:01:09.998Z</time></trkpt><trkpt lat="44.47793120428052" lon="7.881662617859853"><ele>315.0</ele><time>2026-04-16T18:01:10.998Z</time></trkpt><trkpt lat="44.47784399318596" lon="7.881522842929322"><ele>315.0</ele><time>2026-04-16T18:01:11.998Z</time></trkpt><trkpt lat="44.47778806145592" lon="7.881383300966627"><ele>314.6666666666667</ele><time>2026-04-16T18:01:12.998Z</time></trkpt><trkpt lat="44.47775013367349" lon="7.881262216050215"><ele>314.3333333333333</ele><time>2026-04-16T18:01:13.998Z</time></trkpt><trkpt lat="44.47770379648755" lon="7.881157616322841"><ele>314.0</ele><time>2026-04-16T18:01:14.998Z</time></trkpt><trkpt lat="44.47766713221962" lon="7.881071092192184"><ele>313.66666666666663</ele><time>2026-04-16T18:01:15.998Z</time></trkpt><trkpt lat="44.477627124651484" lon="7.880947086432762"><ele>313.3333333333333</ele><time>2026-04-16T18:01:17.998Z</time></trkpt><trkpt lat="44.47769680911857" lon="7.880867674504609"><ele>313.0</ele><time>2026-04-16T18:01:20.998Z</time></trkpt><trkpt lat="44.47773221919287" lon="7.880984930386617"><ele>313.0</ele><time>2026-04-16T18:01:22.998Z</time></trkpt><trkpt lat="44.47776682640591" lon="7.881085181805066"><ele>313.0</ele><time>2026-04-16T18:01:23.998Z</time></trkpt><trkpt lat="44.477804008141916" lon="7.8811916766216985"><ele>313.0</ele><time>2026-04-16T18:01:24.998Z</time></trkpt><trkpt lat="44.477856360626355" lon="7.88131212153109"><ele>313.0</ele><time>2026-04-16T18:01:25.998Z</time></trkpt><trkpt lat="44.477921531937625" lon="7.88142631684284"><ele>313.0</ele><time>2026-04-16T18:01:26.998Z</time></trkpt><trkpt lat="44.47800888246203" lon="7.881537411526377"><ele>313.5</ele><time>2026-04-16T18:01:28Z</time></trkpt><trkpt lat="44.47811489362783" lon="7.881632861316993"><ele>314.0</ele><time>2026-04-16T18:01:29Z</time></trkpt><trkpt lat="44.47822072414306" lon="7.881716973289808"><ele>314.5</ele><time>2026-04-16T18:01:30Z</time></trkpt><trkpt lat="44.478330936851485" lon="7.881797045565606"><ele>315.0</ele><time>2026-04-16T18:01:31Z</time></trkpt><trkpt lat="44.478418880156674" lon="7.881875971771147"><ele>315.0</ele><time>2026-04-16T18:01:32Z</time></trkpt><trkpt lat="44.47848847998537" lon="7.881940806118878"><ele>315.0</ele><time>2026-04-16T18:01:33Z</time></trkpt><trkpt lat="44.47855091525889" lon="7.882002143890546"><ele>315.0</ele><time>2026-04-16T18:01:34Z</time></trkpt><trkpt lat="44.47864992819576" lon="7.882056930694754"><ele>315.0</ele><time>2026-04-16T18:01:36Z</time></trkpt><trkpt lat="44.47872282239997" lon="7.882069016463886"><ele>315.0</ele><time>2026-04-16T18:01:38Z</time></trkpt><trkpt lat="44.47875467360092" lon="7.881986032457432"><ele>315.0</ele><time>2026-04-16T18:01:39Z</time></trkpt><trkpt lat="44.47871540994715" lon="7.8818878395513154"><ele>315.0</ele><time>2026-04-16T18:01:40Z</time></trkpt><trkpt lat="44.47866413521492" lon="7.881826468659331"><ele>315.0</ele><time>2026-04-16T18:01:41Z</time></trkpt><trkpt lat="44.478596129766" lon="7.881778790835277"><ele>315.0</ele><time>2026-04-16T18:01:42Z</time></trkpt><trkpt lat="44.47852867381439" lon="7.881710119281168"><ele>315.0</ele><time>2026-04-16T18:01:43Z</time></trkpt><trkpt lat="44.478446306096714" lon="7.881631036598924"><ele>315.0</ele><time>2026-04-16T18:01:44Z</time></trkpt><trkpt lat="44.47837171052918" lon="7.881544116214647"><ele>315.0</ele><time>2026-04-16T18:01:45Z</time></trkpt><trkpt lat="44.478288025076985" lon="7.881439271124097"><ele>320.0</ele><time>2026-04-16T18:01:46Z</time></trkpt><trkpt lat="44.47820551827791" lon="7.881316643378553"><ele>325.0</ele><time>2026-04-16T18:01:47Z</time></trkpt><trkpt lat="44.47813081043086" lon="7.881186045347642"><ele>330.0</ele><time>2026-04-16T18:01:48Z</time></trkpt><trkpt lat="44.478069797225245" lon="7.8810319851296855"><ele>335.0</ele><time>2026-04-16T18:01:49Z</time></trkpt><trkpt lat="44.478028094166284" lon="7.880889279149958"><ele>333.83333333333337</ele><time>2026-04-16T18:01:50Z</time></trkpt><trkpt lat="44.478002328929044" lon="7.88076024972787"><ele>332.6666666666667</ele><time>2026-04-16T18:01:51Z</time></trkpt><trkpt lat="44.47798735862319" lon="7.880638124611882"><ele>331.5</ele><time>2026-04-16T18:01:52Z</time></trkpt><trkpt lat="44.47796752498778" lon="7.880525586125671"><ele>330.3333333333333</ele><time>2026-04-16T18:01:53Z</time></trkpt><trkpt lat="44.477945238211454" lon="7.880410773582784"><ele>329.16666666666663</ele><time>2026-04-16T18:01:54Z</time></trkpt><trkpt lat="44.47793245603271" lon="7.88031500232664"><ele>328.0</ele><time>2026-04-16T18:01:55Z</time></trkpt><trkpt lat="44.47790121206705" lon="7.8801414040557844"><ele>329.99999999999994</ele><time>2026-04-16T18:01:57Z</time></trkpt><trkpt lat="44.4779060492148" lon="7.88004004423099"><ele>332.0</ele><time>2026-04-16T18:01:58Z</time></trkpt><trkpt lat="44.47791824668925" lon="7.879944936382356"><ele>334.0</ele><time>2026-04-16T18:01:59Z</time></trkpt><trkpt lat="44.47793655732217" lon="7.879843534546253"><ele>336.0</ele><time>2026-04-16T18:02:00Z</time></trkpt><trkpt lat="44.47795588676253" lon="7.879739557131455"><ele>338.0</ele><time>2026-04-16T18:02:01Z</time></trkpt><trkpt lat="44.47797776445379" lon="7.879634010295705"><ele>339.99999999999994</ele><time>2026-04-16T18:02:02Z</time></trkpt><trkpt lat="44.47799563941982" lon="7.879539652325914"><ele>342.0</ele><time>2026-04-16T18:02:03Z</time></trkpt><trkpt lat="44.47801073499514" lon="7.8794477632816555"><ele>345.6</ele><time>2026-04-16T18:02:04Z</time></trkpt><trkpt lat="44.47802017976467" lon="7.879344624460964"><ele>349.20000000000005</ele><time>2026-04-16T18:02:05Z</time></trkpt><trkpt lat="44.47801974872193" lon="7.879237400654644"><ele>352.8</ele><time>2026-04-16T18:02:06Z</time></trkpt><trkpt lat="44.47801529958567" lon="7.879091559736146"><ele>356.4</ele><time>2026-04-16T18:02:08Z</time></trkpt><trkpt lat="44.4780213006648" lon="7.878960188656695"><ele>360.0</ele><time>2026-04-16T18:02:10Z</time></trkpt><trkpt lat="44.478103004153326" lon="7.8788626204235195"><ele>360.4</ele><time>2026-04-16T18:02:11.999Z</time></trkpt><trkpt lat="44.47818556905221" lon="7.878729010630177"><ele>360.8</ele><time>2026-04-16T18:02:13.999Z</time></trkpt><trkpt lat="44.47825336498121" lon="7.878664371342989"><ele>361.20000000000005</ele><time>2026-04-16T18:02:14.999Z</time></trkpt><trkpt lat="44.47832829619909" lon="7.878594912923484"><ele>361.6</ele><time>2026-04-16T18:02:15.999Z</time></trkpt><trkpt lat="44.47841159925714" lon="7.8785183657630204"><ele>362.0</ele><time>2026-04-16T18:02:16.999Z</time></trkpt><trkpt lat="44.47851182026758" lon="7.878427555578229"><ele>362.0</ele><time>2026-04-16T18:02:17.999Z</time></trkpt><trkpt lat="44.47859043096905" lon="7.878342702164152"><ele>362.0</ele><time>2026-04-16T18:02:18.999Z</time></trkpt><trkpt lat="44.47865162260439" lon="7.878254330236487"><ele>362.0</ele><time>2026-04-16T18:02:19.999Z</time></trkpt><trkpt lat="44.47871369511202" lon="7.878155387872489"><ele>362.0</ele><time>2026-04-16T18:02:20.999Z</time></trkpt><trkpt lat="44.47876840573979" lon="7.8780527134646166"><ele>362.0</ele><time>2026-04-16T18:02:21.999Z</time></trkpt><trkpt lat="44.47879743663542" lon="7.877956841335263"><ele>362.0</ele><time>2026-04-16T18:02:22.999Z</time></trkpt><trkpt lat="44.47885183803434" lon="7.8778283599723835"><ele>362.40000000000003</ele><time>2026-04-16T18:02:24.999Z</time></trkpt><trkpt lat="44.47889964239355" lon="7.877766578245746"><ele>362.8</ele><time>2026-04-16T18:02:25.999Z</time></trkpt><trkpt lat="44.47897079710674" lon="7.877614251581229"><ele>363.2</ele><time>2026-04-16T18:02:27.999Z</time></trkpt><trkpt lat="44.47901966458913" lon="7.877514036068466"><ele>363.6</ele><time>2026-04-16T18:02:28.999Z</time></trkpt><trkpt lat="44.479087836604975" lon="7.877398772423494"><ele>364.0</ele><time>2026-04-16T18:02:29.999Z</time></trkpt><trkpt lat="44.47914155872525" lon="7.877313363058108"><ele>364.0</ele><time>2026-04-16T18:02:30.999Z</time></trkpt><trkpt lat="44.479209516739964" lon="7.877261179500986"><ele>364.0</ele><time>2026-04-16T18:02:31.999Z</time></trkpt><trkpt lat="44.47926795256144" lon="7.877201148206534"><ele>364.0</ele><time>2026-04-16T18:02:32.999Z</time></trkpt><trkpt lat="44.47931651818526" lon="7.877136796977511"><ele>364.0</ele><time>2026-04-16T18:02:33.999Z</time></trkpt><trkpt lat="44.479383171219624" lon="7.877054725209179"><ele>364.0</ele><time>2026-04-16T18:02:35.999Z</time></trkpt><trkpt lat="44.47944597272359" lon="7.877021205769596"><ele>364.0</ele><time>2026-04-16T18:02:50.999Z</time></trkpt><trkpt lat="44.47950435945532" lon="7.876938625105819"><ele>363.5</ele><time>2026-04-16T18:02:58.999Z</time></trkpt><trkpt lat="44.47951303334283" lon="7.876766382554073"><ele>363.0</ele><time>2026-04-16T18:03:00.999Z</time></trkpt><trkpt lat="44.479509750499396" lon="7.876649492047626"><ele>362.5</ele><time>2026-04-16T18:03:01.999Z</time></trkpt><trkpt lat="44.479504791983395" lon="7.876534504246524"><ele>362.0</ele><time>2026-04-16T18:03:02.999Z</time></trkpt><trkpt lat="44.47950360461521" lon="7.876436614138644"><ele>361.5</ele><time>2026-04-16T18:03:03.999Z</time></trkpt><trkpt lat="44.4795032102742" lon="7.876338611453814"><ele>361.0</ele><time>2026-04-16T18:03:04.999Z</time></trkpt><trkpt lat="44.47950860627268" lon="7.8762324763229845"><ele>361.0</ele><time>2026-04-16T18:03:05.999Z</time></trkpt><trkpt lat="44.47951522278117" lon="7.876120948847914"><ele>361.0</ele><time>2026-04-16T18:03:06.999Z</time></trkpt><trkpt lat="44.47952093685823" lon="7.876026865394811"><ele>361.0</ele><time>2026-04-16T18:03:07.999Z</time></trkpt><trkpt lat="44.479520205971504" lon="7.875930823704318"><ele>361.0</ele><time>2026-04-16T18:03:08.999Z</time></trkpt><trkpt lat="44.47952384213948" lon="7.8758273503309235"><ele>361.0</ele><time>2026-04-16T18:03:09.999Z</time></trkpt><trkpt lat="44.479529171560635" lon="7.8757160385433425"><ele>361.0</ele><time>2026-04-16T18:03:10.998Z</time></trkpt><trkpt lat="44.47953326494884" lon="7.87561151783908"><ele>361.0</ele><time>2026-04-16T18:03:11.998Z</time></trkpt><trkpt lat="44.4795375025246" lon="7.875521732397661"><ele>361.0</ele><time>2026-04-16T18:03:12.998Z</time></trkpt><trkpt lat="44.47954055051169" lon="7.875357242499348"><ele>361.0</ele><time>2026-04-16T18:03:14.998Z</time></trkpt><trkpt lat="44.47954356331325" lon="7.875203563787068"><ele>361.0</ele><time>2026-04-16T18:03:16.998Z</time></trkpt><trkpt lat="44.47956777427371" lon="7.875055216487472"><ele>361.0</ele><time>2026-04-16T18:03:18.998Z</time></trkpt><trkpt lat="44.47965538477296" lon="7.874981230604711"><ele>361.0</ele><time>2026-04-16T18:03:20.998Z</time></trkpt><trkpt lat="44.479726552633124" lon="7.874951194623809"><ele>361.20000000000005</ele><time>2026-04-16T18:03:21.998Z</time></trkpt><trkpt lat="44.479805419993575" lon="7.874899007569286"><ele>361.40000000000003</ele><time>2026-04-16T18:03:22.998Z</time></trkpt><trkpt lat="44.47989887221066" lon="7.8749003976034615"><ele>361.6</ele><time>2026-04-16T18:03:23.998Z</time></trkpt><trkpt lat="44.48001385764466" lon="7.874859696529312"><ele>361.8</ele><time>2026-04-16T18:03:24.998Z</time></trkpt><trkpt lat="44.48013113811132" lon="7.874815285702222"><ele>362.0</ele><time>2026-04-16T18:03:25.998Z</time></trkpt><trkpt lat="44.48024618872446" lon="7.874785150902755"><ele>362.0</ele><time>2026-04-16T18:03:26.998Z</time></trkpt><trkpt lat="44.48034107423167" lon="7.8747558152127715"><ele>362.0</ele><time>2026-04-16T18:03:27.998Z</time></trkpt><trkpt lat="44.480438936157654" lon="7.8747561384452505"><ele>362.0</ele><time>2026-04-16T18:03:28.998Z</time></trkpt><trkpt lat="44.48054105906555" lon="7.874738254037659"><ele>362.0</ele><time>2026-04-16T18:03:29.998Z</time></trkpt><trkpt lat="44.480644142740786" lon="7.874724172863827"><ele>362.0</ele><time>2026-04-16T18:03:30.998Z</time></trkpt><trkpt lat="44.480743474089024" lon="7.874684628929041"><ele>362.20000000000005</ele><time>2026-04-16T18:03:31.998Z</time></trkpt><trkpt lat="44.48082525948413" lon="7.874652715017658"><ele>362.4</ele><time>2026-04-16T18:03:32.998Z</time></trkpt><trkpt lat="44.48089426657334" lon="7.874596128693872"><ele>362.6</ele><time>2026-04-16T18:03:34Z</time></trkpt><trkpt lat="44.48097586422077" lon="7.87455717779195"><ele>362.79999999999995</ele><time>2026-04-16T18:03:35Z</time></trkpt><trkpt lat="44.48107754570682" lon="7.874499298620238"><ele>363.0</ele><time>2026-04-16T18:03:36Z</time></trkpt><trkpt lat="44.481165289038465" lon="7.874418791819456"><ele>363.0</ele><time>2026-04-16T18:03:37Z</time></trkpt><trkpt lat="44.48126095851799" lon="7.874362253559833"><ele>363.0</ele><time>2026-04-16T18:03:38Z</time></trkpt><trkpt lat="44.48133765011872" lon="7.87429239094911"><ele>363.0</ele><time>2026-04-16T18:03:39Z</time></trkpt><trkpt lat="44.48140498158017" lon="7.874233478034992"><ele>363.0</ele><time>2026-04-16T18:03:40Z</time></trkpt><trkpt lat="44.48147249226081" lon="7.874176512735986"><ele>363.0</ele><time>2026-04-16T18:03:41Z</time></trkpt><trkpt lat="44.481531652039" lon="7.874127169761159"><ele>363.0</ele><time>2026-04-16T18:03:42Z</time></trkpt><trkpt lat="44.48165631852113" lon="7.874015613327017"><ele>362.5</ele><time>2026-04-16T18:03:44Z</time></trkpt><trkpt lat="44.48174662742534" lon="7.873943515265971"><ele>362.0</ele><time>2026-04-16T18:03:45Z</time></trkpt><trkpt lat="44.481855321066064" lon="7.873856014753234"><ele>361.5</ele><time>2026-04-16T18:03:46Z</time></trkpt><trkpt lat="44.48196857864976" lon="7.873763511832908"><ele>361.0</ele><time>2026-04-16T18:03:47Z</time></trkpt><trkpt lat="44.48206873527225" lon="7.873682165039183"><ele>360.8</ele><time>2026-04-16T18:03:48Z</time></trkpt><trkpt lat="44.48217174930412" lon="7.873600000390529"><ele>360.6</ele><time>2026-04-16T18:03:49Z</time></trkpt><trkpt lat="44.482273020844154" lon="7.8735206261585455"><ele>360.4</ele><time>2026-04-16T18:03:50Z</time></trkpt><trkpt lat="44.48235979445491" lon="7.873455262681955"><ele>360.2</ele><time>2026-04-16T18:03:51Z</time></trkpt><trkpt lat="44.482436733427946" lon="7.873394203509655"><ele>360.0</ele><time>2026-04-16T18:03:52Z</time></trkpt><trkpt lat="44.48250753925563" lon="7.8733582277030445"><ele>360.0</ele><time>2026-04-16T18:03:53Z</time></trkpt><trkpt lat="44.48261358286226" lon="7.873269133621251"><ele>360.0</ele><time>2026-04-16T18:03:55Z</time></trkpt><trkpt lat="44.48269918408337" lon="7.873203772345048"><ele>360.0</ele><time>2026-04-16T18:03:57Z</time></trkpt><trkpt lat="44.48276286413812" lon="7.873175405261876"><ele>360.0</ele><time>2026-04-16T18:03:59Z</time></trkpt><trkpt lat="44.48279833046928" lon="7.873085504897524"><ele>360.0</ele><time>2026-04-16T18:04:02Z</time></trkpt><trkpt lat="44.48270347158877" lon="7.8728773836044965"><ele>360.0</ele><time>2026-04-16T18:04:03Z</time></trkpt><trkpt lat="44.482637849325705" lon="7.87277362772025"><ele>360.0</ele><time>2026-04-16T18:04:04Z</time></trkpt><trkpt lat="44.48255496303537" lon="7.87266575502142"><ele>360.0</ele><time>2026-04-16T18:04:05Z</time></trkpt><trkpt lat="44.482475068044515" lon="7.87252368737123"><ele>360.0</ele><time>2026-04-16T18:04:06Z</time></trkpt><trkpt lat="44.48239495722289" lon="7.872367445649566"><ele>360.3333333333333</ele><time>2026-04-16T18:04:07Z</time></trkpt><trkpt lat="44.48230436876148" lon="7.872210286525806"><ele>360.66666666666663</ele><time>2026-04-16T18:04:08Z</time></trkpt><trkpt lat="44.48220344496745" lon="7.872033589614445"><ele>361.0</ele><time>2026-04-16T18:04:09Z</time></trkpt><trkpt lat="44.482096630652386" lon="7.871848132350181"><ele>362.0</ele><time>2026-04-16T18:04:10Z</time></trkpt><trkpt lat="44.48198759641697" lon="7.8716495151504775"><ele>363.0</ele><time>2026-04-16T18:04:11Z</time></trkpt><trkpt lat="44.4818875308356" lon="7.871478756909769"><ele>364.0</ele><time>2026-04-16T18:04:12Z</time></trkpt><trkpt lat="44.48179175243922" lon="7.871325318704681"><ele>364.0</ele><time>2026-04-16T18:04:13Z</time></trkpt><trkpt lat="44.48170576407714" lon="7.871174203319867"><ele>364.0</ele><time>2026-04-16T18:04:14Z</time></trkpt><trkpt lat="44.4816369051546" lon="7.871053623456653"><ele>364.0</ele><time>2026-04-16T18:04:15Z</time></trkpt><trkpt lat="44.48157692207674" lon="7.870950157922369"><ele>364.0</ele><time>2026-04-16T18:04:16Z</time></trkpt><trkpt lat="44.48152466022371" lon="7.870851060772939"><ele>364.0</ele><time>2026-04-16T18:04:17Z</time></trkpt><trkpt lat="44.48143776877954" lon="7.870758392601592"><ele>364.0</ele><time>2026-04-16T18:04:18.999Z</time></trkpt><trkpt lat="44.48130804798423" lon="7.870857098890092"><ele>364.0</ele><time>2026-04-16T18:04:21.999Z</time></trkpt><trkpt lat="44.48126295531738" lon="7.870926471869119"><ele>364.0</ele><time>2026-04-16T18:04:22.999Z</time></trkpt><trkpt lat="44.481198075744594" lon="7.871008495686246"><ele>364.0</ele><time>2026-04-16T18:04:24.999Z</time></trkpt><trkpt lat="44.481285697256524" lon="7.8711976805454675"><ele>364.0</ele><time>2026-04-16T18:04:26.999Z</time></trkpt><trkpt lat="44.481289421451585" lon="7.871300870887477"><ele>364.0</ele><time>2026-04-16T18:07:20.999Z</time></trkpt><trkpt lat="44.481346454690495" lon="7.871387258787147"><ele>364.0</ele><time>2026-04-16T18:07:24.998Z</time></trkpt><trkpt lat="44.48140151360135" lon="7.871432368150208"><ele>364.0</ele><time>2026-04-16T18:08:55.999Z</time></trkpt><trkpt lat="44.481393291335834" lon="7.871563188004733"><ele>364.0</ele><time>2026-04-16T18:08:59.999Z</time></trkpt><trkpt lat="44.481445677711015" lon="7.871653021963708"><ele>364.0</ele><time>2026-04-16T18:09:01.999Z</time></trkpt><trkpt lat="44.481550152210765" lon="7.871676999374047"><ele>364.0</ele><time>2026-04-16T18:09:03.999Z</time></trkpt><trkpt lat="44.48162315005979" lon="7.871643025674322"><ele>364.0</ele><time>2026-04-16T18:09:05.999Z</time></trkpt><trkpt lat="44.481665559305895" lon="7.871548434367831"><ele>364.0</ele><time>2026-04-16T18:09:07.999Z</time></trkpt><trkpt lat="44.48163482023242" lon="7.871430505584617"><ele>364.0</ele><time>2026-04-16T18:09:09.999Z</time></trkpt><trkpt lat="44.48162159268099" lon="7.871324227508103"><ele>364.0</ele><time>2026-04-16T18:09:11.999Z</time></trkpt><trkpt lat="44.481628818386454" lon="7.871235381648625"><ele>364.0</ele><time>2026-04-16T18:09:13.999Z</time></trkpt><trkpt lat="44.48162583908019" lon="7.8709459589536195"><ele>365.0</ele><time>2026-04-16T18:09:36.998Z</time></trkpt><trkpt lat="44.48157032046567" lon="7.87087124554523"><ele>366.0</ele><time>2026-04-16T18:09:37.998Z</time></trkpt><trkpt lat="44.48151622099685" lon="7.870778366803069"><ele>367.0</ele><time>2026-04-16T18:09:38.998Z</time></trkpt><trkpt lat="44.481433080919494" lon="7.870663001596155"><ele>368.0</ele><time>2026-04-16T18:09:39.998Z</time></trkpt><trkpt lat="44.481359297394626" lon="7.870525941808732"><ele>369.0</ele><time>2026-04-16T18:09:40.998Z</time></trkpt><trkpt lat="44.4812780420345" lon="7.870402664662926"><ele>367.75</ele><time>2026-04-16T18:09:41.998Z</time></trkpt><trkpt lat="44.481192563084534" lon="7.870258781798948"><ele>366.5</ele><time>2026-04-16T18:09:42.998Z</time></trkpt><trkpt lat="44.48109485099999" lon="7.870119072781458"><ele>365.25</ele><time>2026-04-16T18:09:43.998Z</time></trkpt><trkpt lat="44.480982733704856" lon="7.86996112471061"><ele>364.0</ele><time>2026-04-16T18:09:44.998Z</time></trkpt><trkpt lat="44.48085644236639" lon="7.869795021319113"><ele>364.0</ele><time>2026-04-16T18:09:45.998Z</time></trkpt><trkpt lat="44.480741548953425" lon="7.869641777258744"><ele>364.0</ele><time>2026-04-16T18:09:46.998Z</time></trkpt><trkpt lat="44.48060258454852" lon="7.869476930363741"><ele>364.0</ele><time>2026-04-16T18:09:47.998Z</time></trkpt><trkpt lat="44.480477855791335" lon="7.869277858744865"><ele>363.75</ele><time>2026-04-16T18:09:48.998Z</time></trkpt><trkpt lat="44.48036389181068" lon="7.869115845834951"><ele>363.5</ele><time>2026-04-16T18:09:49.998Z</time></trkpt><trkpt lat="44.480256060402105" lon="7.868979829826329"><ele>363.25</ele><time>2026-04-16T18:09:50.998Z</time></trkpt><trkpt lat="44.48016386707211" lon="7.868861892139022"><ele>363.0</ele><time>2026-04-16T18:09:52Z</time></trkpt><trkpt lat="44.48009376314756" lon="7.868746899648897"><ele>363.0</ele><time>2026-04-16T18:09:53Z</time></trkpt><trkpt lat="44.480000533394275" lon="7.868676776905544"><ele>363.0</ele><time>2026-04-16T18:09:54Z</time></trkpt><trkpt lat="44.479943162563686" lon="7.868563638366247"><ele>363.0</ele><time>2026-04-16T18:09:55Z</time></trkpt><trkpt lat="44.47990025112407" lon="7.868465045205699"><ele>363.0</ele><time>2026-04-16T18:09:56Z</time></trkpt><trkpt lat="44.47988582812094" lon="7.868378237300255"><ele>363.0</ele><time>2026-04-16T18:09:57Z</time></trkpt><trkpt lat="44.479803403779066" lon="7.868262351983542"><ele>363.0</ele><time>2026-04-16T18:09:59Z</time></trkpt><trkpt lat="44.479699488663215" lon="7.868313815669987"><ele>363.0</ele><time>2026-04-16T18:10:01Z</time></trkpt><trkpt lat="44.47965638709562" lon="7.868391118368322"><ele>363.0</ele><time>2026-04-16T18:10:02Z</time></trkpt><trkpt lat="44.47962224940219" lon="7.868506395612937"><ele>363.0</ele><time>2026-04-16T18:10:03Z</time></trkpt><trkpt lat="44.47960253660955" lon="7.8686483779933605"><ele>363.0</ele><time>2026-04-16T18:10:04Z</time></trkpt><trkpt lat="44.4795643003205" lon="7.868777303839227"><ele>363.0</ele><time>2026-04-16T18:10:05Z</time></trkpt><trkpt lat="44.479500721217455" lon="7.86892710641949"><ele>363.0</ele><time>2026-04-16T18:10:06Z</time></trkpt><trkpt lat="44.47941601631976" lon="7.869091697592038"><ele>363.0</ele><time>2026-04-16T18:10:07Z</time></trkpt><trkpt lat="44.479346182750064" lon="7.869239469645634"><ele>363.0</ele><time>2026-04-16T18:10:08Z</time></trkpt><trkpt lat="44.479286115609796" lon="7.869377892435189"><ele>363.0</ele><time>2026-04-16T18:10:09Z</time></trkpt><trkpt lat="44.479220987695705" lon="7.869502086146169"><ele>363.0</ele><time>2026-04-16T18:10:10Z</time></trkpt><trkpt lat="44.47917351027633" lon="7.869597951909211"><ele>363.0</ele><time>2026-04-16T18:10:11Z</time></trkpt><trkpt lat="44.47913138392481" lon="7.869681587051847"><ele>363.0</ele><time>2026-04-16T18:10:12Z</time></trkpt><trkpt lat="44.4790848485561" lon="7.869784268295792"><ele>363.0</ele><time>2026-04-16T18:10:14Z</time></trkpt><trkpt lat="44.479150816088925" lon="7.869972191003472"><ele>363.0</ele><time>2026-04-16T18:10:16Z</time></trkpt><trkpt lat="44.479216951937694" lon="7.870037172537401"><ele>363.0</ele><time>2026-04-16T18:10:17Z</time></trkpt><trkpt lat="44.47930794045613" lon="7.870098949428852"><ele>363.0</ele><time>2026-04-16T18:10:18Z</time></trkpt><trkpt lat="44.479391544254725" lon="7.870192648322852"><ele>363.0</ele><time>2026-04-16T18:10:19Z</time></trkpt><trkpt lat="44.47947916170641" lon="7.870278367887978"><ele>363.0</ele><time>2026-04-16T18:10:20Z</time></trkpt><trkpt lat="44.47958069917058" lon="7.870385399492091"><ele>363.0</ele><time>2026-04-16T18:10:21Z</time></trkpt><trkpt lat="44.47969776291941" lon="7.870484518551"><ele>363.0</ele><time>2026-04-16T18:10:22Z</time></trkpt><trkpt lat="44.47979784739552" lon="7.870622415963961"><ele>363.0</ele><time>2026-04-16T18:10:23Z</time></trkpt><trkpt lat="44.47991392848633" lon="7.870737863795011"><ele>363.0</ele><time>2026-04-16T18:10:24Z</time></trkpt><trkpt lat="44.48003699123022" lon="7.870859298377505"><ele>363.0</ele><time>2026-04-16T18:10:25Z</time></trkpt><trkpt lat="44.480163058133016" lon="7.8709809574852825"><ele>363.0</ele><time>2026-04-16T18:10:26Z</time></trkpt><trkpt lat="44.480271967370214" lon="7.871092127170874"><ele>363.0</ele><time>2026-04-16T18:10:27Z</time></trkpt><trkpt lat="44.48035773697162" lon="7.871184511171486"><ele>363.0</ele><time>2026-04-16T18:10:28Z</time></trkpt><trkpt lat="44.48044018631547" lon="7.8712932883716125"><ele>363.0</ele><time>2026-04-16T18:10:29Z</time></trkpt><trkpt lat="44.480504251067615" lon="7.871416106856647"><ele>363.0</ele><time>2026-04-16T18:10:30Z</time></trkpt><trkpt lat="44.480567370453976" lon="7.871538799850791"><ele>363.0</ele><time>2026-04-16T18:10:31Z</time></trkpt><trkpt lat="44.480616277374295" lon="7.87165991005804"><ele>363.0</ele><time>2026-04-16T18:10:32Z</time></trkpt><trkpt lat="44.48065636067286" lon="7.87176139760023"><ele>363.0</ele><time>2026-04-16T18:10:33Z</time></trkpt><trkpt lat="44.48069276680655" lon="7.871859621432523"><ele>363.0</ele><time>2026-04-16T18:10:34Z</time></trkpt><trkpt lat="44.480725985185856" lon="7.871943757492016"><ele>363.0</ele><time>2026-04-16T18:10:35Z</time></trkpt><trkpt lat="44.48077091034926" lon="7.872083865299268"><ele>363.0</ele><time>2026-04-16T18:10:36.999Z</time></trkpt><trkpt lat="44.48074762010893" lon="7.872203460232884"><ele>363.0</ele><time>2026-04-16T18:10:38.999Z</time></trkpt><trkpt lat="44.480643420901046" lon="7.872255690566827"><ele>363.0</ele><time>2026-04-16T18:10:40.999Z</time></trkpt><trkpt lat="44.48056741470682" lon="7.872274444970362"><ele>363.0</ele><time>2026-04-16T18:10:41.999Z</time></trkpt><trkpt lat="44.4804822481099" lon="7.872332463380744"><ele>363.0</ele><time>2026-04-16T18:10:42.999Z</time></trkpt><trkpt lat="44.480392523935144" lon="7.872394604700086"><ele>363.0</ele><time>2026-04-16T18:10:43.999Z</time></trkpt><trkpt lat="44.48027347711751" lon="7.872447858171915"><ele>363.0</ele><time>2026-04-16T18:10:44.999Z</time></trkpt><trkpt lat="44.48014684105611" lon="7.872498778354285"><ele>363.0</ele><time>2026-04-16T18:10:45.999Z</time></trkpt><trkpt lat="44.480011581536935" lon="7.872531624941002"><ele>363.0</ele><time>2026-04-16T18:10:46.999Z</time></trkpt><trkpt lat="44.47989419133422" lon="7.87254695456351"><ele>363.0</ele><time>2026-04-16T18:10:47.999Z</time></trkpt><trkpt lat="44.479828584845166" lon="7.87256278827424"><ele>363.0</ele><time>2026-04-16T18:10:48.999Z</time></trkpt><trkpt lat="44.479757679609456" lon="7.8725742334468585"><ele>363.0</ele><time>2026-04-16T18:10:49.999Z</time></trkpt><trkpt lat="44.47969447254487" lon="7.872590020065451"><ele>363.0</ele><time>2026-04-16T18:10:50.999Z</time></trkpt><trkpt lat="44.47961228959572" lon="7.8726152756093075"><ele>363.0</ele><time>2026-04-16T18:10:52.999Z</time></trkpt><trkpt lat="44.47970147418369" lon="7.872836819399155"><ele>363.0</ele><time>2026-04-16T18:11:31.016Z</time></trkpt><trkpt lat="44.479696960818686" lon="7.873008750151811"><ele>363.0</ele><time>2026-04-16T18:11:49.016Z</time></trkpt><trkpt lat="44.479652733887264" lon="7.872808926741444"><ele>363.0</ele><time>2026-04-16T18:13:01.999Z</time></trkpt><trkpt lat="44.47961434603261" lon="7.8727062920089"><ele>363.0</ele><time>2026-04-16T18:13:19.999Z</time></trkpt><trkpt lat="44.47951818629915" lon="7.872756606980087"><ele>363.0</ele><time>2026-04-16T18:14:41Z</time></trkpt><trkpt lat="44.47967496330514" lon="7.872998760818202"><ele>363.0</ele><time>2026-04-16T18:14:55.015Z</time></trkpt><trkpt lat="44.47951634351721" lon="7.87286692671067"><ele>364.0</ele><time>2026-04-16T18:15:05.016Z</time></trkpt><trkpt lat="44.47960119692984" lon="7.872933925437627"><ele>363.0</ele><time>2026-04-16T18:15:19.785Z</time></trkpt></trkseg></trk></gpx>